<?xml version='1.0' encoding='UTF-8'?><gpx version="1.1" creator="JPX - https://github.com/jenetics/jpx" xmlns="http://www.topografix.com/GPX/1/1"><trk><trkseg><trkpt lat="45.5769395" lon="10.755595"><ele>205.0</ele><time>2026-04-26T06:17:49.027Z</time></trkpt><trkpt lat="45.5768739" lon="10.7555829"><ele>205.0</ele><time>2026-04-26T06:17:54.065Z</time></trkpt><trkpt lat="45.5768088" lon="10.75555"><ele>205.0</ele><time>2026-04-26T06:32:53.726Z</time></trkpt><trkpt lat="45.5767729" lon="10.7554684"><ele>205.0</ele><time>2026-04-26T06:32:55.729Z</time></trkpt><trkpt lat="45.5767947" lon="10.7553811"><ele>205.0</ele><time>2026-04-26T06:32:59.733Z</time></trkpt><trkpt lat="45.576846" lon="10.7553066"><ele>205.0</ele><time>2026-04-26T06:33:02.73Z</time></trkpt><trkpt lat="45.5769112" lon="10.7552898"><ele>205.0</ele><time>2026-04-26T06:41:34.74Z</time></trkpt><trkpt lat="45.5769943" lon="10.7552622"><ele>205.14285714285714</ele><time>2026-04-26T06:41:36.73Z</time></trkpt><trkpt lat="45.5770688" lon="10.7552428"><ele>205.28571428571428</ele><time>2026-04-26T06:41:38.736Z</time></trkpt><trkpt lat="45.5771344" lon="10.7552558"><ele>205.42857142857142</ele><time>2026-04-26T06:41:44.842Z</time></trkpt><trkpt lat="45.5771753" lon="10.7553497"><ele>205.57142857142856</ele><time>2026-04-26T06:41:49.738Z</time></trkpt><trkpt lat="45.5771862" lon="10.7554403"><ele>205.71428571428572</ele><time>2026-04-26T06:41:52.738Z</time></trkpt><trkpt lat="45.5771876" lon="10.7555599"><ele>205.85714285714283</ele><time>2026-04-26T06:42:09.714Z</time></trkpt><trkpt lat="45.577214" lon="10.7556506"><ele>206.0</ele><time>2026-04-26T06:42:23.728Z</time></trkpt><trkpt lat="45.5772253" lon="10.7557511"><ele>206.00000000000003</ele><time>2026-04-26T06:43:06.729Z</time></trkpt><trkpt lat="45.5772194" lon="10.7558853"><ele>206.0</ele><time>2026-04-26T06:43:31.74Z</time></trkpt><trkpt lat="45.5772075" lon="10.7559747"><ele>206.0</ele><time>2026-04-26T06:43:35.726Z</time></trkpt><trkpt lat="45.5771876" lon="10.7560642"><ele>206.0</ele><time>2026-04-26T06:43:56.724Z</time></trkpt><trkpt lat="45.5771685" lon="10.7561603"><ele>206.00000000000003</ele><time>2026-04-26T06:44:06.719Z</time></trkpt><trkpt lat="45.5770996" lon="10.7562577"><ele>206.0</ele><time>2026-04-26T06:45:24.826Z</time></trkpt><trkpt lat="45.5770692" lon="10.7563465"><ele>205.99999999999997</ele><time>2026-04-26T06:45:45.719Z</time></trkpt><trkpt lat="45.5770351" lon="10.7564531"><ele>206.0</ele><time>2026-04-26T06:46:08.72Z</time></trkpt><trkpt lat="45.5769995" lon="10.7565313"><ele>206.0</ele><time>2026-04-26T06:46:09.721Z</time></trkpt><trkpt lat="45.5769599" lon="10.7566133"><ele>206.0</ele><time>2026-04-26T06:46:10.72Z</time></trkpt><trkpt lat="45.5769135" lon="10.7566918"><ele>206.0</ele><time>2026-04-26T06:46:11.718Z</time></trkpt><trkpt lat="45.5768608" lon="10.7567627"><ele>205.99999999999997</ele><time>2026-04-26T06:46:12.725Z</time></trkpt><trkpt lat="45.5767925" lon="10.7568047"><ele>206.0</ele><time>2026-04-26T06:46:13.717Z</time></trkpt><trkpt lat="45.5767117" lon="10.7568345"><ele>206.00000000000003</ele><time>2026-04-26T06:46:14.721Z</time></trkpt><trkpt lat="45.5766277" lon="10.7568601"><ele>206.0</ele><time>2026-04-26T06:46:15.719Z</time></trkpt><trkpt lat="45.57654" lon="10.7568837"><ele>206.0</ele><time>2026-04-26T06:46:16.722Z</time></trkpt><trkpt lat="45.576452" lon="10.7569094"><ele>206.0</ele><time>2026-04-26T06:46:17.723Z</time></trkpt><trkpt lat="45.5763614" lon="10.7569348"><ele>206.00000000000003</ele><time>2026-04-26T06:46:18.718Z</time></trkpt><trkpt lat="45.5762712" lon="10.7569621"><ele>206.0</ele><time>2026-04-26T06:46:19.722Z</time></trkpt><trkpt lat="45.5761801" lon="10.7569889"><ele>206.4</ele><time>2026-04-26T06:46:20.719Z</time></trkpt><trkpt lat="45.5760848" lon="10.7570252"><ele>206.8</ele><time>2026-04-26T06:46:21.724Z</time></trkpt><trkpt lat="45.5759895" lon="10.7570601"><ele>207.20000000000002</ele><time>2026-04-26T06:46:22.722Z</time></trkpt><trkpt lat="45.5758936" lon="10.7570929"><ele>207.60000000000002</ele><time>2026-04-26T06:46:23.721Z</time></trkpt><trkpt lat="45.5757982" lon="10.7571205"><ele>208.0</ele><time>2026-04-26T06:46:24.718Z</time></trkpt><trkpt lat="45.5756943" lon="10.7571582"><ele>208.0</ele><time>2026-04-26T06:46:25.725Z</time></trkpt><trkpt lat="45.5755801" lon="10.7571937"><ele>208.0</ele><time>2026-04-26T06:46:26.72Z</time></trkpt><trkpt lat="45.5754558" lon="10.7572327"><ele>208.0</ele><time>2026-04-26T06:46:27.719Z</time></trkpt><trkpt lat="45.575331" lon="10.7572728"><ele>208.0</ele><time>2026-04-26T06:46:28.727Z</time></trkpt><trkpt lat="45.5752065" lon="10.7573093"><ele>207.75</ele><time>2026-04-26T06:46:29.722Z</time></trkpt><trkpt lat="45.5750833" lon="10.7573439"><ele>207.5</ele><time>2026-04-26T06:46:30.722Z</time></trkpt><trkpt lat="45.5749624" lon="10.7573766"><ele>207.25</ele><time>2026-04-26T06:46:31.725Z</time></trkpt><trkpt lat="45.5748486" lon="10.7574131"><ele>207.0</ele><time>2026-04-26T06:46:32.719Z</time></trkpt><trkpt lat="45.574739" lon="10.757445"><ele>207.0</ele><time>2026-04-26T06:46:33.725Z</time></trkpt><trkpt lat="45.5746338" lon="10.7574786"><ele>207.0</ele><time>2026-04-26T06:46:34.723Z</time></trkpt><trkpt lat="45.5745301" lon="10.75751"><ele>207.0</ele><time>2026-04-26T06:46:35.719Z</time></trkpt><trkpt lat="45.5744256" lon="10.7575439"><ele>207.0</ele><time>2026-04-26T06:46:36.733Z</time></trkpt><trkpt lat="45.5743245" lon="10.7575778"><ele>207.0</ele><time>2026-04-26T06:46:37.718Z</time></trkpt><trkpt lat="45.5742206" lon="10.7576117"><ele>206.6</ele><time>2026-04-26T06:46:38.725Z</time></trkpt><trkpt lat="45.5741202" lon="10.7576422"><ele>206.2</ele><time>2026-04-26T06:46:39.714Z</time></trkpt><trkpt lat="45.5740211" lon="10.757672"><ele>205.8</ele><time>2026-04-26T06:46:40.711Z</time></trkpt><trkpt lat="45.5739224" lon="10.757703"><ele>205.4</ele><time>2026-04-26T06:46:41.711Z</time></trkpt><trkpt lat="45.5738207" lon="10.7577349"><ele>205.0</ele><time>2026-04-26T06:46:42.711Z</time></trkpt><trkpt lat="45.5737213" lon="10.7577666"><ele>205.2</ele><time>2026-04-26T06:46:43.711Z</time></trkpt><trkpt lat="45.5736242" lon="10.7577987"><ele>205.4</ele><time>2026-04-26T06:46:44.72Z</time></trkpt><trkpt lat="45.5735231" lon="10.7578284"><ele>205.60000000000002</ele><time>2026-04-26T06:46:45.72Z</time></trkpt><trkpt lat="45.5734216" lon="10.7578649"><ele>205.8</ele><time>2026-04-26T06:46:46.719Z</time></trkpt><trkpt lat="45.5733181" lon="10.7579034"><ele>206.0</ele><time>2026-04-26T06:46:47.723Z</time></trkpt><trkpt lat="45.5732148" lon="10.7579368"><ele>206.0</ele><time>2026-04-26T06:46:48.724Z</time></trkpt><trkpt lat="45.5731128" lon="10.7579683"><ele>206.0</ele><time>2026-04-26T06:46:49.726Z</time></trkpt><trkpt lat="45.5730137" lon="10.7579969"><ele>206.0</ele><time>2026-04-26T06:46:50.72Z</time></trkpt><trkpt lat="45.5729149" lon="10.7580256"><ele>206.0</ele><time>2026-04-26T06:46:51.72Z</time></trkpt><trkpt lat="45.5728164" lon="10.7580515"><ele>206.0</ele><time>2026-04-26T06:46:52.721Z</time></trkpt><trkpt lat="45.5727164" lon="10.7580798"><ele>206.20000000000002</ele><time>2026-04-26T06:46:53.718Z</time></trkpt><trkpt lat="45.5726149" lon="10.7581106"><ele>206.4</ele><time>2026-04-26T06:46:54.714Z</time></trkpt><trkpt lat="45.5725141" lon="10.7581449"><ele>206.6</ele><time>2026-04-26T06:46:55.717Z</time></trkpt><trkpt lat="45.5724172" lon="10.75818"><ele>206.8</ele><time>2026-04-26T06:46:56.715Z</time></trkpt><trkpt lat="45.5723223" lon="10.7582148"><ele>207.0</ele><time>2026-04-26T06:46:57.718Z</time></trkpt><trkpt lat="45.5722328" lon="10.7582479"><ele>207.0</ele><time>2026-04-26T06:46:58.72Z</time></trkpt><trkpt lat="45.5721457" lon="10.7582778"><ele>207.0</ele><time>2026-04-26T06:46:59.718Z</time></trkpt><trkpt lat="45.5720562" lon="10.7583043"><ele>207.0</ele><time>2026-04-26T06:47:00.718Z</time></trkpt><trkpt lat="45.5719625" lon="10.7583441"><ele>207.0</ele><time>2026-04-26T06:47:01.723Z</time></trkpt><trkpt lat="45.5718652" lon="10.7584116"><ele>207.0</ele><time>2026-04-26T06:47:02.717Z</time></trkpt><trkpt lat="45.5717731" lon="10.7585068"><ele>206.39999999999998</ele><time>2026-04-26T06:47:03.719Z</time></trkpt><trkpt lat="45.5716869" lon="10.7586074"><ele>205.79999999999998</ele><time>2026-04-26T06:47:04.718Z</time></trkpt><trkpt lat="45.5715992" lon="10.7586964"><ele>205.2</ele><time>2026-04-26T06:47:05.718Z</time></trkpt><trkpt lat="45.5715092" lon="10.7587818"><ele>204.6</ele><time>2026-04-26T06:47:06.717Z</time></trkpt><trkpt lat="45.5714108" lon="10.7588632"><ele>204.0</ele><time>2026-04-26T06:47:07.726Z</time></trkpt><trkpt lat="45.5713103" lon="10.7589483"><ele>204.0</ele><time>2026-04-26T06:47:08.723Z</time></trkpt><trkpt lat="45.5712082" lon="10.7590312"><ele>204.0</ele><time>2026-04-26T06:47:09.724Z</time></trkpt><trkpt lat="45.5711063" lon="10.7591123"><ele>204.0</ele><time>2026-04-26T06:47:10.712Z</time></trkpt><trkpt lat="45.5710037" lon="10.7591903"><ele>204.0</ele><time>2026-04-26T06:47:11.717Z</time></trkpt><trkpt lat="45.5708968" lon="10.7592675"><ele>203.75</ele><time>2026-04-26T06:47:12.715Z</time></trkpt><trkpt lat="45.5707828" lon="10.759357"><ele>203.5</ele><time>2026-04-26T06:47:13.717Z</time></trkpt><trkpt lat="45.5706613" lon="10.7594554"><ele>203.25</ele><time>2026-04-26T06:47:14.723Z</time></trkpt><trkpt lat="45.5705404" lon="10.7595528"><ele>203.0</ele><time>2026-04-26T06:47:15.718Z</time></trkpt><trkpt lat="45.5704199" lon="10.7596492"><ele>202.75</ele><time>2026-04-26T06:47:16.728Z</time></trkpt><trkpt lat="45.5703019" lon="10.7597421"><ele>202.5</ele><time>2026-04-26T06:47:17.721Z</time></trkpt><trkpt lat="45.5701846" lon="10.7598351"><ele>202.25</ele><time>2026-04-26T06:47:18.725Z</time></trkpt><trkpt lat="45.5700673" lon="10.7599281"><ele>202.0</ele><time>2026-04-26T06:47:19.724Z</time></trkpt><trkpt lat="45.5699506" lon="10.7600211"><ele>202.0</ele><time>2026-04-26T06:47:20.719Z</time></trkpt><trkpt lat="45.5698344" lon="10.7601161"><ele>202.0</ele><time>2026-04-26T06:47:21.722Z</time></trkpt><trkpt lat="45.5697157" lon="10.7602099"><ele>202.0</ele><time>2026-04-26T06:47:22.722Z</time></trkpt><trkpt lat="45.5695948" lon="10.7603016"><ele>202.0</ele><time>2026-04-26T06:47:23.719Z</time></trkpt><trkpt lat="45.5694749" lon="10.7603962"><ele>202.0</ele><time>2026-04-26T06:47:24.72Z</time></trkpt><trkpt lat="45.5693531" lon="10.7604892"><ele>202.0</ele><time>2026-04-26T06:47:25.722Z</time></trkpt><trkpt lat="45.5692261" lon="10.7605835"><ele>202.0</ele><time>2026-04-26T06:47:26.722Z</time></trkpt><trkpt lat="45.5691049" lon="10.7606763"><ele>202.0</ele><time>2026-04-26T06:47:27.724Z</time></trkpt><trkpt lat="45.5689852" lon="10.7607694"><ele>202.0</ele><time>2026-04-26T06:47:28.725Z</time></trkpt><trkpt lat="45.5688698" lon="10.7608617"><ele>202.0</ele><time>2026-04-26T06:47:29.723Z</time></trkpt><trkpt lat="45.5687533" lon="10.7609538"><ele>202.0</ele><time>2026-04-26T06:47:30.725Z</time></trkpt><trkpt lat="45.5686357" lon="10.7610479"><ele>202.0</ele><time>2026-04-26T06:47:31.724Z</time></trkpt><trkpt lat="45.5685247" lon="10.7611379"><ele>201.5</ele><time>2026-04-26T06:47:32.722Z</time></trkpt><trkpt lat="45.5684174" lon="10.7612296"><ele>201.0</ele><time>2026-04-26T06:47:33.724Z</time></trkpt><trkpt lat="45.5683033" lon="10.7613232"><ele>200.5</ele><time>2026-04-26T06:47:34.723Z</time></trkpt><trkpt lat="45.5681546" lon="10.7614324"><ele>200.0</ele><time>2026-04-26T06:47:35.724Z</time></trkpt><trkpt lat="45.5680114" lon="10.7615407"><ele>200.0</ele><time>2026-04-26T06:47:36.725Z</time></trkpt><trkpt lat="45.5678761" lon="10.7616443"><ele>200.0</ele><time>2026-04-26T06:47:37.724Z</time></trkpt><trkpt lat="45.5677436" lon="10.7617454"><ele>200.0</ele><time>2026-04-26T06:47:38.733Z</time></trkpt><trkpt lat="45.5676126" lon="10.761851"><ele>199.33333333333334</ele><time>2026-04-26T06:47:39.72Z</time></trkpt><trkpt lat="45.5674781" lon="10.7619609"><ele>198.66666666666669</ele><time>2026-04-26T06:47:40.728Z</time></trkpt><trkpt lat="45.5673423" lon="10.7620625"><ele>198.0</ele><time>2026-04-26T06:47:41.723Z</time></trkpt><trkpt lat="45.5672055" lon="10.7621702"><ele>198.0</ele><time>2026-04-26T06:47:42.722Z</time></trkpt><trkpt lat="45.5670682" lon="10.7622743"><ele>198.0</ele><time>2026-04-26T06:47:43.725Z</time></trkpt><trkpt lat="45.5669367" lon="10.7623853"><ele>198.0</ele><time>2026-04-26T06:47:44.725Z</time></trkpt><trkpt lat="45.5668004" lon="10.762496"><ele>198.0</ele><time>2026-04-26T06:47:45.723Z</time></trkpt><trkpt lat="45.56666" lon="10.762601"><ele>198.0</ele><time>2026-04-26T06:47:46.725Z</time></trkpt><trkpt lat="45.566519" lon="10.7626878"><ele>198.0</ele><time>2026-04-26T06:47:47.723Z</time></trkpt><trkpt lat="45.5663802" lon="10.7627804"><ele>198.0</ele><time>2026-04-26T06:47:48.727Z</time></trkpt><trkpt lat="45.5662376" lon="10.7628596"><ele>198.0</ele><time>2026-04-26T06:47:49.723Z</time></trkpt><trkpt lat="45.5660848" lon="10.7629222"><ele>198.0</ele><time>2026-04-26T06:47:50.717Z</time></trkpt><trkpt lat="45.5659248" lon="10.7629696"><ele>198.66666666666669</ele><time>2026-04-26T06:47:51.72Z</time></trkpt><trkpt lat="45.5657604" lon="10.7630125"><ele>199.33333333333334</ele><time>2026-04-26T06:47:52.72Z</time></trkpt><trkpt lat="45.5655867" lon="10.7630479"><ele>200.0</ele><time>2026-04-26T06:47:53.722Z</time></trkpt><trkpt lat="45.5654075" lon="10.7630839"><ele>200.66666666666669</ele><time>2026-04-26T06:47:54.718Z</time></trkpt><trkpt lat="45.565234" lon="10.7631058"><ele>201.33333333333331</ele><time>2026-04-26T06:47:55.723Z</time></trkpt><trkpt lat="45.5650608" lon="10.7631453"><ele>202.0</ele><time>2026-04-26T06:47:56.716Z</time></trkpt><trkpt lat="45.5648872" lon="10.7631913"><ele>202.0</ele><time>2026-04-26T06:47:57.724Z</time></trkpt><trkpt lat="45.5647199" lon="10.76324"><ele>202.0</ele><time>2026-04-26T06:47:58.723Z</time></trkpt><trkpt lat="45.5645569" lon="10.7632901"><ele>202.0</ele><time>2026-04-26T06:47:59.716Z</time></trkpt><trkpt lat="45.5643972" lon="10.7633589"><ele>202.0</ele><time>2026-04-26T06:48:00.716Z</time></trkpt><trkpt lat="45.5642395" lon="10.7634368"><ele>202.0</ele><time>2026-04-26T06:48:01.724Z</time></trkpt><trkpt lat="45.5640823" lon="10.7635158"><ele>202.0</ele><time>2026-04-26T06:48:02.719Z</time></trkpt><trkpt lat="45.5639354" lon="10.7635883"><ele>201.33333333333331</ele><time>2026-04-26T06:48:03.722Z</time></trkpt><trkpt lat="45.5637815" lon="10.763669"><ele>200.66666666666669</ele><time>2026-04-26T06:48:04.723Z</time></trkpt><trkpt lat="45.5636198" lon="10.7637456"><ele>200.0</ele><time>2026-04-26T06:48:05.722Z</time></trkpt><trkpt lat="45.563471" lon="10.7638157"><ele>199.75</ele><time>2026-04-26T06:48:06.723Z</time></trkpt><trkpt lat="45.5633325" lon="10.7638871"><ele>199.5</ele><time>2026-04-26T06:48:07.724Z</time></trkpt><trkpt lat="45.5631975" lon="10.7639523"><ele>199.25</ele><time>2026-04-26T06:48:08.725Z</time></trkpt><trkpt lat="45.563062" lon="10.7640269"><ele>199.0</ele><time>2026-04-26T06:48:09.73Z</time></trkpt><trkpt lat="45.5629309" lon="10.764107"><ele>198.0</ele><time>2026-04-26T06:48:10.72Z</time></trkpt><trkpt lat="45.5627847" lon="10.7641849"><ele>197.0</ele><time>2026-04-26T06:48:11.727Z</time></trkpt><trkpt lat="45.5626408" lon="10.7642682"><ele>196.0</ele><time>2026-04-26T06:48:12.726Z</time></trkpt><trkpt lat="45.5624998" lon="10.7643405"><ele>196.5</ele><time>2026-04-26T06:48:13.718Z</time></trkpt><trkpt lat="45.5623584" lon="10.7644095"><ele>197.0</ele><time>2026-04-26T06:48:14.719Z</time></trkpt><trkpt lat="45.5622284" lon="10.7644785"><ele>197.5</ele><time>2026-04-26T06:48:15.72Z</time></trkpt><trkpt lat="45.5620883" lon="10.7645552"><ele>198.0</ele><time>2026-04-26T06:48:16.725Z</time></trkpt><trkpt lat="45.5619483" lon="10.7646535"><ele>198.60000000000002</ele><time>2026-04-26T06:48:17.716Z</time></trkpt><trkpt lat="45.5618225" lon="10.7647538"><ele>199.20000000000002</ele><time>2026-04-26T06:48:18.725Z</time></trkpt><trkpt lat="45.5617202" lon="10.7648522"><ele>199.8</ele><time>2026-04-26T06:48:19.717Z</time></trkpt><trkpt lat="45.5616424" lon="10.7649205"><ele>200.4</ele><time>2026-04-26T06:48:20.714Z</time></trkpt><trkpt lat="45.5615718" lon="10.7649921"><ele>201.0</ele><time>2026-04-26T06:48:21.71Z</time></trkpt><trkpt lat="45.5615168" lon="10.765036"><ele>201.0</ele><time>2026-04-26T06:48:22.719Z</time></trkpt><trkpt lat="45.5614669" lon="10.7649587"><ele>201.0</ele><time>2026-04-26T06:48:25.708Z</time></trkpt><trkpt lat="45.5614633" lon="10.7647598"><ele>201.0</ele><time>2026-04-26T06:48:27.709Z</time></trkpt><trkpt lat="45.5614814" lon="10.764603"><ele>201.0</ele><time>2026-04-26T06:48:28.708Z</time></trkpt><trkpt lat="45.5615029" lon="10.7644274"><ele>201.0</ele><time>2026-04-26T06:48:29.7Z</time></trkpt><trkpt lat="45.5615088" lon="10.7642431"><ele>201.25</ele><time>2026-04-26T06:48:30.705Z</time></trkpt><trkpt lat="45.561521" lon="10.7640578"><ele>201.5</ele><time>2026-04-26T06:48:31.71Z</time></trkpt><trkpt lat="45.5615257" lon="10.7638814"><ele>201.75</ele><time>2026-04-26T06:48:32.704Z</time></trkpt><trkpt lat="45.5615195" lon="10.7637197"><ele>202.0</ele><time>2026-04-26T06:48:33.698Z</time></trkpt><trkpt lat="45.5615116" lon="10.7635529"><ele>202.25</ele><time>2026-04-26T06:48:34.702Z</time></trkpt><trkpt lat="45.5615095" lon="10.7633941"><ele>202.5</ele><time>2026-04-26T06:48:35.703Z</time></trkpt><trkpt lat="45.5615061" lon="10.7632277"><ele>202.75</ele><time>2026-04-26T06:48:36.701Z</time></trkpt><trkpt lat="45.5614958" lon="10.7630545"><ele>203.0</ele><time>2026-04-26T06:48:37.702Z</time></trkpt><trkpt lat="45.5614875" lon="10.7628777"><ele>204.0</ele><time>2026-04-26T06:48:38.694Z</time></trkpt><trkpt lat="45.5614812" lon="10.7626923"><ele>205.0</ele><time>2026-04-26T06:48:39.7Z</time></trkpt><trkpt lat="45.561462" lon="10.7624948"><ele>206.0</ele><time>2026-04-26T06:48:40.712Z</time></trkpt><trkpt lat="45.5614305" lon="10.7622952"><ele>207.0</ele><time>2026-04-26T06:48:41.7Z</time></trkpt><trkpt lat="45.5613823" lon="10.7620836"><ele>207.0</ele><time>2026-04-26T06:48:42.707Z</time></trkpt><trkpt lat="45.5613167" lon="10.7618735"><ele>207.0</ele><time>2026-04-26T06:48:43.7Z</time></trkpt><trkpt lat="45.5612553" lon="10.7616482"><ele>207.0</ele><time>2026-04-26T06:48:44.708Z</time></trkpt><trkpt lat="45.5611881" lon="10.7614382"><ele>213.33333333333331</ele><time>2026-04-26T06:48:45.712Z</time></trkpt><trkpt lat="45.5611203" lon="10.7612282"><ele>219.66666666666666</ele><time>2026-04-26T06:48:46.717Z</time></trkpt><trkpt lat="45.5610565" lon="10.7610302"><ele>226.0</ele><time>2026-04-26T06:48:47.712Z</time></trkpt><trkpt lat="45.5609993" lon="10.7608155"><ele>226.0</ele><time>2026-04-26T06:48:48.714Z</time></trkpt><trkpt lat="45.5609567" lon="10.7606102"><ele>226.0</ele><time>2026-04-26T06:48:49.718Z</time></trkpt><trkpt lat="45.5609257" lon="10.7604259"><ele>226.0</ele><time>2026-04-26T06:48:50.71Z</time></trkpt><trkpt lat="45.5609076" lon="10.7602652"><ele>226.0</ele><time>2026-04-26T06:48:51.717Z</time></trkpt><trkpt lat="45.560884" lon="10.7601242"><ele>224.0</ele><time>2026-04-26T06:48:52.716Z</time></trkpt><trkpt lat="45.5608339" lon="10.759986"><ele>222.0</ele><time>2026-04-26T06:48:53.72Z</time></trkpt><trkpt lat="45.5607518" lon="10.7598353"><ele>220.0</ele><time>2026-04-26T06:48:54.713Z</time></trkpt><trkpt lat="45.5606651" lon="10.7596887"><ele>218.0</ele><time>2026-04-26T06:48:55.718Z</time></trkpt><trkpt lat="45.5605639" lon="10.7595411"><ele>218.0</ele><time>2026-04-26T06:48:56.721Z</time></trkpt><trkpt lat="45.5604639" lon="10.7593855"><ele>218.0</ele><time>2026-04-26T06:48:57.722Z</time></trkpt><trkpt lat="45.5603591" lon="10.7592286"><ele>218.0</ele><time>2026-04-26T06:48:58.716Z</time></trkpt><trkpt lat="45.5602575" lon="10.7590744"><ele>218.0</ele><time>2026-04-26T06:48:59.726Z</time></trkpt><trkpt lat="45.5601563" lon="10.7589119"><ele>217.25</ele><time>2026-04-26T06:49:00.724Z</time></trkpt><trkpt lat="45.5600675" lon="10.758754"><ele>216.5</ele><time>2026-04-26T06:49:01.718Z</time></trkpt><trkpt lat="45.5599759" lon="10.7586049"><ele>215.75</ele><time>2026-04-26T06:49:02.717Z</time></trkpt><trkpt lat="45.5598696" lon="10.7584519"><ele>215.0</ele><time>2026-04-26T06:49:03.72Z</time></trkpt><trkpt lat="45.559757" lon="10.7582902"><ele>215.0</ele><time>2026-04-26T06:49:04.711Z</time></trkpt><trkpt lat="45.5596489" lon="10.7581241"><ele>215.0</ele><time>2026-04-26T06:49:05.715Z</time></trkpt><trkpt lat="45.5595361" lon="10.7579624"><ele>215.0</ele><time>2026-04-26T06:49:06.712Z</time></trkpt><trkpt lat="45.5594216" lon="10.7578143"><ele>218.66666666666669</ele><time>2026-04-26T06:49:07.707Z</time></trkpt><trkpt lat="45.5593086" lon="10.7576753"><ele>222.33333333333331</ele><time>2026-04-26T06:49:08.713Z</time></trkpt><trkpt lat="45.5592024" lon="10.7575163"><ele>226.0</ele><time>2026-04-26T06:49:09.707Z</time></trkpt><trkpt lat="45.5591039" lon="10.7573608"><ele>226.0</ele><time>2026-04-26T06:49:10.706Z</time></trkpt><trkpt lat="45.5590183" lon="10.757195"><ele>226.0</ele><time>2026-04-26T06:49:11.727Z</time></trkpt><trkpt lat="45.5589364" lon="10.7570256"><ele>226.0</ele><time>2026-04-26T06:49:12.709Z</time></trkpt><trkpt lat="45.558868" lon="10.7568348"><ele>226.0</ele><time>2026-04-26T06:49:13.726Z</time></trkpt><trkpt lat="45.5588093" lon="10.756635"><ele>226.25</ele><time>2026-04-26T06:49:14.716Z</time></trkpt><trkpt lat="45.5587565" lon="10.7564443"><ele>226.5</ele><time>2026-04-26T06:49:15.714Z</time></trkpt><trkpt lat="45.5587065" lon="10.7562772"><ele>226.75</ele><time>2026-04-26T06:49:16.726Z</time></trkpt><trkpt lat="45.5586456" lon="10.7561088"><ele>227.0</ele><time>2026-04-26T06:49:17.72Z</time></trkpt><trkpt lat="45.5585784" lon="10.755953"><ele>227.0</ele><time>2026-04-26T06:49:18.723Z</time></trkpt><trkpt lat="45.558501" lon="10.7557987"><ele>227.0</ele><time>2026-04-26T06:49:19.725Z</time></trkpt><trkpt lat="45.5584269" lon="10.7556396"><ele>227.0</ele><time>2026-04-26T06:49:20.718Z</time></trkpt><trkpt lat="45.5583601" lon="10.7554787"><ele>227.0</ele><time>2026-04-26T06:49:21.717Z</time></trkpt><trkpt lat="45.558295" lon="10.7553321"><ele>227.00000000000003</ele><time>2026-04-26T06:49:22.717Z</time></trkpt><trkpt lat="45.5582421" lon="10.7552065"><ele>227.0</ele><time>2026-04-26T06:49:23.712Z</time></trkpt><trkpt lat="45.5581956" lon="10.7551081"><ele>227.0</ele><time>2026-04-26T06:49:24.723Z</time></trkpt><trkpt lat="45.5581597" lon="10.7550153"><ele>227.0</ele><time>2026-04-26T06:49:26.724Z</time></trkpt><trkpt lat="45.5580986" lon="10.7548928"><ele>227.00000000000003</ele><time>2026-04-26T06:49:28.725Z</time></trkpt><trkpt lat="45.5580558" lon="10.7548023"><ele>227.0</ele><time>2026-04-26T06:49:29.715Z</time></trkpt><trkpt lat="45.5580116" lon="10.7546933"><ele>227.0</ele><time>2026-04-26T06:49:30.721Z</time></trkpt><trkpt lat="45.5579677" lon="10.754569"><ele>227.0</ele><time>2026-04-26T06:49:31.713Z</time></trkpt><trkpt lat="45.5579275" lon="10.7544351"><ele>227.0</ele><time>2026-04-26T06:49:32.716Z</time></trkpt><trkpt lat="45.5579125" lon="10.7542984"><ele>227.0</ele><time>2026-04-26T06:49:33.72Z</time></trkpt><trkpt lat="45.5579097" lon="10.7541394"><ele>227.0</ele><time>2026-04-26T06:49:34.722Z</time></trkpt><trkpt lat="45.5579045" lon="10.7539848"><ele>227.0</ele><time>2026-04-26T06:49:35.718Z</time></trkpt><trkpt lat="45.5578985" lon="10.7538397"><ele>227.0</ele><time>2026-04-26T06:49:36.72Z</time></trkpt><trkpt lat="45.5578783" lon="10.7537043"><ele>227.0</ele><time>2026-04-26T06:49:37.72Z</time></trkpt><trkpt lat="45.5578298" lon="10.753575"><ele>227.0</ele><time>2026-04-26T06:49:38.723Z</time></trkpt><trkpt lat="45.5577663" lon="10.7534501"><ele>227.0</ele><time>2026-04-26T06:49:39.715Z</time></trkpt><trkpt lat="45.5576857" lon="10.7533325"><ele>227.0</ele><time>2026-04-26T06:49:40.725Z</time></trkpt><trkpt lat="45.5575799" lon="10.7532092"><ele>227.0</ele><time>2026-04-26T06:49:41.734Z</time></trkpt><trkpt lat="45.5574708" lon="10.7530887"><ele>227.0</ele><time>2026-04-26T06:49:42.719Z</time></trkpt><trkpt lat="45.5573592" lon="10.752964"><ele>227.0</ele><time>2026-04-26T06:49:43.726Z</time></trkpt><trkpt lat="45.5572477" lon="10.7528346"><ele>227.0</ele><time>2026-04-26T06:49:44.735Z</time></trkpt><trkpt lat="45.5571282" lon="10.7527105"><ele>227.0</ele><time>2026-04-26T06:49:45.724Z</time></trkpt><trkpt lat="45.5569743" lon="10.7526001"><ele>227.0</ele><time>2026-04-26T06:49:46.719Z</time></trkpt><trkpt lat="45.5568285" lon="10.7525036"><ele>227.66666666666669</ele><time>2026-04-26T06:49:47.713Z</time></trkpt><trkpt lat="45.5566961" lon="10.752414"><ele>228.33333333333331</ele><time>2026-04-26T06:49:48.716Z</time></trkpt><trkpt lat="45.5565596" lon="10.7523356"><ele>229.0</ele><time>2026-04-26T06:49:49.715Z</time></trkpt><trkpt lat="45.556404" lon="10.7522679"><ele>229.0</ele><time>2026-04-26T06:49:50.709Z</time></trkpt><trkpt lat="45.5562324" lon="10.7522098"><ele>229.0</ele><time>2026-04-26T06:49:51.712Z</time></trkpt><trkpt lat="45.5560514" lon="10.7521709"><ele>229.0</ele><time>2026-04-26T06:49:52.714Z</time></trkpt><trkpt lat="45.5558826" lon="10.7521115"><ele>229.79999999999998</ele><time>2026-04-26T06:49:53.709Z</time></trkpt><trkpt lat="45.555745" lon="10.7520582"><ele>230.59999999999997</ele><time>2026-04-26T06:49:54.711Z</time></trkpt><trkpt lat="45.5556268" lon="10.7519929"><ele>231.4</ele><time>2026-04-26T06:49:55.714Z</time></trkpt><trkpt lat="45.5555599" lon="10.7519405"><ele>232.2</ele><time>2026-04-26T06:49:56.704Z</time></trkpt><trkpt lat="45.5554967" lon="10.7518646"><ele>233.0</ele><time>2026-04-26T06:49:57.708Z</time></trkpt><trkpt lat="45.5554627" lon="10.7517748"><ele>233.8</ele><time>2026-04-26T06:49:58.712Z</time></trkpt><trkpt lat="45.555487" lon="10.7516456"><ele>234.60000000000002</ele><time>2026-04-26T06:50:00.716Z</time></trkpt><trkpt lat="45.5555434" lon="10.7515805"><ele>235.39999999999998</ele><time>2026-04-26T06:50:02.713Z</time></trkpt><trkpt lat="45.5556227" lon="10.7515843"><ele>236.2</ele><time>2026-04-26T06:50:04.71Z</time></trkpt><trkpt lat="45.5557203" lon="10.7516454"><ele>237.0</ele><time>2026-04-26T06:50:06.712Z</time></trkpt><trkpt lat="45.5558396" lon="10.7516576"><ele>237.0</ele><time>2026-04-26T06:50:08.714Z</time></trkpt><trkpt lat="45.5559049" lon="10.7516436"><ele>237.0</ele><time>2026-04-26T06:50:09.716Z</time></trkpt><trkpt lat="45.555984" lon="10.7516134"><ele>237.0</ele><time>2026-04-26T06:50:10.711Z</time></trkpt><trkpt lat="45.5560583" lon="10.7515715"><ele>237.0</ele><time>2026-04-26T06:50:11.702Z</time></trkpt><trkpt lat="45.556129" lon="10.751526"><ele>237.0</ele><time>2026-04-26T06:50:12.718Z</time></trkpt><trkpt lat="45.5562021" lon="10.7514785"><ele>237.0</ele><time>2026-04-26T06:50:13.708Z</time></trkpt><trkpt lat="45.5562746" lon="10.7514287"><ele>236.66666666666666</ele><time>2026-04-26T06:50:14.722Z</time></trkpt><trkpt lat="45.5563501" lon="10.7513983"><ele>236.33333333333331</ele><time>2026-04-26T06:50:15.711Z</time></trkpt><trkpt lat="45.5564266" lon="10.7513815"><ele>236.0</ele><time>2026-04-26T06:50:16.718Z</time></trkpt><trkpt lat="45.556509" lon="10.7513776"><ele>235.66666666666666</ele><time>2026-04-26T06:50:17.708Z</time></trkpt><trkpt lat="45.5566007" lon="10.7513735"><ele>235.33333333333331</ele><time>2026-04-26T06:50:18.708Z</time></trkpt><trkpt lat="45.5566981" lon="10.7513747"><ele>235.0</ele><time>2026-04-26T06:50:19.71Z</time></trkpt><trkpt lat="45.5567935" lon="10.7513654"><ele>235.0</ele><time>2026-04-26T06:50:20.704Z</time></trkpt><trkpt lat="45.5568881" lon="10.751343"><ele>235.0</ele><time>2026-04-26T06:50:21.707Z</time></trkpt><trkpt lat="45.5569895" lon="10.7513187"><ele>235.0</ele><time>2026-04-26T06:50:22.7Z</time></trkpt><trkpt lat="45.5570841" lon="10.751302"><ele>235.0</ele><time>2026-04-26T06:50:23.705Z</time></trkpt><trkpt lat="45.5571868" lon="10.7512823"><ele>235.0</ele><time>2026-04-26T06:50:24.699Z</time></trkpt><trkpt lat="45.5572924" lon="10.7512645"><ele>234.4</ele><time>2026-04-26T06:50:25.698Z</time></trkpt><trkpt lat="45.5573943" lon="10.7512412"><ele>233.8</ele><time>2026-04-26T06:50:26.694Z</time></trkpt><trkpt lat="45.5574899" lon="10.7512246"><ele>233.2</ele><time>2026-04-26T06:50:27.701Z</time></trkpt><trkpt lat="45.5575905" lon="10.7512076"><ele>232.6</ele><time>2026-04-26T06:50:28.704Z</time></trkpt><trkpt lat="45.5576905" lon="10.7511999"><ele>232.0</ele><time>2026-04-26T06:50:29.702Z</time></trkpt><trkpt lat="45.5577951" lon="10.7512186"><ele>233.2</ele><time>2026-04-26T06:50:30.703Z</time></trkpt><trkpt lat="45.5578916" lon="10.7512454"><ele>234.39999999999998</ele><time>2026-04-26T06:50:31.703Z</time></trkpt><trkpt lat="45.557988" lon="10.7512809"><ele>235.60000000000002</ele><time>2026-04-26T06:50:32.697Z</time></trkpt><trkpt lat="45.5580826" lon="10.7513216"><ele>236.8</ele><time>2026-04-26T06:50:33.706Z</time></trkpt><trkpt lat="45.5581768" lon="10.7513707"><ele>238.0</ele><time>2026-04-26T06:50:34.701Z</time></trkpt><trkpt lat="45.5582717" lon="10.7514208"><ele>238.0</ele><time>2026-04-26T06:50:35.702Z</time></trkpt><trkpt lat="45.5583611" lon="10.7514808"><ele>238.0</ele><time>2026-04-26T06:50:36.706Z</time></trkpt><trkpt lat="45.5584494" lon="10.7515447"><ele>238.0</ele><time>2026-04-26T06:50:37.7Z</time></trkpt><trkpt lat="45.5585404" lon="10.7516246"><ele>238.0</ele><time>2026-04-26T06:50:38.7Z</time></trkpt><trkpt lat="45.558635" lon="10.7517071"><ele>238.0</ele><time>2026-04-26T06:50:39.707Z</time></trkpt><trkpt lat="45.5587261" lon="10.7518002"><ele>237.25</ele><time>2026-04-26T06:50:40.705Z</time></trkpt><trkpt lat="45.5588237" lon="10.7518844"><ele>236.5</ele><time>2026-04-26T06:50:41.709Z</time></trkpt><trkpt lat="45.5589262" lon="10.7519704"><ele>235.75</ele><time>2026-04-26T06:50:42.707Z</time></trkpt><trkpt lat="45.5590322" lon="10.7520651"><ele>235.0</ele><time>2026-04-26T06:50:43.715Z</time></trkpt><trkpt lat="45.5591361" lon="10.7521652"><ele>235.0</ele><time>2026-04-26T06:50:44.708Z</time></trkpt><trkpt lat="45.5592458" lon="10.7522694"><ele>235.0</ele><time>2026-04-26T06:50:45.708Z</time></trkpt><trkpt lat="45.5593512" lon="10.752378"><ele>235.0</ele><time>2026-04-26T06:50:46.704Z</time></trkpt><trkpt lat="45.5594521" lon="10.7524876"><ele>235.0</ele><time>2026-04-26T06:50:47.706Z</time></trkpt><trkpt lat="45.5595535" lon="10.7525876"><ele>234.0</ele><time>2026-04-26T06:50:48.703Z</time></trkpt><trkpt lat="45.5596636" lon="10.7526945"><ele>233.0</ele><time>2026-04-26T06:50:49.704Z</time></trkpt><trkpt lat="45.5597853" lon="10.7527927"><ele>232.0</ele><time>2026-04-26T06:50:50.707Z</time></trkpt><trkpt lat="45.5599099" lon="10.7528857"><ele>231.0</ele><time>2026-04-26T06:50:51.707Z</time></trkpt><trkpt lat="45.5600293" lon="10.7529659"><ele>231.0</ele><time>2026-04-26T06:50:52.707Z</time></trkpt><trkpt lat="45.5601445" lon="10.753029"><ele>231.0</ele><time>2026-04-26T06:50:53.703Z</time></trkpt><trkpt lat="45.5602543" lon="10.7530792"><ele>231.0</ele><time>2026-04-26T06:50:54.699Z</time></trkpt><trkpt lat="45.5603697" lon="10.7531121"><ele>231.0</ele><time>2026-04-26T06:50:55.703Z</time></trkpt><trkpt lat="45.5604756" lon="10.7531305"><ele>232.0</ele><time>2026-04-26T06:50:56.702Z</time></trkpt><trkpt lat="45.5605788" lon="10.7531322"><ele>233.00000000000003</ele><time>2026-04-26T06:50:57.711Z</time></trkpt><trkpt lat="45.5606863" lon="10.7531409"><ele>234.00000000000003</ele><time>2026-04-26T06:50:58.707Z</time></trkpt><trkpt lat="45.5607959" lon="10.7531406"><ele>235.0</ele><time>2026-04-26T06:50:59.701Z</time></trkpt><trkpt lat="45.5609063" lon="10.7531355"><ele>236.0</ele><time>2026-04-26T06:51:00.703Z</time></trkpt><trkpt lat="45.5610027" lon="10.7531495"><ele>236.00000000000003</ele><time>2026-04-26T06:51:01.71Z</time></trkpt><trkpt lat="45.5610937" lon="10.7531773"><ele>236.0</ele><time>2026-04-26T06:51:02.706Z</time></trkpt><trkpt lat="45.5611798" lon="10.7532139"><ele>236.0</ele><time>2026-04-26T06:51:03.698Z</time></trkpt><trkpt lat="45.5612616" lon="10.7532593"><ele>236.0</ele><time>2026-04-26T06:51:04.703Z</time></trkpt><trkpt lat="45.5613408" lon="10.7532995"><ele>236.00000000000003</ele><time>2026-04-26T06:51:05.703Z</time></trkpt><trkpt lat="45.5614141" lon="10.7533444"><ele>236.0</ele><time>2026-04-26T06:51:06.701Z</time></trkpt><trkpt lat="45.561484" lon="10.7533991"><ele>234.83333333333334</ele><time>2026-04-26T06:51:07.699Z</time></trkpt><trkpt lat="45.5615519" lon="10.7534758"><ele>233.66666666666669</ele><time>2026-04-26T06:51:08.707Z</time></trkpt><trkpt lat="45.5616195" lon="10.7535557"><ele>232.5</ele><time>2026-04-26T06:51:09.705Z</time></trkpt><trkpt lat="45.5616896" lon="10.7536242"><ele>231.33333333333331</ele><time>2026-04-26T06:51:10.712Z</time></trkpt><trkpt lat="45.5617623" lon="10.7536778"><ele>230.16666666666666</ele><time>2026-04-26T06:51:11.704Z</time></trkpt><trkpt lat="45.5618349" lon="10.7537168"><ele>229.0</ele><time>2026-04-26T06:51:12.709Z</time></trkpt><trkpt lat="45.561919" lon="10.7537472"><ele>229.0</ele><time>2026-04-26T06:51:13.704Z</time></trkpt><trkpt lat="45.56201" lon="10.753763"><ele>228.99999999999997</ele><time>2026-04-26T06:51:14.719Z</time></trkpt><trkpt lat="45.5621066" lon="10.753751"><ele>228.99999999999997</ele><time>2026-04-26T06:51:15.702Z</time></trkpt><trkpt lat="45.5622084" lon="10.7537364"><ele>229.0</ele><time>2026-04-26T06:51:16.716Z</time></trkpt><trkpt lat="45.5623139" lon="10.7537208"><ele>229.0</ele><time>2026-04-26T06:51:17.709Z</time></trkpt><trkpt lat="45.5624073" lon="10.7537006"><ele>229.79999999999998</ele><time>2026-04-26T06:51:18.706Z</time></trkpt><trkpt lat="45.5625022" lon="10.7536882"><ele>230.59999999999997</ele><time>2026-04-26T06:51:19.709Z</time></trkpt><trkpt lat="45.5625975" lon="10.7536999"><ele>231.4</ele><time>2026-04-26T06:51:20.702Z</time></trkpt><trkpt lat="45.5626842" lon="10.7537117"><ele>232.2</ele><time>2026-04-26T06:51:21.706Z</time></trkpt><trkpt lat="45.5627725" lon="10.7537339"><ele>233.0</ele><time>2026-04-26T06:51:22.709Z</time></trkpt><trkpt lat="45.5628615" lon="10.7537545"><ele>233.8</ele><time>2026-04-26T06:51:23.704Z</time></trkpt><trkpt lat="45.5629462" lon="10.7537668"><ele>234.60000000000002</ele><time>2026-04-26T06:51:24.708Z</time></trkpt><trkpt lat="45.5630287" lon="10.7537612"><ele>235.39999999999998</ele><time>2026-04-26T06:51:25.708Z</time></trkpt><trkpt lat="45.5631107" lon="10.7537316"><ele>236.2</ele><time>2026-04-26T06:51:26.71Z</time></trkpt><trkpt lat="45.5632" lon="10.7536818"><ele>237.0</ele><time>2026-04-26T06:51:27.708Z</time></trkpt><trkpt lat="45.563289" lon="10.7536107"><ele>239.16666666666666</ele><time>2026-04-26T06:51:28.709Z</time></trkpt><trkpt lat="45.5633767" lon="10.7535283"><ele>241.33333333333331</ele><time>2026-04-26T06:51:29.707Z</time></trkpt><trkpt lat="45.5634568" lon="10.7534429"><ele>243.5</ele><time>2026-04-26T06:51:30.705Z</time></trkpt><trkpt lat="45.5635152" lon="10.7533485"><ele>245.66666666666666</ele><time>2026-04-26T06:51:31.701Z</time></trkpt><trkpt lat="45.5635589" lon="10.7532489"><ele>247.83333333333331</ele><time>2026-04-26T06:51:32.698Z</time></trkpt><trkpt lat="45.5636009" lon="10.7531788"><ele>250.0</ele><time>2026-04-26T06:51:33.706Z</time></trkpt><trkpt lat="45.5636705" lon="10.7530958"><ele>251.2</ele><time>2026-04-26T06:51:35.7Z</time></trkpt><trkpt lat="45.5637345" lon="10.7530103"><ele>252.4</ele><time>2026-04-26T06:51:37.694Z</time></trkpt><trkpt lat="45.5637739" lon="10.7528383"><ele>253.60000000000002</ele><time>2026-04-26T06:51:39.691Z</time></trkpt><trkpt lat="45.5637794" lon="10.7527407"><ele>254.8</ele><time>2026-04-26T06:51:40.69Z</time></trkpt><trkpt lat="45.5637943" lon="10.7525906"><ele>256.0</ele><time>2026-04-26T06:51:42.693Z</time></trkpt><trkpt lat="45.5638533" lon="10.7525157"><ele>256.0</ele><time>2026-04-26T06:51:44.697Z</time></trkpt><trkpt lat="45.563947" lon="10.7525968"><ele>256.0</ele><time>2026-04-26T06:51:46.694Z</time></trkpt><trkpt lat="45.5639839" lon="10.7527159"><ele>256.0</ele><time>2026-04-26T06:51:47.696Z</time></trkpt><trkpt lat="45.564005" lon="10.7528555"><ele>256.0</ele><time>2026-04-26T06:51:48.689Z</time></trkpt><trkpt lat="45.564009" lon="10.7529919"><ele>256.0</ele><time>2026-04-26T06:51:49.694Z</time></trkpt><trkpt lat="45.5640262" lon="10.7530993"><ele>256.0</ele><time>2026-04-26T06:51:50.689Z</time></trkpt><trkpt lat="45.5640648" lon="10.7532035"><ele>256.0</ele><time>2026-04-26T06:51:52.698Z</time></trkpt><trkpt lat="45.5640453" lon="10.7531033"><ele>256.0</ele><time>2026-04-26T06:51:54.688Z</time></trkpt><trkpt lat="45.5639901" lon="10.7529741"><ele>256.0</ele><time>2026-04-26T06:51:55.687Z</time></trkpt><trkpt lat="45.5639538" lon="10.7528138"><ele>256.0</ele><time>2026-04-26T06:51:56.686Z</time></trkpt><trkpt lat="45.563923" lon="10.7526381"><ele>257.0</ele><time>2026-04-26T06:51:57.687Z</time></trkpt><trkpt lat="45.5638905" lon="10.7524942"><ele>258.0</ele><time>2026-04-26T06:51:58.687Z</time></trkpt><trkpt lat="45.5638687" lon="10.7523495"><ele>259.0</ele><time>2026-04-26T06:51:59.688Z</time></trkpt><trkpt lat="45.56386" lon="10.7522018"><ele>260.0</ele><time>2026-04-26T06:52:00.693Z</time></trkpt><trkpt lat="45.563878" lon="10.7520598"><ele>261.0</ele><time>2026-04-26T06:52:01.695Z</time></trkpt><trkpt lat="45.5639135" lon="10.7519447"><ele>263.0</ele><time>2026-04-26T06:52:02.694Z</time></trkpt><trkpt lat="45.5639629" lon="10.7518309"><ele>265.0</ele><time>2026-04-26T06:52:03.692Z</time></trkpt><trkpt lat="45.5640308" lon="10.7517264"><ele>267.0</ele><time>2026-04-26T06:52:04.69Z</time></trkpt><trkpt lat="45.5641282" lon="10.7516164"><ele>269.0</ele><time>2026-04-26T06:52:05.695Z</time></trkpt><trkpt lat="45.5642744" lon="10.7515248"><ele>269.0</ele><time>2026-04-26T06:52:06.706Z</time></trkpt><trkpt lat="45.5644375" lon="10.7514339"><ele>269.0</ele><time>2026-04-26T06:52:07.712Z</time></trkpt><trkpt lat="45.5645873" lon="10.7513451"><ele>269.0</ele><time>2026-04-26T06:52:08.716Z</time></trkpt><trkpt lat="45.564703" lon="10.751242"><ele>270.5</ele><time>2026-04-26T06:52:09.714Z</time></trkpt><trkpt lat="45.5648062" lon="10.7511245"><ele>272.0</ele><time>2026-04-26T06:52:10.717Z</time></trkpt><trkpt lat="45.5649061" lon="10.7510172"><ele>273.5</ele><time>2026-04-26T06:52:11.719Z</time></trkpt><trkpt lat="45.5649951" lon="10.7509157"><ele>275.0</ele><time>2026-04-26T06:52:12.717Z</time></trkpt><trkpt lat="45.5650767" lon="10.7508301"><ele>275.0</ele><time>2026-04-26T06:52:13.707Z</time></trkpt><trkpt lat="45.5651665" lon="10.7507672"><ele>275.0</ele><time>2026-04-26T06:52:14.714Z</time></trkpt><trkpt lat="45.5652661" lon="10.7507305"><ele>275.0</ele><time>2026-04-26T06:52:15.706Z</time></trkpt><trkpt lat="45.5653642" lon="10.7507025"><ele>275.0</ele><time>2026-04-26T06:52:16.72Z</time></trkpt><trkpt lat="45.5654588" lon="10.7506619"><ele>275.0</ele><time>2026-04-26T06:52:17.71Z</time></trkpt><trkpt lat="45.565548" lon="10.7506011"><ele>275.2</ele><time>2026-04-26T06:52:18.719Z</time></trkpt><trkpt lat="45.5656335" lon="10.7505198"><ele>275.4</ele><time>2026-04-26T06:52:19.713Z</time></trkpt><trkpt lat="45.5657208" lon="10.7504249"><ele>275.6</ele><time>2026-04-26T06:52:20.71Z</time></trkpt><trkpt lat="45.5658048" lon="10.7503238"><ele>275.8</ele><time>2026-04-26T06:52:21.709Z</time></trkpt><trkpt lat="45.5658914" lon="10.7502318"><ele>276.0</ele><time>2026-04-26T06:52:22.713Z</time></trkpt><trkpt lat="45.565973" lon="10.7501351"><ele>276.0</ele><time>2026-04-26T06:52:23.713Z</time></trkpt><trkpt lat="45.566055" lon="10.7500429"><ele>276.0</ele><time>2026-04-26T06:52:24.712Z</time></trkpt><trkpt lat="45.5661392" lon="10.749957"><ele>276.0</ele><time>2026-04-26T06:52:25.711Z</time></trkpt><trkpt lat="45.566224" lon="10.7498778"><ele>276.0</ele><time>2026-04-26T06:52:26.709Z</time></trkpt><trkpt lat="45.5663045" lon="10.7498008"><ele>276.0</ele><time>2026-04-26T06:52:27.708Z</time></trkpt><trkpt lat="45.5663791" lon="10.7497288"><ele>275.3333333333333</ele><time>2026-04-26T06:52:28.711Z</time></trkpt><trkpt lat="45.5664585" lon="10.7496537"><ele>274.6666666666667</ele><time>2026-04-26T06:52:29.71Z</time></trkpt><trkpt lat="45.5665366" lon="10.7495793"><ele>274.0</ele><time>2026-04-26T06:52:30.708Z</time></trkpt><trkpt lat="45.5666061" lon="10.7495064"><ele>273.33333333333337</ele><time>2026-04-26T06:52:31.714Z</time></trkpt><trkpt lat="45.5666626" lon="10.7494386"><ele>272.6666666666667</ele><time>2026-04-26T06:52:32.706Z</time></trkpt><trkpt lat="45.5667085" lon="10.7493769"><ele>272.0</ele><time>2026-04-26T06:52:33.707Z</time></trkpt><trkpt lat="45.5667778" lon="10.7492673"><ele>271.1666666666667</ele><time>2026-04-26T06:52:35.703Z</time></trkpt><trkpt lat="45.566823" lon="10.7491802"><ele>270.33333333333337</ele><time>2026-04-26T06:52:37.71Z</time></trkpt><trkpt lat="45.566822" lon="10.7490428"><ele>269.5</ele><time>2026-04-26T06:52:39.712Z</time></trkpt><trkpt lat="45.5667841" lon="10.748912"><ele>268.6666666666667</ele><time>2026-04-26T06:52:41.713Z</time></trkpt><trkpt lat="45.566751" lon="10.7488234"><ele>267.8333333333333</ele><time>2026-04-26T06:52:42.713Z</time></trkpt><trkpt lat="45.5666964" lon="10.7487343"><ele>267.0</ele><time>2026-04-26T06:52:43.705Z</time></trkpt><trkpt lat="45.5666324" lon="10.7486549"><ele>267.0</ele><time>2026-04-26T06:52:44.703Z</time></trkpt><trkpt lat="45.5665731" lon="10.7485688"><ele>267.0</ele><time>2026-04-26T06:52:45.703Z</time></trkpt><trkpt lat="45.5665102" lon="10.7484483"><ele>267.0</ele><time>2026-04-26T06:52:46.7Z</time></trkpt><trkpt lat="45.5664525" lon="10.7483357"><ele>267.0</ele><time>2026-04-26T06:52:47.715Z</time></trkpt><trkpt lat="45.5664104" lon="10.7482121"><ele>267.0</ele><time>2026-04-26T06:52:48.702Z</time></trkpt><trkpt lat="45.5663765" lon="10.7481007"><ele>264.8333333333333</ele><time>2026-04-26T06:52:49.72Z</time></trkpt><trkpt lat="45.5663415" lon="10.7479885"><ele>262.6666666666667</ele><time>2026-04-26T06:52:50.708Z</time></trkpt><trkpt lat="45.5663065" lon="10.7478858"><ele>260.5</ele><time>2026-04-26T06:52:51.703Z</time></trkpt><trkpt lat="45.566292" lon="10.7477913"><ele>258.33333333333337</ele><time>2026-04-26T06:52:52.7Z</time></trkpt><trkpt lat="45.5663287" lon="10.7476346"><ele>256.1666666666667</ele><time>2026-04-26T06:52:54.711Z</time></trkpt><trkpt lat="45.5663853" lon="10.747579"><ele>254.0</ele><time>2026-04-26T06:52:55.706Z</time></trkpt><trkpt lat="45.5664581" lon="10.7475227"><ele>253.00000000000003</ele><time>2026-04-26T06:52:56.703Z</time></trkpt><trkpt lat="45.5665424" lon="10.7474638"><ele>252.0</ele><time>2026-04-26T06:52:57.704Z</time></trkpt><trkpt lat="45.566618" lon="10.7474139"><ele>251.0</ele><time>2026-04-26T06:52:58.702Z</time></trkpt><trkpt lat="45.5666982" lon="10.7473737"><ele>250.0</ele><time>2026-04-26T06:52:59.697Z</time></trkpt><trkpt lat="45.5667663" lon="10.7473458"><ele>249.00000000000003</ele><time>2026-04-26T06:53:00.705Z</time></trkpt><trkpt lat="45.5668285" lon="10.7473171"><ele>248.0</ele><time>2026-04-26T06:53:01.71Z</time></trkpt><trkpt lat="45.5668914" lon="10.7472948"><ele>248.00000000000003</ele><time>2026-04-26T06:53:02.714Z</time></trkpt><trkpt lat="45.5669586" lon="10.7472903"><ele>248.0</ele><time>2026-04-26T06:53:03.712Z</time></trkpt><trkpt lat="45.5670306" lon="10.7473035"><ele>248.0</ele><time>2026-04-26T06:53:04.71Z</time></trkpt><trkpt lat="45.5671106" lon="10.7473275"><ele>248.0</ele><time>2026-04-26T06:53:05.709Z</time></trkpt><trkpt lat="45.5671964" lon="10.7473389"><ele>248.00000000000003</ele><time>2026-04-26T06:53:06.715Z</time></trkpt><trkpt lat="45.5672927" lon="10.747341"><ele>248.0</ele><time>2026-04-26T06:53:07.716Z</time></trkpt><trkpt lat="45.567393" lon="10.7473345"><ele>245.60000000000002</ele><time>2026-04-26T06:53:08.719Z</time></trkpt><trkpt lat="45.5674956" lon="10.7473179"><ele>243.20000000000002</ele><time>2026-04-26T06:53:09.719Z</time></trkpt><trkpt lat="45.5675989" lon="10.7473053"><ele>240.8</ele><time>2026-04-26T06:53:10.716Z</time></trkpt><trkpt lat="45.5677003" lon="10.7472991"><ele>238.4</ele><time>2026-04-26T06:53:11.722Z</time></trkpt><trkpt lat="45.5677999" lon="10.7472993"><ele>236.0</ele><time>2026-04-26T06:53:12.722Z</time></trkpt><trkpt lat="45.5678965" lon="10.7472906"><ele>235.16666666666669</ele><time>2026-04-26T06:53:13.72Z</time></trkpt><trkpt lat="45.5679892" lon="10.7472881"><ele>234.33333333333334</ele><time>2026-04-26T06:53:14.718Z</time></trkpt><trkpt lat="45.5680761" lon="10.7472836"><ele>233.5</ele><time>2026-04-26T06:53:15.721Z</time></trkpt><trkpt lat="45.5681568" lon="10.7472811"><ele>232.66666666666669</ele><time>2026-04-26T06:53:16.727Z</time></trkpt><trkpt lat="45.5682322" lon="10.7472828"><ele>231.83333333333334</ele><time>2026-04-26T06:53:17.718Z</time></trkpt><trkpt lat="45.5683043" lon="10.7472886"><ele>231.0</ele><time>2026-04-26T06:53:18.727Z</time></trkpt><trkpt lat="45.5683734" lon="10.747313"><ele>231.0</ele><time>2026-04-26T06:53:19.723Z</time></trkpt><trkpt lat="45.5684412" lon="10.7473588"><ele>231.0</ele><time>2026-04-26T06:53:20.727Z</time></trkpt><trkpt lat="45.5685032" lon="10.7474028"><ele>231.0</ele><time>2026-04-26T06:53:21.721Z</time></trkpt><trkpt lat="45.5685625" lon="10.7474397"><ele>231.0</ele><time>2026-04-26T06:53:22.72Z</time></trkpt><trkpt lat="45.5686414" lon="10.7474929"><ele>231.0</ele><time>2026-04-26T06:53:24.705Z</time></trkpt><trkpt lat="45.5687058" lon="10.7475425"><ele>231.0</ele><time>2026-04-26T06:53:28.722Z</time></trkpt><trkpt lat="45.5686223" lon="10.7474687"><ele>231.0</ele><time>2026-04-26T06:53:37.725Z</time></trkpt><trkpt lat="45.5684842" lon="10.7474332"><ele>231.00000000000003</ele><time>2026-04-26T06:53:39.715Z</time></trkpt><trkpt lat="45.5684041" lon="10.7473933"><ele>231.00000000000003</ele><time>2026-04-26T06:53:40.712Z</time></trkpt><trkpt lat="45.5683255" lon="10.747356"><ele>231.0</ele><time>2026-04-26T06:53:41.717Z</time></trkpt><trkpt lat="45.568256" lon="10.7473299"><ele>231.0</ele><time>2026-04-26T06:53:42.712Z</time></trkpt><trkpt lat="45.5681454" lon="10.7473005"><ele>231.0</ele><time>2026-04-26T06:53:44.709Z</time></trkpt><trkpt lat="45.5680576" lon="10.7472916"><ele>231.00000000000003</ele><time>2026-04-26T06:53:46.717Z</time></trkpt><trkpt lat="45.5679551" lon="10.7472927"><ele>231.00000000000003</ele><time>2026-04-26T06:53:48.716Z</time></trkpt><trkpt lat="45.5678352" lon="10.7473253"><ele>231.0</ele><time>2026-04-26T06:53:50.719Z</time></trkpt><trkpt lat="45.5677649" lon="10.7473401"><ele>231.0</ele><time>2026-04-26T06:53:51.73Z</time></trkpt><trkpt lat="45.5676812" lon="10.747346"><ele>231.83333333333334</ele><time>2026-04-26T06:53:52.721Z</time></trkpt><trkpt lat="45.5676006" lon="10.7473589"><ele>232.66666666666669</ele><time>2026-04-26T06:53:53.72Z</time></trkpt><trkpt lat="45.5675242" lon="10.7473638"><ele>233.5</ele><time>2026-04-26T06:53:54.722Z</time></trkpt><trkpt lat="45.5674411" lon="10.7473789"><ele>234.33333333333334</ele><time>2026-04-26T06:53:55.725Z</time></trkpt><trkpt lat="45.5673554" lon="10.7473925"><ele>235.16666666666669</ele><time>2026-04-26T06:53:56.722Z</time></trkpt><trkpt lat="45.5672727" lon="10.7474088"><ele>236.0</ele><time>2026-04-26T06:53:57.723Z</time></trkpt><trkpt lat="45.5671918" lon="10.7474213"><ele>236.0</ele><time>2026-04-26T06:53:58.723Z</time></trkpt><trkpt lat="45.5671191" lon="10.7474308"><ele>236.0</ele><time>2026-04-26T06:53:59.719Z</time></trkpt><trkpt lat="45.5670401" lon="10.7474211"><ele>236.0</ele><time>2026-04-26T06:54:01.723Z</time></trkpt><trkpt lat="45.566976" lon="10.7473901"><ele>236.0</ele><time>2026-04-26T06:54:33.703Z</time></trkpt><trkpt lat="45.5668923" lon="10.7473657"><ele>236.0</ele><time>2026-04-26T06:54:37.71Z</time></trkpt><trkpt lat="45.5668272" lon="10.7473895"><ele>236.0</ele><time>2026-04-26T06:54:39.707Z</time></trkpt><trkpt lat="45.5667646" lon="10.7474448"><ele>236.0</ele><time>2026-04-26T06:54:50.715Z</time></trkpt><trkpt lat="45.5667045" lon="10.747479"><ele>238.00000000000003</ele><time>2026-04-26T06:55:01.716Z</time></trkpt><trkpt lat="45.5667065" lon="10.7473446"><ele>240.0</ele><time>2026-04-26T06:55:20.707Z</time></trkpt><trkpt lat="45.5667652" lon="10.7472656"><ele>242.0</ele><time>2026-04-26T06:55:21.704Z</time></trkpt><trkpt lat="45.5668219" lon="10.7471803"><ele>244.0</ele><time>2026-04-26T06:55:22.711Z</time></trkpt><trkpt lat="45.5668673" lon="10.7471021"><ele>246.00000000000003</ele><time>2026-04-26T06:55:23.718Z</time></trkpt><trkpt lat="45.566913" lon="10.7470148"><ele>248.0</ele><time>2026-04-26T06:55:24.704Z</time></trkpt><trkpt lat="45.5669654" lon="10.7469152"><ele>249.4</ele><time>2026-04-26T06:55:25.707Z</time></trkpt><trkpt lat="45.5670201" lon="10.7468103"><ele>250.8</ele><time>2026-04-26T06:55:26.711Z</time></trkpt><trkpt lat="45.5670857" lon="10.7467081"><ele>252.2</ele><time>2026-04-26T06:55:27.713Z</time></trkpt><trkpt lat="45.567158" lon="10.746598"><ele>253.6</ele><time>2026-04-26T06:55:28.717Z</time></trkpt><trkpt lat="45.5672166" lon="10.7464955"><ele>255.0</ele><time>2026-04-26T06:55:29.713Z</time></trkpt><trkpt lat="45.5672751" lon="10.7464018"><ele>254.42857142857144</ele><time>2026-04-26T06:55:30.707Z</time></trkpt><trkpt lat="45.5673257" lon="10.7463247"><ele>253.8571428571429</ele><time>2026-04-26T06:55:31.717Z</time></trkpt><trkpt lat="45.5673718" lon="10.7462533"><ele>253.28571428571428</ele><time>2026-04-26T06:55:32.71Z</time></trkpt><trkpt lat="45.5674238" lon="10.7461898"><ele>252.71428571428572</ele><time>2026-04-26T06:55:33.708Z</time></trkpt><trkpt lat="45.567483" lon="10.7461242"><ele>252.14285714285714</ele><time>2026-04-26T06:55:34.711Z</time></trkpt><trkpt lat="45.5675456" lon="10.7460535"><ele>251.57142857142856</ele><time>2026-04-26T06:55:35.72Z</time></trkpt><trkpt lat="45.5676013" lon="10.7459831"><ele>250.99999999999997</ele><time>2026-04-26T06:55:36.718Z</time></trkpt><trkpt lat="45.5676452" lon="10.7459111"><ele>251.0</ele><time>2026-04-26T06:55:37.715Z</time></trkpt><trkpt lat="45.5676866" lon="10.7458331"><ele>251.00000000000003</ele><time>2026-04-26T06:55:38.713Z</time></trkpt><trkpt lat="45.5677184" lon="10.7457456"><ele>251.00000000000003</ele><time>2026-04-26T06:55:39.707Z</time></trkpt><trkpt lat="45.5677474" lon="10.7456534"><ele>251.0</ele><time>2026-04-26T06:55:40.711Z</time></trkpt><trkpt lat="45.5677853" lon="10.745478"><ele>251.0</ele><time>2026-04-26T06:55:42.719Z</time></trkpt><trkpt lat="45.5677966" lon="10.7453128"><ele>251.00000000000003</ele><time>2026-04-26T06:55:44.72Z</time></trkpt><trkpt lat="45.5678012" lon="10.7452202"><ele>251.0</ele><time>2026-04-26T06:55:45.718Z</time></trkpt><trkpt lat="45.5678118" lon="10.7451205"><ele>251.0</ele><time>2026-04-26T06:55:46.716Z</time></trkpt><trkpt lat="45.5678173" lon="10.7450118"><ele>251.0</ele><time>2026-04-26T06:55:47.715Z</time></trkpt><trkpt lat="45.5678233" lon="10.7449038"><ele>251.00000000000003</ele><time>2026-04-26T06:55:48.718Z</time></trkpt><trkpt lat="45.5678265" lon="10.7447872"><ele>251.0</ele><time>2026-04-26T06:55:49.713Z</time></trkpt><trkpt lat="45.5678308" lon="10.7446674"><ele>250.83333333333334</ele><time>2026-04-26T06:55:50.711Z</time></trkpt><trkpt lat="45.5678287" lon="10.744552"><ele>250.66666666666669</ele><time>2026-04-26T06:55:51.709Z</time></trkpt><trkpt lat="45.56783" lon="10.744433"><ele>250.5</ele><time>2026-04-26T06:55:52.713Z</time></trkpt><trkpt lat="45.5678291" lon="10.7443219"><ele>250.33333333333331</ele><time>2026-04-26T06:55:53.723Z</time></trkpt><trkpt lat="45.5678294" lon="10.7442206"><ele>250.16666666666666</ele><time>2026-04-26T06:55:54.72Z</time></trkpt><trkpt lat="45.5678242" lon="10.744109"><ele>250.0</ele><time>2026-04-26T06:55:55.711Z</time></trkpt><trkpt lat="45.5678119" lon="10.7439901"><ele>249.8</ele><time>2026-04-26T06:55:56.717Z</time></trkpt><trkpt lat="45.5677967" lon="10.7438553"><ele>249.6</ele><time>2026-04-26T06:55:57.715Z</time></trkpt><trkpt lat="45.5677754" lon="10.7437229"><ele>249.39999999999998</ele><time>2026-04-26T06:55:58.714Z</time></trkpt><trkpt lat="45.5677523" lon="10.7435934"><ele>249.2</ele><time>2026-04-26T06:55:59.715Z</time></trkpt><trkpt lat="45.5677244" lon="10.7434665"><ele>249.0</ele><time>2026-04-26T06:56:00.716Z</time></trkpt><trkpt lat="45.5676987" lon="10.7433459"><ele>248.83333333333334</ele><time>2026-04-26T06:56:01.717Z</time></trkpt><trkpt lat="45.5676753" lon="10.7432274"><ele>248.66666666666669</ele><time>2026-04-26T06:56:02.721Z</time></trkpt><trkpt lat="45.5676535" lon="10.7431131"><ele>248.5</ele><time>2026-04-26T06:56:03.716Z</time></trkpt><trkpt lat="45.5676321" lon="10.7430046"><ele>248.33333333333334</ele><time>2026-04-26T06:56:04.717Z</time></trkpt><trkpt lat="45.5676072" lon="10.7429077"><ele>248.16666666666669</ele><time>2026-04-26T06:56:05.713Z</time></trkpt><trkpt lat="45.5675716" lon="10.7427511"><ele>248.0</ele><time>2026-04-26T06:56:07.719Z</time></trkpt><trkpt lat="45.5675739" lon="10.7425791"><ele>247.33333333333334</ele><time>2026-04-26T06:56:09.721Z</time></trkpt><trkpt lat="45.5675879" lon="10.7424875"><ele>246.66666666666669</ele><time>2026-04-26T06:56:10.72Z</time></trkpt><trkpt lat="45.5676133" lon="10.7423841"><ele>246.0</ele><time>2026-04-26T06:56:11.712Z</time></trkpt><trkpt lat="45.5676407" lon="10.7422781"><ele>245.33333333333331</ele><time>2026-04-26T06:56:12.717Z</time></trkpt><trkpt lat="45.5676727" lon="10.7421779"><ele>244.66666666666666</ele><time>2026-04-26T06:56:13.713Z</time></trkpt><trkpt lat="45.5677083" lon="10.7420889"><ele>244.0</ele><time>2026-04-26T06:56:14.712Z</time></trkpt><trkpt lat="45.5677498" lon="10.7419919"><ele>243.99999999999997</ele><time>2026-04-26T06:56:15.711Z</time></trkpt><trkpt lat="45.567799" lon="10.7418998"><ele>244.0</ele><time>2026-04-26T06:56:16.714Z</time></trkpt><trkpt lat="45.5678551" lon="10.74182"><ele>244.0</ele><time>2026-04-26T06:56:17.71Z</time></trkpt><trkpt lat="45.5679124" lon="10.7417439"><ele>244.0</ele><time>2026-04-26T06:56:18.717Z</time></trkpt><trkpt lat="45.5679638" lon="10.7416655"><ele>243.99999999999997</ele><time>2026-04-26T06:56:19.716Z</time></trkpt><trkpt lat="45.5680143" lon="10.7415962"><ele>244.0</ele><time>2026-04-26T06:56:20.716Z</time></trkpt><trkpt lat="45.5680571" lon="10.7415222"><ele>243.49999999999997</ele><time>2026-04-26T06:56:21.721Z</time></trkpt><trkpt lat="45.5680904" lon="10.7414387"><ele>243.0</ele><time>2026-04-26T06:56:22.709Z</time></trkpt><trkpt lat="45.5681043" lon="10.7412636"><ele>242.5</ele><time>2026-04-26T06:56:24.728Z</time></trkpt><trkpt lat="45.5680836" lon="10.7411699"><ele>242.0</ele><time>2026-04-26T06:56:25.717Z</time></trkpt><trkpt lat="45.5680591" lon="10.7410756"><ele>241.49999999999997</ele><time>2026-04-26T06:56:26.706Z</time></trkpt><trkpt lat="45.5680228" lon="10.7409809"><ele>241.0</ele><time>2026-04-26T06:56:27.707Z</time></trkpt><trkpt lat="45.5679828" lon="10.7409042"><ele>239.33333333333331</ele><time>2026-04-26T06:56:28.722Z</time></trkpt><trkpt lat="45.5679249" lon="10.740838"><ele>237.66666666666666</ele><time>2026-04-26T06:56:29.71Z</time></trkpt><trkpt lat="45.5678616" lon="10.7407801"><ele>236.0</ele><time>2026-04-26T06:56:30.721Z</time></trkpt><trkpt lat="45.5677883" lon="10.7407382"><ele>234.33333333333331</ele><time>2026-04-26T06:56:31.721Z</time></trkpt><trkpt lat="45.5677009" lon="10.7407003"><ele>232.66666666666666</ele><time>2026-04-26T06:56:32.719Z</time></trkpt><trkpt lat="45.5676081" lon="10.7406649"><ele>231.0</ele><time>2026-04-26T06:56:33.718Z</time></trkpt><trkpt lat="45.5675109" lon="10.7406314"><ele>230.0</ele><time>2026-04-26T06:56:34.718Z</time></trkpt><trkpt lat="45.5674084" lon="10.7406052"><ele>229.0</ele><time>2026-04-26T06:56:35.719Z</time></trkpt><trkpt lat="45.5672922" lon="10.7405785"><ele>228.0</ele><time>2026-04-26T06:56:36.723Z</time></trkpt><trkpt lat="45.5671718" lon="10.740549"><ele>227.0</ele><time>2026-04-26T06:56:37.725Z</time></trkpt><trkpt lat="45.56705" lon="10.7405226"><ele>227.2</ele><time>2026-04-26T06:56:38.726Z</time></trkpt><trkpt lat="45.5669378" lon="10.7404978"><ele>227.39999999999998</ele><time>2026-04-26T06:56:39.716Z</time></trkpt><trkpt lat="45.5668388" lon="10.7404636"><ele>227.60000000000002</ele><time>2026-04-26T06:56:40.715Z</time></trkpt><trkpt lat="45.5667497" lon="10.7404134"><ele>227.8</ele><time>2026-04-26T06:56:41.725Z</time></trkpt><trkpt lat="45.566669" lon="10.7403184"><ele>228.0</ele><time>2026-04-26T06:56:42.718Z</time></trkpt><trkpt lat="45.5665916" lon="10.7401891"><ele>229.25</ele><time>2026-04-26T06:56:43.717Z</time></trkpt><trkpt lat="45.5665183" lon="10.7400355"><ele>230.5</ele><time>2026-04-26T06:56:44.718Z</time></trkpt><trkpt lat="45.5664563" lon="10.7398728"><ele>231.75</ele><time>2026-04-26T06:56:45.717Z</time></trkpt><trkpt lat="45.5664019" lon="10.7397235"><ele>233.0</ele><time>2026-04-26T06:56:46.72Z</time></trkpt><trkpt lat="45.5663497" lon="10.7395843"><ele>233.00000000000003</ele><time>2026-04-26T06:56:47.717Z</time></trkpt><trkpt lat="45.5663071" lon="10.7394492"><ele>233.0</ele><time>2026-04-26T06:56:48.721Z</time></trkpt><trkpt lat="45.5662903" lon="10.7393144"><ele>233.0</ele><time>2026-04-26T06:56:49.724Z</time></trkpt><trkpt lat="45.5662832" lon="10.7391832"><ele>233.0</ele><time>2026-04-26T06:56:50.725Z</time></trkpt><trkpt lat="45.5662793" lon="10.7390616"><ele>233.00000000000003</ele><time>2026-04-26T06:56:51.723Z</time></trkpt><trkpt lat="45.5662801" lon="10.7389653"><ele>233.0</ele><time>2026-04-26T06:56:52.724Z</time></trkpt><trkpt lat="45.5662949" lon="10.7388418"><ele>233.8</ele><time>2026-04-26T06:56:54.723Z</time></trkpt><trkpt lat="45.566374" lon="10.7387223"><ele>234.60000000000002</ele><time>2026-04-26T06:56:56.74Z</time></trkpt><trkpt lat="45.5664496" lon="10.7386334"><ele>235.39999999999998</ele><time>2026-04-26T06:56:57.724Z</time></trkpt><trkpt lat="45.5665263" lon="10.7385315"><ele>236.2</ele><time>2026-04-26T06:56:58.731Z</time></trkpt><trkpt lat="45.5666062" lon="10.7384221"><ele>237.0</ele><time>2026-04-26T06:56:59.733Z</time></trkpt><trkpt lat="45.5666933" lon="10.738311"><ele>237.0</ele><time>2026-04-26T06:57:00.733Z</time></trkpt><trkpt lat="45.5667829" lon="10.7382005"><ele>237.0</ele><time>2026-04-26T06:57:01.733Z</time></trkpt><trkpt lat="45.5668648" lon="10.7380922"><ele>237.0</ele><time>2026-04-26T06:57:02.727Z</time></trkpt><trkpt lat="45.5669479" lon="10.7379831"><ele>237.0</ele><time>2026-04-26T06:57:03.731Z</time></trkpt><trkpt lat="45.5670234" lon="10.7378778"><ele>237.0</ele><time>2026-04-26T06:57:04.729Z</time></trkpt><trkpt lat="45.5670963" lon="10.7377645"><ele>235.6</ele><time>2026-04-26T06:57:05.731Z</time></trkpt><trkpt lat="45.5671718" lon="10.7376505"><ele>234.2</ele><time>2026-04-26T06:57:06.732Z</time></trkpt><trkpt lat="45.5672485" lon="10.7375329"><ele>232.8</ele><time>2026-04-26T06:57:07.73Z</time></trkpt><trkpt lat="45.5673215" lon="10.7374134"><ele>231.4</ele><time>2026-04-26T06:57:08.725Z</time></trkpt><trkpt lat="45.567388" lon="10.7372961"><ele>230.0</ele><time>2026-04-26T06:57:09.731Z</time></trkpt><trkpt lat="45.5674552" lon="10.7371793"><ele>230.0</ele><time>2026-04-26T06:57:10.724Z</time></trkpt><trkpt lat="45.5675168" lon="10.737062"><ele>230.0</ele><time>2026-04-26T06:57:11.728Z</time></trkpt><trkpt lat="45.5675699" lon="10.7369373"><ele>230.0</ele><time>2026-04-26T06:57:12.72Z</time></trkpt><trkpt lat="45.5676148" lon="10.7368023"><ele>230.0</ele><time>2026-04-26T06:57:13.723Z</time></trkpt><trkpt lat="45.5676399" lon="10.7366599"><ele>230.0</ele><time>2026-04-26T06:57:14.727Z</time></trkpt><trkpt lat="45.5676405" lon="10.7365213"><ele>229.83333333333334</ele><time>2026-04-26T06:57:15.728Z</time></trkpt><trkpt lat="45.5676358" lon="10.7363974"><ele>229.66666666666669</ele><time>2026-04-26T06:57:16.729Z</time></trkpt><trkpt lat="45.5676234" lon="10.7362976"><ele>229.5</ele><time>2026-04-26T06:57:17.734Z</time></trkpt><trkpt lat="45.5676198" lon="10.7361799"><ele>229.33333333333331</ele><time>2026-04-26T06:57:19.731Z</time></trkpt><trkpt lat="45.5676984" lon="10.7362276"><ele>229.16666666666666</ele><time>2026-04-26T06:57:22.72Z</time></trkpt><trkpt lat="45.5677404" lon="10.7363069"><ele>229.0</ele><time>2026-04-26T06:57:23.716Z</time></trkpt><trkpt lat="45.5678091" lon="10.7364231"><ele>229.0</ele><time>2026-04-26T06:57:25.707Z</time></trkpt><trkpt lat="45.5678755" lon="10.7364248"><ele>228.99999999999997</ele><time>2026-04-26T06:57:29.719Z</time></trkpt><trkpt lat="45.5679022" lon="10.7362922"><ele>228.99999999999997</ele><time>2026-04-26T06:57:33.718Z</time></trkpt><trkpt lat="45.5678497" lon="10.7361215"><ele>229.0</ele><time>2026-04-26T06:57:35.717Z</time></trkpt><trkpt lat="45.5678029" lon="10.736019"><ele>229.0</ele><time>2026-04-26T06:57:36.728Z</time></trkpt><trkpt lat="45.5677639" lon="10.7359188"><ele>228.2</ele><time>2026-04-26T06:57:37.723Z</time></trkpt><trkpt lat="45.5677549" lon="10.7357756"><ele>227.39999999999998</ele><time>2026-04-26T06:57:39.717Z</time></trkpt><trkpt lat="45.5678724" lon="10.7357635"><ele>226.6</ele><time>2026-04-26T06:57:42.718Z</time></trkpt><trkpt lat="45.5679611" lon="10.7358031"><ele>225.8</ele><time>2026-04-26T06:57:43.72Z</time></trkpt><trkpt lat="45.5680686" lon="10.7358549"><ele>225.0</ele><time>2026-04-26T06:57:44.736Z</time></trkpt><trkpt lat="45.568192" lon="10.7359115"><ele>223.75</ele><time>2026-04-26T06:57:45.724Z</time></trkpt><trkpt lat="45.5683176" lon="10.7359649"><ele>222.5</ele><time>2026-04-26T06:57:46.731Z</time></trkpt><trkpt lat="45.5684454" lon="10.7360048"><ele>221.25</ele><time>2026-04-26T06:57:47.724Z</time></trkpt><trkpt lat="45.5685679" lon="10.7360244"><ele>220.0</ele><time>2026-04-26T06:57:48.724Z</time></trkpt><trkpt lat="45.5686937" lon="10.7360195"><ele>219.75</ele><time>2026-04-26T06:57:49.725Z</time></trkpt><trkpt lat="45.5688203" lon="10.7360089"><ele>219.5</ele><time>2026-04-26T06:57:50.727Z</time></trkpt><trkpt lat="45.5689349" lon="10.7360038"><ele>219.25</ele><time>2026-04-26T06:57:51.724Z</time></trkpt><trkpt lat="45.5690483" lon="10.7360088"><ele>219.0</ele><time>2026-04-26T06:57:52.723Z</time></trkpt><trkpt lat="45.5691616" lon="10.7360287"><ele>219.0</ele><time>2026-04-26T06:57:53.721Z</time></trkpt><trkpt lat="45.5692766" lon="10.7360739"><ele>219.0</ele><time>2026-04-26T06:57:54.717Z</time></trkpt><trkpt lat="45.5693952" lon="10.7361327"><ele>219.0</ele><time>2026-04-26T06:57:55.728Z</time></trkpt><trkpt lat="45.5695065" lon="10.736191"><ele>219.0</ele><time>2026-04-26T06:57:56.718Z</time></trkpt><trkpt lat="45.5696152" lon="10.7362338"><ele>219.0</ele><time>2026-04-26T06:57:57.725Z</time></trkpt><trkpt lat="45.5697219" lon="10.7362553"><ele>218.99999999999997</ele><time>2026-04-26T06:57:58.725Z</time></trkpt><trkpt lat="45.5698276" lon="10.7362775"><ele>218.99999999999997</ele><time>2026-04-26T06:57:59.723Z</time></trkpt><trkpt lat="45.5699356" lon="10.736292"><ele>219.0</ele><time>2026-04-26T06:58:00.725Z</time></trkpt><trkpt lat="45.5700437" lon="10.7363056"><ele>219.0</ele><time>2026-04-26T06:58:01.724Z</time></trkpt><trkpt lat="45.5701471" lon="10.7363112"><ele>219.0</ele><time>2026-04-26T06:58:02.724Z</time></trkpt><trkpt lat="45.570251" lon="10.7363158"><ele>219.0</ele><time>2026-04-26T06:58:03.725Z</time></trkpt><trkpt lat="45.5703506" lon="10.7363174"><ele>219.0</ele><time>2026-04-26T06:58:04.72Z</time></trkpt><trkpt lat="45.5704436" lon="10.7363124"><ele>219.0</ele><time>2026-04-26T06:58:05.712Z</time></trkpt><trkpt lat="45.5705283" lon="10.7363136"><ele>219.0</ele><time>2026-04-26T06:58:06.71Z</time></trkpt><trkpt lat="45.5705964" lon="10.7363137"><ele>219.0</ele><time>2026-04-26T06:58:07.71Z</time></trkpt><trkpt lat="45.5706772" lon="10.7363162"><ele>219.5</ele><time>2026-04-26T06:58:09.711Z</time></trkpt><trkpt lat="45.5707364" lon="10.7363849"><ele>220.0</ele><time>2026-04-26T06:58:11.721Z</time></trkpt><trkpt lat="45.5707623" lon="10.7364778"><ele>220.5</ele><time>2026-04-26T06:58:12.717Z</time></trkpt><trkpt lat="45.5707847" lon="10.7366162"><ele>221.0</ele><time>2026-04-26T06:58:13.712Z</time></trkpt><trkpt lat="45.5708032" lon="10.7367637"><ele>221.5</ele><time>2026-04-26T06:58:14.722Z</time></trkpt><trkpt lat="45.5708251" lon="10.7368991"><ele>222.0</ele><time>2026-04-26T06:58:15.717Z</time></trkpt><trkpt lat="45.5708471" lon="10.7370379"><ele>222.0</ele><time>2026-04-26T06:58:16.719Z</time></trkpt><trkpt lat="45.5708574" lon="10.7371762"><ele>222.0</ele><time>2026-04-26T06:58:17.724Z</time></trkpt><trkpt lat="45.5708603" lon="10.7373196"><ele>222.0</ele><time>2026-04-26T06:58:18.723Z</time></trkpt><trkpt lat="45.5708613" lon="10.7374591"><ele>222.0</ele><time>2026-04-26T06:58:19.724Z</time></trkpt><trkpt lat="45.5708596" lon="10.7375957"><ele>222.0</ele><time>2026-04-26T06:58:20.721Z</time></trkpt><trkpt lat="45.5708521" lon="10.7377274"><ele>222.33333333333334</ele><time>2026-04-26T06:58:21.722Z</time></trkpt><trkpt lat="45.5708478" lon="10.7378254"><ele>222.66666666666669</ele><time>2026-04-26T06:58:22.714Z</time></trkpt><trkpt lat="45.5708577" lon="10.7379904"><ele>223.0</ele><time>2026-04-26T06:58:24.72Z</time></trkpt><trkpt lat="45.5708609" lon="10.7381577"><ele>223.33333333333334</ele><time>2026-04-26T06:58:26.719Z</time></trkpt><trkpt lat="45.570867" lon="10.7382558"><ele>223.66666666666669</ele><time>2026-04-26T06:58:27.71Z</time></trkpt><trkpt lat="45.5708766" lon="10.7383542"><ele>224.0</ele><time>2026-04-26T06:58:28.741Z</time></trkpt><trkpt lat="45.5708853" lon="10.7384682"><ele>223.50000000000003</ele><time>2026-04-26T06:58:29.732Z</time></trkpt><trkpt lat="45.5708938" lon="10.7385747"><ele>223.0</ele><time>2026-04-26T06:58:30.721Z</time></trkpt><trkpt lat="45.5708991" lon="10.7386898"><ele>222.5</ele><time>2026-04-26T06:58:31.726Z</time></trkpt><trkpt lat="45.5709028" lon="10.7388031"><ele>222.0</ele><time>2026-04-26T06:58:32.725Z</time></trkpt><trkpt lat="45.5709073" lon="10.7389308"><ele>221.50000000000003</ele><time>2026-04-26T06:58:33.722Z</time></trkpt><trkpt lat="45.5709094" lon="10.739056"><ele>221.0</ele><time>2026-04-26T06:58:34.726Z</time></trkpt><trkpt lat="45.5709067" lon="10.7391841"><ele>221.00000000000003</ele><time>2026-04-26T06:58:35.724Z</time></trkpt><trkpt lat="45.5709074" lon="10.739303"><ele>221.0</ele><time>2026-04-26T06:58:36.729Z</time></trkpt><trkpt lat="45.5709087" lon="10.7394197"><ele>221.0</ele><time>2026-04-26T06:58:37.725Z</time></trkpt><trkpt lat="45.5709123" lon="10.739525"><ele>221.0</ele><time>2026-04-26T06:58:38.727Z</time></trkpt><trkpt lat="45.5709126" lon="10.7396185"><ele>221.00000000000003</ele><time>2026-04-26T06:58:39.732Z</time></trkpt><trkpt lat="45.5709074" lon="10.7397326"><ele>221.0</ele><time>2026-04-26T06:58:41.729Z</time></trkpt><trkpt lat="45.5709773" lon="10.7397554"><ele>221.00000000000003</ele><time>2026-04-26T06:58:44.727Z</time></trkpt><trkpt lat="45.5710284" lon="10.7396819"><ele>221.0</ele><time>2026-04-26T06:58:56.851Z</time></trkpt><trkpt lat="45.5711108" lon="10.7396218"><ele>221.0</ele><time>2026-04-26T06:58:59.725Z</time></trkpt><trkpt lat="45.571191" lon="10.7396236"><ele>221.0</ele><time>2026-04-26T06:59:01.73Z</time></trkpt><trkpt lat="45.5712535" lon="10.7397251"><ele>221.00000000000003</ele><time>2026-04-26T06:59:03.72Z</time></trkpt><trkpt lat="45.5712746" lon="10.7398101"><ele>221.0</ele><time>2026-04-26T06:59:04.717Z</time></trkpt><trkpt lat="45.5712879" lon="10.7399031"><ele>218.50000000000003</ele><time>2026-04-26T06:59:05.72Z</time></trkpt><trkpt lat="45.571287" lon="10.7400053"><ele>216.0</ele><time>2026-04-26T06:59:06.721Z</time></trkpt><trkpt lat="45.5712796" lon="10.7401132"><ele>213.5</ele><time>2026-04-26T06:59:07.722Z</time></trkpt><trkpt lat="45.5712714" lon="10.7402162"><ele>211.0</ele><time>2026-04-26T06:59:08.727Z</time></trkpt><trkpt lat="45.5712637" lon="10.740314"><ele>208.50000000000003</ele><time>2026-04-26T06:59:09.722Z</time></trkpt><trkpt lat="45.5712536" lon="10.7404059"><ele>206.0</ele><time>2026-04-26T06:59:10.722Z</time></trkpt><trkpt lat="45.5712326" lon="10.7405658"><ele>205.4</ele><time>2026-04-26T06:59:12.722Z</time></trkpt><trkpt lat="45.5712318" lon="10.7407308"><ele>204.8</ele><time>2026-04-26T06:59:14.717Z</time></trkpt><trkpt lat="45.5712452" lon="10.7408952"><ele>204.20000000000002</ele><time>2026-04-26T06:59:16.722Z</time></trkpt><trkpt lat="45.5712331" lon="10.7410284"><ele>203.60000000000002</ele><time>2026-04-26T06:59:18.717Z</time></trkpt><trkpt lat="45.5711788" lon="10.7411494"><ele>203.0</ele><time>2026-04-26T06:59:20.712Z</time></trkpt><trkpt lat="45.5710972" lon="10.7412698"><ele>207.33333333333334</ele><time>2026-04-26T06:59:22.718Z</time></trkpt><trkpt lat="45.5710593" lon="10.7414187"><ele>211.66666666666669</ele><time>2026-04-26T06:59:24.708Z</time></trkpt><trkpt lat="45.5710668" lon="10.7415235"><ele>216.0</ele><time>2026-04-26T06:59:25.711Z</time></trkpt><trkpt lat="45.5710874" lon="10.7416324"><ele>220.33333333333331</ele><time>2026-04-26T06:59:26.71Z</time></trkpt><trkpt lat="45.5711071" lon="10.7417356"><ele>224.66666666666666</ele><time>2026-04-26T06:59:27.705Z</time></trkpt><trkpt lat="45.5711262" lon="10.7418248"><ele>229.0</ele><time>2026-04-26T06:59:28.708Z</time></trkpt><trkpt lat="45.5711735" lon="10.741959"><ele>225.2</ele><time>2026-04-26T06:59:30.718Z</time></trkpt><trkpt lat="45.5712292" lon="10.7421256"><ele>221.39999999999998</ele><time>2026-04-26T06:59:32.714Z</time></trkpt><trkpt lat="45.5712737" lon="10.7422508"><ele>217.6</ele><time>2026-04-26T06:59:33.71Z</time></trkpt><trkpt lat="45.5713097" lon="10.7424032"><ele>213.8</ele><time>2026-04-26T06:59:34.71Z</time></trkpt><trkpt lat="45.5713355" lon="10.7425463"><ele>210.0</ele><time>2026-04-26T06:59:35.714Z</time></trkpt><trkpt lat="45.5713592" lon="10.742689"><ele>210.4</ele><time>2026-04-26T06:59:36.706Z</time></trkpt><trkpt lat="45.5713801" lon="10.7428126"><ele>210.8</ele><time>2026-04-26T06:59:37.708Z</time></trkpt><trkpt lat="45.5714054" lon="10.7429584"><ele>211.2</ele><time>2026-04-26T06:59:38.705Z</time></trkpt><trkpt lat="45.5714412" lon="10.7431094"><ele>211.6</ele><time>2026-04-26T06:59:39.717Z</time></trkpt><trkpt lat="45.571486" lon="10.7432567"><ele>212.0</ele><time>2026-04-26T06:59:40.712Z</time></trkpt><trkpt lat="45.5715357" lon="10.743413"><ele>212.0</ele><time>2026-04-26T06:59:41.719Z</time></trkpt><trkpt lat="45.5715866" lon="10.7435726"><ele>212.0</ele><time>2026-04-26T06:59:42.723Z</time></trkpt><trkpt lat="45.5716382" lon="10.7437273"><ele>212.0</ele><time>2026-04-26T06:59:43.721Z</time></trkpt><trkpt lat="45.5716831" lon="10.7438825"><ele>212.0</ele><time>2026-04-26T06:59:44.724Z</time></trkpt><trkpt lat="45.5717206" lon="10.7440328"><ele>212.0</ele><time>2026-04-26T06:59:45.725Z</time></trkpt><trkpt lat="45.5717528" lon="10.7441749"><ele>212.0</ele><time>2026-04-26T06:59:46.721Z</time></trkpt><trkpt lat="45.5717864" lon="10.7442957"><ele>212.0</ele><time>2026-04-26T06:59:47.722Z</time></trkpt><trkpt lat="45.5718135" lon="10.7443916"><ele>212.0</ele><time>2026-04-26T06:59:48.717Z</time></trkpt><trkpt lat="45.5718538" lon="10.7445343"><ele>212.0</ele><time>2026-04-26T06:59:50.718Z</time></trkpt><trkpt lat="45.5718869" lon="10.744666"><ele>212.00000000000003</ele><time>2026-04-26T06:59:52.716Z</time></trkpt><trkpt lat="45.5718774" lon="10.7447976"><ele>212.0</ele><time>2026-04-26T06:59:54.721Z</time></trkpt><trkpt lat="45.5718616" lon="10.7447027"><ele>212.0</ele><time>2026-04-26T07:00:03.715Z</time></trkpt><trkpt lat="45.5718298" lon="10.7445727"><ele>212.0</ele><time>2026-04-26T07:00:05.723Z</time></trkpt><trkpt lat="45.5718037" lon="10.7444814"><ele>212.00000000000003</ele><time>2026-04-26T07:00:06.719Z</time></trkpt><trkpt lat="45.5717809" lon="10.7443882"><ele>212.0</ele><time>2026-04-26T07:00:07.717Z</time></trkpt><trkpt lat="45.571762" lon="10.7442542"><ele>212.0</ele><time>2026-04-26T07:00:09.708Z</time></trkpt><trkpt lat="45.5717592" lon="10.7441232"><ele>212.0</ele><time>2026-04-26T07:00:12.72Z</time></trkpt><trkpt lat="45.5717862" lon="10.7439985"><ele>212.0</ele><time>2026-04-26T07:00:14.711Z</time></trkpt><trkpt lat="45.5718073" lon="10.7438179"><ele>212.0</ele><time>2026-04-26T07:00:16.708Z</time></trkpt><trkpt lat="45.571824" lon="10.7437048"><ele>212.0</ele><time>2026-04-26T07:00:17.707Z</time></trkpt><trkpt lat="45.5718468" lon="10.7435781"><ele>212.00000000000003</ele><time>2026-04-26T07:00:18.711Z</time></trkpt><trkpt lat="45.5718679" lon="10.7434543"><ele>212.0</ele><time>2026-04-26T07:00:19.71Z</time></trkpt><trkpt lat="45.5718913" lon="10.7433438"><ele>212.0</ele><time>2026-04-26T07:00:20.708Z</time></trkpt><trkpt lat="45.57191" lon="10.7432382"><ele>212.0</ele><time>2026-04-26T07:00:21.703Z</time></trkpt><trkpt lat="45.5719254" lon="10.7431464"><ele>212.00000000000003</ele><time>2026-04-26T07:00:22.704Z</time></trkpt><trkpt lat="45.5719496" lon="10.7430191"><ele>212.0</ele><time>2026-04-26T07:00:24.705Z</time></trkpt><trkpt lat="45.5719849" lon="10.7428882"><ele>213.2</ele><time>2026-04-26T07:00:26.712Z</time></trkpt><trkpt lat="45.5720371" lon="10.7427177"><ele>214.39999999999998</ele><time>2026-04-26T07:00:28.712Z</time></trkpt><trkpt lat="45.5720692" lon="10.7426246"><ele>215.60000000000002</ele><time>2026-04-26T07:00:29.711Z</time></trkpt><trkpt lat="45.5721216" lon="10.7424897"><ele>216.8</ele><time>2026-04-26T07:00:31.723Z</time></trkpt><trkpt lat="45.5721643" lon="10.7424178"><ele>218.0</ele><time>2026-04-26T07:00:34.719Z</time></trkpt><trkpt lat="45.5722467" lon="10.7424028"><ele>218.0</ele><time>2026-04-26T07:00:37.711Z</time></trkpt><trkpt lat="45.5723016" lon="10.7424478"><ele>218.0</ele><time>2026-04-26T07:00:38.701Z</time></trkpt><trkpt lat="45.5723551" lon="10.7425188"><ele>218.0</ele><time>2026-04-26T07:00:39.709Z</time></trkpt><trkpt lat="45.5724279" lon="10.7426213"><ele>218.0</ele><time>2026-04-26T07:00:40.709Z</time></trkpt><trkpt lat="45.5725154" lon="10.7427276"><ele>218.0</ele><time>2026-04-26T07:00:41.701Z</time></trkpt><trkpt lat="45.5726029" lon="10.7428329"><ele>218.0</ele><time>2026-04-26T07:00:42.701Z</time></trkpt><trkpt lat="45.5726873" lon="10.7429236"><ele>218.0</ele><time>2026-04-26T07:00:43.701Z</time></trkpt><trkpt lat="45.5727749" lon="10.7430039"><ele>218.0</ele><time>2026-04-26T07:00:44.7Z</time></trkpt><trkpt lat="45.5728685" lon="10.7430876"><ele>218.0</ele><time>2026-04-26T07:00:45.704Z</time></trkpt><trkpt lat="45.5729574" lon="10.7431667"><ele>218.0</ele><time>2026-04-26T07:00:46.709Z</time></trkpt><trkpt lat="45.573053" lon="10.7432527"><ele>218.8</ele><time>2026-04-26T07:00:47.705Z</time></trkpt><trkpt lat="45.5731423" lon="10.7433425"><ele>219.60000000000002</ele><time>2026-04-26T07:00:48.706Z</time></trkpt><trkpt lat="45.5732241" lon="10.7434221"><ele>220.39999999999998</ele><time>2026-04-26T07:00:49.704Z</time></trkpt><trkpt lat="45.5733002" lon="10.7434953"><ele>221.2</ele><time>2026-04-26T07:00:50.706Z</time></trkpt><trkpt lat="45.5733759" lon="10.7435687"><ele>222.0</ele><time>2026-04-26T07:00:51.701Z</time></trkpt><trkpt lat="45.5734466" lon="10.7436414"><ele>222.0</ele><time>2026-04-26T07:00:52.71Z</time></trkpt><trkpt lat="45.573519" lon="10.7437272"><ele>222.0</ele><time>2026-04-26T07:00:53.706Z</time></trkpt><trkpt lat="45.5735906" lon="10.7438361"><ele>222.0</ele><time>2026-04-26T07:00:54.706Z</time></trkpt><trkpt lat="45.5736601" lon="10.7439429"><ele>222.0</ele><time>2026-04-26T07:00:55.706Z</time></trkpt><trkpt lat="45.573735" lon="10.7440409"><ele>222.0</ele><time>2026-04-26T07:00:56.706Z</time></trkpt><trkpt lat="45.5738055" lon="10.7441246"><ele>222.16666666666666</ele><time>2026-04-26T07:00:57.695Z</time></trkpt><trkpt lat="45.5738682" lon="10.7441797"><ele>222.33333333333331</ele><time>2026-04-26T07:00:58.707Z</time></trkpt><trkpt lat="45.5739711" lon="10.7442089"><ele>222.5</ele><time>2026-04-26T07:01:00.694Z</time></trkpt><trkpt lat="45.574029" lon="10.7443397"><ele>222.66666666666666</ele><time>2026-04-26T07:01:21.707Z</time></trkpt><trkpt lat="45.574079" lon="10.7444129"><ele>222.83333333333331</ele><time>2026-04-26T07:01:22.707Z</time></trkpt><trkpt lat="45.5741266" lon="10.7444808"><ele>223.0</ele><time>2026-04-26T07:01:23.711Z</time></trkpt><trkpt lat="45.5741833" lon="10.7445544"><ele>222.99999999999997</ele><time>2026-04-26T07:01:24.709Z</time></trkpt><trkpt lat="45.5742417" lon="10.7446318"><ele>223.0</ele><time>2026-04-26T07:01:25.706Z</time></trkpt><trkpt lat="45.5743029" lon="10.7447167"><ele>223.0</ele><time>2026-04-26T07:01:26.708Z</time></trkpt><trkpt lat="45.5743581" lon="10.7447968"><ele>223.0</ele><time>2026-04-26T07:01:27.706Z</time></trkpt><trkpt lat="45.5744133" lon="10.744868"><ele>222.99999999999997</ele><time>2026-04-26T07:01:28.715Z</time></trkpt><trkpt lat="45.5744647" lon="10.7449382"><ele>223.0</ele><time>2026-04-26T07:01:29.713Z</time></trkpt><trkpt lat="45.5745138" lon="10.7450037"><ele>223.16666666666666</ele><time>2026-04-26T07:01:30.71Z</time></trkpt><trkpt lat="45.574563" lon="10.7450613"><ele>223.33333333333331</ele><time>2026-04-26T07:01:31.706Z</time></trkpt><trkpt lat="45.5746315" lon="10.7451731"><ele>223.5</ele><time>2026-04-26T07:01:33.716Z</time></trkpt><trkpt lat="45.5746954" lon="10.7452571"><ele>223.66666666666669</ele><time>2026-04-26T07:01:35.711Z</time></trkpt><trkpt lat="45.5747653" lon="10.7453347"><ele>223.83333333333334</ele><time>2026-04-26T07:01:37.714Z</time></trkpt><trkpt lat="45.5748344" lon="10.7454237"><ele>224.0</ele><time>2026-04-26T07:01:39.721Z</time></trkpt><trkpt lat="45.5749082" lon="10.7455577"><ele>224.00000000000003</ele><time>2026-04-26T07:01:41.707Z</time></trkpt><trkpt lat="45.574944" lon="10.7456432"><ele>224.0</ele><time>2026-04-26T07:01:42.711Z</time></trkpt><trkpt lat="45.5749918" lon="10.7457275"><ele>224.0</ele><time>2026-04-26T07:01:43.707Z</time></trkpt><trkpt lat="45.5750495" lon="10.745807"><ele>224.0</ele><time>2026-04-26T07:01:44.716Z</time></trkpt><trkpt lat="45.5751172" lon="10.7458762"><ele>224.00000000000003</ele><time>2026-04-26T07:01:45.708Z</time></trkpt><trkpt lat="45.5751931" lon="10.745944"><ele>224.0</ele><time>2026-04-26T07:01:46.712Z</time></trkpt><trkpt lat="45.5752743" lon="10.7460073"><ele>225.79999999999998</ele><time>2026-04-26T07:01:47.705Z</time></trkpt><trkpt lat="45.5753552" lon="10.7460658"><ele>227.59999999999997</ele><time>2026-04-26T07:01:48.713Z</time></trkpt><trkpt lat="45.5754425" lon="10.7461214"><ele>229.4</ele><time>2026-04-26T07:01:49.699Z</time></trkpt><trkpt lat="45.5755388" lon="10.7461759"><ele>231.2</ele><time>2026-04-26T07:01:50.702Z</time></trkpt><trkpt lat="45.5756411" lon="10.7462198"><ele>233.0</ele><time>2026-04-26T07:01:51.703Z</time></trkpt><trkpt lat="45.5757475" lon="10.7462508"><ele>233.0</ele><time>2026-04-26T07:01:52.707Z</time></trkpt><trkpt lat="45.5758563" lon="10.746269"><ele>233.0</ele><time>2026-04-26T07:01:53.704Z</time></trkpt><trkpt lat="45.5759628" lon="10.7462737"><ele>233.0</ele><time>2026-04-26T07:01:54.705Z</time></trkpt><trkpt lat="45.5760641" lon="10.7462703"><ele>233.0</ele><time>2026-04-26T07:01:55.713Z</time></trkpt><trkpt lat="45.5761687" lon="10.7462623"><ele>233.0</ele><time>2026-04-26T07:01:56.713Z</time></trkpt><trkpt lat="45.5762603" lon="10.7462492"><ele>233.33333333333334</ele><time>2026-04-26T07:01:57.715Z</time></trkpt><trkpt lat="45.5763459" lon="10.7462387"><ele>233.66666666666669</ele><time>2026-04-26T07:01:58.721Z</time></trkpt><trkpt lat="45.5764328" lon="10.7462339"><ele>234.0</ele><time>2026-04-26T07:01:59.717Z</time></trkpt><trkpt lat="45.5765128" lon="10.7462307"><ele>234.33333333333331</ele><time>2026-04-26T07:02:00.716Z</time></trkpt><trkpt lat="45.5765806" lon="10.7462358"><ele>234.66666666666666</ele><time>2026-04-26T07:02:01.715Z</time></trkpt><trkpt lat="45.5766783" lon="10.7462905"><ele>235.0</ele><time>2026-04-26T07:02:03.713Z</time></trkpt><trkpt lat="45.57675" lon="10.7464135"><ele>234.99999999999997</ele><time>2026-04-26T07:02:05.719Z</time></trkpt><trkpt lat="45.5767621" lon="10.7465044"><ele>235.0</ele><time>2026-04-26T07:02:06.73Z</time></trkpt><trkpt lat="45.5767652" lon="10.7466278"><ele>235.0</ele><time>2026-04-26T07:02:07.724Z</time></trkpt><trkpt lat="45.576782" lon="10.7467363"><ele>235.0</ele><time>2026-04-26T07:02:08.718Z</time></trkpt><trkpt lat="45.5768067" lon="10.7468268"><ele>234.99999999999997</ele><time>2026-04-26T07:02:09.712Z</time></trkpt><trkpt lat="45.5768989" lon="10.7469342"><ele>235.0</ele><time>2026-04-26T07:02:11.716Z</time></trkpt><trkpt lat="45.5769618" lon="10.7469488"><ele>234.8</ele><time>2026-04-26T07:02:12.722Z</time></trkpt><trkpt lat="45.5770429" lon="10.7469236"><ele>234.6</ele><time>2026-04-26T07:02:13.717Z</time></trkpt><trkpt lat="45.5771331" lon="10.7468787"><ele>234.39999999999998</ele><time>2026-04-26T07:02:14.719Z</time></trkpt><trkpt lat="45.5772225" lon="10.7468218"><ele>234.2</ele><time>2026-04-26T07:02:15.713Z</time></trkpt><trkpt lat="45.577309" lon="10.7467641"><ele>234.0</ele><time>2026-04-26T07:02:16.714Z</time></trkpt><trkpt lat="45.5773989" lon="10.7466995"><ele>234.0</ele><time>2026-04-26T07:02:17.711Z</time></trkpt><trkpt lat="45.5774893" lon="10.7466253"><ele>233.99999999999997</ele><time>2026-04-26T07:02:18.718Z</time></trkpt><trkpt lat="45.5775733" lon="10.7465439"><ele>233.99999999999997</ele><time>2026-04-26T07:02:19.713Z</time></trkpt><trkpt lat="45.5776523" lon="10.7464546"><ele>234.0</ele><time>2026-04-26T07:02:20.715Z</time></trkpt><trkpt lat="45.5777287" lon="10.7463708"><ele>234.0</ele><time>2026-04-26T07:02:21.72Z</time></trkpt><trkpt lat="45.5778023" lon="10.7462873"><ele>232.79999999999998</ele><time>2026-04-26T07:02:22.716Z</time></trkpt><trkpt lat="45.5778758" lon="10.7461999"><ele>231.59999999999997</ele><time>2026-04-26T07:02:23.717Z</time></trkpt><trkpt lat="45.5779536" lon="10.7461165"><ele>230.4</ele><time>2026-04-26T07:02:24.717Z</time></trkpt><trkpt lat="45.578032" lon="10.7460398"><ele>229.2</ele><time>2026-04-26T07:02:25.724Z</time></trkpt><trkpt lat="45.5781163" lon="10.7459611"><ele>228.0</ele><time>2026-04-26T07:02:26.72Z</time></trkpt><trkpt lat="45.5782143" lon="10.7458746"><ele>227.75</ele><time>2026-04-26T07:02:27.721Z</time></trkpt><trkpt lat="45.5783191" lon="10.7457831"><ele>227.5</ele><time>2026-04-26T07:02:28.72Z</time></trkpt><trkpt lat="45.5784265" lon="10.745693"><ele>227.25</ele><time>2026-04-26T07:02:29.725Z</time></trkpt><trkpt lat="45.5785366" lon="10.7456044"><ele>227.0</ele><time>2026-04-26T07:02:30.721Z</time></trkpt><trkpt lat="45.5786432" lon="10.7455172"><ele>226.5</ele><time>2026-04-26T07:02:31.719Z</time></trkpt><trkpt lat="45.5787435" lon="10.7454241"><ele>226.0</ele><time>2026-04-26T07:02:32.714Z</time></trkpt><trkpt lat="45.5788413" lon="10.7453255"><ele>225.5</ele><time>2026-04-26T07:02:33.716Z</time></trkpt><trkpt lat="45.5789288" lon="10.745222"><ele>225.0</ele><time>2026-04-26T07:02:34.715Z</time></trkpt><trkpt lat="45.5790073" lon="10.7451124"><ele>224.0</ele><time>2026-04-26T07:02:35.729Z</time></trkpt><trkpt lat="45.5790779" lon="10.7449947"><ele>223.0</ele><time>2026-04-26T07:02:36.727Z</time></trkpt><trkpt lat="45.5791448" lon="10.7448773"><ele>222.0</ele><time>2026-04-26T07:02:37.72Z</time></trkpt><trkpt lat="45.5792005" lon="10.7447736"><ele>221.0</ele><time>2026-04-26T07:02:38.714Z</time></trkpt><trkpt lat="45.5792651" lon="10.7446927"><ele>220.0</ele><time>2026-04-26T07:02:39.711Z</time></trkpt><trkpt lat="45.5793256" lon="10.7446226"><ele>220.0</ele><time>2026-04-26T07:02:40.714Z</time></trkpt><trkpt lat="45.5793874" lon="10.7445767"><ele>220.0</ele><time>2026-04-26T07:02:41.717Z</time></trkpt><trkpt lat="45.5794523" lon="10.7445688"><ele>220.0</ele><time>2026-04-26T07:02:42.721Z</time></trkpt><trkpt lat="45.5795772" lon="10.7446656"><ele>220.0</ele><time>2026-04-26T07:02:44.72Z</time></trkpt><trkpt lat="45.5796543" lon="10.7447389"><ele>220.0</ele><time>2026-04-26T07:02:45.715Z</time></trkpt><trkpt lat="45.5797391" lon="10.7448075"><ele>219.4</ele><time>2026-04-26T07:02:46.72Z</time></trkpt><trkpt lat="45.5798244" lon="10.7448813"><ele>218.8</ele><time>2026-04-26T07:02:47.724Z</time></trkpt><trkpt lat="45.5799083" lon="10.7449562"><ele>218.2</ele><time>2026-04-26T07:02:48.716Z</time></trkpt><trkpt lat="45.5799876" lon="10.7450396"><ele>217.6</ele><time>2026-04-26T07:02:49.724Z</time></trkpt><trkpt lat="45.580069" lon="10.7451261"><ele>217.0</ele><time>2026-04-26T07:02:50.718Z</time></trkpt><trkpt lat="45.5801517" lon="10.7452112"><ele>218.39999999999998</ele><time>2026-04-26T07:02:51.721Z</time></trkpt><trkpt lat="45.5802378" lon="10.7452934"><ele>219.79999999999998</ele><time>2026-04-26T07:02:52.713Z</time></trkpt><trkpt lat="45.5803294" lon="10.7453614"><ele>221.2</ele><time>2026-04-26T07:02:53.711Z</time></trkpt><trkpt lat="45.580427" lon="10.7454083"><ele>222.6</ele><time>2026-04-26T07:02:54.71Z</time></trkpt><trkpt lat="45.5805231" lon="10.7454342"><ele>224.0</ele><time>2026-04-26T07:02:55.714Z</time></trkpt><trkpt lat="45.5806223" lon="10.7454565"><ele>225.79999999999998</ele><time>2026-04-26T07:02:56.716Z</time></trkpt><trkpt lat="45.5807241" lon="10.7454812"><ele>227.59999999999997</ele><time>2026-04-26T07:02:57.695Z</time></trkpt><trkpt lat="45.5808238" lon="10.7455004"><ele>229.4</ele><time>2026-04-26T07:02:58.715Z</time></trkpt><trkpt lat="45.5809198" lon="10.745516"><ele>231.2</ele><time>2026-04-26T07:02:59.706Z</time></trkpt><trkpt lat="45.581022" lon="10.7455414"><ele>233.0</ele><time>2026-04-26T07:03:00.704Z</time></trkpt><trkpt lat="45.5811162" lon="10.7455702"><ele>231.50000000000003</ele><time>2026-04-26T07:03:01.708Z</time></trkpt><trkpt lat="45.5812016" lon="10.7455873"><ele>230.0</ele><time>2026-04-26T07:03:02.706Z</time></trkpt><trkpt lat="45.5812801" lon="10.7455867"><ele>228.5</ele><time>2026-04-26T07:03:03.709Z</time></trkpt><trkpt lat="45.5813505" lon="10.7455417"><ele>227.0</ele><time>2026-04-26T07:03:04.705Z</time></trkpt><trkpt lat="45.5814107" lon="10.74544"><ele>225.50000000000003</ele><time>2026-04-26T07:03:05.703Z</time></trkpt><trkpt lat="45.5814494" lon="10.7452883"><ele>224.0</ele><time>2026-04-26T07:03:06.721Z</time></trkpt><trkpt lat="45.581469" lon="10.7451095"><ele>223.66666666666669</ele><time>2026-04-26T07:03:07.718Z</time></trkpt><trkpt lat="45.5814982" lon="10.7449645"><ele>223.33333333333334</ele><time>2026-04-26T07:03:08.718Z</time></trkpt><trkpt lat="45.581527" lon="10.7448468"><ele>223.0</ele><time>2026-04-26T07:03:09.715Z</time></trkpt><trkpt lat="45.5815627" lon="10.7447524"><ele>222.66666666666669</ele><time>2026-04-26T07:03:10.716Z</time></trkpt><trkpt lat="45.5816093" lon="10.7446885"><ele>222.33333333333334</ele><time>2026-04-26T07:03:11.721Z</time></trkpt><trkpt lat="45.5816826" lon="10.7446657"><ele>222.0</ele><time>2026-04-26T07:03:12.72Z</time></trkpt><trkpt lat="45.5817785" lon="10.744675"><ele>222.0</ele><time>2026-04-26T07:03:13.715Z</time></trkpt><trkpt lat="45.5819071" lon="10.7447056"><ele>222.0</ele><time>2026-04-26T07:03:14.714Z</time></trkpt><trkpt lat="45.5820506" lon="10.744739"><ele>222.0</ele><time>2026-04-26T07:03:15.712Z</time></trkpt><trkpt lat="45.5822002" lon="10.7447583"><ele>222.0</ele><time>2026-04-26T07:03:16.71Z</time></trkpt><trkpt lat="45.5823557" lon="10.7447714"><ele>223.0</ele><time>2026-04-26T07:03:17.718Z</time></trkpt><trkpt lat="45.5825078" lon="10.7447617"><ele>224.0</ele><time>2026-04-26T07:03:18.715Z</time></trkpt><trkpt lat="45.5826561" lon="10.7447213"><ele>225.0</ele><time>2026-04-26T07:03:19.714Z</time></trkpt><trkpt lat="45.5827881" lon="10.7446637"><ele>226.0</ele><time>2026-04-26T07:03:20.713Z</time></trkpt><trkpt lat="45.5829094" lon="10.7446102"><ele>226.4</ele><time>2026-04-26T07:03:21.716Z</time></trkpt><trkpt lat="45.5830261" lon="10.7445818"><ele>226.8</ele><time>2026-04-26T07:03:22.714Z</time></trkpt><trkpt lat="45.5831255" lon="10.7445642"><ele>227.20000000000002</ele><time>2026-04-26T07:03:23.707Z</time></trkpt><trkpt lat="45.5832246" lon="10.7445791"><ele>227.60000000000002</ele><time>2026-04-26T07:03:24.714Z</time></trkpt><trkpt lat="45.5833278" lon="10.7446159"><ele>228.0</ele><time>2026-04-26T07:03:25.709Z</time></trkpt><trkpt lat="45.5834323" lon="10.7446922"><ele>228.0</ele><time>2026-04-26T07:03:26.715Z</time></trkpt><trkpt lat="45.5835383" lon="10.744759"><ele>228.0</ele><time>2026-04-26T07:03:27.709Z</time></trkpt><trkpt lat="45.5836492" lon="10.7448048"><ele>228.0</ele><time>2026-04-26T07:03:28.706Z</time></trkpt><trkpt lat="45.5837635" lon="10.7448375"><ele>228.0</ele><time>2026-04-26T07:03:29.7Z</time></trkpt><trkpt lat="45.5838821" lon="10.7448365"><ele>229.0</ele><time>2026-04-26T07:03:30.699Z</time></trkpt><trkpt lat="45.5840075" lon="10.744809"><ele>230.0</ele><time>2026-04-26T07:03:31.706Z</time></trkpt><trkpt lat="45.5841404" lon="10.7447706"><ele>231.0</ele><time>2026-04-26T07:03:32.702Z</time></trkpt><trkpt lat="45.584277" lon="10.7447115"><ele>232.0</ele><time>2026-04-26T07:03:33.699Z</time></trkpt><trkpt lat="45.5844169" lon="10.7446325"><ele>233.0</ele><time>2026-04-26T07:03:34.702Z</time></trkpt><trkpt lat="45.5845628" lon="10.7445383"><ele>234.0</ele><time>2026-04-26T07:03:35.702Z</time></trkpt><trkpt lat="45.5847132" lon="10.7444425"><ele>235.0</ele><time>2026-04-26T07:03:36.711Z</time></trkpt><trkpt lat="45.5848496" lon="10.7443412"><ele>235.0</ele><time>2026-04-26T07:03:37.705Z</time></trkpt><trkpt lat="45.5849766" lon="10.7442354"><ele>235.0</ele><time>2026-04-26T07:03:38.716Z</time></trkpt><trkpt lat="45.5850949" lon="10.7441217"><ele>235.0</ele><time>2026-04-26T07:03:39.704Z</time></trkpt><trkpt lat="45.5852023" lon="10.744014"><ele>235.0</ele><time>2026-04-26T07:03:40.701Z</time></trkpt><trkpt lat="45.585283" lon="10.7439146"><ele>235.66666666666666</ele><time>2026-04-26T07:03:41.699Z</time></trkpt><trkpt lat="45.5853501" lon="10.7438272"><ele>236.33333333333331</ele><time>2026-04-26T07:03:42.703Z</time></trkpt><trkpt lat="45.5854147" lon="10.743751"><ele>237.0</ele><time>2026-04-26T07:03:43.702Z</time></trkpt><trkpt lat="45.5854649" lon="10.74368"><ele>237.66666666666669</ele><time>2026-04-26T07:03:44.708Z</time></trkpt><trkpt lat="45.5855309" lon="10.743577"><ele>238.33333333333334</ele><time>2026-04-26T07:03:46.711Z</time></trkpt><trkpt lat="45.5855931" lon="10.7435037"><ele>239.0</ele><time>2026-04-26T07:03:48.708Z</time></trkpt><trkpt lat="45.5856511" lon="10.7434161"><ele>239.0</ele><time>2026-04-26T07:03:51.708Z</time></trkpt><trkpt lat="45.5857139" lon="10.7433857"><ele>238.99999999999997</ele><time>2026-04-26T07:03:57.71Z</time></trkpt><trkpt lat="45.5857875" lon="10.7433129"><ele>238.99999999999997</ele><time>2026-04-26T07:04:11.719Z</time></trkpt><trkpt lat="45.5858051" lon="10.7431387"><ele>239.0</ele><time>2026-04-26T07:04:13.718Z</time></trkpt><trkpt lat="45.5858165" lon="10.7430112"><ele>239.0</ele><time>2026-04-26T07:04:14.711Z</time></trkpt><trkpt lat="45.5858253" lon="10.7428778"><ele>239.0</ele><time>2026-04-26T07:04:15.714Z</time></trkpt><trkpt lat="45.5858377" lon="10.7427481"><ele>238.99999999999997</ele><time>2026-04-26T07:04:16.707Z</time></trkpt><trkpt lat="45.5858451" lon="10.7426206"><ele>238.99999999999997</ele><time>2026-04-26T07:04:17.713Z</time></trkpt><trkpt lat="45.5858522" lon="10.7424919"><ele>239.0</ele><time>2026-04-26T07:04:18.711Z</time></trkpt><trkpt lat="45.5858588" lon="10.7423561"><ele>239.0</ele><time>2026-04-26T07:04:19.704Z</time></trkpt><trkpt lat="45.5858575" lon="10.7422171"><ele>238.0</ele><time>2026-04-26T07:04:20.71Z</time></trkpt><trkpt lat="45.585855" lon="10.7420784"><ele>236.99999999999997</ele><time>2026-04-26T07:04:21.714Z</time></trkpt><trkpt lat="45.585847" lon="10.7419382"><ele>235.99999999999997</ele><time>2026-04-26T07:04:22.714Z</time></trkpt><trkpt lat="45.5858452" lon="10.741804"><ele>235.0</ele><time>2026-04-26T07:04:23.706Z</time></trkpt><trkpt lat="45.5858447" lon="10.7416715"><ele>234.0</ele><time>2026-04-26T07:04:24.713Z</time></trkpt><trkpt lat="45.5858426" lon="10.7415385"><ele>232.79999999999998</ele><time>2026-04-26T07:04:25.711Z</time></trkpt><trkpt lat="45.5858444" lon="10.7414026"><ele>231.59999999999997</ele><time>2026-04-26T07:04:26.714Z</time></trkpt><trkpt lat="45.5858475" lon="10.7412703"><ele>230.4</ele><time>2026-04-26T07:04:27.715Z</time></trkpt><trkpt lat="45.5858417" lon="10.7411224"><ele>229.2</ele><time>2026-04-26T07:04:28.73Z</time></trkpt><trkpt lat="45.5858302" lon="10.7409746"><ele>228.0</ele><time>2026-04-26T07:04:29.721Z</time></trkpt><trkpt lat="45.5858198" lon="10.7408311"><ele>227.8</ele><time>2026-04-26T07:04:30.719Z</time></trkpt><trkpt lat="45.5858073" lon="10.7406895"><ele>227.60000000000002</ele><time>2026-04-26T07:04:31.72Z</time></trkpt><trkpt lat="45.585793" lon="10.7405509"><ele>227.39999999999998</ele><time>2026-04-26T07:04:32.72Z</time></trkpt><trkpt lat="45.585783" lon="10.7404155"><ele>227.2</ele><time>2026-04-26T07:04:33.718Z</time></trkpt><trkpt lat="45.5857714" lon="10.7402848"><ele>227.0</ele><time>2026-04-26T07:04:34.711Z</time></trkpt><trkpt lat="45.5857748" lon="10.7401568"><ele>227.00000000000003</ele><time>2026-04-26T07:04:35.718Z</time></trkpt><trkpt lat="45.5857799" lon="10.7400338"><ele>227.0</ele><time>2026-04-26T07:04:36.723Z</time></trkpt><trkpt lat="45.5857925" lon="10.7399246"><ele>227.0</ele><time>2026-04-26T07:04:37.714Z</time></trkpt><trkpt lat="45.5857862" lon="10.7398224"><ele>227.0</ele><time>2026-04-26T07:04:38.725Z</time></trkpt><trkpt lat="45.5857654" lon="10.7397226"><ele>227.00000000000003</ele><time>2026-04-26T07:04:39.726Z</time></trkpt><trkpt lat="45.5857446" lon="10.7396213"><ele>227.0</ele><time>2026-04-26T07:04:40.723Z</time></trkpt><trkpt lat="45.5857263" lon="10.7395082"><ele>227.0</ele><time>2026-04-26T07:04:41.712Z</time></trkpt><trkpt lat="45.5857076" lon="10.7393878"><ele>227.0</ele><time>2026-04-26T07:04:42.713Z</time></trkpt><trkpt lat="45.5856897" lon="10.7392629"><ele>227.0</ele><time>2026-04-26T07:04:43.711Z</time></trkpt><trkpt lat="45.5856629" lon="10.7391308"><ele>227.0</ele><time>2026-04-26T07:04:44.709Z</time></trkpt><trkpt lat="45.5856259" lon="10.7389928"><ele>227.0</ele><time>2026-04-26T07:04:45.707Z</time></trkpt><trkpt lat="45.5855853" lon="10.7388471"><ele>227.0</ele><time>2026-04-26T07:04:46.714Z</time></trkpt><trkpt lat="45.5855396" lon="10.7386969"><ele>227.0</ele><time>2026-04-26T07:04:47.703Z</time></trkpt><trkpt lat="45.5854873" lon="10.7385356"><ele>227.0</ele><time>2026-04-26T07:04:48.71Z</time></trkpt><trkpt lat="45.5854316" lon="10.7383646"><ele>227.0</ele><time>2026-04-26T07:04:49.706Z</time></trkpt><trkpt lat="45.5853811" lon="10.7381881"><ele>223.75</ele><time>2026-04-26T07:04:50.704Z</time></trkpt><trkpt lat="45.5853327" lon="10.7380125"><ele>220.5</ele><time>2026-04-26T07:04:51.715Z</time></trkpt><trkpt lat="45.5852852" lon="10.7378404"><ele>217.25</ele><time>2026-04-26T07:04:52.714Z</time></trkpt><trkpt lat="45.5852432" lon="10.7376631"><ele>214.0</ele><time>2026-04-26T07:04:53.709Z</time></trkpt><trkpt lat="45.5852075" lon="10.7374786"><ele>213.0</ele><time>2026-04-26T07:04:54.706Z</time></trkpt><trkpt lat="45.585185" lon="10.7372813"><ele>212.0</ele><time>2026-04-26T07:04:55.707Z</time></trkpt><trkpt lat="45.5851756" lon="10.7370846"><ele>211.0</ele><time>2026-04-26T07:04:56.705Z</time></trkpt><trkpt lat="45.5851783" lon="10.7368904"><ele>210.0</ele><time>2026-04-26T07:04:57.702Z</time></trkpt><trkpt lat="45.585192" lon="10.7367011"><ele>210.75</ele><time>2026-04-26T07:04:58.707Z</time></trkpt><trkpt lat="45.5852219" lon="10.736517"><ele>211.5</ele><time>2026-04-26T07:04:59.707Z</time></trkpt><trkpt lat="45.5852646" lon="10.736335"><ele>212.25</ele><time>2026-04-26T07:05:00.71Z</time></trkpt><trkpt lat="45.5853182" lon="10.7361626"><ele>213.0</ele><time>2026-04-26T07:05:01.709Z</time></trkpt><trkpt lat="45.5853759" lon="10.7359913"><ele>213.0</ele><time>2026-04-26T07:05:02.703Z</time></trkpt><trkpt lat="45.58544" lon="10.7358214"><ele>213.0</ele><time>2026-04-26T07:05:03.702Z</time></trkpt><trkpt lat="45.5855026" lon="10.7356524"><ele>213.0</ele><time>2026-04-26T07:05:04.702Z</time></trkpt><trkpt lat="45.5855607" lon="10.7354826"><ele>213.0</ele><time>2026-04-26T07:05:05.706Z</time></trkpt><trkpt lat="45.5856122" lon="10.735308"><ele>211.5</ele><time>2026-04-26T07:05:06.702Z</time></trkpt><trkpt lat="45.5856539" lon="10.7351222"><ele>210.0</ele><time>2026-04-26T07:05:07.697Z</time></trkpt><trkpt lat="45.5856878" lon="10.734933"><ele>208.5</ele><time>2026-04-26T07:05:08.706Z</time></trkpt><trkpt lat="45.5857136" lon="10.7347381"><ele>207.0</ele><time>2026-04-26T07:05:09.718Z</time></trkpt><trkpt lat="45.5857323" lon="10.7345468"><ele>205.25</ele><time>2026-04-26T07:05:10.714Z</time></trkpt><trkpt lat="45.585746" lon="10.7343613"><ele>203.5</ele><time>2026-04-26T07:05:11.7Z</time></trkpt><trkpt lat="45.5857531" lon="10.7341724"><ele>201.75</ele><time>2026-04-26T07:05:12.703Z</time></trkpt><trkpt lat="45.5857607" lon="10.7339879"><ele>200.0</ele><time>2026-04-26T07:05:13.704Z</time></trkpt><trkpt lat="45.5857667" lon="10.7338075"><ele>200.0</ele><time>2026-04-26T07:05:14.705Z</time></trkpt><trkpt lat="45.5857719" lon="10.7336322"><ele>200.0</ele><time>2026-04-26T07:05:15.703Z</time></trkpt><trkpt lat="45.5857708" lon="10.7334683"><ele>200.0</ele><time>2026-04-26T07:05:16.7Z</time></trkpt><trkpt lat="45.5857551" lon="10.7333172"><ele>200.0</ele><time>2026-04-26T07:05:17.702Z</time></trkpt><trkpt lat="45.5857237" lon="10.733184"><ele>200.0</ele><time>2026-04-26T07:05:18.697Z</time></trkpt><trkpt lat="45.5856603" lon="10.7330687"><ele>199.75</ele><time>2026-04-26T07:05:19.695Z</time></trkpt><trkpt lat="45.5855708" lon="10.7329814"><ele>199.5</ele><time>2026-04-26T07:05:20.705Z</time></trkpt><trkpt lat="45.5854676" lon="10.7329042"><ele>199.25</ele><time>2026-04-26T07:05:21.708Z</time></trkpt><trkpt lat="45.585352" lon="10.7328427"><ele>199.0</ele><time>2026-04-26T07:05:22.711Z</time></trkpt><trkpt lat="45.585237" lon="10.7327691"><ele>195.5</ele><time>2026-04-26T07:05:23.708Z</time></trkpt><trkpt lat="45.5851244" lon="10.7326787"><ele>192.0</ele><time>2026-04-26T07:05:24.705Z</time></trkpt><trkpt lat="45.5850279" lon="10.7325654"><ele>188.5</ele><time>2026-04-26T07:05:25.701Z</time></trkpt><trkpt lat="45.5849614" lon="10.7324336"><ele>185.0</ele><time>2026-04-26T07:05:26.703Z</time></trkpt><trkpt lat="45.5849152" lon="10.7323054"><ele>185.0</ele><time>2026-04-26T07:05:27.702Z</time></trkpt><trkpt lat="45.5848853" lon="10.7321776"><ele>185.0</ele><time>2026-04-26T07:05:28.704Z</time></trkpt><trkpt lat="45.5848659" lon="10.7320509"><ele>185.0</ele><time>2026-04-26T07:05:29.702Z</time></trkpt><trkpt lat="45.584852" lon="10.7319297"><ele>185.0</ele><time>2026-04-26T07:05:30.703Z</time></trkpt><trkpt lat="45.584832" lon="10.7318305"><ele>185.0</ele><time>2026-04-26T07:05:31.706Z</time></trkpt><trkpt lat="45.584766" lon="10.7317273"><ele>185.0</ele><time>2026-04-26T07:05:33.698Z</time></trkpt><trkpt lat="45.5846795" lon="10.731781"><ele>185.0</ele><time>2026-04-26T07:05:35.7Z</time></trkpt><trkpt lat="45.5846591" lon="10.7319038"><ele>185.0</ele><time>2026-04-26T07:05:36.704Z</time></trkpt><trkpt lat="45.5846517" lon="10.7320563"><ele>185.0</ele><time>2026-04-26T07:05:37.69Z</time></trkpt><trkpt lat="45.5846428" lon="10.7322077"><ele>185.0</ele><time>2026-04-26T07:05:38.7Z</time></trkpt><trkpt lat="45.5846354" lon="10.7323471"><ele>185.0</ele><time>2026-04-26T07:05:39.702Z</time></trkpt><trkpt lat="45.584631" lon="10.7324745"><ele>185.0</ele><time>2026-04-26T07:05:40.712Z</time></trkpt><trkpt lat="45.5846301" lon="10.732587"><ele>185.0</ele><time>2026-04-26T07:05:41.708Z</time></trkpt><trkpt lat="45.584624" lon="10.7326831"><ele>185.0</ele><time>2026-04-26T07:05:42.705Z</time></trkpt><trkpt lat="45.5845886" lon="10.7327804"><ele>185.0</ele><time>2026-04-26T07:05:44.703Z</time></trkpt><trkpt lat="45.584494" lon="10.732703"><ele>185.0</ele><time>2026-04-26T07:05:46.703Z</time></trkpt><trkpt lat="45.5844592" lon="10.7326117"><ele>185.0</ele><time>2026-04-26T07:05:47.71Z</time></trkpt><trkpt lat="45.584453" lon="10.7324785"><ele>178.0</ele><time>2026-04-26T07:05:48.713Z</time></trkpt><trkpt lat="45.5844665" lon="10.7323049"><ele>171.0</ele><time>2026-04-26T07:05:49.705Z</time></trkpt><trkpt lat="45.5844707" lon="10.7321344"><ele>164.0</ele><time>2026-04-26T07:05:50.704Z</time></trkpt><trkpt lat="45.5844719" lon="10.7319675"><ele>157.0</ele><time>2026-04-26T07:05:51.708Z</time></trkpt><trkpt lat="45.584477" lon="10.7317981"><ele>156.75</ele><time>2026-04-26T07:05:52.707Z</time></trkpt><trkpt lat="45.58448" lon="10.7316246"><ele>156.5</ele><time>2026-04-26T07:05:53.704Z</time></trkpt><trkpt lat="45.5844771" lon="10.7314477"><ele>156.25</ele><time>2026-04-26T07:05:54.706Z</time></trkpt><trkpt lat="45.5844647" lon="10.7312702"><ele>156.0</ele><time>2026-04-26T07:05:55.701Z</time></trkpt><trkpt lat="45.5844446" lon="10.7311017"><ele>156.2</ele><time>2026-04-26T07:05:56.704Z</time></trkpt><trkpt lat="45.5844183" lon="10.7309508"><ele>156.39999999999998</ele><time>2026-04-26T07:05:57.704Z</time></trkpt><trkpt lat="45.5844009" lon="10.7308111"><ele>156.6</ele><time>2026-04-26T07:05:58.706Z</time></trkpt><trkpt lat="45.5843801" lon="10.7306695"><ele>156.79999999999998</ele><time>2026-04-26T07:05:59.707Z</time></trkpt><trkpt lat="45.5843652" lon="10.7305315"><ele>157.0</ele><time>2026-04-26T07:06:00.706Z</time></trkpt><trkpt lat="45.5843499" lon="10.7303956"><ele>157.0</ele><time>2026-04-26T07:06:01.708Z</time></trkpt><trkpt lat="45.5843355" lon="10.7302589"><ele>157.0</ele><time>2026-04-26T07:06:02.705Z</time></trkpt><trkpt lat="45.5843203" lon="10.7301246"><ele>157.0</ele><time>2026-04-26T07:06:03.704Z</time></trkpt><trkpt lat="45.5843078" lon="10.7299939"><ele>157.0</ele><time>2026-04-26T07:06:04.705Z</time></trkpt><trkpt lat="45.5842954" lon="10.7298574"><ele>157.0</ele><time>2026-04-26T07:06:05.705Z</time></trkpt><trkpt lat="45.5842769" lon="10.7297183"><ele>156.6</ele><time>2026-04-26T07:06:06.706Z</time></trkpt><trkpt lat="45.5842547" lon="10.7295702"><ele>156.2</ele><time>2026-04-26T07:06:07.698Z</time></trkpt><trkpt lat="45.5842296" lon="10.7294179"><ele>155.8</ele><time>2026-04-26T07:06:08.7Z</time></trkpt><trkpt lat="45.5842084" lon="10.7292636"><ele>155.4</ele><time>2026-04-26T07:06:09.7Z</time></trkpt><trkpt lat="45.58418" lon="10.7291076"><ele>155.0</ele><time>2026-04-26T07:06:10.706Z</time></trkpt><trkpt lat="45.5841489" lon="10.7289679"><ele>154.4</ele><time>2026-04-26T07:06:11.714Z</time></trkpt><trkpt lat="45.5841138" lon="10.7288339"><ele>153.8</ele><time>2026-04-26T07:06:12.709Z</time></trkpt><trkpt lat="45.5840651" lon="10.7287036"><ele>153.2</ele><time>2026-04-26T07:06:13.698Z</time></trkpt><trkpt lat="45.5840011" lon="10.7285759"><ele>152.6</ele><time>2026-04-26T07:06:14.703Z</time></trkpt><trkpt lat="45.5839216" lon="10.7284604"><ele>152.0</ele><time>2026-04-26T07:06:15.701Z</time></trkpt><trkpt lat="45.583836" lon="10.7283466"><ele>151.25</ele><time>2026-04-26T07:06:16.701Z</time></trkpt><trkpt lat="45.58375" lon="10.7282318"><ele>150.5</ele><time>2026-04-26T07:06:17.697Z</time></trkpt><trkpt lat="45.5836716" lon="10.7281136"><ele>149.75</ele><time>2026-04-26T07:06:18.705Z</time></trkpt><trkpt lat="45.5836071" lon="10.7279839"><ele>149.0</ele><time>2026-04-26T07:06:19.699Z</time></trkpt><trkpt lat="45.5835648" lon="10.7278392"><ele>145.4</ele><time>2026-04-26T07:06:20.708Z</time></trkpt><trkpt lat="45.5835383" lon="10.7276769"><ele>141.8</ele><time>2026-04-26T07:06:21.713Z</time></trkpt><trkpt lat="45.5835238" lon="10.7275204"><ele>138.2</ele><time>2026-04-26T07:06:22.708Z</time></trkpt><trkpt lat="45.5835139" lon="10.7273662"><ele>134.6</ele><time>2026-04-26T07:06:23.708Z</time></trkpt><trkpt lat="45.5835034" lon="10.7272161"><ele>131.0</ele><time>2026-04-26T07:06:24.706Z</time></trkpt><trkpt lat="45.5834861" lon="10.7270644"><ele>131.0</ele><time>2026-04-26T07:06:25.699Z</time></trkpt><trkpt lat="45.5834631" lon="10.7269065"><ele>131.0</ele><time>2026-04-26T07:06:26.705Z</time></trkpt><trkpt lat="45.5834444" lon="10.7267498"><ele>131.0</ele><time>2026-04-26T07:06:27.702Z</time></trkpt><trkpt lat="45.5834225" lon="10.7265985"><ele>131.0</ele><time>2026-04-26T07:06:28.709Z</time></trkpt><trkpt lat="45.5834004" lon="10.7264526"><ele>131.0</ele><time>2026-04-26T07:06:29.708Z</time></trkpt><trkpt lat="45.5833802" lon="10.7263129"><ele>130.66666666666666</ele><time>2026-04-26T07:06:30.712Z</time></trkpt><trkpt lat="45.5833613" lon="10.7261738"><ele>130.33333333333331</ele><time>2026-04-26T07:06:31.71Z</time></trkpt><trkpt lat="45.5833428" lon="10.7260513"><ele>130.0</ele><time>2026-04-26T07:06:32.705Z</time></trkpt><trkpt lat="45.5833195" lon="10.7259436"><ele>129.66666666666666</ele><time>2026-04-26T07:06:33.711Z</time></trkpt><trkpt lat="45.5832901" lon="10.7258397"><ele>129.33333333333334</ele><time>2026-04-26T07:06:34.71Z</time></trkpt><trkpt lat="45.5832509" lon="10.7257473"><ele>129.0</ele><time>2026-04-26T07:06:35.71Z</time></trkpt><trkpt lat="45.5832074" lon="10.7256623"><ele>128.85714285714283</ele><time>2026-04-26T07:06:36.712Z</time></trkpt><trkpt lat="45.5831628" lon="10.7255962"><ele>128.71428571428572</ele><time>2026-04-26T07:06:37.715Z</time></trkpt><trkpt lat="45.5831087" lon="10.7255175"><ele>128.57142857142856</ele><time>2026-04-26T07:06:39.712Z</time></trkpt><trkpt lat="45.5831728" lon="10.725447"><ele>128.42857142857142</ele><time>2026-04-26T07:06:42.716Z</time></trkpt><trkpt lat="45.5832372" lon="10.7254319"><ele>128.28571428571428</ele><time>2026-04-26T07:06:43.718Z</time></trkpt><trkpt lat="45.5833101" lon="10.7254163"><ele>128.14285714285714</ele><time>2026-04-26T07:06:44.714Z</time></trkpt><trkpt lat="45.5833799" lon="10.7253929"><ele>128.0</ele><time>2026-04-26T07:06:45.71Z</time></trkpt><trkpt lat="45.5834464" lon="10.7253629"><ele>128.0</ele><time>2026-04-26T07:06:46.714Z</time></trkpt><trkpt lat="45.5835068" lon="10.7253249"><ele>127.99999999999999</ele><time>2026-04-26T07:06:47.717Z</time></trkpt><trkpt lat="45.5835542" lon="10.7252604"><ele>128.0</ele><time>2026-04-26T07:06:48.717Z</time></trkpt><trkpt lat="45.5835938" lon="10.7251654"><ele>128.0</ele><time>2026-04-26T07:06:49.711Z</time></trkpt><trkpt lat="45.5836161" lon="10.7250604"><ele>127.99999999999999</ele><time>2026-04-26T07:06:50.712Z</time></trkpt><trkpt lat="45.5836352" lon="10.7249465"><ele>128.0</ele><time>2026-04-26T07:06:51.719Z</time></trkpt><trkpt lat="45.5836562" lon="10.7248369"><ele>128.0</ele><time>2026-04-26T07:06:52.717Z</time></trkpt><trkpt lat="45.5836826" lon="10.7247395"><ele>128.28571428571428</ele><time>2026-04-26T07:06:53.714Z</time></trkpt><trkpt lat="45.5837072" lon="10.724649"><ele>128.57142857142856</ele><time>2026-04-26T07:06:54.715Z</time></trkpt><trkpt lat="45.5837345" lon="10.7245589"><ele>128.85714285714286</ele><time>2026-04-26T07:06:55.72Z</time></trkpt><trkpt lat="45.5837653" lon="10.7244696"><ele>129.14285714285714</ele><time>2026-04-26T07:06:56.716Z</time></trkpt><trkpt lat="45.5838055" lon="10.7243846"><ele>129.42857142857144</ele><time>2026-04-26T07:06:57.714Z</time></trkpt><trkpt lat="45.5838509" lon="10.7243077"><ele>129.71428571428572</ele><time>2026-04-26T07:06:58.719Z</time></trkpt><trkpt lat="45.5839033" lon="10.7242305"><ele>130.0</ele><time>2026-04-26T07:06:59.713Z</time></trkpt><trkpt lat="45.5839595" lon="10.7241501"><ele>130.16666666666669</ele><time>2026-04-26T07:07:00.718Z</time></trkpt><trkpt lat="45.5840197" lon="10.7240657"><ele>130.33333333333334</ele><time>2026-04-26T07:07:01.717Z</time></trkpt><trkpt lat="45.5840813" lon="10.7239812"><ele>130.5</ele><time>2026-04-26T07:07:02.723Z</time></trkpt><trkpt lat="45.5841407" lon="10.723892"><ele>130.66666666666666</ele><time>2026-04-26T07:07:03.721Z</time></trkpt><trkpt lat="45.5842002" lon="10.7238013"><ele>130.83333333333331</ele><time>2026-04-26T07:07:04.715Z</time></trkpt><trkpt lat="45.5842542" lon="10.7237157"><ele>131.0</ele><time>2026-04-26T07:07:05.722Z</time></trkpt><trkpt lat="45.5843059" lon="10.7236519"><ele>131.0</ele><time>2026-04-26T07:07:06.717Z</time></trkpt><trkpt lat="45.5843628" lon="10.7235952"><ele>131.0</ele><time>2026-04-26T07:07:07.71Z</time></trkpt><trkpt lat="45.5844222" lon="10.723548"><ele>131.0</ele><time>2026-04-26T07:07:08.712Z</time></trkpt><trkpt lat="45.5844796" lon="10.723505"><ele>131.0</ele><time>2026-04-26T07:07:09.712Z</time></trkpt><trkpt lat="45.5845995" lon="10.7234711"><ele>131.0</ele><time>2026-04-26T07:07:11.72Z</time></trkpt><trkpt lat="45.5847112" lon="10.7235657"><ele>133.57142857142858</ele><time>2026-04-26T07:07:13.729Z</time></trkpt><trkpt lat="45.5847531" lon="10.723658"><ele>136.14285714285717</ele><time>2026-04-26T07:07:14.723Z</time></trkpt><trkpt lat="45.5847928" lon="10.7237536"><ele>138.71428571428572</ele><time>2026-04-26T07:07:15.711Z</time></trkpt><trkpt lat="45.5848399" lon="10.723837"><ele>141.28571428571428</ele><time>2026-04-26T07:07:16.713Z</time></trkpt><trkpt lat="45.584886" lon="10.7239163"><ele>143.85714285714283</ele><time>2026-04-26T07:07:17.716Z</time></trkpt><trkpt lat="45.5849336" lon="10.7239848"><ele>146.42857142857142</ele><time>2026-04-26T07:07:18.711Z</time></trkpt><trkpt lat="45.5849822" lon="10.7240437"><ele>149.0</ele><time>2026-04-26T07:07:19.714Z</time></trkpt><trkpt lat="45.5850734" lon="10.7240859"><ele>149.0</ele><time>2026-04-26T07:07:21.714Z</time></trkpt><trkpt lat="45.5851799" lon="10.724079"><ele>149.0</ele><time>2026-04-26T07:07:23.722Z</time></trkpt><trkpt lat="45.5852916" lon="10.7240422"><ele>149.0</ele><time>2026-04-26T07:07:25.721Z</time></trkpt><trkpt lat="45.5854073" lon="10.7240573"><ele>149.0</ele><time>2026-04-26T07:07:27.719Z</time></trkpt><trkpt lat="45.5855074" lon="10.7241365"><ele>150.2</ele><time>2026-04-26T07:07:29.714Z</time></trkpt><trkpt lat="45.5856143" lon="10.7242324"><ele>151.4</ele><time>2026-04-26T07:07:31.712Z</time></trkpt><trkpt lat="45.5856706" lon="10.7242817"><ele>152.6</ele><time>2026-04-26T07:07:32.707Z</time></trkpt><trkpt lat="45.5857644" lon="10.7243588"><ele>153.8</ele><time>2026-04-26T07:07:34.701Z</time></trkpt><trkpt lat="45.5858668" lon="10.724388"><ele>155.0</ele><time>2026-04-26T07:07:36.707Z</time></trkpt><trkpt lat="45.5859672" lon="10.7244525"><ele>155.0</ele><time>2026-04-26T07:07:38.713Z</time></trkpt><trkpt lat="45.586027" lon="10.7245161"><ele>155.0</ele><time>2026-04-26T07:07:39.714Z</time></trkpt><trkpt lat="45.5860865" lon="10.7245853"><ele>155.0</ele><time>2026-04-26T07:07:40.713Z</time></trkpt><trkpt lat="45.5861382" lon="10.7246412"><ele>155.0</ele><time>2026-04-26T07:07:41.712Z</time></trkpt><trkpt lat="45.5861917" lon="10.7246921"><ele>155.0</ele><time>2026-04-26T07:07:42.721Z</time></trkpt><trkpt lat="45.5862449" lon="10.7247421"><ele>155.0</ele><time>2026-04-26T07:07:43.713Z</time></trkpt><trkpt lat="45.5863307" lon="10.7247878"><ele>155.0</ele><time>2026-04-26T07:07:45.723Z</time></trkpt><trkpt lat="45.5864174" lon="10.7248021"><ele>160.0</ele><time>2026-04-26T07:07:47.718Z</time></trkpt><trkpt lat="45.5865362" lon="10.7248369"><ele>165.0</ele><time>2026-04-26T07:07:49.72Z</time></trkpt><trkpt lat="45.5865995" lon="10.7248653"><ele>170.0</ele><time>2026-04-26T07:07:50.718Z</time></trkpt><trkpt lat="45.5867128" lon="10.7249299"><ele>175.0</ele><time>2026-04-26T07:07:52.715Z</time></trkpt><trkpt lat="45.5868318" lon="10.7249784"><ele>180.0</ele><time>2026-04-26T07:07:54.714Z</time></trkpt><trkpt lat="45.5869375" lon="10.7250388"><ele>184.0</ele><time>2026-04-26T07:07:56.711Z</time></trkpt><trkpt lat="45.5870236" lon="10.7250864"><ele>188.0</ele><time>2026-04-26T07:07:58.698Z</time></trkpt><trkpt lat="45.5870908" lon="10.7250439"><ele>192.0</ele><time>2026-04-26T07:08:00.711Z</time></trkpt><trkpt lat="45.5871204" lon="10.7248841"><ele>196.0</ele><time>2026-04-26T07:08:02.697Z</time></trkpt><trkpt lat="45.5871264" lon="10.7247745"><ele>200.0</ele><time>2026-04-26T07:08:03.696Z</time></trkpt><trkpt lat="45.5871365" lon="10.7246581"><ele>204.0</ele><time>2026-04-26T07:08:04.703Z</time></trkpt><trkpt lat="45.5871529" lon="10.7245486"><ele>204.0</ele><time>2026-04-26T07:08:05.7Z</time></trkpt><trkpt lat="45.5871661" lon="10.7244342"><ele>204.0</ele><time>2026-04-26T07:08:06.703Z</time></trkpt><trkpt lat="45.5871821" lon="10.7243185"><ele>204.0</ele><time>2026-04-26T07:08:07.703Z</time></trkpt><trkpt lat="45.5871922" lon="10.7242026"><ele>204.0</ele><time>2026-04-26T07:08:08.705Z</time></trkpt><trkpt lat="45.5871994" lon="10.7240918"><ele>204.0</ele><time>2026-04-26T07:08:09.701Z</time></trkpt><trkpt lat="45.5872117" lon="10.7239767"><ele>204.0</ele><time>2026-04-26T07:08:10.71Z</time></trkpt><trkpt lat="45.587221" lon="10.7238599"><ele>203.5</ele><time>2026-04-26T07:08:11.703Z</time></trkpt><trkpt lat="45.5872253" lon="10.7237372"><ele>203.0</ele><time>2026-04-26T07:08:12.707Z</time></trkpt><trkpt lat="45.5872304" lon="10.7236139"><ele>202.5</ele><time>2026-04-26T07:08:13.709Z</time></trkpt><trkpt lat="45.5872366" lon="10.7234907"><ele>202.0</ele><time>2026-04-26T07:08:14.714Z</time></trkpt><trkpt lat="45.5872365" lon="10.7233666"><ele>201.5</ele><time>2026-04-26T07:08:15.701Z</time></trkpt><trkpt lat="45.5872353" lon="10.7232473"><ele>201.0</ele><time>2026-04-26T07:08:16.723Z</time></trkpt><trkpt lat="45.5872322" lon="10.7231409"><ele>200.83333333333334</ele><time>2026-04-26T07:08:17.708Z</time></trkpt><trkpt lat="45.5872264" lon="10.7230366"><ele>200.66666666666669</ele><time>2026-04-26T07:08:18.706Z</time></trkpt><trkpt lat="45.5872155" lon="10.7229381"><ele>200.5</ele><time>2026-04-26T07:08:19.707Z</time></trkpt><trkpt lat="45.5872035" lon="10.7227612"><ele>200.33333333333334</ele><time>2026-04-26T07:08:21.705Z</time></trkpt><trkpt lat="45.5871956" lon="10.7226624"><ele>200.16666666666669</ele><time>2026-04-26T07:08:22.708Z</time></trkpt><trkpt lat="45.5871804" lon="10.7225601"><ele>200.0</ele><time>2026-04-26T07:08:23.707Z</time></trkpt><trkpt lat="45.5871565" lon="10.7224643"><ele>200.0</ele><time>2026-04-26T07:08:24.705Z</time></trkpt><trkpt lat="45.5871152" lon="10.7223161"><ele>200.0</ele><time>2026-04-26T07:08:26.707Z</time></trkpt><trkpt lat="45.5870485" lon="10.7222141"><ele>200.0</ele><time>2026-04-26T07:08:28.704Z</time></trkpt><trkpt lat="45.5869384" lon="10.7221799"><ele>200.0</ele><time>2026-04-26T07:08:30.705Z</time></trkpt><trkpt lat="45.5868669" lon="10.7222069"><ele>200.0</ele><time>2026-04-26T07:08:31.714Z</time></trkpt><trkpt lat="45.5867977" lon="10.722234"><ele>195.4</ele><time>2026-04-26T07:08:32.716Z</time></trkpt><trkpt lat="45.5867362" lon="10.7222604"><ele>190.8</ele><time>2026-04-26T07:08:33.717Z</time></trkpt><trkpt lat="45.5866301" lon="10.7222824"><ele>186.2</ele><time>2026-04-26T07:08:35.713Z</time></trkpt><trkpt lat="45.586554" lon="10.7222572"><ele>181.6</ele><time>2026-04-26T07:08:37.716Z</time></trkpt><trkpt lat="45.5864879" lon="10.7221071"><ele>177.0</ele><time>2026-04-26T07:08:39.717Z</time></trkpt><trkpt lat="45.5864583" lon="10.7219752"><ele>177.5</ele><time>2026-04-26T07:08:40.706Z</time></trkpt><trkpt lat="45.5864412" lon="10.7218284"><ele>178.0</ele><time>2026-04-26T07:08:41.712Z</time></trkpt><trkpt lat="45.5864291" lon="10.7216699"><ele>178.5</ele><time>2026-04-26T07:08:42.71Z</time></trkpt><trkpt lat="45.586424" lon="10.7214937"><ele>179.0</ele><time>2026-04-26T07:08:43.711Z</time></trkpt><trkpt lat="45.5864175" lon="10.7213269"><ele>179.0</ele><time>2026-04-26T07:08:44.711Z</time></trkpt><trkpt lat="45.586409" lon="10.7211768"><ele>179.0</ele><time>2026-04-26T07:08:45.721Z</time></trkpt><trkpt lat="45.5863992" lon="10.7210397"><ele>179.0</ele><time>2026-04-26T07:08:46.721Z</time></trkpt><trkpt lat="45.5863912" lon="10.7209151"><ele>179.0</ele><time>2026-04-26T07:08:47.718Z</time></trkpt><trkpt lat="45.5863847" lon="10.7207888"><ele>179.0</ele><time>2026-04-26T07:08:48.723Z</time></trkpt><trkpt lat="45.5863785" lon="10.7206629"><ele>179.5</ele><time>2026-04-26T07:08:49.723Z</time></trkpt><trkpt lat="45.5863762" lon="10.720541"><ele>180.0</ele><time>2026-04-26T07:08:50.718Z</time></trkpt><trkpt lat="45.5863747" lon="10.7204201"><ele>180.5</ele><time>2026-04-26T07:08:51.719Z</time></trkpt><trkpt lat="45.5863739" lon="10.7202973"><ele>181.0</ele><time>2026-04-26T07:08:52.717Z</time></trkpt><trkpt lat="45.5863714" lon="10.7201759"><ele>181.5</ele><time>2026-04-26T07:08:53.719Z</time></trkpt><trkpt lat="45.5863699" lon="10.7200546"><ele>182.0</ele><time>2026-04-26T07:08:54.72Z</time></trkpt><trkpt lat="45.5863697" lon="10.7199377"><ele>182.33333333333331</ele><time>2026-04-26T07:08:55.719Z</time></trkpt><trkpt lat="45.5863671" lon="10.7198182"><ele>182.66666666666666</ele><time>2026-04-26T07:08:56.718Z</time></trkpt><trkpt lat="45.5863633" lon="10.7196999"><ele>183.0</ele><time>2026-04-26T07:08:57.718Z</time></trkpt><trkpt lat="45.586356" lon="10.7195869"><ele>183.33333333333334</ele><time>2026-04-26T07:08:58.718Z</time></trkpt><trkpt lat="45.5863504" lon="10.7194882"><ele>183.66666666666669</ele><time>2026-04-26T07:08:59.719Z</time></trkpt><trkpt lat="45.5863465" lon="10.7193954"><ele>184.0</ele><time>2026-04-26T07:09:00.716Z</time></trkpt><trkpt lat="45.5863393" lon="10.7192453"><ele>184.39999999999998</ele><time>2026-04-26T07:09:02.714Z</time></trkpt><trkpt lat="45.5862627" lon="10.7191711"><ele>184.8</ele><time>2026-04-26T07:09:04.716Z</time></trkpt><trkpt lat="45.5861858" lon="10.7191817"><ele>185.2</ele><time>2026-04-26T07:09:05.712Z</time></trkpt><trkpt lat="45.5860875" lon="10.7192064"><ele>185.60000000000002</ele><time>2026-04-26T07:09:06.715Z</time></trkpt><trkpt lat="45.5859899" lon="10.7192219"><ele>186.0</ele><time>2026-04-26T07:09:07.716Z</time></trkpt><trkpt lat="45.585892" lon="10.7192363"><ele>183.83333333333334</ele><time>2026-04-26T07:09:08.716Z</time></trkpt><trkpt lat="45.5857967" lon="10.7192421"><ele>181.66666666666666</ele><time>2026-04-26T07:09:09.715Z</time></trkpt><trkpt lat="45.5857061" lon="10.7192364"><ele>179.5</ele><time>2026-04-26T07:09:10.713Z</time></trkpt><trkpt lat="45.5856262" lon="10.7192132"><ele>177.33333333333331</ele><time>2026-04-26T07:09:11.712Z</time></trkpt><trkpt lat="45.5855597" lon="10.719172"><ele>175.16666666666666</ele><time>2026-04-26T07:09:12.711Z</time></trkpt><trkpt lat="45.585496" lon="10.7191223"><ele>173.0</ele><time>2026-04-26T07:09:13.718Z</time></trkpt><trkpt lat="45.5854495" lon="10.7190535"><ele>173.0</ele><time>2026-04-26T07:09:14.718Z</time></trkpt><trkpt lat="45.585421" lon="10.7189611"><ele>173.0</ele><time>2026-04-26T07:09:15.718Z</time></trkpt><trkpt lat="45.5854059" lon="10.7188517"><ele>173.0</ele><time>2026-04-26T07:09:16.723Z</time></trkpt><trkpt lat="45.5853804" lon="10.718745"><ele>173.0</ele><time>2026-04-26T07:09:17.716Z</time></trkpt><trkpt lat="45.5853414" lon="10.7186609"><ele>173.0</ele><time>2026-04-26T07:09:18.706Z</time></trkpt><trkpt lat="45.5852289" lon="10.7185883"><ele>173.0</ele><time>2026-04-26T07:09:20.704Z</time></trkpt><trkpt lat="45.585152" lon="10.7186148"><ele>170.16666666666666</ele><time>2026-04-26T07:09:21.702Z</time></trkpt><trkpt lat="45.5850648" lon="10.7186606"><ele>167.33333333333331</ele><time>2026-04-26T07:09:22.704Z</time></trkpt><trkpt lat="45.5849835" lon="10.7186927"><ele>164.5</ele><time>2026-04-26T07:09:23.699Z</time></trkpt><trkpt lat="45.5849038" lon="10.7187196"><ele>161.66666666666666</ele><time>2026-04-26T07:09:24.698Z</time></trkpt><trkpt lat="45.5848166" lon="10.7187213"><ele>158.83333333333334</ele><time>2026-04-26T07:09:25.704Z</time></trkpt><trkpt lat="45.5847342" lon="10.7186869"><ele>156.0</ele><time>2026-04-26T07:09:26.699Z</time></trkpt><trkpt lat="45.5846479" lon="10.7186206"><ele>157.5</ele><time>2026-04-26T07:09:27.7Z</time></trkpt><trkpt lat="45.5845719" lon="10.718526"><ele>159.0</ele><time>2026-04-26T07:09:28.693Z</time></trkpt><trkpt lat="45.5845102" lon="10.7183986"><ele>160.5</ele><time>2026-04-26T07:09:29.699Z</time></trkpt><trkpt lat="45.5844502" lon="10.7182558"><ele>162.0</ele><time>2026-04-26T07:09:30.698Z</time></trkpt><trkpt lat="45.5843873" lon="10.7180989"><ele>156.0</ele><time>2026-04-26T07:09:31.704Z</time></trkpt><trkpt lat="45.5843252" lon="10.7179471"><ele>150.0</ele><time>2026-04-26T07:09:32.705Z</time></trkpt><trkpt lat="45.5842654" lon="10.7177911"><ele>144.0</ele><time>2026-04-26T07:09:33.703Z</time></trkpt><trkpt lat="45.5842075" lon="10.7176401"><ele>138.0</ele><time>2026-04-26T07:09:34.703Z</time></trkpt><trkpt lat="45.5841558" lon="10.7174963"><ele>138.0</ele><time>2026-04-26T07:09:35.704Z</time></trkpt><trkpt lat="45.5841035" lon="10.7173572"><ele>138.0</ele><time>2026-04-26T07:09:36.707Z</time></trkpt><trkpt lat="45.5840522" lon="10.7172334"><ele>138.0</ele><time>2026-04-26T07:09:37.704Z</time></trkpt><trkpt lat="45.584004" lon="10.7171088"><ele>138.0</ele><time>2026-04-26T07:09:38.705Z</time></trkpt><trkpt lat="45.5839599" lon="10.7169762"><ele>138.0</ele><time>2026-04-26T07:09:39.704Z</time></trkpt><trkpt lat="45.5839188" lon="10.7168504"><ele>137.66666666666666</ele><time>2026-04-26T07:09:40.704Z</time></trkpt><trkpt lat="45.583879" lon="10.7167383"><ele>137.33333333333334</ele><time>2026-04-26T07:09:41.702Z</time></trkpt><trkpt lat="45.5838381" lon="10.7166371"><ele>137.0</ele><time>2026-04-26T07:09:42.696Z</time></trkpt><trkpt lat="45.5837904" lon="10.7165508"><ele>136.66666666666669</ele><time>2026-04-26T07:09:43.701Z</time></trkpt><trkpt lat="45.5837374" lon="10.7164901"><ele>136.33333333333334</ele><time>2026-04-26T07:09:44.707Z</time></trkpt><trkpt lat="45.583672" lon="10.7164455"><ele>136.0</ele><time>2026-04-26T07:09:45.711Z</time></trkpt><trkpt lat="45.5835761" lon="10.7164599"><ele>130.75</ele><time>2026-04-26T07:09:46.711Z</time></trkpt><trkpt lat="45.5834524" lon="10.7165033"><ele>125.5</ele><time>2026-04-26T07:09:47.719Z</time></trkpt><trkpt lat="45.5833152" lon="10.7165439"><ele>120.25</ele><time>2026-04-26T07:09:48.718Z</time></trkpt><trkpt lat="45.5831692" lon="10.7165787"><ele>115.0</ele><time>2026-04-26T07:09:49.713Z</time></trkpt><trkpt lat="45.5830235" lon="10.7166117"><ele>115.0</ele><time>2026-04-26T07:09:50.717Z</time></trkpt><trkpt lat="45.5828858" lon="10.716631"><ele>115.0</ele><time>2026-04-26T07:09:51.712Z</time></trkpt><trkpt lat="45.582755" lon="10.7166462"><ele>115.0</ele><time>2026-04-26T07:09:52.715Z</time></trkpt><trkpt lat="45.5826351" lon="10.7166424"><ele>115.0</ele><time>2026-04-26T07:09:53.712Z</time></trkpt><trkpt lat="45.5825201" lon="10.7166385"><ele>113.2</ele><time>2026-04-26T07:09:54.715Z</time></trkpt><trkpt lat="45.5824126" lon="10.7166273"><ele>111.4</ele><time>2026-04-26T07:09:55.719Z</time></trkpt><trkpt lat="45.5823111" lon="10.7166107"><ele>109.6</ele><time>2026-04-26T07:09:56.714Z</time></trkpt><trkpt lat="45.5822169" lon="10.7165859"><ele>107.8</ele><time>2026-04-26T07:09:57.72Z</time></trkpt><trkpt lat="45.582133" lon="10.7165616"><ele>106.0</ele><time>2026-04-26T07:09:58.713Z</time></trkpt><trkpt lat="45.5820625" lon="10.7165369"><ele>106.00000000000001</ele><time>2026-04-26T07:09:59.715Z</time></trkpt><trkpt lat="45.5819826" lon="10.7164916"><ele>106.0</ele><time>2026-04-26T07:10:01.718Z</time></trkpt><trkpt lat="45.5820107" lon="10.7163856"><ele>106.0</ele><time>2026-04-26T07:10:03.716Z</time></trkpt><trkpt lat="45.5820614" lon="10.7163158"><ele>106.0</ele><time>2026-04-26T07:10:04.714Z</time></trkpt><trkpt lat="45.582136" lon="10.7162354"><ele>106.00000000000001</ele><time>2026-04-26T07:10:05.709Z</time></trkpt><trkpt lat="45.5822013" lon="10.7161549"><ele>106.0</ele><time>2026-04-26T07:10:06.706Z</time></trkpt><trkpt lat="45.582244" lon="10.7160822"><ele>106.50000000000001</ele><time>2026-04-26T07:10:07.706Z</time></trkpt><trkpt lat="45.5822577" lon="10.7159292"><ele>107.0</ele><time>2026-04-26T07:10:09.709Z</time></trkpt><trkpt lat="45.5822515" lon="10.7158392"><ele>107.5</ele><time>2026-04-26T07:10:10.704Z</time></trkpt><trkpt lat="45.5822398" lon="10.7157383"><ele>108.0</ele><time>2026-04-26T07:10:11.705Z</time></trkpt><trkpt lat="45.5822227" lon="10.7156215"><ele>108.50000000000001</ele><time>2026-04-26T07:10:12.708Z</time></trkpt><trkpt lat="45.5822029" lon="10.7155017"><ele>109.0</ele><time>2026-04-26T07:10:13.708Z</time></trkpt><trkpt lat="45.582189" lon="10.7153885"><ele>109.00000000000001</ele><time>2026-04-26T07:10:14.712Z</time></trkpt><trkpt lat="45.5821764" lon="10.7152957"><ele>109.0</ele><time>2026-04-26T07:10:15.709Z</time></trkpt><trkpt lat="45.5821676" lon="10.7151375"><ele>109.0</ele><time>2026-04-26T07:10:17.705Z</time></trkpt><trkpt lat="45.5822178" lon="10.7150058"><ele>109.0</ele><time>2026-04-26T07:10:19.719Z</time></trkpt><trkpt lat="45.5822623" lon="10.7149337"><ele>109.00000000000001</ele><time>2026-04-26T07:10:20.707Z</time></trkpt><trkpt lat="45.5823205" lon="10.7148639"><ele>109.0</ele><time>2026-04-26T07:10:21.713Z</time></trkpt><trkpt lat="45.5823817" lon="10.714797"><ele>109.50000000000001</ele><time>2026-04-26T07:10:22.711Z</time></trkpt><trkpt lat="45.5824375" lon="10.714744"><ele>110.0</ele><time>2026-04-26T07:10:23.717Z</time></trkpt><trkpt lat="45.5825374" lon="10.714662"><ele>110.5</ele><time>2026-04-26T07:10:25.713Z</time></trkpt><trkpt lat="45.5826044" lon="10.7146217"><ele>111.0</ele><time>2026-04-26T07:10:27.713Z</time></trkpt><trkpt lat="45.5826004" lon="10.7145219"><ele>111.50000000000001</ele><time>2026-04-26T07:10:30.709Z</time></trkpt><trkpt lat="45.5825566" lon="10.7143729"><ele>112.0</ele><time>2026-04-26T07:10:32.714Z</time></trkpt><trkpt lat="45.5825107" lon="10.7142105"><ele>112.00000000000001</ele><time>2026-04-26T07:10:34.714Z</time></trkpt><trkpt lat="45.5824696" lon="10.7140439"><ele>112.0</ele><time>2026-04-26T07:10:36.713Z</time></trkpt><trkpt lat="45.5824484" lon="10.7139549"><ele>112.0</ele><time>2026-04-26T07:10:37.716Z</time></trkpt><trkpt lat="45.5824255" lon="10.7138613"><ele>112.0</ele><time>2026-04-26T07:10:38.715Z</time></trkpt><trkpt lat="45.5824018" lon="10.7137621"><ele>112.00000000000001</ele><time>2026-04-26T07:10:39.718Z</time></trkpt><trkpt lat="45.5823767" lon="10.7136648"><ele>112.0</ele><time>2026-04-26T07:10:40.716Z</time></trkpt><trkpt lat="45.5823495" lon="10.7135695"><ele>112.66666666666667</ele><time>2026-04-26T07:10:41.719Z</time></trkpt><trkpt lat="45.5823181" lon="10.7134816"><ele>113.33333333333334</ele><time>2026-04-26T07:10:42.712Z</time></trkpt><trkpt lat="45.5822879" lon="10.7133962"><ele>114.0</ele><time>2026-04-26T07:10:43.721Z</time></trkpt><trkpt lat="45.5822556" lon="10.7133144"><ele>114.66666666666666</ele><time>2026-04-26T07:10:44.722Z</time></trkpt><trkpt lat="45.5822228" lon="10.7132356"><ele>115.33333333333333</ele><time>2026-04-26T07:10:45.722Z</time></trkpt><trkpt lat="45.5821915" lon="10.713152"><ele>116.0</ele><time>2026-04-26T07:10:46.72Z</time></trkpt><trkpt lat="45.5821342" lon="10.7129928"><ele>116.00000000000001</ele><time>2026-04-26T07:10:48.719Z</time></trkpt><trkpt lat="45.5821056" lon="10.712903"><ele>116.0</ele><time>2026-04-26T07:10:49.729Z</time></trkpt><trkpt lat="45.5820762" lon="10.7128071"><ele>116.00000000000001</ele><time>2026-04-26T07:10:50.723Z</time></trkpt><trkpt lat="45.582054" lon="10.7127118"><ele>116.00000000000001</ele><time>2026-04-26T07:10:51.714Z</time></trkpt><trkpt lat="45.5820326" lon="10.7126126"><ele>116.0</ele><time>2026-04-26T07:10:52.712Z</time></trkpt><trkpt lat="45.582012" lon="10.7125101"><ele>116.00000000000001</ele><time>2026-04-26T07:10:53.714Z</time></trkpt><trkpt lat="45.5819884" lon="10.7124099"><ele>116.00000000000001</ele><time>2026-04-26T07:10:54.711Z</time></trkpt><trkpt lat="45.5819703" lon="10.7122986"><ele>115.99999999999999</ele><time>2026-04-26T07:10:55.713Z</time></trkpt><trkpt lat="45.5819502" lon="10.7121892"><ele>116.0</ele><time>2026-04-26T07:10:56.714Z</time></trkpt><trkpt lat="45.5819273" lon="10.7120727"><ele>116.0</ele><time>2026-04-26T07:10:57.716Z</time></trkpt><trkpt lat="45.5818989" lon="10.7119498"><ele>116.0</ele><time>2026-04-26T07:10:58.707Z</time></trkpt><trkpt lat="45.5818706" lon="10.7118384"><ele>115.99999999999999</ele><time>2026-04-26T07:10:59.71Z</time></trkpt><trkpt lat="45.5818436" lon="10.711747"><ele>116.0</ele><time>2026-04-26T07:11:00.709Z</time></trkpt><trkpt lat="45.5817947" lon="10.7115934"><ele>115.99999999999999</ele><time>2026-04-26T07:11:02.706Z</time></trkpt><trkpt lat="45.5817724" lon="10.7114974"><ele>116.0</ele><time>2026-04-26T07:11:03.719Z</time></trkpt><trkpt lat="45.5817644" lon="10.7113891"><ele>116.0</ele><time>2026-04-26T07:11:04.713Z</time></trkpt><trkpt lat="45.5817582" lon="10.7112802"><ele>116.0</ele><time>2026-04-26T07:11:05.71Z</time></trkpt><trkpt lat="45.5817534" lon="10.7111758"><ele>115.99999999999999</ele><time>2026-04-26T07:11:06.713Z</time></trkpt><trkpt lat="45.5817406" lon="10.7110681"><ele>116.0</ele><time>2026-04-26T07:11:07.707Z</time></trkpt><trkpt lat="45.5817356" lon="10.7109556"><ele>116.49999999999999</ele><time>2026-04-26T07:11:08.719Z</time></trkpt><trkpt lat="45.581728" lon="10.7108486"><ele>117.0</ele><time>2026-04-26T07:11:09.712Z</time></trkpt><trkpt lat="45.5817242" lon="10.7107379"><ele>117.5</ele><time>2026-04-26T07:11:10.713Z</time></trkpt><trkpt lat="45.5817254" lon="10.7106307"><ele>118.0</ele><time>2026-04-26T07:11:11.712Z</time></trkpt><trkpt lat="45.5817199" lon="10.7105382"><ele>118.49999999999999</ele><time>2026-04-26T07:11:12.713Z</time></trkpt><trkpt lat="45.581711" lon="10.7103805"><ele>119.0</ele><time>2026-04-26T07:11:14.715Z</time></trkpt><trkpt lat="45.5817066" lon="10.7102839"><ele>119.0</ele><time>2026-04-26T07:11:17.72Z</time></trkpt><trkpt lat="45.5818222" lon="10.7102814"><ele>119.0</ele><time>2026-04-26T07:11:21.728Z</time></trkpt><trkpt lat="45.5819016" lon="10.7102983"><ele>119.0</ele><time>2026-04-26T07:11:22.716Z</time></trkpt><trkpt lat="45.5819883" lon="10.7103245"><ele>119.0</ele><time>2026-04-26T07:11:23.715Z</time></trkpt><trkpt lat="45.5820804" lon="10.7103461"><ele>119.0</ele><time>2026-04-26T07:11:24.717Z</time></trkpt><trkpt lat="45.582183" lon="10.7103732"><ele>121.5</ele><time>2026-04-26T07:11:25.709Z</time></trkpt><trkpt lat="45.582293" lon="10.710387"><ele>124.0</ele><time>2026-04-26T07:11:26.72Z</time></trkpt><trkpt lat="45.5824079" lon="10.7104045"><ele>126.5</ele><time>2026-04-26T07:11:27.713Z</time></trkpt><trkpt lat="45.5825305" lon="10.710416"><ele>129.0</ele><time>2026-04-26T07:11:28.716Z</time></trkpt><trkpt lat="45.5826536" lon="10.7104178"><ele>129.0</ele><time>2026-04-26T07:11:29.718Z</time></trkpt><trkpt lat="45.5827851" lon="10.7104077"><ele>129.0</ele><time>2026-04-26T07:11:30.716Z</time></trkpt><trkpt lat="45.5829147" lon="10.7103919"><ele>129.0</ele><time>2026-04-26T07:11:31.719Z</time></trkpt><trkpt lat="45.5830533" lon="10.7103664"><ele>129.0</ele><time>2026-04-26T07:11:32.72Z</time></trkpt><trkpt lat="45.5831884" lon="10.7103395"><ele>131.75</ele><time>2026-04-26T07:11:33.719Z</time></trkpt><trkpt lat="45.5833153" lon="10.7103155"><ele>134.5</ele><time>2026-04-26T07:11:34.721Z</time></trkpt><trkpt lat="45.5834318" lon="10.7102951"><ele>137.25</ele><time>2026-04-26T07:11:35.718Z</time></trkpt><trkpt lat="45.5835431" lon="10.7102806"><ele>140.0</ele><time>2026-04-26T07:11:36.716Z</time></trkpt><trkpt lat="45.5836629" lon="10.7102683"><ele>142.5</ele><time>2026-04-26T07:11:37.716Z</time></trkpt><trkpt lat="45.5837848" lon="10.7102616"><ele>145.0</ele><time>2026-04-26T07:11:38.72Z</time></trkpt><trkpt lat="45.583911" lon="10.7102553"><ele>147.5</ele><time>2026-04-26T07:11:39.715Z</time></trkpt><trkpt lat="45.5840468" lon="10.7102757"><ele>150.0</ele><time>2026-04-26T07:11:40.71Z</time></trkpt><trkpt lat="45.5841872" lon="10.7103222"><ele>150.0</ele><time>2026-04-26T07:11:41.715Z</time></trkpt><trkpt lat="45.5843228" lon="10.7103973"><ele>150.0</ele><time>2026-04-26T07:11:42.71Z</time></trkpt><trkpt lat="45.5844501" lon="10.710448"><ele>150.0</ele><time>2026-04-26T07:11:43.709Z</time></trkpt><trkpt lat="45.5845766" lon="10.7105048"><ele>150.0</ele><time>2026-04-26T07:11:44.716Z</time></trkpt><trkpt lat="45.5846994" lon="10.7105533"><ele>153.5</ele><time>2026-04-26T07:11:45.711Z</time></trkpt><trkpt lat="45.5848248" lon="10.7105823"><ele>157.0</ele><time>2026-04-26T07:11:46.717Z</time></trkpt><trkpt lat="45.5849501" lon="10.7105961"><ele>160.5</ele><time>2026-04-26T07:11:47.718Z</time></trkpt><trkpt lat="45.5850674" lon="10.7105992"><ele>164.0</ele><time>2026-04-26T07:11:48.715Z</time></trkpt><trkpt lat="45.5851868" lon="10.7105905"><ele>164.0</ele><time>2026-04-26T07:11:49.726Z</time></trkpt><trkpt lat="45.5853069" lon="10.7105833"><ele>164.0</ele><time>2026-04-26T07:11:50.704Z</time></trkpt><trkpt lat="45.5854222" lon="10.7105621"><ele>164.0</ele><time>2026-04-26T07:11:51.724Z</time></trkpt><trkpt lat="45.5855349" lon="10.710523"><ele>164.0</ele><time>2026-04-26T07:11:52.72Z</time></trkpt><trkpt lat="45.5856464" lon="10.7104621"><ele>168.5</ele><time>2026-04-26T07:11:53.712Z</time></trkpt><trkpt lat="45.5857544" lon="10.7104016"><ele>173.0</ele><time>2026-04-26T07:11:54.714Z</time></trkpt><trkpt lat="45.5858639" lon="10.7103506"><ele>177.5</ele><time>2026-04-26T07:11:55.709Z</time></trkpt><trkpt lat="45.5859807" lon="10.7103135"><ele>182.0</ele><time>2026-04-26T07:11:56.706Z</time></trkpt><trkpt lat="45.5861049" lon="10.7102862"><ele>187.25</ele><time>2026-04-26T07:11:57.698Z</time></trkpt><trkpt lat="45.5862352" lon="10.7102766"><ele>192.5</ele><time>2026-04-26T07:11:58.7Z</time></trkpt><trkpt lat="45.5863672" lon="10.7103018"><ele>197.75</ele><time>2026-04-26T07:11:59.699Z</time></trkpt><trkpt lat="45.5864989" lon="10.7103337"><ele>203.0</ele><time>2026-04-26T07:12:00.7Z</time></trkpt><trkpt lat="45.5866327" lon="10.7103559"><ele>203.0</ele><time>2026-04-26T07:12:01.692Z</time></trkpt><trkpt lat="45.5867593" lon="10.7103478"><ele>203.0</ele><time>2026-04-26T07:12:02.693Z</time></trkpt><trkpt lat="45.5868698" lon="10.7103151"><ele>203.0</ele><time>2026-04-26T07:12:03.693Z</time></trkpt><trkpt lat="45.5869755" lon="10.7102485"><ele>203.0</ele><time>2026-04-26T07:12:04.694Z</time></trkpt><trkpt lat="45.5870573" lon="10.7101754"><ele>203.33333333333334</ele><time>2026-04-26T07:12:05.699Z</time></trkpt><trkpt lat="45.5871309" lon="10.7101267"><ele>203.66666666666669</ele><time>2026-04-26T07:12:06.693Z</time></trkpt><trkpt lat="45.5871905" lon="10.7100905"><ele>204.0</ele><time>2026-04-26T07:12:07.701Z</time></trkpt><trkpt lat="45.5872801" lon="10.7101116"><ele>204.33333333333331</ele><time>2026-04-26T07:12:09.702Z</time></trkpt><trkpt lat="45.5872925" lon="10.7102914"><ele>204.66666666666666</ele><time>2026-04-26T07:12:11.694Z</time></trkpt><trkpt lat="45.5872554" lon="10.7103982"><ele>205.0</ele><time>2026-04-26T07:12:12.697Z</time></trkpt><trkpt lat="45.5871936" lon="10.7104847"><ele>208.0</ele><time>2026-04-26T07:12:13.692Z</time></trkpt><trkpt lat="45.5871299" lon="10.7105562"><ele>211.0</ele><time>2026-04-26T07:12:14.696Z</time></trkpt><trkpt lat="45.5870823" lon="10.7106267"><ele>214.0</ele><time>2026-04-26T07:12:15.697Z</time></trkpt><trkpt lat="45.5870914" lon="10.7107455"><ele>217.0</ele><time>2026-04-26T07:12:17.692Z</time></trkpt><trkpt lat="45.587239" lon="10.7107438"><ele>220.0</ele><time>2026-04-26T07:12:19.694Z</time></trkpt><trkpt lat="45.5873332" lon="10.710666"><ele>220.0</ele><time>2026-04-26T07:12:20.698Z</time></trkpt><trkpt lat="45.5874487" lon="10.7105506"><ele>220.0</ele><time>2026-04-26T07:12:21.696Z</time></trkpt><trkpt lat="45.5875672" lon="10.710429"><ele>220.0</ele><time>2026-04-26T07:12:22.711Z</time></trkpt><trkpt lat="45.5876818" lon="10.7103085"><ele>220.0</ele><time>2026-04-26T07:12:23.703Z</time></trkpt><trkpt lat="45.5877966" lon="10.7102303"><ele>220.0</ele><time>2026-04-26T07:12:24.698Z</time></trkpt><trkpt lat="45.5879107" lon="10.710188"><ele>220.0</ele><time>2026-04-26T07:12:25.692Z</time></trkpt><trkpt lat="45.5880068" lon="10.7101755"><ele>220.0</ele><time>2026-04-26T07:12:26.697Z</time></trkpt><trkpt lat="45.5880916" lon="10.7101995"><ele>220.0</ele><time>2026-04-26T07:12:27.699Z</time></trkpt><trkpt lat="45.588165" lon="10.7102271"><ele>220.0</ele><time>2026-04-26T07:12:28.696Z</time></trkpt><trkpt lat="45.5882466" lon="10.7102889"><ele>222.1428571428571</ele><time>2026-04-26T07:12:30.696Z</time></trkpt><trkpt lat="45.5883086" lon="10.7103325"><ele>224.28571428571428</ele><time>2026-04-26T07:12:32.697Z</time></trkpt><trkpt lat="45.5883698" lon="10.7103687"><ele>226.42857142857142</ele><time>2026-04-26T07:12:35.697Z</time></trkpt><trkpt lat="45.5884263" lon="10.7104314"><ele>228.57142857142856</ele><time>2026-04-26T07:12:37.689Z</time></trkpt><trkpt lat="45.5884554" lon="10.7105153"><ele>230.7142857142857</ele><time>2026-04-26T07:12:39.692Z</time></trkpt><trkpt lat="45.5884548" lon="10.7106063"><ele>232.85714285714283</ele><time>2026-04-26T07:12:41.694Z</time></trkpt><trkpt lat="45.5883998" lon="10.7106566"><ele>235.0</ele><time>2026-04-26T07:13:09.808Z</time></trkpt><trkpt lat="45.5883188" lon="10.7106405"><ele>235.0</ele><time>2026-04-26T07:13:12.702Z</time></trkpt><trkpt lat="45.5882635" lon="10.7107069"><ele>235.0</ele><time>2026-04-26T07:13:18.696Z</time></trkpt><trkpt lat="45.5882972" lon="10.7107868"><ele>235.0</ele><time>2026-04-26T07:13:21.691Z</time></trkpt><trkpt lat="45.5883893" lon="10.7108531"><ele>235.0</ele><time>2026-04-26T07:13:24.69Z</time></trkpt><trkpt lat="45.5884976" lon="10.7109126"><ele>235.0</ele><time>2026-04-26T07:13:26.691Z</time></trkpt><trkpt lat="45.5886046" lon="10.7109685"><ele>235.8</ele><time>2026-04-26T07:13:28.693Z</time></trkpt><trkpt lat="45.5886814" lon="10.7110477"><ele>236.6</ele><time>2026-04-26T07:13:30.694Z</time></trkpt><trkpt lat="45.5887378" lon="10.7111254"><ele>237.39999999999998</ele><time>2026-04-26T07:13:32.692Z</time></trkpt><trkpt lat="45.588795" lon="10.7112389"><ele>238.2</ele><time>2026-04-26T07:13:34.696Z</time></trkpt><trkpt lat="45.5888536" lon="10.7113559"><ele>239.0</ele><time>2026-04-26T07:13:36.694Z</time></trkpt><trkpt lat="45.5889225" lon="10.7114228"><ele>241.2</ele><time>2026-04-26T07:13:38.689Z</time></trkpt><trkpt lat="45.5890206" lon="10.7114546"><ele>243.39999999999998</ele><time>2026-04-26T07:13:40.696Z</time></trkpt><trkpt lat="45.5891317" lon="10.7114746"><ele>245.6</ele><time>2026-04-26T07:13:42.699Z</time></trkpt><trkpt lat="45.5891958" lon="10.7114921"><ele>247.8</ele><time>2026-04-26T07:13:43.695Z</time></trkpt><trkpt lat="45.5893089" lon="10.711488"><ele>250.0</ele><time>2026-04-26T07:13:45.699Z</time></trkpt><trkpt lat="45.5893766" lon="10.7115035"><ele>250.0</ele><time>2026-04-26T07:13:48.691Z</time></trkpt><trkpt lat="45.5893569" lon="10.7116057"><ele>250.0</ele><time>2026-04-26T07:13:50.7Z</time></trkpt><trkpt lat="45.5893057" lon="10.7116703"><ele>250.0</ele><time>2026-04-26T07:13:51.694Z</time></trkpt><trkpt lat="45.5892421" lon="10.7117286"><ele>250.0</ele><time>2026-04-26T07:13:52.689Z</time></trkpt><trkpt lat="45.5891724" lon="10.7117684"><ele>250.0</ele><time>2026-04-26T07:13:53.694Z</time></trkpt><trkpt lat="45.5890995" lon="10.7117983"><ele>250.0</ele><time>2026-04-26T07:13:54.704Z</time></trkpt><trkpt lat="45.5890258" lon="10.7118268"><ele>250.0</ele><time>2026-04-26T07:13:55.699Z</time></trkpt><trkpt lat="45.5889495" lon="10.7118404"><ele>249.99999999999997</ele><time>2026-04-26T07:13:56.708Z</time></trkpt><trkpt lat="45.5888778" lon="10.7118582"><ele>250.0</ele><time>2026-04-26T07:13:57.698Z</time></trkpt><trkpt lat="45.5888107" lon="10.7118748"><ele>250.0</ele><time>2026-04-26T07:13:58.7Z</time></trkpt><trkpt lat="45.5887499" lon="10.7119023"><ele>250.0</ele><time>2026-04-26T07:13:59.703Z</time></trkpt><trkpt lat="45.588695" lon="10.7119999"><ele>249.99999999999997</ele><time>2026-04-26T07:14:01.706Z</time></trkpt><trkpt lat="45.5888223" lon="10.7121044"><ele>250.0</ele><time>2026-04-26T07:14:03.701Z</time></trkpt><trkpt lat="45.5889574" lon="10.7121577"><ele>254.0</ele><time>2026-04-26T07:14:04.695Z</time></trkpt><trkpt lat="45.5890928" lon="10.7122142"><ele>258.0</ele><time>2026-04-26T07:14:05.697Z</time></trkpt><trkpt lat="45.5892326" lon="10.7122532"><ele>262.0</ele><time>2026-04-26T07:14:06.701Z</time></trkpt><trkpt lat="45.5893851" lon="10.712253"><ele>266.0</ele><time>2026-04-26T07:14:07.695Z</time></trkpt><trkpt lat="45.5895359" lon="10.7122215"><ele>270.0</ele><time>2026-04-26T07:14:08.702Z</time></trkpt><trkpt lat="45.5896783" lon="10.7121632"><ele>274.0</ele><time>2026-04-26T07:14:09.695Z</time></trkpt><trkpt lat="45.5897998" lon="10.7120894"><ele>278.0</ele><time>2026-04-26T07:14:10.688Z</time></trkpt><trkpt lat="45.5899219" lon="10.7120191"><ele>282.0</ele><time>2026-04-26T07:14:11.703Z</time></trkpt><trkpt lat="45.5900321" lon="10.7119519"><ele>281.8</ele><time>2026-04-26T07:14:12.7Z</time></trkpt><trkpt lat="45.5901234" lon="10.71186"><ele>281.6</ele><time>2026-04-26T07:14:13.699Z</time></trkpt><trkpt lat="45.5902063" lon="10.7117742"><ele>281.40000000000003</ele><time>2026-04-26T07:14:14.7Z</time></trkpt><trkpt lat="45.5902785" lon="10.7116885"><ele>281.2</ele><time>2026-04-26T07:14:15.696Z</time></trkpt><trkpt lat="45.5903448" lon="10.7116207"><ele>281.0</ele><time>2026-04-26T07:14:16.705Z</time></trkpt><trkpt lat="45.5904054" lon="10.7115702"><ele>281.0</ele><time>2026-04-26T07:14:17.701Z</time></trkpt><trkpt lat="45.5904648" lon="10.7115261"><ele>281.0</ele><time>2026-04-26T07:14:18.7Z</time></trkpt><trkpt lat="45.5905264" lon="10.71149"><ele>281.0</ele><time>2026-04-26T07:14:19.696Z</time></trkpt><trkpt lat="45.5905922" lon="10.7114758"><ele>281.0</ele><time>2026-04-26T07:14:20.702Z</time></trkpt><trkpt lat="45.5906748" lon="10.7115027"><ele>281.0</ele><time>2026-04-26T07:14:21.705Z</time></trkpt><trkpt lat="45.5907638" lon="10.711559"><ele>281.0</ele><time>2026-04-26T07:14:22.702Z</time></trkpt><trkpt lat="45.5908516" lon="10.7116193"><ele>281.0</ele><time>2026-04-26T07:14:23.708Z</time></trkpt><trkpt lat="45.5909419" lon="10.7116773"><ele>281.0</ele><time>2026-04-26T07:14:24.708Z</time></trkpt><trkpt lat="45.5910312" lon="10.7117322"><ele>281.0</ele><time>2026-04-26T07:14:25.721Z</time></trkpt><trkpt lat="45.5911226" lon="10.7117871"><ele>281.0</ele><time>2026-04-26T07:14:26.713Z</time></trkpt><trkpt lat="45.5912096" lon="10.7118408"><ele>281.0</ele><time>2026-04-26T07:14:27.719Z</time></trkpt><trkpt lat="45.591295" lon="10.7118969"><ele>281.40000000000003</ele><time>2026-04-26T07:14:28.712Z</time></trkpt><trkpt lat="45.5913782" lon="10.7119495"><ele>281.8</ele><time>2026-04-26T07:14:29.711Z</time></trkpt><trkpt lat="45.5914598" lon="10.7119909"><ele>282.20000000000005</ele><time>2026-04-26T07:14:30.708Z</time></trkpt><trkpt lat="45.5915451" lon="10.7120258"><ele>282.6</ele><time>2026-04-26T07:14:31.709Z</time></trkpt><trkpt lat="45.5916388" lon="10.7120654"><ele>283.0</ele><time>2026-04-26T07:14:32.702Z</time></trkpt><trkpt lat="45.5917456" lon="10.7121094"><ele>283.0</ele><time>2026-04-26T07:14:33.699Z</time></trkpt><trkpt lat="45.5918686" lon="10.7121407"><ele>283.0</ele><time>2026-04-26T07:14:34.71Z</time></trkpt><trkpt lat="45.5919892" lon="10.7121727"><ele>283.0</ele><time>2026-04-26T07:14:35.703Z</time></trkpt><trkpt lat="45.5921034" lon="10.7121991"><ele>283.0</ele><time>2026-04-26T07:14:36.704Z</time></trkpt><trkpt lat="45.5922103" lon="10.7122162"><ele>283.3333333333333</ele><time>2026-04-26T07:14:37.703Z</time></trkpt><trkpt lat="45.5923113" lon="10.7122283"><ele>283.66666666666663</ele><time>2026-04-26T07:14:38.705Z</time></trkpt><trkpt lat="45.5924093" lon="10.7122374"><ele>284.0</ele><time>2026-04-26T07:14:39.711Z</time></trkpt><trkpt lat="45.5924981" lon="10.7122473"><ele>284.3333333333333</ele><time>2026-04-26T07:14:40.707Z</time></trkpt><trkpt lat="45.5925785" lon="10.7122593"><ele>284.6666666666667</ele><time>2026-04-26T07:14:41.71Z</time></trkpt><trkpt lat="45.5926468" lon="10.7122729"><ele>285.0</ele><time>2026-04-26T07:14:42.711Z</time></trkpt><trkpt lat="45.5927183" lon="10.7122906"><ele>285.0</ele><time>2026-04-26T07:14:43.712Z</time></trkpt><trkpt lat="45.5927984" lon="10.712311"><ele>285.0</ele><time>2026-04-26T07:14:44.714Z</time></trkpt><trkpt lat="45.5928935" lon="10.7123305"><ele>285.0</ele><time>2026-04-26T07:14:45.713Z</time></trkpt><trkpt lat="45.5929951" lon="10.7123516"><ele>285.0</ele><time>2026-04-26T07:14:46.716Z</time></trkpt><trkpt lat="45.5930957" lon="10.71237"><ele>285.0</ele><time>2026-04-26T07:14:47.719Z</time></trkpt><trkpt lat="45.5931936" lon="10.7123868"><ele>285.2</ele><time>2026-04-26T07:14:48.713Z</time></trkpt><trkpt lat="45.5932936" lon="10.7124074"><ele>285.4</ele><time>2026-04-26T07:14:49.714Z</time></trkpt><trkpt lat="45.593397" lon="10.7124267"><ele>285.6</ele><time>2026-04-26T07:14:50.72Z</time></trkpt><trkpt lat="45.5935008" lon="10.7124474"><ele>285.8</ele><time>2026-04-26T07:14:51.722Z</time></trkpt><trkpt lat="45.5936038" lon="10.7124711"><ele>286.0</ele><time>2026-04-26T07:14:52.717Z</time></trkpt><trkpt lat="45.5937056" lon="10.7124993"><ele>288.6</ele><time>2026-04-26T07:14:53.715Z</time></trkpt><trkpt lat="45.5937984" lon="10.7125366"><ele>291.20000000000005</ele><time>2026-04-26T07:14:54.713Z</time></trkpt><trkpt lat="45.5938878" lon="10.7125801"><ele>293.79999999999995</ele><time>2026-04-26T07:14:55.708Z</time></trkpt><trkpt lat="45.5939661" lon="10.7126427"><ele>296.4</ele><time>2026-04-26T07:14:56.728Z</time></trkpt><trkpt lat="45.5940294" lon="10.7127318"><ele>299.0</ele><time>2026-04-26T07:14:57.708Z</time></trkpt><trkpt lat="45.5940819" lon="10.7128522"><ele>299.2</ele><time>2026-04-26T07:14:58.725Z</time></trkpt><trkpt lat="45.5941133" lon="10.7129951"><ele>299.4</ele><time>2026-04-26T07:14:59.713Z</time></trkpt><trkpt lat="45.5941384" lon="10.7131415"><ele>299.6</ele><time>2026-04-26T07:15:00.708Z</time></trkpt><trkpt lat="45.5941769" lon="10.7132721"><ele>299.8</ele><time>2026-04-26T07:15:01.711Z</time></trkpt><trkpt lat="45.5942185" lon="10.7133759"><ele>300.0</ele><time>2026-04-26T07:15:02.716Z</time></trkpt><trkpt lat="45.5942556" lon="10.7134568"><ele>300.0</ele><time>2026-04-26T07:15:03.713Z</time></trkpt><trkpt lat="45.5943206" lon="10.7135686"><ele>300.0</ele><time>2026-04-26T07:15:05.711Z</time></trkpt><trkpt lat="45.5943745" lon="10.7136382"><ele>300.0</ele><time>2026-04-26T07:15:07.717Z</time></trkpt><trkpt lat="45.5943806" lon="10.7137561"><ele>300.0</ele><time>2026-04-26T07:15:10.715Z</time></trkpt><trkpt lat="45.5942845" lon="10.7138694"><ele>300.0</ele><time>2026-04-26T07:15:12.714Z</time></trkpt><trkpt lat="45.5942135" lon="10.7139316"><ele>300.0</ele><time>2026-04-26T07:15:13.719Z</time></trkpt><trkpt lat="45.5941506" lon="10.7139842"><ele>300.0</ele><time>2026-04-26T07:15:14.711Z</time></trkpt><trkpt lat="45.594061" lon="10.7140745"><ele>300.0</ele><time>2026-04-26T07:15:16.706Z</time></trkpt><trkpt lat="45.5940163" lon="10.7141735"><ele>300.0</ele><time>2026-04-26T07:15:18.712Z</time></trkpt><trkpt lat="45.5939935" lon="10.7142771"><ele>300.0</ele><time>2026-04-26T07:15:20.708Z</time></trkpt><trkpt lat="45.5939885" lon="10.7143889"><ele>300.0</ele><time>2026-04-26T07:15:22.72Z</time></trkpt><trkpt lat="45.5939795" lon="10.7144957"><ele>299.4</ele><time>2026-04-26T07:15:24.718Z</time></trkpt><trkpt lat="45.5939694" lon="10.7146047"><ele>298.8</ele><time>2026-04-26T07:15:26.711Z</time></trkpt><trkpt lat="45.5939537" lon="10.7147324"><ele>298.2</ele><time>2026-04-26T07:15:28.714Z</time></trkpt><trkpt lat="45.5939445" lon="10.7148615"><ele>297.6</ele><time>2026-04-26T07:15:30.713Z</time></trkpt><trkpt lat="45.5939284" lon="10.7150045"><ele>297.0</ele><time>2026-04-26T07:15:32.717Z</time></trkpt><trkpt lat="45.5939072" lon="10.7151599"><ele>296.25</ele><time>2026-04-26T07:15:34.715Z</time></trkpt><trkpt lat="45.5938836" lon="10.7153149"><ele>295.5</ele><time>2026-04-26T07:15:36.716Z</time></trkpt><trkpt lat="45.5938487" lon="10.7154693"><ele>294.75</ele><time>2026-04-26T07:15:38.71Z</time></trkpt><trkpt lat="45.5937869" lon="10.71561"><ele>294.0</ele><time>2026-04-26T07:15:40.713Z</time></trkpt><trkpt lat="45.5937292" lon="10.715763"><ele>292.0</ele><time>2026-04-26T07:15:42.717Z</time></trkpt><trkpt lat="45.5936696" lon="10.7159025"><ele>290.0</ele><time>2026-04-26T07:15:44.712Z</time></trkpt><trkpt lat="45.5936327" lon="10.7160195"><ele>288.0</ele><time>2026-04-26T07:15:46.707Z</time></trkpt><trkpt lat="45.5935867" lon="10.7161244"><ele>286.0</ele><time>2026-04-26T07:15:49.708Z</time></trkpt><trkpt lat="45.5935075" lon="10.7161454"><ele>284.0</ele><time>2026-04-26T07:15:51.703Z</time></trkpt><trkpt lat="45.5934199" lon="10.7161838"><ele>283.5</ele><time>2026-04-26T07:15:53.7Z</time></trkpt><trkpt lat="45.5933517" lon="10.7163146"><ele>283.0</ele><time>2026-04-26T07:15:55.706Z</time></trkpt><trkpt lat="45.5933251" lon="10.716489"><ele>282.5</ele><time>2026-04-26T07:15:57.698Z</time></trkpt><trkpt lat="45.5933022" lon="10.7166406"><ele>282.0</ele><time>2026-04-26T07:15:59.702Z</time></trkpt><trkpt lat="45.5932551" lon="10.7167811"><ele>282.0</ele><time>2026-04-26T07:16:01.698Z</time></trkpt><trkpt lat="45.5932126" lon="10.716851"><ele>282.0</ele><time>2026-04-26T07:16:02.696Z</time></trkpt><trkpt lat="45.5931495" lon="10.7169125"><ele>282.0</ele><time>2026-04-26T07:16:03.693Z</time></trkpt><trkpt lat="45.5930869" lon="10.7169698"><ele>282.0</ele><time>2026-04-26T07:16:04.695Z</time></trkpt><trkpt lat="45.5930258" lon="10.7170248"><ele>282.0</ele><time>2026-04-26T07:16:05.694Z</time></trkpt><trkpt lat="45.5929641" lon="10.7170641"><ele>282.0</ele><time>2026-04-26T07:16:06.695Z</time></trkpt><trkpt lat="45.5928921" lon="10.7170882"><ele>282.0</ele><time>2026-04-26T07:16:07.694Z</time></trkpt><trkpt lat="45.5928234" lon="10.7171108"><ele>279.8333333333333</ele><time>2026-04-26T07:16:08.696Z</time></trkpt><trkpt lat="45.5927454" lon="10.7171311"><ele>277.6666666666667</ele><time>2026-04-26T07:16:09.695Z</time></trkpt><trkpt lat="45.5926633" lon="10.7171417"><ele>275.5</ele><time>2026-04-26T07:16:10.7Z</time></trkpt><trkpt lat="45.5925813" lon="10.7171357"><ele>273.33333333333337</ele><time>2026-04-26T07:16:11.702Z</time></trkpt><trkpt lat="45.5925114" lon="10.7171147"><ele>271.1666666666667</ele><time>2026-04-26T07:16:12.707Z</time></trkpt><trkpt lat="45.5924023" lon="10.7170765"><ele>269.0</ele><time>2026-04-26T07:16:14.705Z</time></trkpt><trkpt lat="45.5923162" lon="10.7170952"><ele>269.0</ele><time>2026-04-26T07:16:17.706Z</time></trkpt><trkpt lat="45.5922619" lon="10.7172335"><ele>269.0</ele><time>2026-04-26T07:16:19.708Z</time></trkpt><trkpt lat="45.5922312" lon="10.7173473"><ele>269.0</ele><time>2026-04-26T07:16:20.709Z</time></trkpt><trkpt lat="45.5921917" lon="10.717456"><ele>269.0</ele><time>2026-04-26T07:16:21.707Z</time></trkpt><trkpt lat="45.5921349" lon="10.7175613"><ele>269.0</ele><time>2026-04-26T07:16:22.708Z</time></trkpt><trkpt lat="45.592058" lon="10.7176636"><ele>267.59999999999997</ele><time>2026-04-26T07:16:23.708Z</time></trkpt><trkpt lat="45.5919739" lon="10.7177622"><ele>266.2</ele><time>2026-04-26T07:16:24.702Z</time></trkpt><trkpt lat="45.5918897" lon="10.7178514"><ele>264.79999999999995</ele><time>2026-04-26T07:16:25.705Z</time></trkpt><trkpt lat="45.5918087" lon="10.7179224"><ele>263.4</ele><time>2026-04-26T07:16:26.707Z</time></trkpt><trkpt lat="45.591725" lon="10.7179765"><ele>262.0</ele><time>2026-04-26T07:16:27.708Z</time></trkpt><trkpt lat="45.5916344" lon="10.7180013"><ele>262.0</ele><time>2026-04-26T07:16:28.703Z</time></trkpt><trkpt lat="45.5915607" lon="10.7180268"><ele>262.0</ele><time>2026-04-26T07:16:29.72Z</time></trkpt><trkpt lat="45.5914888" lon="10.7180938"><ele>262.0</ele><time>2026-04-26T07:16:30.705Z</time></trkpt><trkpt lat="45.5914207" lon="10.7182051"><ele>262.0</ele><time>2026-04-26T07:16:31.714Z</time></trkpt><trkpt lat="45.5913624" lon="10.7183227"><ele>262.0</ele><time>2026-04-26T07:16:32.709Z</time></trkpt><trkpt lat="45.5913031" lon="10.718419"><ele>262.0</ele><time>2026-04-26T07:16:33.701Z</time></trkpt><trkpt lat="45.5912476" lon="10.7184942"><ele>262.0</ele><time>2026-04-26T07:16:34.705Z</time></trkpt><trkpt lat="45.5911881" lon="10.7185465"><ele>262.0</ele><time>2026-04-26T07:16:35.704Z</time></trkpt><trkpt lat="45.5911249" lon="10.718596"><ele>262.0</ele><time>2026-04-26T07:16:36.706Z</time></trkpt><trkpt lat="45.5910522" lon="10.7186355"><ele>262.0</ele><time>2026-04-26T07:16:37.703Z</time></trkpt><trkpt lat="45.5909678" lon="10.7186671"><ele>262.0</ele><time>2026-04-26T07:16:38.705Z</time></trkpt><trkpt lat="45.5908788" lon="10.7186955"><ele>261.8333333333333</ele><time>2026-04-26T07:16:39.702Z</time></trkpt><trkpt lat="45.5907907" lon="10.7187148"><ele>261.66666666666663</ele><time>2026-04-26T07:16:40.702Z</time></trkpt><trkpt lat="45.5907169" lon="10.718732"><ele>261.5</ele><time>2026-04-26T07:16:41.694Z</time></trkpt><trkpt lat="45.5906609" lon="10.7187785"><ele>261.3333333333333</ele><time>2026-04-26T07:16:44.697Z</time></trkpt><trkpt lat="45.5907411" lon="10.7188832"><ele>261.1666666666667</ele><time>2026-04-26T07:16:47.692Z</time></trkpt><trkpt lat="45.5908017" lon="10.7189308"><ele>261.0</ele><time>2026-04-26T07:16:48.695Z</time></trkpt><trkpt lat="45.590893" lon="10.7189994"><ele>261.0</ele><time>2026-04-26T07:16:49.698Z</time></trkpt><trkpt lat="45.5910041" lon="10.7190969"><ele>261.0</ele><time>2026-04-26T07:16:50.697Z</time></trkpt><trkpt lat="45.5911071" lon="10.719213"><ele>261.0</ele><time>2026-04-26T07:16:51.695Z</time></trkpt><trkpt lat="45.591213" lon="10.7193263"><ele>261.0</ele><time>2026-04-26T07:16:52.696Z</time></trkpt><trkpt lat="45.5913118" lon="10.7194395"><ele>261.0</ele><time>2026-04-26T07:16:53.691Z</time></trkpt><trkpt lat="45.5914067" lon="10.7195369"><ele>261.0</ele><time>2026-04-26T07:16:54.696Z</time></trkpt><trkpt lat="45.5914934" lon="10.7196198"><ele>261.0</ele><time>2026-04-26T07:16:55.694Z</time></trkpt><trkpt lat="45.5915676" lon="10.7197018"><ele>261.0</ele><time>2026-04-26T07:16:56.696Z</time></trkpt><trkpt lat="45.5916386" lon="10.7197881"><ele>261.0</ele><time>2026-04-26T07:16:57.7Z</time></trkpt><trkpt lat="45.591711" lon="10.7198742"><ele>261.0</ele><time>2026-04-26T07:16:58.696Z</time></trkpt><trkpt lat="45.5917789" lon="10.7199545"><ele>261.0</ele><time>2026-04-26T07:16:59.701Z</time></trkpt><trkpt lat="45.591852" lon="10.7200373"><ele>261.0</ele><time>2026-04-26T07:17:00.722Z</time></trkpt><trkpt lat="45.5919152" lon="10.7201257"><ele>261.0</ele><time>2026-04-26T07:17:01.71Z</time></trkpt><trkpt lat="45.591978" lon="10.7202194"><ele>261.0</ele><time>2026-04-26T07:17:02.705Z</time></trkpt><trkpt lat="45.592038" lon="10.7203109"><ele>261.0</ele><time>2026-04-26T07:17:03.699Z</time></trkpt><trkpt lat="45.5920991" lon="10.7203966"><ele>261.3333333333333</ele><time>2026-04-26T07:17:04.7Z</time></trkpt><trkpt lat="45.5921591" lon="10.7204678"><ele>261.6666666666667</ele><time>2026-04-26T07:17:05.697Z</time></trkpt><trkpt lat="45.5922254" lon="10.7205455"><ele>262.0</ele><time>2026-04-26T07:17:06.704Z</time></trkpt><trkpt lat="45.5922884" lon="10.7206237"><ele>262.33333333333337</ele><time>2026-04-26T07:17:07.706Z</time></trkpt><trkpt lat="45.5923554" lon="10.7206941"><ele>262.6666666666667</ele><time>2026-04-26T07:17:08.703Z</time></trkpt><trkpt lat="45.5924225" lon="10.7207613"><ele>263.0</ele><time>2026-04-26T07:17:09.702Z</time></trkpt><trkpt lat="45.59249" lon="10.7208205"><ele>263.0</ele><time>2026-04-26T07:17:10.709Z</time></trkpt><trkpt lat="45.5925627" lon="10.7208717"><ele>263.0</ele><time>2026-04-26T07:17:11.707Z</time></trkpt><trkpt lat="45.592639" lon="10.7209103"><ele>263.0</ele><time>2026-04-26T07:17:12.708Z</time></trkpt><trkpt lat="45.5927099" lon="10.7209413"><ele>263.0</ele><time>2026-04-26T07:17:13.712Z</time></trkpt><trkpt lat="45.5927734" lon="10.7209794"><ele>263.0</ele><time>2026-04-26T07:17:14.704Z</time></trkpt><trkpt lat="45.5928785" lon="10.7210678"><ele>263.0</ele><time>2026-04-26T07:17:16.707Z</time></trkpt><trkpt lat="45.5929285" lon="10.721126"><ele>264.0</ele><time>2026-04-26T07:17:17.703Z</time></trkpt><trkpt lat="45.5929676" lon="10.7212011"><ele>265.0</ele><time>2026-04-26T07:17:18.706Z</time></trkpt><trkpt lat="45.5930103" lon="10.7212965"><ele>266.0</ele><time>2026-04-26T07:17:19.704Z</time></trkpt><trkpt lat="45.5930517" lon="10.7214"><ele>267.0</ele><time>2026-04-26T07:17:20.703Z</time></trkpt><trkpt lat="45.5931023" lon="10.72151"><ele>268.0</ele><time>2026-04-26T07:17:21.704Z</time></trkpt><trkpt lat="45.5931494" lon="10.7216168"><ele>269.0</ele><time>2026-04-26T07:17:22.701Z</time></trkpt><trkpt lat="45.5931988" lon="10.7217229"><ele>269.0</ele><time>2026-04-26T07:17:23.698Z</time></trkpt><trkpt lat="45.5932502" lon="10.7218244"><ele>269.0</ele><time>2026-04-26T07:17:24.699Z</time></trkpt><trkpt lat="45.5933045" lon="10.7219303"><ele>269.0</ele><time>2026-04-26T07:17:25.697Z</time></trkpt><trkpt lat="45.5933594" lon="10.7220361"><ele>269.0</ele><time>2026-04-26T07:17:26.698Z</time></trkpt><trkpt lat="45.5934111" lon="10.7221372"><ele>269.0</ele><time>2026-04-26T07:17:27.699Z</time></trkpt><trkpt lat="45.5934586" lon="10.7222474"><ele>268.0</ele><time>2026-04-26T07:17:28.698Z</time></trkpt><trkpt lat="45.5935066" lon="10.7223466"><ele>267.0</ele><time>2026-04-26T07:17:29.707Z</time></trkpt><trkpt lat="45.5935509" lon="10.7224465"><ele>266.0</ele><time>2026-04-26T07:17:30.714Z</time></trkpt><trkpt lat="45.5936014" lon="10.7225392"><ele>265.0</ele><time>2026-04-26T07:17:31.708Z</time></trkpt><trkpt lat="45.593656" lon="10.722635"><ele>264.0</ele><time>2026-04-26T07:17:32.704Z</time></trkpt><trkpt lat="45.5937082" lon="10.7227289"><ele>263.0</ele><time>2026-04-26T07:17:33.719Z</time></trkpt><trkpt lat="45.5937603" lon="10.7228216"><ele>262.0</ele><time>2026-04-26T07:17:34.704Z</time></trkpt><trkpt lat="45.5938155" lon="10.7229182"><ele>261.0</ele><time>2026-04-26T07:17:35.702Z</time></trkpt><trkpt lat="45.5938672" lon="10.7230315"><ele>260.0</ele><time>2026-04-26T07:17:36.704Z</time></trkpt><trkpt lat="45.5939242" lon="10.7231613"><ele>259.0</ele><time>2026-04-26T07:17:37.711Z</time></trkpt><trkpt lat="45.5939861" lon="10.7232955"><ele>258.0</ele><time>2026-04-26T07:17:38.709Z</time></trkpt><trkpt lat="45.5940515" lon="10.7234112"><ele>258.0</ele><time>2026-04-26T07:17:39.705Z</time></trkpt><trkpt lat="45.5941235" lon="10.7235129"><ele>258.0</ele><time>2026-04-26T07:17:40.707Z</time></trkpt><trkpt lat="45.5941924" lon="10.7235988"><ele>258.0</ele><time>2026-04-26T07:17:41.71Z</time></trkpt><trkpt lat="45.5942605" lon="10.723672"><ele>258.0</ele><time>2026-04-26T07:17:42.714Z</time></trkpt><trkpt lat="45.5943263" lon="10.7237305"><ele>258.0</ele><time>2026-04-26T07:17:43.713Z</time></trkpt><trkpt lat="45.5943882" lon="10.7237771"><ele>258.0</ele><time>2026-04-26T07:17:44.712Z</time></trkpt><trkpt lat="45.5944536" lon="10.7238062"><ele>258.2</ele><time>2026-04-26T07:17:45.706Z</time></trkpt><trkpt lat="45.5945185" lon="10.7238226"><ele>258.4</ele><time>2026-04-26T07:17:46.709Z</time></trkpt><trkpt lat="45.5946129" lon="10.7238356"><ele>258.59999999999997</ele><time>2026-04-26T07:17:48.701Z</time></trkpt><trkpt lat="45.5946767" lon="10.7239129"><ele>258.8</ele><time>2026-04-26T07:17:51.706Z</time></trkpt><trkpt lat="45.5946922" lon="10.724089"><ele>259.0</ele><time>2026-04-26T07:17:53.716Z</time></trkpt><trkpt lat="45.5946803" lon="10.724223"><ele>259.0</ele><time>2026-04-26T07:17:54.705Z</time></trkpt><trkpt lat="45.5946774" lon="10.7243456"><ele>259.0</ele><time>2026-04-26T07:17:55.706Z</time></trkpt><trkpt lat="45.5946754" lon="10.7244449"><ele>259.0</ele><time>2026-04-26T07:17:56.703Z</time></trkpt><trkpt lat="45.59468" lon="10.7245366"><ele>259.0</ele><time>2026-04-26T07:17:57.714Z</time></trkpt><trkpt lat="45.5946899" lon="10.7246336"><ele>259.0</ele><time>2026-04-26T07:17:58.709Z</time></trkpt><trkpt lat="45.5947035" lon="10.7247379"><ele>259.0</ele><time>2026-04-26T07:17:59.711Z</time></trkpt><trkpt lat="45.5947233" lon="10.7248567"><ele>259.0</ele><time>2026-04-26T07:18:00.708Z</time></trkpt><trkpt lat="45.5947505" lon="10.7249768"><ele>258.3333333333333</ele><time>2026-04-26T07:18:01.722Z</time></trkpt><trkpt lat="45.5947777" lon="10.7251077"><ele>257.66666666666663</ele><time>2026-04-26T07:18:02.708Z</time></trkpt><trkpt lat="45.5948029" lon="10.7252316"><ele>257.0</ele><time>2026-04-26T07:18:03.722Z</time></trkpt><trkpt lat="45.5948289" lon="10.7253524"><ele>256.3333333333333</ele><time>2026-04-26T07:18:04.71Z</time></trkpt><trkpt lat="45.5948545" lon="10.7254663"><ele>255.66666666666666</ele><time>2026-04-26T07:18:05.712Z</time></trkpt><trkpt lat="45.5948766" lon="10.7255772"><ele>255.0</ele><time>2026-04-26T07:18:06.709Z</time></trkpt><trkpt lat="45.5948918" lon="10.7256834"><ele>254.57142857142858</ele><time>2026-04-26T07:18:07.709Z</time></trkpt><trkpt lat="45.5949031" lon="10.7257881"><ele>254.14285714285717</ele><time>2026-04-26T07:18:08.712Z</time></trkpt><trkpt lat="45.5949111" lon="10.7258938"><ele>253.71428571428572</ele><time>2026-04-26T07:18:09.706Z</time></trkpt><trkpt lat="45.5949205" lon="10.7259982"><ele>253.28571428571428</ele><time>2026-04-26T07:18:10.712Z</time></trkpt><trkpt lat="45.5949336" lon="10.7261072"><ele>252.85714285714286</ele><time>2026-04-26T07:18:11.708Z</time></trkpt><trkpt lat="45.5949495" lon="10.7262117"><ele>252.42857142857144</ele><time>2026-04-26T07:18:12.713Z</time></trkpt><trkpt lat="45.5949711" lon="10.726314"><ele>252.0</ele><time>2026-04-26T07:18:13.709Z</time></trkpt><trkpt lat="45.594999" lon="10.7264152"><ele>251.83333333333334</ele><time>2026-04-26T07:18:14.707Z</time></trkpt><trkpt lat="45.595028" lon="10.7265237"><ele>251.66666666666669</ele><time>2026-04-26T07:18:15.706Z</time></trkpt><trkpt lat="45.5950576" lon="10.7266309"><ele>251.5</ele><time>2026-04-26T07:18:16.7Z</time></trkpt><trkpt lat="45.5950852" lon="10.7267389"><ele>251.33333333333334</ele><time>2026-04-26T07:18:17.702Z</time></trkpt><trkpt lat="45.5951123" lon="10.7268492"><ele>251.16666666666669</ele><time>2026-04-26T07:18:18.702Z</time></trkpt><trkpt lat="45.595136" lon="10.7269589"><ele>251.0</ele><time>2026-04-26T07:18:19.69Z</time></trkpt><trkpt lat="45.5951519" lon="10.7270722"><ele>251.00000000000003</ele><time>2026-04-26T07:18:20.696Z</time></trkpt><trkpt lat="45.5951675" lon="10.7271757"><ele>251.0</ele><time>2026-04-26T07:18:21.698Z</time></trkpt><trkpt lat="45.5951838" lon="10.7272786"><ele>251.0</ele><time>2026-04-26T07:18:22.696Z</time></trkpt><trkpt lat="45.5952083" lon="10.7273811"><ele>251.0</ele><time>2026-04-26T07:18:23.694Z</time></trkpt><trkpt lat="45.5952493" lon="10.7274683"><ele>251.00000000000003</ele><time>2026-04-26T07:18:24.693Z</time></trkpt><trkpt lat="45.5952939" lon="10.7275473"><ele>251.0</ele><time>2026-04-26T07:18:25.692Z</time></trkpt><trkpt lat="45.5953778" lon="10.7276797"><ele>251.33333333333334</ele><time>2026-04-26T07:18:27.696Z</time></trkpt><trkpt lat="45.5954201" lon="10.7277536"><ele>251.66666666666669</ele><time>2026-04-26T07:18:28.692Z</time></trkpt><trkpt lat="45.59546" lon="10.7278393"><ele>252.0</ele><time>2026-04-26T07:18:29.695Z</time></trkpt><trkpt lat="45.5955033" lon="10.7279392"><ele>252.33333333333331</ele><time>2026-04-26T07:18:30.694Z</time></trkpt><trkpt lat="45.5955387" lon="10.7280412"><ele>252.66666666666666</ele><time>2026-04-26T07:18:31.687Z</time></trkpt><trkpt lat="45.5955713" lon="10.7281535"><ele>253.0</ele><time>2026-04-26T07:18:32.695Z</time></trkpt><trkpt lat="45.5955788" lon="10.7282714"><ele>253.0</ele><time>2026-04-26T07:18:33.689Z</time></trkpt><trkpt lat="45.5955694" lon="10.7283938"><ele>253.0</ele><time>2026-04-26T07:18:34.693Z</time></trkpt><trkpt lat="45.595552" lon="10.7285157"><ele>253.0</ele><time>2026-04-26T07:18:35.687Z</time></trkpt><trkpt lat="45.5955351" lon="10.7286452"><ele>253.0</ele><time>2026-04-26T07:18:36.692Z</time></trkpt><trkpt lat="45.5955267" lon="10.7287819"><ele>253.0</ele><time>2026-04-26T07:18:37.685Z</time></trkpt><trkpt lat="45.595525" lon="10.7289219"><ele>252.8</ele><time>2026-04-26T07:18:38.687Z</time></trkpt><trkpt lat="45.595526" lon="10.7290633"><ele>252.60000000000002</ele><time>2026-04-26T07:18:39.686Z</time></trkpt><trkpt lat="45.5955258" lon="10.7292029"><ele>252.39999999999998</ele><time>2026-04-26T07:18:40.683Z</time></trkpt><trkpt lat="45.5955211" lon="10.7293354"><ele>252.2</ele><time>2026-04-26T07:18:41.693Z</time></trkpt><trkpt lat="45.5955076" lon="10.7294627"><ele>252.0</ele><time>2026-04-26T07:18:42.694Z</time></trkpt><trkpt lat="45.5954934" lon="10.7295754"><ele>252.0</ele><time>2026-04-26T07:18:43.694Z</time></trkpt><trkpt lat="45.5954803" lon="10.7296885"><ele>252.0</ele><time>2026-04-26T07:18:44.689Z</time></trkpt><trkpt lat="45.5954759" lon="10.7297995"><ele>252.0</ele><time>2026-04-26T07:18:45.696Z</time></trkpt><trkpt lat="45.5954754" lon="10.7299127"><ele>252.0</ele><time>2026-04-26T07:18:46.705Z</time></trkpt><trkpt lat="45.595474" lon="10.7300191"><ele>252.0</ele><time>2026-04-26T07:18:47.695Z</time></trkpt><trkpt lat="45.5954767" lon="10.7301148"><ele>252.0</ele><time>2026-04-26T07:18:48.704Z</time></trkpt><trkpt lat="45.5954927" lon="10.7302927"><ele>252.33333333333334</ele><time>2026-04-26T07:18:50.696Z</time></trkpt><trkpt lat="45.5955035" lon="10.7303822"><ele>252.66666666666669</ele><time>2026-04-26T07:18:51.699Z</time></trkpt><trkpt lat="45.5955312" lon="10.7305231"><ele>253.0</ele><time>2026-04-26T07:18:53.696Z</time></trkpt><trkpt lat="45.5956079" lon="10.7305739"><ele>253.33333333333334</ele><time>2026-04-26T07:18:56.702Z</time></trkpt><trkpt lat="45.5957032" lon="10.7305025"><ele>253.66666666666669</ele><time>2026-04-26T07:18:58.695Z</time></trkpt><trkpt lat="45.5957576" lon="10.7304356"><ele>254.0</ele><time>2026-04-26T07:18:59.704Z</time></trkpt><trkpt lat="45.5958126" lon="10.7303777"><ele>254.0</ele><time>2026-04-26T07:19:00.704Z</time></trkpt><trkpt lat="45.5958713" lon="10.7303275"><ele>254.0</ele><time>2026-04-26T07:19:01.701Z</time></trkpt><trkpt lat="45.5959408" lon="10.7302956"><ele>254.0</ele><time>2026-04-26T07:19:02.698Z</time></trkpt><trkpt lat="45.5960124" lon="10.7302783"><ele>254.0</ele><time>2026-04-26T07:19:03.706Z</time></trkpt><trkpt lat="45.5960872" lon="10.7302742"><ele>254.0</ele><time>2026-04-26T07:19:04.698Z</time></trkpt><trkpt lat="45.5961642" lon="10.7302672"><ele>254.0</ele><time>2026-04-26T07:19:05.709Z</time></trkpt><trkpt lat="45.5962339" lon="10.7302521"><ele>254.0</ele><time>2026-04-26T07:19:06.695Z</time></trkpt><trkpt lat="45.5963471" lon="10.7302051"><ele>255.33333333333334</ele><time>2026-04-26T07:19:08.698Z</time></trkpt><trkpt lat="45.5964685" lon="10.7301539"><ele>256.6666666666667</ele><time>2026-04-26T07:19:10.703Z</time></trkpt><trkpt lat="45.5965293" lon="10.730124"><ele>258.0</ele><time>2026-04-26T07:19:11.705Z</time></trkpt><trkpt lat="45.5965905" lon="10.7300925"><ele>259.3333333333333</ele><time>2026-04-26T07:19:12.699Z</time></trkpt><trkpt lat="45.596653" lon="10.7300598"><ele>260.66666666666663</ele><time>2026-04-26T07:19:13.707Z</time></trkpt><trkpt lat="45.5967175" lon="10.730027"><ele>262.0</ele><time>2026-04-26T07:19:14.699Z</time></trkpt><trkpt lat="45.596782" lon="10.7299957"><ele>262.0</ele><time>2026-04-26T07:19:15.703Z</time></trkpt><trkpt lat="45.5968427" lon="10.7299714"><ele>262.0</ele><time>2026-04-26T07:19:16.703Z</time></trkpt><trkpt lat="45.5969599" lon="10.729959"><ele>262.0</ele><time>2026-04-26T07:19:18.704Z</time></trkpt><trkpt lat="45.5970825" lon="10.7299687"><ele>262.0</ele><time>2026-04-26T07:19:20.698Z</time></trkpt><trkpt lat="45.5971923" lon="10.7299618"><ele>262.0</ele><time>2026-04-26T07:19:22.698Z</time></trkpt><trkpt lat="45.597302" lon="10.7299248"><ele>263.6</ele><time>2026-04-26T07:19:24.695Z</time></trkpt><trkpt lat="45.5974154" lon="10.7298791"><ele>265.2</ele><time>2026-04-26T07:19:26.698Z</time></trkpt><trkpt lat="45.5975187" lon="10.7298311"><ele>266.8</ele><time>2026-04-26T07:19:28.696Z</time></trkpt><trkpt lat="45.5976096" lon="10.7297321"><ele>268.4</ele><time>2026-04-26T07:19:30.7Z</time></trkpt><trkpt lat="45.5976815" lon="10.7296618"><ele>270.0</ele><time>2026-04-26T07:19:32.7Z</time></trkpt><trkpt lat="45.5977857" lon="10.7296218"><ele>270.5</ele><time>2026-04-26T07:19:34.702Z</time></trkpt><trkpt lat="45.5978607" lon="10.7296211"><ele>271.0</ele><time>2026-04-26T07:19:35.695Z</time></trkpt><trkpt lat="45.5979477" lon="10.7296277"><ele>271.5</ele><time>2026-04-26T07:19:36.702Z</time></trkpt><trkpt lat="45.5980259" lon="10.7296181"><ele>272.0</ele><time>2026-04-26T07:19:37.691Z</time></trkpt><trkpt lat="45.5980953" lon="10.7295898"><ele>272.5</ele><time>2026-04-26T07:19:38.69Z</time></trkpt><trkpt lat="45.5981608" lon="10.7295323"><ele>273.0</ele><time>2026-04-26T07:19:39.691Z</time></trkpt><trkpt lat="45.5982266" lon="10.7294648"><ele>273.0</ele><time>2026-04-26T07:19:40.698Z</time></trkpt><trkpt lat="45.598297" lon="10.7293929"><ele>273.0</ele><time>2026-04-26T07:19:41.694Z</time></trkpt><trkpt lat="45.5983691" lon="10.7293229"><ele>273.0</ele><time>2026-04-26T07:19:42.693Z</time></trkpt><trkpt lat="45.5984486" lon="10.7292535"><ele>273.0</ele><time>2026-04-26T07:19:43.698Z</time></trkpt><trkpt lat="45.5985156" lon="10.7291939"><ele>273.0</ele><time>2026-04-26T07:19:44.697Z</time></trkpt><trkpt lat="45.598572" lon="10.7291397"><ele>273.0</ele><time>2026-04-26T07:19:45.695Z</time></trkpt><trkpt lat="45.5986463" lon="10.7290229"><ele>273.6</ele><time>2026-04-26T07:19:47.704Z</time></trkpt><trkpt lat="45.5986712" lon="10.7288399"><ele>274.20000000000005</ele><time>2026-04-26T07:19:49.702Z</time></trkpt><trkpt lat="45.5986749" lon="10.7287199"><ele>274.8</ele><time>2026-04-26T07:19:50.695Z</time></trkpt><trkpt lat="45.5986732" lon="10.7285939"><ele>275.40000000000003</ele><time>2026-04-26T07:19:51.703Z</time></trkpt><trkpt lat="45.59867" lon="10.7284731"><ele>276.0</ele><time>2026-04-26T07:19:52.702Z</time></trkpt><trkpt lat="45.5986672" lon="10.7283681"><ele>277.3333333333333</ele><time>2026-04-26T07:19:53.698Z</time></trkpt><trkpt lat="45.598679" lon="10.7282174"><ele>278.6666666666667</ele><time>2026-04-26T07:19:55.694Z</time></trkpt><trkpt lat="45.5987355" lon="10.7281275"><ele>280.0</ele><time>2026-04-26T07:19:57.699Z</time></trkpt><trkpt lat="45.5988188" lon="10.7281006"><ele>281.33333333333337</ele><time>2026-04-26T07:20:07.701Z</time></trkpt><trkpt lat="45.5988945" lon="10.7280388"><ele>282.6666666666667</ele><time>2026-04-26T07:20:27.698Z</time></trkpt><trkpt lat="45.5989586" lon="10.7279953"><ele>284.0</ele><time>2026-04-26T07:20:30.7Z</time></trkpt><trkpt lat="45.5990317" lon="10.72796"><ele>284.0</ele><time>2026-04-26T07:20:35.702Z</time></trkpt><trkpt lat="45.599093" lon="10.7279305"><ele>284.0</ele><time>2026-04-26T07:20:39.702Z</time></trkpt><trkpt lat="45.5991557" lon="10.727904"><ele>284.0</ele><time>2026-04-26T07:20:50.698Z</time></trkpt><trkpt lat="45.5991163" lon="10.7278291"><ele>284.0</ele><time>2026-04-26T07:20:57.701Z</time></trkpt><trkpt lat="45.5990717" lon="10.7277353"><ele>284.0</ele><time>2026-04-26T07:21:04.7Z</time></trkpt><trkpt lat="45.59902" lon="10.7276374"><ele>284.0</ele><time>2026-04-26T07:21:07.708Z</time></trkpt><trkpt lat="45.5989737" lon="10.7275246"><ele>283.5</ele><time>2026-04-26T07:21:10.701Z</time></trkpt><trkpt lat="45.5989307" lon="10.7274418"><ele>283.0</ele><time>2026-04-26T07:21:12.698Z</time></trkpt><trkpt lat="45.5988842" lon="10.7273539"><ele>282.5</ele><time>2026-04-26T07:21:14.696Z</time></trkpt><trkpt lat="45.5988365" lon="10.7272631"><ele>282.0</ele><time>2026-04-26T07:21:17.695Z</time></trkpt><trkpt lat="45.5987715" lon="10.7271837"><ele>281.5</ele><time>2026-04-26T07:21:21.698Z</time></trkpt><trkpt lat="45.5987114" lon="10.7271183"><ele>281.0</ele><time>2026-04-26T07:21:24.696Z</time></trkpt><trkpt lat="45.5986571" lon="10.7270347"><ele>280.00000000000006</ele><time>2026-04-26T07:21:27.687Z</time></trkpt><trkpt lat="45.5986047" lon="10.7269304"><ele>279.0</ele><time>2026-04-26T07:21:30.696Z</time></trkpt><trkpt lat="45.5985616" lon="10.7268473"><ele>278.0</ele><time>2026-04-26T07:21:33.695Z</time></trkpt><trkpt lat="45.5985187" lon="10.726749"><ele>277.0</ele><time>2026-04-26T07:21:37.692Z</time></trkpt><trkpt lat="45.5984722" lon="10.7266855"><ele>276.0</ele><time>2026-04-26T07:21:39.691Z</time></trkpt><trkpt lat="45.598423" lon="10.7266222"><ele>275.00000000000006</ele><time>2026-04-26T07:21:42.692Z</time></trkpt><trkpt lat="45.5983601" lon="10.726563"><ele>274.0</ele><time>2026-04-26T07:21:46.698Z</time></trkpt><trkpt lat="45.5982915" lon="10.7265002"><ele>273.2</ele><time>2026-04-26T07:22:02.691Z</time></trkpt><trkpt lat="45.5982176" lon="10.7264832"><ele>272.4</ele><time>2026-04-26T07:22:05.691Z</time></trkpt><trkpt lat="45.5981323" lon="10.7264834"><ele>271.6</ele><time>2026-04-26T07:22:07.696Z</time></trkpt><trkpt lat="45.5980302" lon="10.7264818"><ele>270.8</ele><time>2026-04-26T07:22:09.693Z</time></trkpt><trkpt lat="45.5979307" lon="10.7264666"><ele>270.0</ele><time>2026-04-26T07:22:11.707Z</time></trkpt><trkpt lat="45.5978451" lon="10.7263936"><ele>269.0</ele><time>2026-04-26T07:22:13.692Z</time></trkpt><trkpt lat="45.5977679" lon="10.7262646"><ele>268.0</ele><time>2026-04-26T07:22:15.692Z</time></trkpt><trkpt lat="45.5977344" lon="10.7261872"><ele>267.0</ele><time>2026-04-26T07:22:16.697Z</time></trkpt><trkpt lat="45.5977033" lon="10.7261003"><ele>266.0</ele><time>2026-04-26T07:22:17.694Z</time></trkpt><trkpt lat="45.5976783" lon="10.7260098"><ele>265.0</ele><time>2026-04-26T07:22:18.694Z</time></trkpt><trkpt lat="45.5976287" lon="10.7258557"><ele>264.0</ele><time>2026-04-26T07:22:20.698Z</time></trkpt><trkpt lat="45.597589" lon="10.7257017"><ele>263.4</ele><time>2026-04-26T07:22:22.693Z</time></trkpt><trkpt lat="45.5975526" lon="10.7255667"><ele>262.79999999999995</ele><time>2026-04-26T07:22:24.699Z</time></trkpt><trkpt lat="45.5975189" lon="10.7254478"><ele>262.20000000000005</ele><time>2026-04-26T07:22:26.697Z</time></trkpt><trkpt lat="45.5974711" lon="10.7253308"><ele>261.6</ele><time>2026-04-26T07:22:28.69Z</time></trkpt><trkpt lat="45.5974226" lon="10.725209"><ele>261.0</ele><time>2026-04-26T07:22:30.69Z</time></trkpt><trkpt lat="45.5973814" lon="10.7251009"><ele>261.0</ele><time>2026-04-26T07:22:32.691Z</time></trkpt><trkpt lat="45.5973287" lon="10.7250192"><ele>261.0</ele><time>2026-04-26T07:22:35.685Z</time></trkpt><trkpt lat="45.5972437" lon="10.7249543"><ele>261.0</ele><time>2026-04-26T07:22:47.688Z</time></trkpt><trkpt lat="45.5972298" lon="10.7248474"><ele>261.0</ele><time>2026-04-26T07:22:49.683Z</time></trkpt><trkpt lat="45.5972722" lon="10.7247445"><ele>261.0</ele><time>2026-04-26T07:22:51.69Z</time></trkpt><trkpt lat="45.5973091" lon="10.7246253"><ele>261.0</ele><time>2026-04-26T07:22:53.699Z</time></trkpt><trkpt lat="45.5973376" lon="10.7245254"><ele>261.0</ele><time>2026-04-26T07:22:56.701Z</time></trkpt><trkpt lat="45.5973775" lon="10.7244539"><ele>261.0</ele><time>2026-04-26T07:23:00.701Z</time></trkpt><trkpt lat="45.5974639" lon="10.7244296"><ele>261.0</ele><time>2026-04-26T07:23:04.697Z</time></trkpt><trkpt lat="45.5975352" lon="10.7244575"><ele>261.0</ele><time>2026-04-26T07:23:06.696Z</time></trkpt><trkpt lat="45.5976379" lon="10.7245609"><ele>261.0</ele><time>2026-04-26T07:23:08.702Z</time></trkpt><trkpt lat="45.5977009" lon="10.7246137"><ele>261.0</ele><time>2026-04-26T07:23:09.699Z</time></trkpt><trkpt lat="45.5977662" lon="10.7246526"><ele>261.0</ele><time>2026-04-26T07:23:10.708Z</time></trkpt><trkpt lat="45.597831" lon="10.7246788"><ele>261.0</ele><time>2026-04-26T07:23:11.697Z</time></trkpt><trkpt lat="45.5978993" lon="10.7246914"><ele>261.0</ele><time>2026-04-26T07:23:12.708Z</time></trkpt><trkpt lat="45.5979685" lon="10.7246998"><ele>261.0</ele><time>2026-04-26T07:23:13.702Z</time></trkpt><trkpt lat="45.5980324" lon="10.7247101"><ele>261.0</ele><time>2026-04-26T07:23:14.701Z</time></trkpt><trkpt lat="45.5981554" lon="10.7247131"><ele>261.0</ele><time>2026-04-26T07:23:16.707Z</time></trkpt><trkpt lat="45.5982205" lon="10.7247122"><ele>261.1666666666667</ele><time>2026-04-26T07:23:17.703Z</time></trkpt><trkpt lat="45.59829" lon="10.7247055"><ele>261.3333333333333</ele><time>2026-04-26T07:23:18.7Z</time></trkpt><trkpt lat="45.5983651" lon="10.7246885"><ele>261.5</ele><time>2026-04-26T07:23:19.7Z</time></trkpt><trkpt lat="45.5984402" lon="10.7246641"><ele>261.66666666666663</ele><time>2026-04-26T07:23:20.7Z</time></trkpt><trkpt lat="45.5985195" lon="10.7246374"><ele>261.8333333333333</ele><time>2026-04-26T07:23:21.703Z</time></trkpt><trkpt lat="45.5986043" lon="10.7246116"><ele>262.0</ele><time>2026-04-26T07:23:22.701Z</time></trkpt><trkpt lat="45.5986909" lon="10.7245781"><ele>263.0</ele><time>2026-04-26T07:23:23.692Z</time></trkpt><trkpt lat="45.5987804" lon="10.724543"><ele>264.0</ele><time>2026-04-26T07:23:24.707Z</time></trkpt><trkpt lat="45.5988691" lon="10.7244896"><ele>265.0</ele><time>2026-04-26T07:23:25.702Z</time></trkpt><trkpt lat="45.5989603" lon="10.7244262"><ele>266.0</ele><time>2026-04-26T07:23:26.694Z</time></trkpt><trkpt lat="45.599048" lon="10.7243584"><ele>267.0</ele><time>2026-04-26T07:23:27.693Z</time></trkpt><trkpt lat="45.5991448" lon="10.7242978"><ele>267.0</ele><time>2026-04-26T07:23:28.695Z</time></trkpt><trkpt lat="45.5992491" lon="10.7242499"><ele>267.0</ele><time>2026-04-26T07:23:29.697Z</time></trkpt><trkpt lat="45.5993591" lon="10.7241998"><ele>267.0</ele><time>2026-04-26T07:23:30.696Z</time></trkpt><trkpt lat="45.5994699" lon="10.7241339"><ele>267.0</ele><time>2026-04-26T07:23:31.703Z</time></trkpt><trkpt lat="45.5995756" lon="10.724074"><ele>267.2</ele><time>2026-04-26T07:23:32.698Z</time></trkpt><trkpt lat="45.5996781" lon="10.7240138"><ele>267.4</ele><time>2026-04-26T07:23:33.698Z</time></trkpt><trkpt lat="45.599781" lon="10.7239662"><ele>267.6</ele><time>2026-04-26T07:23:34.699Z</time></trkpt><trkpt lat="45.5998773" lon="10.72393"><ele>267.8</ele><time>2026-04-26T07:23:35.7Z</time></trkpt><trkpt lat="45.5999652" lon="10.7238929"><ele>268.0</ele><time>2026-04-26T07:23:36.699Z</time></trkpt><trkpt lat="45.6000581" lon="10.723842"><ele>268.0</ele><time>2026-04-26T07:23:37.697Z</time></trkpt><trkpt lat="45.6001491" lon="10.7237725"><ele>268.0</ele><time>2026-04-26T07:23:38.698Z</time></trkpt><trkpt lat="45.6002375" lon="10.7236936"><ele>268.0</ele><time>2026-04-26T07:23:39.705Z</time></trkpt><trkpt lat="45.6003154" lon="10.7236246"><ele>268.0</ele><time>2026-04-26T07:23:40.7Z</time></trkpt><trkpt lat="45.600388" lon="10.7235697"><ele>268.0</ele><time>2026-04-26T07:23:41.703Z</time></trkpt><trkpt lat="45.6004603" lon="10.7235357"><ele>268.8333333333333</ele><time>2026-04-26T07:23:42.696Z</time></trkpt><trkpt lat="45.6005354" lon="10.7235318"><ele>269.66666666666663</ele><time>2026-04-26T07:23:43.704Z</time></trkpt><trkpt lat="45.6006176" lon="10.7235382"><ele>270.5</ele><time>2026-04-26T07:23:44.702Z</time></trkpt><trkpt lat="45.6006967" lon="10.7235424"><ele>271.3333333333333</ele><time>2026-04-26T07:23:45.696Z</time></trkpt><trkpt lat="45.6007795" lon="10.7235337"><ele>272.1666666666667</ele><time>2026-04-26T07:23:46.707Z</time></trkpt><trkpt lat="45.6008664" lon="10.7235178"><ele>273.0</ele><time>2026-04-26T07:23:47.7Z</time></trkpt><trkpt lat="45.6009534" lon="10.7234786"><ele>273.0</ele><time>2026-04-26T07:23:48.695Z</time></trkpt><trkpt lat="45.6010428" lon="10.7234123"><ele>273.0</ele><time>2026-04-26T07:23:49.693Z</time></trkpt><trkpt lat="45.6011356" lon="10.7233277"><ele>273.0</ele><time>2026-04-26T07:23:50.695Z</time></trkpt><trkpt lat="45.6012298" lon="10.7232198"><ele>273.0</ele><time>2026-04-26T07:23:51.699Z</time></trkpt><trkpt lat="45.6013352" lon="10.7230977"><ele>274.0</ele><time>2026-04-26T07:23:52.702Z</time></trkpt><trkpt lat="45.601436" lon="10.7229831"><ele>275.0</ele><time>2026-04-26T07:23:53.702Z</time></trkpt><trkpt lat="45.6015263" lon="10.7228763"><ele>276.0</ele><time>2026-04-26T07:23:54.701Z</time></trkpt><trkpt lat="45.6016031" lon="10.7228016"><ele>277.0</ele><time>2026-04-26T07:23:55.699Z</time></trkpt><trkpt lat="45.6016708" lon="10.7227456"><ele>278.0</ele><time>2026-04-26T07:23:56.698Z</time></trkpt><trkpt lat="45.6017363" lon="10.7227082"><ele>279.0</ele><time>2026-04-26T07:23:57.698Z</time></trkpt><trkpt lat="45.6018" lon="10.7226841"><ele>280.0</ele><time>2026-04-26T07:23:58.7Z</time></trkpt><trkpt lat="45.6019261" lon="10.7226575"><ele>281.0</ele><time>2026-04-26T07:24:00.701Z</time></trkpt><trkpt lat="45.602006" lon="10.7226507"><ele>282.0</ele><time>2026-04-26T07:24:01.707Z</time></trkpt><trkpt lat="45.6020938" lon="10.7226427"><ele>283.0</ele><time>2026-04-26T07:24:02.704Z</time></trkpt><trkpt lat="45.6021852" lon="10.72264"><ele>284.6</ele><time>2026-04-26T07:24:03.706Z</time></trkpt><trkpt lat="45.6022699" lon="10.7226324"><ele>286.20000000000005</ele><time>2026-04-26T07:24:04.698Z</time></trkpt><trkpt lat="45.6023396" lon="10.7226061"><ele>287.8</ele><time>2026-04-26T07:24:05.703Z</time></trkpt><trkpt lat="45.6024077" lon="10.7224842"><ele>289.40000000000003</ele><time>2026-04-26T07:24:07.701Z</time></trkpt><trkpt lat="45.602342" lon="10.7223262"><ele>291.0</ele><time>2026-04-26T07:24:09.705Z</time></trkpt><trkpt lat="45.6022641" lon="10.7222765"><ele>291.0</ele><time>2026-04-26T07:24:10.701Z</time></trkpt><trkpt lat="45.6021604" lon="10.7222787"><ele>291.0</ele><time>2026-04-26T07:24:11.696Z</time></trkpt><trkpt lat="45.6020391" lon="10.7222778"><ele>291.0</ele><time>2026-04-26T07:24:12.708Z</time></trkpt><trkpt lat="45.6019187" lon="10.7222369"><ele>291.0</ele><time>2026-04-26T07:24:13.698Z</time></trkpt><trkpt lat="45.6018039" lon="10.7221493"><ele>290.25</ele><time>2026-04-26T07:24:14.709Z</time></trkpt><trkpt lat="45.6017041" lon="10.7220288"><ele>289.5</ele><time>2026-04-26T07:24:15.691Z</time></trkpt><trkpt lat="45.6016246" lon="10.7218951"><ele>288.75</ele><time>2026-04-26T07:24:16.704Z</time></trkpt><trkpt lat="45.6015607" lon="10.7217429"><ele>288.0</ele><time>2026-04-26T07:24:17.7Z</time></trkpt><trkpt lat="45.6014975" lon="10.7215884"><ele>288.0</ele><time>2026-04-26T07:24:18.696Z</time></trkpt><trkpt lat="45.6014332" lon="10.7214417"><ele>288.0</ele><time>2026-04-26T07:24:19.696Z</time></trkpt><trkpt lat="45.6013644" lon="10.7213006"><ele>288.0</ele><time>2026-04-26T07:24:20.7Z</time></trkpt><trkpt lat="45.601286" lon="10.7211739"><ele>288.0</ele><time>2026-04-26T07:24:21.702Z</time></trkpt><trkpt lat="45.6012061" lon="10.7210508"><ele>287.0</ele><time>2026-04-26T07:24:22.701Z</time></trkpt><trkpt lat="45.6011221" lon="10.7209393"><ele>286.0</ele><time>2026-04-26T07:24:23.697Z</time></trkpt><trkpt lat="45.6010292" lon="10.7208414"><ele>285.0</ele><time>2026-04-26T07:24:24.696Z</time></trkpt><trkpt lat="45.6009223" lon="10.7207539"><ele>284.0</ele><time>2026-04-26T07:24:25.696Z</time></trkpt><trkpt lat="45.6008071" lon="10.7206734"><ele>284.0</ele><time>2026-04-26T07:24:26.698Z</time></trkpt><trkpt lat="45.6006831" lon="10.7206025"><ele>284.0</ele><time>2026-04-26T07:24:27.701Z</time></trkpt><trkpt lat="45.6005598" lon="10.7205297"><ele>284.0</ele><time>2026-04-26T07:24:28.695Z</time></trkpt><trkpt lat="45.6004402" lon="10.720457"><ele>284.0</ele><time>2026-04-26T07:24:29.698Z</time></trkpt><trkpt lat="45.600326" lon="10.7203663"><ele>284.0</ele><time>2026-04-26T07:24:30.696Z</time></trkpt><trkpt lat="45.6002183" lon="10.7202642"><ele>284.0</ele><time>2026-04-26T07:24:31.697Z</time></trkpt><trkpt lat="45.6001143" lon="10.7201461"><ele>284.0</ele><time>2026-04-26T07:24:32.699Z</time></trkpt><trkpt lat="45.6000062" lon="10.7200186"><ele>284.0</ele><time>2026-04-26T07:24:33.699Z</time></trkpt><trkpt lat="45.5999013" lon="10.7198989"><ele>284.0</ele><time>2026-04-26T07:24:34.696Z</time></trkpt><trkpt lat="45.5998001" lon="10.7197656"><ele>284.0</ele><time>2026-04-26T07:24:35.697Z</time></trkpt><trkpt lat="45.5997057" lon="10.7196115"><ele>284.0</ele><time>2026-04-26T07:24:36.689Z</time></trkpt><trkpt lat="45.5996132" lon="10.7194323"><ele>284.0</ele><time>2026-04-26T07:24:37.692Z</time></trkpt><trkpt lat="45.5995488" lon="10.7192655"><ele>284.59999999999997</ele><time>2026-04-26T07:24:38.699Z</time></trkpt><trkpt lat="45.5995029" lon="10.7191329"><ele>285.2</ele><time>2026-04-26T07:24:39.697Z</time></trkpt><trkpt lat="45.599479" lon="10.7190361"><ele>285.79999999999995</ele><time>2026-04-26T07:24:40.699Z</time></trkpt><trkpt lat="45.5994943" lon="10.7188589"><ele>286.4</ele><time>2026-04-26T07:24:42.7Z</time></trkpt><trkpt lat="45.5995326" lon="10.7187477"><ele>287.0</ele><time>2026-04-26T07:24:43.707Z</time></trkpt><trkpt lat="45.5995847" lon="10.7186322"><ele>286.5</ele><time>2026-04-26T07:24:44.699Z</time></trkpt><trkpt lat="45.5996444" lon="10.7185047"><ele>286.0</ele><time>2026-04-26T07:24:45.704Z</time></trkpt><trkpt lat="45.5997086" lon="10.718367"><ele>285.5</ele><time>2026-04-26T07:24:46.702Z</time></trkpt><trkpt lat="45.5997741" lon="10.7182203"><ele>285.0</ele><time>2026-04-26T07:24:47.703Z</time></trkpt><trkpt lat="45.5998306" lon="10.7180863"><ele>285.0</ele><time>2026-04-26T07:24:48.703Z</time></trkpt><trkpt lat="45.5998816" lon="10.7179666"><ele>285.0</ele><time>2026-04-26T07:24:49.698Z</time></trkpt><trkpt lat="45.599932" lon="10.7178648"><ele>285.0</ele><time>2026-04-26T07:24:50.697Z</time></trkpt><trkpt lat="45.5999767" lon="10.7177722"><ele>285.0</ele><time>2026-04-26T07:24:51.699Z</time></trkpt><trkpt lat="45.6000147" lon="10.7176784"><ele>285.0</ele><time>2026-04-26T07:24:52.699Z</time></trkpt><trkpt lat="45.6000539" lon="10.717594"><ele>285.0</ele><time>2026-04-26T07:24:53.696Z</time></trkpt><trkpt lat="45.6000982" lon="10.7175148"><ele>284.8</ele><time>2026-04-26T07:24:54.697Z</time></trkpt><trkpt lat="45.6001468" lon="10.7174295"><ele>284.6</ele><time>2026-04-26T07:24:55.7Z</time></trkpt><trkpt lat="45.6002061" lon="10.7173458"><ele>284.4</ele><time>2026-04-26T07:24:56.695Z</time></trkpt><trkpt lat="45.6002781" lon="10.7172618"><ele>284.2</ele><time>2026-04-26T07:24:57.697Z</time></trkpt><trkpt lat="45.6003662" lon="10.717185"><ele>284.0</ele><time>2026-04-26T07:24:58.693Z</time></trkpt><trkpt lat="45.6004596" lon="10.7171146"><ele>284.5</ele><time>2026-04-26T07:24:59.691Z</time></trkpt><trkpt lat="45.6005652" lon="10.7170468"><ele>285.0</ele><time>2026-04-26T07:25:00.693Z</time></trkpt><trkpt lat="45.6006853" lon="10.7169816"><ele>285.5</ele><time>2026-04-26T07:25:01.69Z</time></trkpt><trkpt lat="45.6008035" lon="10.7169152"><ele>286.0</ele><time>2026-04-26T07:25:02.689Z</time></trkpt><trkpt lat="45.6009117" lon="10.7168551"><ele>286.0</ele><time>2026-04-26T07:25:03.686Z</time></trkpt><trkpt lat="45.6010045" lon="10.7167938"><ele>286.0</ele><time>2026-04-26T07:25:04.688Z</time></trkpt><trkpt lat="45.6010686" lon="10.7167359"><ele>286.0</ele><time>2026-04-26T07:25:05.69Z</time></trkpt><trkpt lat="45.6011664" lon="10.7166914"><ele>286.0</ele><time>2026-04-26T07:25:07.688Z</time></trkpt><trkpt lat="45.6012335" lon="10.7167861"><ele>286.0</ele><time>2026-04-26T07:25:09.676Z</time></trkpt><trkpt lat="45.6012839" lon="10.7168452"><ele>286.0</ele><time>2026-04-26T07:25:11.68Z</time></trkpt><trkpt lat="45.6013853" lon="10.7168187"><ele>287.8333333333333</ele><time>2026-04-26T07:25:13.68Z</time></trkpt><trkpt lat="45.6014545" lon="10.7167862"><ele>289.66666666666663</ele><time>2026-04-26T07:25:14.69Z</time></trkpt><trkpt lat="45.6015284" lon="10.7167406"><ele>291.5</ele><time>2026-04-26T07:25:15.681Z</time></trkpt><trkpt lat="45.6016054" lon="10.7166809"><ele>293.3333333333333</ele><time>2026-04-26T07:25:16.686Z</time></trkpt><trkpt lat="45.6016795" lon="10.7166017"><ele>295.1666666666667</ele><time>2026-04-26T07:25:17.682Z</time></trkpt><trkpt lat="45.6017382" lon="10.7165288"><ele>297.0</ele><time>2026-04-26T07:25:18.684Z</time></trkpt><trkpt lat="45.6017796" lon="10.7164482"><ele>297.0</ele><time>2026-04-26T07:25:19.682Z</time></trkpt><trkpt lat="45.6018055" lon="10.716342"><ele>297.0</ele><time>2026-04-26T07:25:20.679Z</time></trkpt><trkpt lat="45.6018167" lon="10.7162154"><ele>297.0</ele><time>2026-04-26T07:25:21.683Z</time></trkpt><trkpt lat="45.6018267" lon="10.7161015"><ele>297.0</ele><time>2026-04-26T07:25:22.684Z</time></trkpt><trkpt lat="45.6018678" lon="10.7159647"><ele>297.0</ele><time>2026-04-26T07:25:24.679Z</time></trkpt><trkpt lat="45.6019783" lon="10.7159238"><ele>297.4</ele><time>2026-04-26T07:25:26.681Z</time></trkpt><trkpt lat="45.6020564" lon="10.715932"><ele>297.79999999999995</ele><time>2026-04-26T07:25:27.679Z</time></trkpt><trkpt lat="45.6021567" lon="10.715942"><ele>298.2</ele><time>2026-04-26T07:25:28.68Z</time></trkpt><trkpt lat="45.6022754" lon="10.715958"><ele>298.59999999999997</ele><time>2026-04-26T07:25:29.679Z</time></trkpt><trkpt lat="45.6024058" lon="10.7159764"><ele>299.0</ele><time>2026-04-26T07:25:30.678Z</time></trkpt><trkpt lat="45.6025346" lon="10.7159757"><ele>299.0</ele><time>2026-04-26T07:25:31.676Z</time></trkpt><trkpt lat="45.6026591" lon="10.7159799"><ele>299.0</ele><time>2026-04-26T07:25:32.674Z</time></trkpt><trkpt lat="45.602767" lon="10.7159642"><ele>299.0</ele><time>2026-04-26T07:25:33.683Z</time></trkpt><trkpt lat="45.6028654" lon="10.7159374"><ele>299.0</ele><time>2026-04-26T07:25:34.677Z</time></trkpt><trkpt lat="45.6029627" lon="10.7159009"><ele>299.0</ele><time>2026-04-26T07:25:35.682Z</time></trkpt><trkpt lat="45.6030579" lon="10.7158347"><ele>301.2</ele><time>2026-04-26T07:25:36.68Z</time></trkpt><trkpt lat="45.6031471" lon="10.7157415"><ele>303.4</ele><time>2026-04-26T07:25:37.679Z</time></trkpt><trkpt lat="45.6032286" lon="10.7156471"><ele>305.6</ele><time>2026-04-26T07:25:38.68Z</time></trkpt><trkpt lat="45.6033155" lon="10.7155617"><ele>307.8</ele><time>2026-04-26T07:25:39.679Z</time></trkpt><trkpt lat="45.6034158" lon="10.7155039"><ele>310.0</ele><time>2026-04-26T07:25:40.678Z</time></trkpt><trkpt lat="45.6035202" lon="10.7154643"><ele>310.0</ele><time>2026-04-26T07:25:41.678Z</time></trkpt><trkpt lat="45.6036121" lon="10.715446"><ele>310.0</ele><time>2026-04-26T07:25:42.676Z</time></trkpt><trkpt lat="45.6036955" lon="10.7154326"><ele>310.0</ele><time>2026-04-26T07:25:43.678Z</time></trkpt><trkpt lat="45.6037798" lon="10.7154326"><ele>310.0</ele><time>2026-04-26T07:25:44.676Z</time></trkpt><trkpt lat="45.6038717" lon="10.7154447"><ele>310.0</ele><time>2026-04-26T07:25:45.684Z</time></trkpt><trkpt lat="45.6039661" lon="10.7154619"><ele>310.0</ele><time>2026-04-26T07:25:46.681Z</time></trkpt><trkpt lat="45.6040623" lon="10.7154789"><ele>310.8333333333333</ele><time>2026-04-26T07:25:47.686Z</time></trkpt><trkpt lat="45.604155" lon="10.7154937"><ele>311.66666666666663</ele><time>2026-04-26T07:25:48.677Z</time></trkpt><trkpt lat="45.6042425" lon="10.7155088"><ele>312.5</ele><time>2026-04-26T07:25:49.675Z</time></trkpt><trkpt lat="45.6043283" lon="10.7155127"><ele>313.3333333333333</ele><time>2026-04-26T07:25:50.675Z</time></trkpt><trkpt lat="45.6044098" lon="10.7155157"><ele>314.1666666666667</ele><time>2026-04-26T07:25:51.681Z</time></trkpt><trkpt lat="45.6044966" lon="10.7155101"><ele>315.0</ele><time>2026-04-26T07:25:52.679Z</time></trkpt><trkpt lat="45.6045804" lon="10.7155126"><ele>315.8333333333333</ele><time>2026-04-26T07:25:53.678Z</time></trkpt><trkpt lat="45.6046637" lon="10.7155069"><ele>316.6666666666667</ele><time>2026-04-26T07:25:54.68Z</time></trkpt><trkpt lat="45.6047463" lon="10.7154996"><ele>317.5</ele><time>2026-04-26T07:25:55.677Z</time></trkpt><trkpt lat="45.6048319" lon="10.7154897"><ele>318.33333333333337</ele><time>2026-04-26T07:25:56.678Z</time></trkpt><trkpt lat="45.6049207" lon="10.7154775"><ele>319.1666666666667</ele><time>2026-04-26T07:25:57.679Z</time></trkpt><trkpt lat="45.6050038" lon="10.7154635"><ele>320.0</ele><time>2026-04-26T07:25:58.676Z</time></trkpt><trkpt lat="45.6050808" lon="10.7154565"><ele>320.0</ele><time>2026-04-26T07:25:59.683Z</time></trkpt><trkpt lat="45.6051538" lon="10.7154563"><ele>320.0</ele><time>2026-04-26T07:26:00.677Z</time></trkpt><trkpt lat="45.6052194" lon="10.7154499"><ele>320.0</ele><time>2026-04-26T07:26:01.676Z</time></trkpt><trkpt lat="45.6053231" lon="10.7154445"><ele>320.0</ele><time>2026-04-26T07:26:03.679Z</time></trkpt><trkpt lat="45.605411" lon="10.7154495"><ele>320.0</ele><time>2026-04-26T07:26:05.675Z</time></trkpt><trkpt lat="45.605479" lon="10.7154528"><ele>320.0</ele><time>2026-04-26T07:26:07.675Z</time></trkpt><trkpt lat="45.6055509" lon="10.7154373"><ele>320.7142857142857</ele><time>2026-04-26T07:26:10.676Z</time></trkpt><trkpt lat="45.6056145" lon="10.7154319"><ele>321.42857142857144</ele><time>2026-04-26T07:26:13.678Z</time></trkpt><trkpt lat="45.6056785" lon="10.7154493"><ele>322.1428571428571</ele><time>2026-04-26T07:26:16.699Z</time></trkpt><trkpt lat="45.6057466" lon="10.7154131"><ele>322.8571428571429</ele><time>2026-04-26T07:26:20.677Z</time></trkpt><trkpt lat="45.6058264" lon="10.7154039"><ele>323.5714285714286</ele><time>2026-04-26T07:26:24.679Z</time></trkpt><trkpt lat="45.6058997" lon="10.7154166"><ele>324.2857142857143</ele><time>2026-04-26T07:26:28.679Z</time></trkpt><trkpt lat="45.6059645" lon="10.7153823"><ele>325.0</ele><time>2026-04-26T07:26:42.714Z</time></trkpt><trkpt lat="45.6060203" lon="10.715322"><ele>325.0</ele><time>2026-04-26T07:26:44.672Z</time></trkpt><trkpt lat="45.6060792" lon="10.7152554"><ele>325.0</ele><time>2026-04-26T07:26:49.68Z</time></trkpt><trkpt lat="45.6061471" lon="10.7151875"><ele>325.0</ele><time>2026-04-26T07:26:54.687Z</time></trkpt><trkpt lat="45.6061942" lon="10.7151213"><ele>325.0</ele><time>2026-04-26T07:27:18.691Z</time></trkpt><trkpt lat="45.6062626" lon="10.7150675"><ele>325.0</ele><time>2026-04-26T07:27:22.695Z</time></trkpt><trkpt lat="45.6063464" lon="10.715032"><ele>325.0</ele><time>2026-04-26T07:27:26.687Z</time></trkpt><trkpt lat="45.6064124" lon="10.7150467"><ele>324.85714285714283</ele><time>2026-04-26T07:27:36.76Z</time></trkpt><trkpt lat="45.6064783" lon="10.7150108"><ele>324.7142857142857</ele><time>2026-04-26T07:27:39.675Z</time></trkpt><trkpt lat="45.6065529" lon="10.7150002"><ele>324.57142857142856</ele><time>2026-04-26T07:27:41.672Z</time></trkpt><trkpt lat="45.6065896" lon="10.7150749"><ele>324.42857142857144</ele><time>2026-04-26T07:27:43.678Z</time></trkpt><trkpt lat="45.6066041" lon="10.7151852"><ele>324.2857142857143</ele><time>2026-04-26T07:27:46.686Z</time></trkpt><trkpt lat="45.6065918" lon="10.7152882"><ele>324.14285714285717</ele><time>2026-04-26T07:27:55.685Z</time></trkpt><trkpt lat="45.6065834" lon="10.7153869"><ele>324.0</ele><time>2026-04-26T07:31:43.677Z</time></trkpt><trkpt lat="45.6065468" lon="10.7154619"><ele>324.14285714285717</ele><time>2026-04-26T07:31:46.685Z</time></trkpt><trkpt lat="45.6065453" lon="10.715561"><ele>324.2857142857143</ele><time>2026-04-26T07:31:56.682Z</time></trkpt><trkpt lat="45.6065099" lon="10.7156386"><ele>324.42857142857144</ele><time>2026-04-26T07:32:02.679Z</time></trkpt><trkpt lat="45.606447" lon="10.7156482"><ele>324.57142857142856</ele><time>2026-04-26T07:32:13.682Z</time></trkpt><trkpt lat="45.6063666" lon="10.7156941"><ele>324.7142857142857</ele><time>2026-04-26T07:32:16.683Z</time></trkpt><trkpt lat="45.606292" lon="10.7157216"><ele>324.85714285714283</ele><time>2026-04-26T07:32:18.681Z</time></trkpt><trkpt lat="45.6062184" lon="10.7157318"><ele>325.0</ele><time>2026-04-26T07:32:20.677Z</time></trkpt><trkpt lat="45.6061392" lon="10.7157492"><ele>325.0</ele><time>2026-04-26T07:32:22.682Z</time></trkpt><trkpt lat="45.6060516" lon="10.7157729"><ele>325.0</ele><time>2026-04-26T07:32:24.675Z</time></trkpt><trkpt lat="45.6059737" lon="10.7158142"><ele>325.0</ele><time>2026-04-26T07:32:26.685Z</time></trkpt><trkpt lat="45.6058877" lon="10.7158726"><ele>325.0</ele><time>2026-04-26T07:32:28.676Z</time></trkpt><trkpt lat="45.605794" lon="10.7159195"><ele>325.0</ele><time>2026-04-26T07:32:30.675Z</time></trkpt><trkpt lat="45.6056837" lon="10.715911"><ele>325.0</ele><time>2026-04-26T07:32:32.673Z</time></trkpt><trkpt lat="45.6056187" lon="10.715895"><ele>325.0</ele><time>2026-04-26T07:32:33.679Z</time></trkpt><trkpt lat="45.6055547" lon="10.7158963"><ele>325.0</ele><time>2026-04-26T07:32:34.679Z</time></trkpt><trkpt lat="45.6054912" lon="10.7158917"><ele>325.0</ele><time>2026-04-26T07:32:35.678Z</time></trkpt><trkpt lat="45.6053763" lon="10.7158917"><ele>325.0</ele><time>2026-04-26T07:32:37.677Z</time></trkpt><trkpt lat="45.6052566" lon="10.7158888"><ele>325.0</ele><time>2026-04-26T07:32:39.678Z</time></trkpt><trkpt lat="45.6051922" lon="10.7158868"><ele>324.2857142857143</ele><time>2026-04-26T07:32:40.675Z</time></trkpt><trkpt lat="45.6051267" lon="10.7158938"><ele>323.5714285714286</ele><time>2026-04-26T07:32:41.673Z</time></trkpt><trkpt lat="45.6050585" lon="10.7159074"><ele>322.8571428571429</ele><time>2026-04-26T07:32:42.675Z</time></trkpt><trkpt lat="45.6049859" lon="10.715935"><ele>322.1428571428571</ele><time>2026-04-26T07:32:43.675Z</time></trkpt><trkpt lat="45.6049094" lon="10.7159616"><ele>321.42857142857144</ele><time>2026-04-26T07:32:44.677Z</time></trkpt><trkpt lat="45.604839" lon="10.7159868"><ele>320.7142857142857</ele><time>2026-04-26T07:32:45.675Z</time></trkpt><trkpt lat="45.6047624" lon="10.7160253"><ele>320.0</ele><time>2026-04-26T07:32:46.68Z</time></trkpt><trkpt lat="45.6046862" lon="10.7160669"><ele>321.5</ele><time>2026-04-26T07:32:47.677Z</time></trkpt><trkpt lat="45.6046072" lon="10.7161011"><ele>323.0</ele><time>2026-04-26T07:32:48.682Z</time></trkpt><trkpt lat="45.6045299" lon="10.7161125"><ele>324.5</ele><time>2026-04-26T07:32:49.678Z</time></trkpt><trkpt lat="45.604442" lon="10.7161178"><ele>326.0</ele><time>2026-04-26T07:32:50.682Z</time></trkpt><trkpt lat="45.6043589" lon="10.7161183"><ele>327.5</ele><time>2026-04-26T07:32:51.679Z</time></trkpt><trkpt lat="45.6042778" lon="10.7161136"><ele>329.0</ele><time>2026-04-26T07:32:52.679Z</time></trkpt><trkpt lat="45.6042017" lon="10.716108"><ele>329.0</ele><time>2026-04-26T07:32:53.678Z</time></trkpt><trkpt lat="45.6041272" lon="10.7161111"><ele>329.0</ele><time>2026-04-26T07:32:54.676Z</time></trkpt><trkpt lat="45.6040517" lon="10.7161178"><ele>329.0</ele><time>2026-04-26T07:32:55.686Z</time></trkpt><trkpt lat="45.6039612" lon="10.7161302"><ele>329.0</ele><time>2026-04-26T07:32:56.68Z</time></trkpt><trkpt lat="45.6038726" lon="10.7161431"><ele>329.0</ele><time>2026-04-26T07:32:57.687Z</time></trkpt><trkpt lat="45.603794" lon="10.7161612"><ele>329.0</ele><time>2026-04-26T07:32:58.685Z</time></trkpt><trkpt lat="45.6037238" lon="10.7161765"><ele>327.0</ele><time>2026-04-26T07:32:59.684Z</time></trkpt><trkpt lat="45.6036579" lon="10.7162054"><ele>325.0</ele><time>2026-04-26T07:33:00.692Z</time></trkpt><trkpt lat="45.6035928" lon="10.7162412"><ele>323.0</ele><time>2026-04-26T07:33:01.69Z</time></trkpt><trkpt lat="45.6035271" lon="10.7162966"><ele>321.0</ele><time>2026-04-26T07:33:02.686Z</time></trkpt><trkpt lat="45.6034552" lon="10.7164077"><ele>319.0</ele><time>2026-04-26T07:33:04.691Z</time></trkpt><trkpt lat="45.6034398" lon="10.7165368"><ele>317.0</ele><time>2026-04-26T07:33:06.69Z</time></trkpt><trkpt lat="45.6034482" lon="10.7166985"><ele>317.0</ele><time>2026-04-26T07:33:08.69Z</time></trkpt><trkpt lat="45.6034719" lon="10.7167922"><ele>317.0</ele><time>2026-04-26T07:33:09.684Z</time></trkpt><trkpt lat="45.6034977" lon="10.7168975"><ele>317.0</ele><time>2026-04-26T07:33:10.697Z</time></trkpt><trkpt lat="45.6035055" lon="10.7170006"><ele>317.0</ele><time>2026-04-26T07:33:11.692Z</time></trkpt><trkpt lat="45.6035082" lon="10.717111"><ele>317.0</ele><time>2026-04-26T07:33:12.694Z</time></trkpt><trkpt lat="45.6035109" lon="10.7172142"><ele>317.0</ele><time>2026-04-26T07:33:13.696Z</time></trkpt><trkpt lat="45.6035154" lon="10.717304"><ele>317.0</ele><time>2026-04-26T07:33:14.692Z</time></trkpt><trkpt lat="45.6035356" lon="10.717479"><ele>317.0</ele><time>2026-04-26T07:33:16.698Z</time></trkpt><trkpt lat="45.6035589" lon="10.7175638"><ele>317.0</ele><time>2026-04-26T07:33:17.698Z</time></trkpt><trkpt lat="45.6035985" lon="10.7177163"><ele>317.0</ele><time>2026-04-26T07:33:19.697Z</time></trkpt><trkpt lat="45.603653" lon="10.7178527"><ele>317.0</ele><time>2026-04-26T07:33:21.695Z</time></trkpt><trkpt lat="45.603665" lon="10.7180144"><ele>317.0</ele><time>2026-04-26T07:33:23.694Z</time></trkpt><trkpt lat="45.6036286" lon="10.7181737"><ele>316.83333333333337</ele><time>2026-04-26T07:33:25.686Z</time></trkpt><trkpt lat="45.6035987" lon="10.7182533"><ele>316.6666666666667</ele><time>2026-04-26T07:33:26.697Z</time></trkpt><trkpt lat="45.6035527" lon="10.7183318"><ele>316.5</ele><time>2026-04-26T07:33:27.693Z</time></trkpt><trkpt lat="45.6035013" lon="10.7184064"><ele>316.3333333333333</ele><time>2026-04-26T07:33:28.704Z</time></trkpt><trkpt lat="45.6034493" lon="10.718485"><ele>316.16666666666663</ele><time>2026-04-26T07:33:29.691Z</time></trkpt><trkpt lat="45.6033917" lon="10.7185704"><ele>316.0</ele><time>2026-04-26T07:33:30.691Z</time></trkpt><trkpt lat="45.60333" lon="10.7186503"><ele>316.8</ele><time>2026-04-26T07:33:31.698Z</time></trkpt><trkpt lat="45.6032734" lon="10.7187145"><ele>317.6</ele><time>2026-04-26T07:33:32.688Z</time></trkpt><trkpt lat="45.6031972" lon="10.718828"><ele>318.4</ele><time>2026-04-26T07:33:34.684Z</time></trkpt><trkpt lat="45.6031945" lon="10.718929"><ele>319.2</ele><time>2026-04-26T07:33:36.69Z</time></trkpt><trkpt lat="45.6032577" lon="10.7190679"><ele>320.0</ele><time>2026-04-26T07:33:38.688Z</time></trkpt><trkpt lat="45.6033234" lon="10.7192066"><ele>320.0</ele><time>2026-04-26T07:33:40.692Z</time></trkpt><trkpt lat="45.6033758" lon="10.7192934"><ele>320.0</ele><time>2026-04-26T07:33:42.693Z</time></trkpt><trkpt lat="45.6034366" lon="10.7193545"><ele>320.0</ele><time>2026-04-26T07:33:45.697Z</time></trkpt><trkpt lat="45.6035073" lon="10.719398"><ele>320.0</ele><time>2026-04-26T07:33:47.701Z</time></trkpt><trkpt lat="45.6036115" lon="10.7194495"><ele>320.0</ele><time>2026-04-26T07:33:49.704Z</time></trkpt><trkpt lat="45.6037047" lon="10.7195271"><ele>319.2</ele><time>2026-04-26T07:33:51.701Z</time></trkpt><trkpt lat="45.6037854" lon="10.7195864"><ele>318.4</ele><time>2026-04-26T07:33:53.705Z</time></trkpt><trkpt lat="45.6038762" lon="10.7195964"><ele>317.6</ele><time>2026-04-26T07:33:55.698Z</time></trkpt><trkpt lat="45.6039984" lon="10.7195927"><ele>316.8</ele><time>2026-04-26T07:33:57.71Z</time></trkpt><trkpt lat="45.6040669" lon="10.7196022"><ele>316.0</ele><time>2026-04-26T07:33:58.703Z</time></trkpt><trkpt lat="45.6041439" lon="10.7196396"><ele>316.0</ele><time>2026-04-26T07:33:59.718Z</time></trkpt><trkpt lat="45.6042249" lon="10.719706"><ele>316.0</ele><time>2026-04-26T07:34:00.705Z</time></trkpt><trkpt lat="45.6043072" lon="10.7197875"><ele>316.0</ele><time>2026-04-26T07:34:01.702Z</time></trkpt><trkpt lat="45.6043933" lon="10.7198884"><ele>316.0</ele><time>2026-04-26T07:34:02.708Z</time></trkpt><trkpt lat="45.6044883" lon="10.7200139"><ele>316.0</ele><time>2026-04-26T07:34:03.699Z</time></trkpt><trkpt lat="45.6045848" lon="10.7201615"><ele>317.5</ele><time>2026-04-26T07:34:04.702Z</time></trkpt><trkpt lat="45.6046825" lon="10.7203096"><ele>319.0</ele><time>2026-04-26T07:34:05.704Z</time></trkpt><trkpt lat="45.60477" lon="10.7204478"><ele>320.5</ele><time>2026-04-26T07:34:06.697Z</time></trkpt><trkpt lat="45.6048523" lon="10.7205819"><ele>322.0</ele><time>2026-04-26T07:34:07.697Z</time></trkpt><trkpt lat="45.6049153" lon="10.7207375"><ele>322.0</ele><time>2026-04-26T07:34:08.695Z</time></trkpt><trkpt lat="45.6049752" lon="10.7209084"><ele>322.0</ele><time>2026-04-26T07:34:09.699Z</time></trkpt><trkpt lat="45.605027" lon="10.7210734"><ele>322.0</ele><time>2026-04-26T07:34:10.697Z</time></trkpt><trkpt lat="45.6050766" lon="10.7212252"><ele>322.0</ele><time>2026-04-26T07:34:11.701Z</time></trkpt><trkpt lat="45.6051131" lon="10.7213637"><ele>321.8333333333333</ele><time>2026-04-26T07:34:12.704Z</time></trkpt><trkpt lat="45.6051489" lon="10.7214941"><ele>321.66666666666663</ele><time>2026-04-26T07:34:13.699Z</time></trkpt><trkpt lat="45.6051847" lon="10.7216178"><ele>321.5</ele><time>2026-04-26T07:34:14.704Z</time></trkpt><trkpt lat="45.6052162" lon="10.7217165"><ele>321.3333333333333</ele><time>2026-04-26T07:34:15.7Z</time></trkpt><trkpt lat="45.6052639" lon="10.7218398"><ele>321.1666666666667</ele><time>2026-04-26T07:34:17.698Z</time></trkpt><trkpt lat="45.6053344" lon="10.7218491"><ele>321.0</ele><time>2026-04-26T07:34:20.7Z</time></trkpt><trkpt lat="45.605387" lon="10.7217479"><ele>322.1666666666667</ele><time>2026-04-26T07:34:22.707Z</time></trkpt><trkpt lat="45.6054196" lon="10.7216526"><ele>323.3333333333333</ele><time>2026-04-26T07:34:23.708Z</time></trkpt><trkpt lat="45.6054633" lon="10.721543"><ele>324.5</ele><time>2026-04-26T07:34:24.709Z</time></trkpt><trkpt lat="45.6055097" lon="10.7214429"><ele>325.66666666666663</ele><time>2026-04-26T07:34:25.704Z</time></trkpt><trkpt lat="45.6055604" lon="10.7213637"><ele>326.8333333333333</ele><time>2026-04-26T07:34:26.703Z</time></trkpt><trkpt lat="45.605615" lon="10.7213025"><ele>328.0</ele><time>2026-04-26T07:34:27.704Z</time></trkpt><trkpt lat="45.6056847" lon="10.7212639"><ele>328.0</ele><time>2026-04-26T07:34:28.705Z</time></trkpt><trkpt lat="45.6057686" lon="10.7212432"><ele>328.0</ele><time>2026-04-26T07:34:29.707Z</time></trkpt><trkpt lat="45.6058653" lon="10.7212161"><ele>328.0</ele><time>2026-04-26T07:34:30.713Z</time></trkpt><trkpt lat="45.6059555" lon="10.7211689"><ele>328.0</ele><time>2026-04-26T07:34:31.706Z</time></trkpt><trkpt lat="45.6060323" lon="10.7211075"><ele>328.0</ele><time>2026-04-26T07:34:32.702Z</time></trkpt><trkpt lat="45.6061026" lon="10.7210359"><ele>328.2</ele><time>2026-04-26T07:34:33.715Z</time></trkpt><trkpt lat="45.6061603" lon="10.7209322"><ele>328.4</ele><time>2026-04-26T07:34:34.695Z</time></trkpt><trkpt lat="45.6061893" lon="10.7208065"><ele>328.59999999999997</ele><time>2026-04-26T07:34:35.7Z</time></trkpt><trkpt lat="45.6062029" lon="10.7206737"><ele>328.79999999999995</ele><time>2026-04-26T07:34:36.7Z</time></trkpt><trkpt lat="45.6062238" lon="10.7205501"><ele>329.0</ele><time>2026-04-26T07:34:37.701Z</time></trkpt><trkpt lat="45.6062524" lon="10.7204332"><ele>330.1666666666667</ele><time>2026-04-26T07:34:38.7Z</time></trkpt><trkpt lat="45.6062908" lon="10.720329"><ele>331.33333333333337</ele><time>2026-04-26T07:34:39.687Z</time></trkpt><trkpt lat="45.606335" lon="10.7202317"><ele>332.5</ele><time>2026-04-26T07:34:40.697Z</time></trkpt><trkpt lat="45.6063862" lon="10.7201447"><ele>333.6666666666667</ele><time>2026-04-26T07:34:41.697Z</time></trkpt><trkpt lat="45.6064434" lon="10.7200753"><ele>334.8333333333333</ele><time>2026-04-26T07:34:42.699Z</time></trkpt><trkpt lat="45.6065106" lon="10.7200242"><ele>336.0</ele><time>2026-04-26T07:34:43.702Z</time></trkpt><trkpt lat="45.6065785" lon="10.7199759"><ele>337.0</ele><time>2026-04-26T07:34:44.704Z</time></trkpt><trkpt lat="45.6066424" lon="10.7199244"><ele>338.0</ele><time>2026-04-26T07:34:45.696Z</time></trkpt><trkpt lat="45.6066989" lon="10.7198735"><ele>339.0</ele><time>2026-04-26T07:34:46.697Z</time></trkpt><trkpt lat="45.6067722" lon="10.7197864"><ele>340.0</ele><time>2026-04-26T07:34:48.7Z</time></trkpt><trkpt lat="45.6067853" lon="10.7196263"><ele>341.0</ele><time>2026-04-26T07:34:50.697Z</time></trkpt><trkpt lat="45.6067669" lon="10.7195293"><ele>342.0</ele><time>2026-04-26T07:34:51.706Z</time></trkpt><trkpt lat="45.6067362" lon="10.7194381"><ele>342.8</ele><time>2026-04-26T07:34:52.707Z</time></trkpt><trkpt lat="45.6067017" lon="10.7193552"><ele>343.6</ele><time>2026-04-26T07:34:53.703Z</time></trkpt><trkpt lat="45.6066716" lon="10.7192181"><ele>344.40000000000003</ele><time>2026-04-26T07:34:55.705Z</time></trkpt><trkpt lat="45.6067044" lon="10.7190922"><ele>345.20000000000005</ele><time>2026-04-26T07:34:57.708Z</time></trkpt><trkpt lat="45.6068078" lon="10.7189443"><ele>346.0</ele><time>2026-04-26T07:34:59.698Z</time></trkpt><trkpt lat="45.6068768" lon="10.7188711"><ele>346.0</ele><time>2026-04-26T07:35:00.698Z</time></trkpt><trkpt lat="45.6069467" lon="10.7188087"><ele>346.0</ele><time>2026-04-26T07:35:01.706Z</time></trkpt><trkpt lat="45.6070151" lon="10.7187467"><ele>346.0</ele><time>2026-04-26T07:35:02.69Z</time></trkpt><trkpt lat="45.6070787" lon="10.7186946"><ele>346.0</ele><time>2026-04-26T07:35:03.688Z</time></trkpt><trkpt lat="45.6071415" lon="10.7186414"><ele>346.0</ele><time>2026-04-26T07:35:04.697Z</time></trkpt><trkpt lat="45.6071967" lon="10.7185886"><ele>346.0</ele><time>2026-04-26T07:35:05.694Z</time></trkpt><trkpt lat="45.6072855" lon="10.7184948"><ele>348.8333333333333</ele><time>2026-04-26T07:35:07.685Z</time></trkpt><trkpt lat="45.6073237" lon="10.7184228"><ele>351.66666666666663</ele><time>2026-04-26T07:35:09.682Z</time></trkpt><trkpt lat="45.6073091" lon="10.7183127"><ele>354.5</ele><time>2026-04-26T07:35:12.691Z</time></trkpt><trkpt lat="45.6072704" lon="10.7182111"><ele>357.3333333333333</ele><time>2026-04-26T07:35:17.701Z</time></trkpt><trkpt lat="45.6072467" lon="10.7180889"><ele>360.1666666666667</ele><time>2026-04-26T07:35:19.698Z</time></trkpt><trkpt lat="45.6072318" lon="10.7179255"><ele>363.0</ele><time>2026-04-26T07:35:21.697Z</time></trkpt><trkpt lat="45.6072188" lon="10.7178221"><ele>362.59999999999997</ele><time>2026-04-26T07:35:22.701Z</time></trkpt><trkpt lat="45.6072102" lon="10.7177214"><ele>362.2</ele><time>2026-04-26T07:35:23.694Z</time></trkpt><trkpt lat="45.6072226" lon="10.7175425"><ele>361.8</ele><time>2026-04-26T07:35:25.705Z</time></trkpt><trkpt lat="45.6072326" lon="10.7174423"><ele>361.4</ele><time>2026-04-26T07:35:26.693Z</time></trkpt><trkpt lat="45.6072382" lon="10.7173382"><ele>361.0</ele><time>2026-04-26T07:35:27.7Z</time></trkpt><trkpt lat="45.6072561" lon="10.7171708"><ele>361.0</ele><time>2026-04-26T07:35:29.706Z</time></trkpt><trkpt lat="45.607286" lon="10.7170753"><ele>361.0</ele><time>2026-04-26T07:35:31.697Z</time></trkpt><trkpt lat="45.6073817" lon="10.7170611"><ele>361.0</ele><time>2026-04-26T07:35:34.703Z</time></trkpt><trkpt lat="45.607482" lon="10.7170759"><ele>361.0</ele><time>2026-04-26T07:35:36.693Z</time></trkpt><trkpt lat="45.6076147" lon="10.7170865"><ele>361.0</ele><time>2026-04-26T07:35:38.699Z</time></trkpt><trkpt lat="45.6076933" lon="10.7170867"><ele>361.0</ele><time>2026-04-26T07:35:39.697Z</time></trkpt><trkpt lat="45.6077712" lon="10.7170895"><ele>361.0</ele><time>2026-04-26T07:35:40.701Z</time></trkpt><trkpt lat="45.6078476" lon="10.7170869"><ele>361.0</ele><time>2026-04-26T07:35:41.692Z</time></trkpt><trkpt lat="45.6079165" lon="10.7170906"><ele>361.0</ele><time>2026-04-26T07:35:42.695Z</time></trkpt><trkpt lat="45.608026" lon="10.7171073"><ele>361.0</ele><time>2026-04-26T07:35:44.693Z</time></trkpt><trkpt lat="45.6081083" lon="10.7171137"><ele>361.0</ele><time>2026-04-26T07:35:46.698Z</time></trkpt><trkpt lat="45.6081844" lon="10.7171317"><ele>363.3333333333333</ele><time>2026-04-26T07:35:48.697Z</time></trkpt><trkpt lat="45.6082685" lon="10.7171543"><ele>365.66666666666663</ele><time>2026-04-26T07:35:50.706Z</time></trkpt><trkpt lat="45.6083478" lon="10.7171594"><ele>368.0</ele><time>2026-04-26T07:35:52.703Z</time></trkpt><trkpt lat="45.608439" lon="10.7171729"><ele>370.3333333333333</ele><time>2026-04-26T07:35:54.699Z</time></trkpt><trkpt lat="45.6085633" lon="10.7171724"><ele>372.6666666666667</ele><time>2026-04-26T07:35:56.691Z</time></trkpt><trkpt lat="45.6086271" lon="10.7171451"><ele>375.0</ele><time>2026-04-26T07:35:57.7Z</time></trkpt><trkpt lat="45.6086951" lon="10.7170993"><ele>375.8333333333333</ele><time>2026-04-26T07:35:58.695Z</time></trkpt><trkpt lat="45.6087703" lon="10.7170482"><ele>376.6666666666667</ele><time>2026-04-26T07:35:59.696Z</time></trkpt><trkpt lat="45.6088505" lon="10.7169946"><ele>377.5</ele><time>2026-04-26T07:36:00.689Z</time></trkpt><trkpt lat="45.6089222" lon="10.7169343"><ele>378.33333333333337</ele><time>2026-04-26T07:36:01.697Z</time></trkpt><trkpt lat="45.6089923" lon="10.7168709"><ele>379.1666666666667</ele><time>2026-04-26T07:36:02.708Z</time></trkpt><trkpt lat="45.609059" lon="10.7168221"><ele>380.0</ele><time>2026-04-26T07:36:03.699Z</time></trkpt><trkpt lat="45.6091249" lon="10.7167857"><ele>380.0</ele><time>2026-04-26T07:36:04.703Z</time></trkpt><trkpt lat="45.609194" lon="10.7167571"><ele>380.0</ele><time>2026-04-26T07:36:05.693Z</time></trkpt><trkpt lat="45.6092707" lon="10.7167269"><ele>380.0</ele><time>2026-04-26T07:36:06.698Z</time></trkpt><trkpt lat="45.6093584" lon="10.7166985"><ele>380.0</ele><time>2026-04-26T07:36:07.696Z</time></trkpt><trkpt lat="45.6094455" lon="10.7166604"><ele>380.0</ele><time>2026-04-26T07:36:08.696Z</time></trkpt><trkpt lat="45.6095358" lon="10.7166281"><ele>380.0</ele><time>2026-04-26T07:36:09.694Z</time></trkpt><trkpt lat="45.6096317" lon="10.7165907"><ele>383.4</ele><time>2026-04-26T07:36:10.695Z</time></trkpt><trkpt lat="45.6097273" lon="10.7165602"><ele>386.8</ele><time>2026-04-26T07:36:11.696Z</time></trkpt><trkpt lat="45.6098216" lon="10.7165462"><ele>390.20000000000005</ele><time>2026-04-26T07:36:12.686Z</time></trkpt><trkpt lat="45.6099071" lon="10.7165209"><ele>393.6</ele><time>2026-04-26T07:36:13.685Z</time></trkpt><trkpt lat="45.6099967" lon="10.7165104"><ele>397.0</ele><time>2026-04-26T07:36:14.688Z</time></trkpt><trkpt lat="45.6100822" lon="10.7164879"><ele>397.0</ele><time>2026-04-26T07:36:15.687Z</time></trkpt><trkpt lat="45.6101664" lon="10.716456"><ele>397.0</ele><time>2026-04-26T07:36:16.692Z</time></trkpt><trkpt lat="45.6102574" lon="10.7164176"><ele>397.0</ele><time>2026-04-26T07:36:17.69Z</time></trkpt><trkpt lat="45.6103503" lon="10.7163812"><ele>397.0</ele><time>2026-04-26T07:36:18.693Z</time></trkpt><trkpt lat="45.6104469" lon="10.7163377"><ele>397.0</ele><time>2026-04-26T07:36:19.689Z</time></trkpt><trkpt lat="45.6105428" lon="10.7162969"><ele>399.0</ele><time>2026-04-26T07:36:20.688Z</time></trkpt><trkpt lat="45.6106307" lon="10.7162595"><ele>401.0</ele><time>2026-04-26T07:36:21.694Z</time></trkpt><trkpt lat="45.6107213" lon="10.7162254"><ele>403.0</ele><time>2026-04-26T07:36:22.691Z</time></trkpt><trkpt lat="45.6108106" lon="10.7161898"><ele>405.0</ele><time>2026-04-26T07:36:23.69Z</time></trkpt><trkpt lat="45.6109007" lon="10.7161681"><ele>407.0</ele><time>2026-04-26T07:36:24.689Z</time></trkpt><trkpt lat="45.6109811" lon="10.716151"><ele>406.99999999999994</ele><time>2026-04-26T07:36:25.693Z</time></trkpt><trkpt lat="45.6110607" lon="10.7161311"><ele>407.0</ele><time>2026-04-26T07:36:26.686Z</time></trkpt><trkpt lat="45.6111447" lon="10.7161028"><ele>407.0</ele><time>2026-04-26T07:36:27.69Z</time></trkpt><trkpt lat="45.6112343" lon="10.7160667"><ele>407.0</ele><time>2026-04-26T07:36:28.691Z</time></trkpt><trkpt lat="45.6113207" lon="10.716024"><ele>406.99999999999994</ele><time>2026-04-26T07:36:29.688Z</time></trkpt><trkpt lat="45.6114093" lon="10.71599"><ele>407.0</ele><time>2026-04-26T07:36:30.689Z</time></trkpt><trkpt lat="45.611496" lon="10.7159522"><ele>405.16666666666663</ele><time>2026-04-26T07:36:31.693Z</time></trkpt><trkpt lat="45.6115711" lon="10.7159072"><ele>403.3333333333333</ele><time>2026-04-26T07:36:32.687Z</time></trkpt><trkpt lat="45.6116468" lon="10.7158654"><ele>401.5</ele><time>2026-04-26T07:36:33.692Z</time></trkpt><trkpt lat="45.6117323" lon="10.7158377"><ele>399.66666666666663</ele><time>2026-04-26T07:36:34.688Z</time></trkpt><trkpt lat="45.6118165" lon="10.7158109"><ele>397.8333333333333</ele><time>2026-04-26T07:36:35.683Z</time></trkpt><trkpt lat="45.6119001" lon="10.7157783"><ele>396.0</ele><time>2026-04-26T07:36:36.685Z</time></trkpt><trkpt lat="45.6119754" lon="10.7157469"><ele>395.6666666666667</ele><time>2026-04-26T07:36:37.697Z</time></trkpt><trkpt lat="45.6120502" lon="10.7157269"><ele>395.33333333333337</ele><time>2026-04-26T07:36:38.687Z</time></trkpt><trkpt lat="45.6121136" lon="10.7157219"><ele>395.0</ele><time>2026-04-26T07:36:39.688Z</time></trkpt><trkpt lat="45.6121801" lon="10.715735"><ele>394.6666666666667</ele><time>2026-04-26T07:36:40.689Z</time></trkpt><trkpt lat="45.6122567" lon="10.7157687"><ele>394.33333333333337</ele><time>2026-04-26T07:36:41.684Z</time></trkpt><trkpt lat="45.6123411" lon="10.7158258"><ele>394.0</ele><time>2026-04-26T07:36:42.687Z</time></trkpt><trkpt lat="45.6124223" lon="10.715873"><ele>394.00000000000006</ele><time>2026-04-26T07:36:43.691Z</time></trkpt><trkpt lat="45.6125062" lon="10.7159101"><ele>394.0</ele><time>2026-04-26T07:36:44.686Z</time></trkpt><trkpt lat="45.6125842" lon="10.7159365"><ele>394.0</ele><time>2026-04-26T07:36:45.689Z</time></trkpt><trkpt lat="45.6126622" lon="10.7159331"><ele>394.0</ele><time>2026-04-26T07:36:46.689Z</time></trkpt><trkpt lat="45.6127383" lon="10.7159"><ele>394.00000000000006</ele><time>2026-04-26T07:36:47.689Z</time></trkpt><trkpt lat="45.6128105" lon="10.7158805"><ele>394.0</ele><time>2026-04-26T07:36:48.69Z</time></trkpt><trkpt lat="45.6129282" lon="10.7159086"><ele>393.2</ele><time>2026-04-26T07:36:50.685Z</time></trkpt><trkpt lat="45.6130063" lon="10.7160037"><ele>392.4</ele><time>2026-04-26T07:36:52.686Z</time></trkpt><trkpt lat="45.6130848" lon="10.7161033"><ele>391.6</ele><time>2026-04-26T07:36:54.689Z</time></trkpt><trkpt lat="45.6131746" lon="10.716137"><ele>390.8</ele><time>2026-04-26T07:36:56.689Z</time></trkpt><trkpt lat="45.6133041" lon="10.7161072"><ele>390.0</ele><time>2026-04-26T07:36:58.688Z</time></trkpt><trkpt lat="45.6133845" lon="10.7160649"><ele>390.0</ele><time>2026-04-26T07:36:59.682Z</time></trkpt><trkpt lat="45.6134601" lon="10.7160153"><ele>390.0</ele><time>2026-04-26T07:37:00.686Z</time></trkpt><trkpt lat="45.6135267" lon="10.7159768"><ele>390.0</ele><time>2026-04-26T07:37:01.684Z</time></trkpt><trkpt lat="45.6135919" lon="10.7159621"><ele>390.0</ele><time>2026-04-26T07:37:02.688Z</time></trkpt><trkpt lat="45.6136678" lon="10.7159691"><ele>390.0</ele><time>2026-04-26T07:37:03.687Z</time></trkpt><trkpt lat="45.6137486" lon="10.7159831"><ele>390.0</ele><time>2026-04-26T07:37:04.698Z</time></trkpt><trkpt lat="45.6138354" lon="10.7160052"><ele>390.4</ele><time>2026-04-26T07:37:05.683Z</time></trkpt><trkpt lat="45.6139266" lon="10.71603"><ele>390.8</ele><time>2026-04-26T07:37:06.69Z</time></trkpt><trkpt lat="45.6140164" lon="10.7160602"><ele>391.20000000000005</ele><time>2026-04-26T07:37:07.688Z</time></trkpt><trkpt lat="45.6140918" lon="10.7160959"><ele>391.6</ele><time>2026-04-26T07:37:08.686Z</time></trkpt><trkpt lat="45.6141915" lon="10.7161541"><ele>392.0</ele><time>2026-04-26T07:37:10.694Z</time></trkpt><trkpt lat="45.6142748" lon="10.7161768"><ele>391.8333333333333</ele><time>2026-04-26T07:37:14.691Z</time></trkpt><trkpt lat="45.6143692" lon="10.7161331"><ele>391.66666666666663</ele><time>2026-04-26T07:37:16.695Z</time></trkpt><trkpt lat="45.6144398" lon="10.7161006"><ele>391.5</ele><time>2026-04-26T07:37:17.695Z</time></trkpt><trkpt lat="45.614519" lon="10.716069"><ele>391.33333333333337</ele><time>2026-04-26T07:37:18.692Z</time></trkpt><trkpt lat="45.6145915" lon="10.7160321"><ele>391.1666666666667</ele><time>2026-04-26T07:37:19.692Z</time></trkpt><trkpt lat="45.6146594" lon="10.7159973"><ele>391.0</ele><time>2026-04-26T07:37:20.696Z</time></trkpt><trkpt lat="45.614725" lon="10.7159701"><ele>391.00000000000006</ele><time>2026-04-26T07:37:21.695Z</time></trkpt><trkpt lat="45.6147838" lon="10.7159337"><ele>391.0</ele><time>2026-04-26T07:37:22.692Z</time></trkpt><trkpt lat="45.6148468" lon="10.7158791"><ele>391.0</ele><time>2026-04-26T07:37:23.687Z</time></trkpt><trkpt lat="45.6149115" lon="10.7158013"><ele>391.0</ele><time>2026-04-26T07:37:24.69Z</time></trkpt><trkpt lat="45.6149833" lon="10.7157289"><ele>391.00000000000006</ele><time>2026-04-26T07:37:25.693Z</time></trkpt><trkpt lat="45.6150572" lon="10.7156528"><ele>391.0</ele><time>2026-04-26T07:37:26.699Z</time></trkpt><trkpt lat="45.6151262" lon="10.7155924"><ele>391.00000000000006</ele><time>2026-04-26T07:37:27.704Z</time></trkpt><trkpt lat="45.6151973" lon="10.7155394"><ele>391.0</ele><time>2026-04-26T07:37:28.701Z</time></trkpt><trkpt lat="45.615271" lon="10.7154953"><ele>391.0</ele><time>2026-04-26T07:37:29.703Z</time></trkpt><trkpt lat="45.6153486" lon="10.7154596"><ele>391.0</ele><time>2026-04-26T07:37:30.705Z</time></trkpt><trkpt lat="45.6154199" lon="10.7154189"><ele>391.00000000000006</ele><time>2026-04-26T07:37:31.705Z</time></trkpt><trkpt lat="45.6154834" lon="10.7153731"><ele>391.0</ele><time>2026-04-26T07:37:32.705Z</time></trkpt><trkpt lat="45.6155399" lon="10.7153325"><ele>392.20000000000005</ele><time>2026-04-26T07:37:33.696Z</time></trkpt><trkpt lat="45.6156214" lon="10.7152616"><ele>393.40000000000003</ele><time>2026-04-26T07:37:35.713Z</time></trkpt><trkpt lat="45.6156692" lon="10.7153901"><ele>394.6</ele><time>2026-04-26T07:37:42.696Z</time></trkpt><trkpt lat="45.6156254" lon="10.715566"><ele>395.8</ele><time>2026-04-26T07:37:44.699Z</time></trkpt><trkpt lat="45.6155905" lon="10.7156613"><ele>397.0</ele><time>2026-04-26T07:37:45.697Z</time></trkpt><trkpt lat="45.6155484" lon="10.7157501"><ele>397.00000000000006</ele><time>2026-04-26T07:37:46.699Z</time></trkpt><trkpt lat="45.6155034" lon="10.7158286"><ele>397.0</ele><time>2026-04-26T07:37:47.703Z</time></trkpt><trkpt lat="45.6154553" lon="10.7158971"><ele>397.0</ele><time>2026-04-26T07:37:48.704Z</time></trkpt><trkpt lat="45.6153771" lon="10.7160173"><ele>397.0</ele><time>2026-04-26T07:37:50.694Z</time></trkpt><trkpt lat="45.6153479" lon="10.71616"><ele>397.00000000000006</ele><time>2026-04-26T07:37:52.7Z</time></trkpt><trkpt lat="45.615338" lon="10.7162841"><ele>397.0</ele><time>2026-04-26T07:37:54.697Z</time></trkpt><trkpt lat="45.6153054" lon="10.7163697"><ele>395.50000000000006</ele><time>2026-04-26T07:37:56.699Z</time></trkpt><trkpt lat="45.6152553" lon="10.716497"><ele>394.0</ele><time>2026-04-26T07:37:59.702Z</time></trkpt><trkpt lat="45.6152221" lon="10.7165924"><ele>392.5</ele><time>2026-04-26T07:38:01.698Z</time></trkpt><trkpt lat="45.6151474" lon="10.7166609"><ele>391.0</ele><time>2026-04-26T07:38:04.699Z</time></trkpt><trkpt lat="45.6150869" lon="10.7167031"><ele>389.50000000000006</ele><time>2026-04-26T07:38:06.698Z</time></trkpt><trkpt lat="45.615033" lon="10.7167586"><ele>388.0</ele><time>2026-04-26T07:38:08.696Z</time></trkpt><trkpt lat="45.6149872" lon="10.716845"><ele>386.00000000000006</ele><time>2026-04-26T07:38:10.692Z</time></trkpt><trkpt lat="45.6149439" lon="10.7169342"><ele>384.0</ele><time>2026-04-26T07:38:12.694Z</time></trkpt><trkpt lat="45.614892" lon="10.717026"><ele>382.0</ele><time>2026-04-26T07:38:14.693Z</time></trkpt><trkpt lat="45.6148383" lon="10.7171113"><ele>380.0</ele><time>2026-04-26T07:38:16.693Z</time></trkpt><trkpt lat="45.6147889" lon="10.7171672"><ele>378.0</ele><time>2026-04-26T07:38:18.7Z</time></trkpt><trkpt lat="45.6147245" lon="10.7172312"><ele>376.0</ele><time>2026-04-26T07:38:21.689Z</time></trkpt><trkpt lat="45.6146534" lon="10.7173101"><ele>376.0</ele><time>2026-04-26T07:38:24.688Z</time></trkpt><trkpt lat="45.6146386" lon="10.7174193"><ele>376.0</ele><time>2026-04-26T07:38:26.693Z</time></trkpt><trkpt lat="45.6146177" lon="10.7175337"><ele>376.0</ele><time>2026-04-26T07:38:28.686Z</time></trkpt><trkpt lat="45.6146124" lon="10.7176988"><ele>376.0</ele><time>2026-04-26T07:38:30.688Z</time></trkpt><trkpt lat="45.6146202" lon="10.7177954"><ele>376.0</ele><time>2026-04-26T07:38:31.69Z</time></trkpt><trkpt lat="45.6146319" lon="10.7178843"><ele>376.0</ele><time>2026-04-26T07:38:32.687Z</time></trkpt><trkpt lat="45.6146422" lon="10.7179761"><ele>374.5</ele><time>2026-04-26T07:38:33.684Z</time></trkpt><trkpt lat="45.6146499" lon="10.7181692"><ele>373.0</ele><time>2026-04-26T07:38:35.689Z</time></trkpt><trkpt lat="45.6146424" lon="10.7182677"><ele>371.5</ele><time>2026-04-26T07:38:36.681Z</time></trkpt><trkpt lat="45.6146296" lon="10.7183646"><ele>370.0</ele><time>2026-04-26T07:38:37.689Z</time></trkpt><trkpt lat="45.6146182" lon="10.7184654"><ele>368.5</ele><time>2026-04-26T07:38:38.683Z</time></trkpt><trkpt lat="45.6146047" lon="10.7185555"><ele>367.0</ele><time>2026-04-26T07:38:39.68Z</time></trkpt><trkpt lat="45.6145679" lon="10.7186943"><ele>367.0</ele><time>2026-04-26T07:38:41.684Z</time></trkpt><trkpt lat="45.6145322" lon="10.7187908"><ele>367.0</ele><time>2026-04-26T07:38:43.681Z</time></trkpt><trkpt lat="45.6144887" lon="10.7188592"><ele>367.0</ele><time>2026-04-26T07:38:45.688Z</time></trkpt><trkpt lat="45.614421" lon="10.718937"><ele>367.0</ele><time>2026-04-26T07:38:48.69Z</time></trkpt><trkpt lat="45.6143284" lon="10.7189503"><ele>367.0</ele><time>2026-04-26T07:38:51.689Z</time></trkpt><trkpt lat="45.6142453" lon="10.7189431"><ele>367.0</ele><time>2026-04-26T07:38:53.69Z</time></trkpt><trkpt lat="45.6141591" lon="10.7189431"><ele>365.66666666666663</ele><time>2026-04-26T07:38:55.683Z</time></trkpt><trkpt lat="45.614048" lon="10.7189672"><ele>364.3333333333333</ele><time>2026-04-26T07:38:57.683Z</time></trkpt><trkpt lat="45.6139852" lon="10.7189876"><ele>363.0</ele><time>2026-04-26T07:38:58.692Z</time></trkpt><trkpt lat="45.6139149" lon="10.7190145"><ele>361.6666666666667</ele><time>2026-04-26T07:38:59.691Z</time></trkpt><trkpt lat="45.6138531" lon="10.7190379"><ele>360.33333333333337</ele><time>2026-04-26T07:39:00.686Z</time></trkpt><trkpt lat="45.6137877" lon="10.7190621"><ele>359.0</ele><time>2026-04-26T07:39:01.69Z</time></trkpt><trkpt lat="45.6136863" lon="10.7191271"><ele>359.79999999999995</ele><time>2026-04-26T07:39:03.69Z</time></trkpt><trkpt lat="45.6135977" lon="10.7192104"><ele>360.59999999999997</ele><time>2026-04-26T07:39:05.688Z</time></trkpt><trkpt lat="45.6135149" lon="10.7193183"><ele>361.4</ele><time>2026-04-26T07:39:07.691Z</time></trkpt><trkpt lat="45.6134223" lon="10.7194223"><ele>362.2</ele><time>2026-04-26T07:39:09.692Z</time></trkpt><trkpt lat="45.6133492" lon="10.7195101"><ele>363.0</ele><time>2026-04-26T07:39:11.697Z</time></trkpt><trkpt lat="45.6132789" lon="10.7195872"><ele>359.59999999999997</ele><time>2026-04-26T07:39:13.69Z</time></trkpt><trkpt lat="45.6131702" lon="10.7196609"><ele>356.2</ele><time>2026-04-26T07:39:15.688Z</time></trkpt><trkpt lat="45.6130569" lon="10.7197473"><ele>352.8</ele><time>2026-04-26T07:39:17.696Z</time></trkpt><trkpt lat="45.6129611" lon="10.7198259"><ele>349.4</ele><time>2026-04-26T07:39:19.693Z</time></trkpt><trkpt lat="45.6128922" lon="10.719904"><ele>346.0</ele><time>2026-04-26T07:39:21.697Z</time></trkpt><trkpt lat="45.6128372" lon="10.7199953"><ele>345.20000000000005</ele><time>2026-04-26T07:39:23.693Z</time></trkpt><trkpt lat="45.6127772" lon="10.7201091"><ele>344.40000000000003</ele><time>2026-04-26T07:39:25.697Z</time></trkpt><trkpt lat="45.6126928" lon="10.7202298"><ele>343.6</ele><time>2026-04-26T07:39:27.699Z</time></trkpt><trkpt lat="45.6126397" lon="10.7203309"><ele>342.8</ele><time>2026-04-26T07:39:29.689Z</time></trkpt><trkpt lat="45.612582" lon="10.720413"><ele>342.0</ele><time>2026-04-26T07:39:31.694Z</time></trkpt><trkpt lat="45.6125272" lon="10.7205259"><ele>342.0</ele><time>2026-04-26T07:39:33.694Z</time></trkpt><trkpt lat="45.6124848" lon="10.7206647"><ele>342.0</ele><time>2026-04-26T07:39:35.7Z</time></trkpt><trkpt lat="45.6124105" lon="10.7207822"><ele>342.0</ele><time>2026-04-26T07:39:37.689Z</time></trkpt><trkpt lat="45.6123462" lon="10.72091"><ele>342.0</ele><time>2026-04-26T07:39:39.698Z</time></trkpt><trkpt lat="45.6123048" lon="10.7210383"><ele>342.0</ele><time>2026-04-26T07:39:41.684Z</time></trkpt><trkpt lat="45.6122903" lon="10.7211785"><ele>340.8</ele><time>2026-04-26T07:39:43.788Z</time></trkpt><trkpt lat="45.6123132" lon="10.7213153"><ele>339.6</ele><time>2026-04-26T07:39:45.692Z</time></trkpt><trkpt lat="45.6123375" lon="10.7214325"><ele>338.40000000000003</ele><time>2026-04-26T07:39:47.688Z</time></trkpt><trkpt lat="45.6123471" lon="10.7215398"><ele>337.20000000000005</ele><time>2026-04-26T07:39:49.686Z</time></trkpt><trkpt lat="45.6122879" lon="10.7216131"><ele>336.0</ele><time>2026-04-26T07:39:51.692Z</time></trkpt><trkpt lat="45.6121651" lon="10.7216802"><ele>336.0</ele><time>2026-04-26T07:39:53.689Z</time></trkpt><trkpt lat="45.6120882" lon="10.7217247"><ele>336.0</ele><time>2026-04-26T07:39:54.691Z</time></trkpt><trkpt lat="45.6120067" lon="10.7217698"><ele>336.0</ele><time>2026-04-26T07:39:55.694Z</time></trkpt><trkpt lat="45.6119212" lon="10.7218191"><ele>336.0</ele><time>2026-04-26T07:39:56.692Z</time></trkpt><trkpt lat="45.6118375" lon="10.7218655"><ele>336.0</ele><time>2026-04-26T07:39:57.692Z</time></trkpt><trkpt lat="45.6117689" lon="10.7219096"><ele>336.0</ele><time>2026-04-26T07:39:58.693Z</time></trkpt><trkpt lat="45.611701" lon="10.7219631"><ele>335.42857142857144</ele><time>2026-04-26T07:39:59.691Z</time></trkpt><trkpt lat="45.6116407" lon="10.7220291"><ele>334.8571428571429</ele><time>2026-04-26T07:40:00.696Z</time></trkpt><trkpt lat="45.6115838" lon="10.7220929"><ele>334.2857142857143</ele><time>2026-04-26T07:40:01.689Z</time></trkpt><trkpt lat="45.611526" lon="10.7221586"><ele>333.7142857142857</ele><time>2026-04-26T07:40:02.691Z</time></trkpt><trkpt lat="45.6114689" lon="10.7222255"><ele>333.14285714285717</ele><time>2026-04-26T07:40:03.691Z</time></trkpt><trkpt lat="45.6114042" lon="10.7222843"><ele>332.57142857142856</ele><time>2026-04-26T07:40:04.69Z</time></trkpt><trkpt lat="45.6113382" lon="10.7223316"><ele>332.0</ele><time>2026-04-26T07:40:05.693Z</time></trkpt><trkpt lat="45.6112673" lon="10.722375"><ele>332.0</ele><time>2026-04-26T07:40:06.693Z</time></trkpt><trkpt lat="45.611191" lon="10.7224045"><ele>332.0</ele><time>2026-04-26T07:40:07.689Z</time></trkpt><trkpt lat="45.6111164" lon="10.7224339"><ele>332.0</ele><time>2026-04-26T07:40:08.691Z</time></trkpt><trkpt lat="45.6110391" lon="10.7224581"><ele>332.0</ele><time>2026-04-26T07:40:09.705Z</time></trkpt><trkpt lat="45.6109537" lon="10.7224772"><ele>332.0</ele><time>2026-04-26T07:40:10.689Z</time></trkpt><trkpt lat="45.6108675" lon="10.7224808"><ele>332.0</ele><time>2026-04-26T07:40:11.697Z</time></trkpt><trkpt lat="45.6107768" lon="10.7224866"><ele>330.8</ele><time>2026-04-26T07:40:12.707Z</time></trkpt><trkpt lat="45.6106836" lon="10.7224882"><ele>329.6</ele><time>2026-04-26T07:40:13.696Z</time></trkpt><trkpt lat="45.6105956" lon="10.7224943"><ele>328.40000000000003</ele><time>2026-04-26T07:40:14.694Z</time></trkpt><trkpt lat="45.6105009" lon="10.722517"><ele>327.20000000000005</ele><time>2026-04-26T07:40:15.685Z</time></trkpt><trkpt lat="45.6103964" lon="10.7225547"><ele>326.0</ele><time>2026-04-26T07:40:16.691Z</time></trkpt><trkpt lat="45.6102924" lon="10.722604"><ele>326.25</ele><time>2026-04-26T07:40:17.688Z</time></trkpt><trkpt lat="45.6101869" lon="10.7226601"><ele>326.5</ele><time>2026-04-26T07:40:18.693Z</time></trkpt><trkpt lat="45.6100669" lon="10.7227267"><ele>326.75</ele><time>2026-04-26T07:40:19.694Z</time></trkpt><trkpt lat="45.6099485" lon="10.7227954"><ele>327.0</ele><time>2026-04-26T07:40:20.69Z</time></trkpt><trkpt lat="45.6098368" lon="10.7228522"><ele>327.0</ele><time>2026-04-26T07:40:21.69Z</time></trkpt><trkpt lat="45.6097305" lon="10.722901"><ele>327.0</ele><time>2026-04-26T07:40:22.685Z</time></trkpt><trkpt lat="45.6096332" lon="10.7229558"><ele>327.0</ele><time>2026-04-26T07:40:23.689Z</time></trkpt><trkpt lat="45.6095427" lon="10.7230068"><ele>327.0</ele><time>2026-04-26T07:40:24.688Z</time></trkpt><trkpt lat="45.6094593" lon="10.7230506"><ele>327.0</ele><time>2026-04-26T07:40:25.7Z</time></trkpt><trkpt lat="45.6093796" lon="10.7230986"><ele>325.6666666666667</ele><time>2026-04-26T07:40:26.691Z</time></trkpt><trkpt lat="45.609315" lon="10.7231332"><ele>324.3333333333333</ele><time>2026-04-26T07:40:27.692Z</time></trkpt><trkpt lat="45.6092561" lon="10.7231675"><ele>323.0</ele><time>2026-04-26T07:40:28.69Z</time></trkpt><trkpt lat="45.6091456" lon="10.7232264"><ele>321.66666666666663</ele><time>2026-04-26T07:40:30.693Z</time></trkpt><trkpt lat="45.6090664" lon="10.7232777"><ele>320.3333333333333</ele><time>2026-04-26T07:40:32.689Z</time></trkpt><trkpt lat="45.6090109" lon="10.7233273"><ele>319.0</ele><time>2026-04-26T07:40:34.69Z</time></trkpt><trkpt lat="45.6089592" lon="10.7233851"><ele>319.0</ele><time>2026-04-26T07:40:36.693Z</time></trkpt><trkpt lat="45.6088924" lon="10.7234471"><ele>319.0</ele><time>2026-04-26T07:40:38.696Z</time></trkpt><trkpt lat="45.608832" lon="10.7234923"><ele>319.0</ele><time>2026-04-26T07:40:40.708Z</time></trkpt><trkpt lat="45.6087638" lon="10.7235179"><ele>319.0</ele><time>2026-04-26T07:40:42.698Z</time></trkpt><trkpt lat="45.6086252" lon="10.7235249"><ele>319.0</ele><time>2026-04-26T07:40:44.704Z</time></trkpt><trkpt lat="45.6085192" lon="10.723506"><ele>317.59999999999997</ele><time>2026-04-26T07:40:45.701Z</time></trkpt><trkpt lat="45.6083998" lon="10.7234902"><ele>316.2</ele><time>2026-04-26T07:40:46.688Z</time></trkpt><trkpt lat="45.6082941" lon="10.7234706"><ele>314.79999999999995</ele><time>2026-04-26T07:40:47.696Z</time></trkpt><trkpt lat="45.6081934" lon="10.7234587"><ele>313.4</ele><time>2026-04-26T07:40:48.698Z</time></trkpt><trkpt lat="45.6081041" lon="10.7234596"><ele>312.0</ele><time>2026-04-26T07:40:49.705Z</time></trkpt><trkpt lat="45.6080224" lon="10.7234666"><ele>312.0</ele><time>2026-04-26T07:40:50.702Z</time></trkpt><trkpt lat="45.6079436" lon="10.7235015"><ele>312.0</ele><time>2026-04-26T07:40:51.7Z</time></trkpt><trkpt lat="45.6078714" lon="10.7235664"><ele>312.0</ele><time>2026-04-26T07:40:52.692Z</time></trkpt><trkpt lat="45.6078014" lon="10.7236363"><ele>312.0</ele><time>2026-04-26T07:40:53.695Z</time></trkpt><trkpt lat="45.6077267" lon="10.7236965"><ele>312.0</ele><time>2026-04-26T07:40:54.697Z</time></trkpt><trkpt lat="45.6076503" lon="10.7237488"><ele>312.0</ele><time>2026-04-26T07:40:55.696Z</time></trkpt><trkpt lat="45.6075753" lon="10.7237939"><ele>311.6</ele><time>2026-04-26T07:40:56.7Z</time></trkpt><trkpt lat="45.607494" lon="10.723831"><ele>311.2</ele><time>2026-04-26T07:40:57.695Z</time></trkpt><trkpt lat="45.6074045" lon="10.7238414"><ele>310.8</ele><time>2026-04-26T07:40:58.7Z</time></trkpt><trkpt lat="45.6073128" lon="10.7238484"><ele>310.4</ele><time>2026-04-26T07:40:59.7Z</time></trkpt><trkpt lat="45.6072224" lon="10.7238481"><ele>310.0</ele><time>2026-04-26T07:41:00.702Z</time></trkpt><trkpt lat="45.6071299" lon="10.7238549"><ele>310.0</ele><time>2026-04-26T07:41:01.696Z</time></trkpt><trkpt lat="45.6070506" lon="10.7238721"><ele>310.0</ele><time>2026-04-26T07:41:02.697Z</time></trkpt><trkpt lat="45.6069474" lon="10.7239078"><ele>310.0</ele><time>2026-04-26T07:41:04.691Z</time></trkpt><trkpt lat="45.6068734" lon="10.7239444"><ele>310.0</ele><time>2026-04-26T07:41:08.696Z</time></trkpt><trkpt lat="45.6068511" lon="10.7240604"><ele>310.0</ele><time>2026-04-26T07:41:10.689Z</time></trkpt><trkpt lat="45.6068355" lon="10.7241742"><ele>310.0</ele><time>2026-04-26T07:41:11.702Z</time></trkpt><trkpt lat="45.6067981" lon="10.7242784"><ele>310.0</ele><time>2026-04-26T07:41:12.691Z</time></trkpt><trkpt lat="45.6067557" lon="10.7243928"><ele>310.0</ele><time>2026-04-26T07:41:13.689Z</time></trkpt><trkpt lat="45.606707" lon="10.7245261"><ele>310.0</ele><time>2026-04-26T07:41:14.697Z</time></trkpt><trkpt lat="45.6066496" lon="10.7246454"><ele>310.0</ele><time>2026-04-26T07:41:15.692Z</time></trkpt><trkpt lat="45.606597" lon="10.7247735"><ele>310.0</ele><time>2026-04-26T07:41:16.696Z</time></trkpt><trkpt lat="45.6065447" lon="10.7248963"><ele>310.0</ele><time>2026-04-26T07:41:17.692Z</time></trkpt><trkpt lat="45.6065021" lon="10.7250292"><ele>310.0</ele><time>2026-04-26T07:41:18.694Z</time></trkpt><trkpt lat="45.6064612" lon="10.7251572"><ele>310.0</ele><time>2026-04-26T07:41:19.698Z</time></trkpt><trkpt lat="45.6064284" lon="10.7252831"><ele>310.0</ele><time>2026-04-26T07:41:20.692Z</time></trkpt><trkpt lat="45.6064047" lon="10.7254068"><ele>310.0</ele><time>2026-04-26T07:41:21.694Z</time></trkpt><trkpt lat="45.6063943" lon="10.7255251"><ele>310.8333333333333</ele><time>2026-04-26T07:41:22.692Z</time></trkpt><trkpt lat="45.606389" lon="10.7256335"><ele>311.66666666666663</ele><time>2026-04-26T07:41:23.699Z</time></trkpt><trkpt lat="45.6063886" lon="10.7257278"><ele>312.5</ele><time>2026-04-26T07:41:24.691Z</time></trkpt><trkpt lat="45.6064064" lon="10.7258919"><ele>313.3333333333333</ele><time>2026-04-26T07:41:26.691Z</time></trkpt><trkpt lat="45.6064285" lon="10.7260198"><ele>314.1666666666667</ele><time>2026-04-26T07:41:28.692Z</time></trkpt><trkpt lat="45.6064565" lon="10.7261141"><ele>315.0</ele><time>2026-04-26T07:41:30.692Z</time></trkpt><trkpt lat="45.6064807" lon="10.7262035"><ele>315.2857142857143</ele><time>2026-04-26T07:41:32.695Z</time></trkpt><trkpt lat="45.6065052" lon="10.7263035"><ele>315.57142857142856</ele><time>2026-04-26T07:41:34.688Z</time></trkpt><trkpt lat="45.6065212" lon="10.7263957"><ele>315.8571428571429</ele><time>2026-04-26T07:41:36.683Z</time></trkpt><trkpt lat="45.606529" lon="10.7264859"><ele>316.1428571428571</ele><time>2026-04-26T07:41:38.679Z</time></trkpt><trkpt lat="45.6065539" lon="10.7265947"><ele>316.42857142857144</ele><time>2026-04-26T07:41:41.683Z</time></trkpt><trkpt lat="45.6066056" lon="10.7266632"><ele>316.7142857142857</ele><time>2026-04-26T07:41:51.687Z</time></trkpt><trkpt lat="45.6065875" lon="10.7267849"><ele>317.0</ele><time>2026-04-26T07:42:00.701Z</time></trkpt><trkpt lat="45.606524" lon="10.7268705"><ele>316.83333333333337</ele><time>2026-04-26T07:42:02.7Z</time></trkpt><trkpt lat="45.6064677" lon="10.726937"><ele>316.6666666666667</ele><time>2026-04-26T07:42:03.702Z</time></trkpt><trkpt lat="45.6063915" lon="10.7270002"><ele>316.5</ele><time>2026-04-26T07:42:04.69Z</time></trkpt><trkpt lat="45.6063102" lon="10.7270597"><ele>316.3333333333333</ele><time>2026-04-26T07:42:05.695Z</time></trkpt><trkpt lat="45.6062312" lon="10.7271235"><ele>316.16666666666663</ele><time>2026-04-26T07:42:06.684Z</time></trkpt><trkpt lat="45.6061494" lon="10.7271874"><ele>316.0</ele><time>2026-04-26T07:42:07.692Z</time></trkpt><trkpt lat="45.6060596" lon="10.7272448"><ele>315.40000000000003</ele><time>2026-04-26T07:42:08.695Z</time></trkpt><trkpt lat="45.6059657" lon="10.7272834"><ele>314.8</ele><time>2026-04-26T07:42:09.692Z</time></trkpt><trkpt lat="45.6058615" lon="10.7273097"><ele>314.20000000000005</ele><time>2026-04-26T07:42:10.689Z</time></trkpt><trkpt lat="45.6057536" lon="10.7273273"><ele>313.6</ele><time>2026-04-26T07:42:11.693Z</time></trkpt><trkpt lat="45.6056482" lon="10.7273381"><ele>313.0</ele><time>2026-04-26T07:42:12.693Z</time></trkpt><trkpt lat="45.6055389" lon="10.7273332"><ele>313.0</ele><time>2026-04-26T07:42:13.699Z</time></trkpt><trkpt lat="45.6054331" lon="10.7273181"><ele>313.0</ele><time>2026-04-26T07:42:14.689Z</time></trkpt><trkpt lat="45.6053254" lon="10.727293"><ele>313.0</ele><time>2026-04-26T07:42:15.695Z</time></trkpt><trkpt lat="45.6052122" lon="10.7272719"><ele>313.0</ele><time>2026-04-26T07:42:16.7Z</time></trkpt><trkpt lat="45.6050935" lon="10.7272552"><ele>313.0</ele><time>2026-04-26T07:42:17.693Z</time></trkpt><trkpt lat="45.6049769" lon="10.7272412"><ele>313.2</ele><time>2026-04-26T07:42:18.696Z</time></trkpt><trkpt lat="45.6048658" lon="10.7272287"><ele>313.4</ele><time>2026-04-26T07:42:19.696Z</time></trkpt><trkpt lat="45.6047589" lon="10.7272208"><ele>313.59999999999997</ele><time>2026-04-26T07:42:20.697Z</time></trkpt><trkpt lat="45.6046538" lon="10.7272202"><ele>313.8</ele><time>2026-04-26T07:42:21.698Z</time></trkpt><trkpt lat="45.6045403" lon="10.7272262"><ele>314.0</ele><time>2026-04-26T07:42:22.7Z</time></trkpt><trkpt lat="45.6044244" lon="10.7272445"><ele>314.0</ele><time>2026-04-26T07:42:23.694Z</time></trkpt><trkpt lat="45.6043021" lon="10.7272798"><ele>314.0</ele><time>2026-04-26T07:42:24.696Z</time></trkpt><trkpt lat="45.6041726" lon="10.7273263"><ele>314.0</ele><time>2026-04-26T07:42:25.699Z</time></trkpt><trkpt lat="45.6040394" lon="10.7273811"><ele>314.0</ele><time>2026-04-26T07:42:26.697Z</time></trkpt><trkpt lat="45.6039057" lon="10.7274278"><ele>314.0</ele><time>2026-04-26T07:42:27.695Z</time></trkpt><trkpt lat="45.603774" lon="10.7274685"><ele>314.0</ele><time>2026-04-26T07:42:28.699Z</time></trkpt><trkpt lat="45.6036442" lon="10.7275062"><ele>314.0</ele><time>2026-04-26T07:42:29.693Z</time></trkpt><trkpt lat="45.603519" lon="10.7275462"><ele>314.0</ele><time>2026-04-26T07:42:30.7Z</time></trkpt><trkpt lat="45.6034031" lon="10.7275897"><ele>314.25</ele><time>2026-04-26T07:42:31.697Z</time></trkpt><trkpt lat="45.6032908" lon="10.7276378"><ele>314.5</ele><time>2026-04-26T07:42:32.697Z</time></trkpt><trkpt lat="45.60318" lon="10.7276926"><ele>314.75</ele><time>2026-04-26T07:42:33.698Z</time></trkpt><trkpt lat="45.6030649" lon="10.7277664"><ele>315.0</ele><time>2026-04-26T07:42:34.693Z</time></trkpt><trkpt lat="45.6029495" lon="10.7278405"><ele>315.0</ele><time>2026-04-26T07:42:35.698Z</time></trkpt><trkpt lat="45.6028319" lon="10.727912"><ele>315.0</ele><time>2026-04-26T07:42:36.691Z</time></trkpt><trkpt lat="45.6027242" lon="10.7279808"><ele>315.0</ele><time>2026-04-26T07:42:37.692Z</time></trkpt><trkpt lat="45.6026299" lon="10.7280423"><ele>315.0</ele><time>2026-04-26T07:42:38.693Z</time></trkpt><trkpt lat="45.602544" lon="10.7280863"><ele>315.0</ele><time>2026-04-26T07:42:39.69Z</time></trkpt><trkpt lat="45.6024753" lon="10.728122"><ele>314.8333333333333</ele><time>2026-04-26T07:42:40.691Z</time></trkpt><trkpt lat="45.6023812" lon="10.728173"><ele>314.6666666666667</ele><time>2026-04-26T07:42:42.69Z</time></trkpt><trkpt lat="45.6023173" lon="10.7282207"><ele>314.5</ele><time>2026-04-26T07:42:44.701Z</time></trkpt><trkpt lat="45.6022726" lon="10.7283312"><ele>314.33333333333337</ele><time>2026-04-26T07:42:46.691Z</time></trkpt><trkpt lat="45.6022553" lon="10.7284479"><ele>314.1666666666667</ele><time>2026-04-26T07:42:47.7Z</time></trkpt><trkpt lat="45.6022323" lon="10.7285868"><ele>314.0</ele><time>2026-04-26T07:42:48.696Z</time></trkpt><trkpt lat="45.6022087" lon="10.7287253"><ele>314.0</ele><time>2026-04-26T07:42:49.698Z</time></trkpt><trkpt lat="45.6021844" lon="10.7288462"><ele>314.0</ele><time>2026-04-26T07:42:50.691Z</time></trkpt><trkpt lat="45.6021641" lon="10.7289521"><ele>314.0</ele><time>2026-04-26T07:42:51.687Z</time></trkpt><trkpt lat="45.6021579" lon="10.7291142"><ele>314.0</ele><time>2026-04-26T07:42:53.694Z</time></trkpt><trkpt lat="45.6021756" lon="10.7292573"><ele>314.0</ele><time>2026-04-26T07:42:55.693Z</time></trkpt><trkpt lat="45.6021974" lon="10.729412"><ele>313.5</ele><time>2026-04-26T07:42:57.695Z</time></trkpt><trkpt lat="45.6022032" lon="10.7295893"><ele>313.0</ele><time>2026-04-26T07:42:59.693Z</time></trkpt><trkpt lat="45.6021969" lon="10.7296899"><ele>312.5</ele><time>2026-04-26T07:43:00.694Z</time></trkpt><trkpt lat="45.6021917" lon="10.7297977"><ele>312.0</ele><time>2026-04-26T07:43:01.7Z</time></trkpt><trkpt lat="45.6021945" lon="10.7299039"><ele>311.5</ele><time>2026-04-26T07:43:02.697Z</time></trkpt><trkpt lat="45.6021927" lon="10.7300017"><ele>311.0</ele><time>2026-04-26T07:43:03.693Z</time></trkpt><trkpt lat="45.6021659" lon="10.7301639"><ele>311.0</ele><time>2026-04-26T07:43:05.695Z</time></trkpt><trkpt lat="45.6020667" lon="10.7302825"><ele>311.0</ele><time>2026-04-26T07:43:07.691Z</time></trkpt><trkpt lat="45.601989" lon="10.7303409"><ele>311.0</ele><time>2026-04-26T07:43:08.697Z</time></trkpt><trkpt lat="45.6019004" lon="10.730401"><ele>311.0</ele><time>2026-04-26T07:43:09.694Z</time></trkpt><trkpt lat="45.6018144" lon="10.7304701"><ele>311.0</ele><time>2026-04-26T07:43:10.696Z</time></trkpt><trkpt lat="45.6017315" lon="10.7305373"><ele>311.0</ele><time>2026-04-26T07:43:11.697Z</time></trkpt><trkpt lat="45.6016437" lon="10.7305995"><ele>311.0</ele><time>2026-04-26T07:43:12.705Z</time></trkpt><trkpt lat="45.6015603" lon="10.7306625"><ele>311.0</ele><time>2026-04-26T07:43:13.696Z</time></trkpt><trkpt lat="45.6014741" lon="10.7307235"><ele>311.0</ele><time>2026-04-26T07:43:14.702Z</time></trkpt><trkpt lat="45.6013921" lon="10.730784"><ele>311.0</ele><time>2026-04-26T07:43:15.714Z</time></trkpt><trkpt lat="45.6013205" lon="10.730843"><ele>311.0</ele><time>2026-04-26T07:43:16.696Z</time></trkpt><trkpt lat="45.6012522" lon="10.7309064"><ele>311.0</ele><time>2026-04-26T07:43:17.707Z</time></trkpt><trkpt lat="45.6011908" lon="10.7309712"><ele>311.0</ele><time>2026-04-26T07:43:18.716Z</time></trkpt><trkpt lat="45.6011342" lon="10.7310391"><ele>311.0</ele><time>2026-04-26T07:43:19.711Z</time></trkpt><trkpt lat="45.6010826" lon="10.7310956"><ele>311.0</ele><time>2026-04-26T07:43:20.704Z</time></trkpt><trkpt lat="45.6010282" lon="10.7311419"><ele>311.0</ele><time>2026-04-26T07:43:21.7Z</time></trkpt><trkpt lat="45.6009146" lon="10.7312165"><ele>310.2857142857143</ele><time>2026-04-26T07:43:23.701Z</time></trkpt><trkpt lat="45.6008509" lon="10.7312502"><ele>309.5714285714286</ele><time>2026-04-26T07:43:24.697Z</time></trkpt><trkpt lat="45.6007865" lon="10.7312836"><ele>308.8571428571429</ele><time>2026-04-26T07:43:25.702Z</time></trkpt><trkpt lat="45.6007219" lon="10.7313163"><ele>308.1428571428571</ele><time>2026-04-26T07:43:26.704Z</time></trkpt><trkpt lat="45.6006617" lon="10.731352"><ele>307.42857142857144</ele><time>2026-04-26T07:43:27.695Z</time></trkpt><trkpt lat="45.6006014" lon="10.731386"><ele>306.7142857142857</ele><time>2026-04-26T07:43:28.7Z</time></trkpt><trkpt lat="45.6005375" lon="10.7314166"><ele>306.0</ele><time>2026-04-26T07:43:29.699Z</time></trkpt><trkpt lat="45.6004677" lon="10.7314564"><ele>306.0</ele><time>2026-04-26T07:43:30.69Z</time></trkpt><trkpt lat="45.6003907" lon="10.7315033"><ele>306.0</ele><time>2026-04-26T07:43:31.692Z</time></trkpt><trkpt lat="45.6003176" lon="10.7315458"><ele>306.0</ele><time>2026-04-26T07:43:32.696Z</time></trkpt><trkpt lat="45.6002322" lon="10.7315897"><ele>306.0</ele><time>2026-04-26T07:43:33.695Z</time></trkpt><trkpt lat="45.6001489" lon="10.7316338"><ele>306.0</ele><time>2026-04-26T07:43:34.694Z</time></trkpt><trkpt lat="45.6000645" lon="10.7316702"><ele>306.0</ele><time>2026-04-26T07:43:35.692Z</time></trkpt><trkpt lat="45.5999861" lon="10.7317038"><ele>306.0</ele><time>2026-04-26T07:43:36.69Z</time></trkpt><trkpt lat="45.5999159" lon="10.7317383"><ele>306.0</ele><time>2026-04-26T07:43:37.695Z</time></trkpt><trkpt lat="45.5998438" lon="10.7317713"><ele>306.0</ele><time>2026-04-26T07:43:38.689Z</time></trkpt><trkpt lat="45.5997722" lon="10.7318075"><ele>306.0</ele><time>2026-04-26T07:43:39.692Z</time></trkpt><trkpt lat="45.599703" lon="10.731847"><ele>306.0</ele><time>2026-04-26T07:43:40.687Z</time></trkpt><trkpt lat="45.5996383" lon="10.7318938"><ele>306.0</ele><time>2026-04-26T07:43:41.688Z</time></trkpt><trkpt lat="45.5995795" lon="10.7319398"><ele>306.0</ele><time>2026-04-26T07:43:42.693Z</time></trkpt><trkpt lat="45.5995198" lon="10.7319829"><ele>305.3333333333333</ele><time>2026-04-26T07:43:43.693Z</time></trkpt><trkpt lat="45.5994494" lon="10.7320321"><ele>304.6666666666667</ele><time>2026-04-26T07:43:44.691Z</time></trkpt><trkpt lat="45.5993755" lon="10.7320915"><ele>304.0</ele><time>2026-04-26T07:43:45.693Z</time></trkpt><trkpt lat="45.5993013" lon="10.7321577"><ele>303.33333333333337</ele><time>2026-04-26T07:43:46.693Z</time></trkpt><trkpt lat="45.5992176" lon="10.7322272"><ele>302.6666666666667</ele><time>2026-04-26T07:43:47.694Z</time></trkpt><trkpt lat="45.599131" lon="10.7323011"><ele>302.0</ele><time>2026-04-26T07:43:48.692Z</time></trkpt><trkpt lat="45.5990482" lon="10.73237"><ele>302.00000000000006</ele><time>2026-04-26T07:43:49.704Z</time></trkpt><trkpt lat="45.5989748" lon="10.7324368"><ele>302.0</ele><time>2026-04-26T07:43:50.695Z</time></trkpt><trkpt lat="45.598917" lon="10.7325137"><ele>302.0</ele><time>2026-04-26T07:43:51.69Z</time></trkpt><trkpt lat="45.5988667" lon="10.7325873"><ele>302.0</ele><time>2026-04-26T07:43:52.692Z</time></trkpt><trkpt lat="45.5988196" lon="10.7326557"><ele>302.0</ele><time>2026-04-26T07:43:53.697Z</time></trkpt><trkpt lat="45.5987662" lon="10.732723"><ele>302.00000000000006</ele><time>2026-04-26T07:43:54.695Z</time></trkpt><trkpt lat="45.5987131" lon="10.7327837"><ele>302.0</ele><time>2026-04-26T07:43:55.695Z</time></trkpt><trkpt lat="45.5986495" lon="10.7328473"><ele>301.33333333333337</ele><time>2026-04-26T07:43:56.693Z</time></trkpt><trkpt lat="45.5985826" lon="10.7329101"><ele>300.6666666666667</ele><time>2026-04-26T07:43:57.695Z</time></trkpt><trkpt lat="45.5985134" lon="10.7329678"><ele>300.0</ele><time>2026-04-26T07:43:58.701Z</time></trkpt><trkpt lat="45.5984443" lon="10.7330319"><ele>299.3333333333333</ele><time>2026-04-26T07:43:59.692Z</time></trkpt><trkpt lat="45.5983733" lon="10.7331047"><ele>298.66666666666663</ele><time>2026-04-26T07:44:00.694Z</time></trkpt><trkpt lat="45.5983054" lon="10.7331776"><ele>298.0</ele><time>2026-04-26T07:44:01.695Z</time></trkpt><trkpt lat="45.5982394" lon="10.7332406"><ele>298.0</ele><time>2026-04-26T07:44:02.695Z</time></trkpt><trkpt lat="45.5981717" lon="10.7332947"><ele>298.0</ele><time>2026-04-26T07:44:03.69Z</time></trkpt><trkpt lat="45.5981041" lon="10.7333533"><ele>298.0</ele><time>2026-04-26T07:44:04.695Z</time></trkpt><trkpt lat="45.5980342" lon="10.7334088"><ele>298.0</ele><time>2026-04-26T07:44:05.689Z</time></trkpt><trkpt lat="45.5979542" lon="10.7334576"><ele>298.0</ele><time>2026-04-26T07:44:06.697Z</time></trkpt><trkpt lat="45.597858" lon="10.7334967"><ele>298.0</ele><time>2026-04-26T07:44:07.691Z</time></trkpt><trkpt lat="45.5977363" lon="10.7335271"><ele>293.75</ele><time>2026-04-26T07:44:08.691Z</time></trkpt><trkpt lat="45.5975966" lon="10.7335561"><ele>289.5</ele><time>2026-04-26T07:44:09.697Z</time></trkpt><trkpt lat="45.5974469" lon="10.7335854"><ele>285.25</ele><time>2026-04-26T07:44:10.699Z</time></trkpt><trkpt lat="45.597304" lon="10.733627"><ele>281.0</ele><time>2026-04-26T07:44:11.699Z</time></trkpt><trkpt lat="45.5971665" lon="10.7336646"><ele>281.0</ele><time>2026-04-26T07:44:12.695Z</time></trkpt><trkpt lat="45.597043" lon="10.7337034"><ele>281.0</ele><time>2026-04-26T07:44:13.691Z</time></trkpt><trkpt lat="45.5969369" lon="10.7337719"><ele>281.0</ele><time>2026-04-26T07:44:14.692Z</time></trkpt><trkpt lat="45.5968478" lon="10.7338441"><ele>281.0</ele><time>2026-04-26T07:44:15.688Z</time></trkpt><trkpt lat="45.5967753" lon="10.7339028"><ele>281.0</ele><time>2026-04-26T07:44:16.699Z</time></trkpt><trkpt lat="45.5966919" lon="10.7339349"><ele>280.5</ele><time>2026-04-26T07:44:18.693Z</time></trkpt><trkpt lat="45.5966552" lon="10.7338536"><ele>280.0</ele><time>2026-04-26T07:44:20.706Z</time></trkpt><trkpt lat="45.5966648" lon="10.7337619"><ele>279.5</ele><time>2026-04-26T07:44:21.694Z</time></trkpt><trkpt lat="45.5966771" lon="10.7336557"><ele>279.0</ele><time>2026-04-26T07:44:22.692Z</time></trkpt><trkpt lat="45.5966975" lon="10.733541"><ele>278.5</ele><time>2026-04-26T07:44:23.695Z</time></trkpt><trkpt lat="45.5967225" lon="10.7334482"><ele>278.0</ele><time>2026-04-26T07:44:24.693Z</time></trkpt><trkpt lat="45.5967655" lon="10.7333117"><ele>278.0</ele><time>2026-04-26T07:44:26.683Z</time></trkpt><trkpt lat="45.5967521" lon="10.7334291"><ele>278.0</ele><time>2026-04-26T07:44:51.691Z</time></trkpt><trkpt lat="45.5967413" lon="10.7335493"><ele>278.0</ele><time>2026-04-26T07:44:52.678Z</time></trkpt><trkpt lat="45.5967428" lon="10.7336639"><ele>278.0</ele><time>2026-04-26T07:44:53.684Z</time></trkpt><trkpt lat="45.59674" lon="10.7337854"><ele>278.0</ele><time>2026-04-26T07:44:55.689Z</time></trkpt><trkpt lat="45.596728" lon="10.7338943"><ele>278.0</ele><time>2026-04-26T07:45:09.685Z</time></trkpt><trkpt lat="45.5966396" lon="10.7339419"><ele>277.6</ele><time>2026-04-26T07:45:11.68Z</time></trkpt><trkpt lat="45.5965364" lon="10.7340202"><ele>277.20000000000005</ele><time>2026-04-26T07:45:13.682Z</time></trkpt><trkpt lat="45.5964443" lon="10.7341252"><ele>276.8</ele><time>2026-04-26T07:45:15.687Z</time></trkpt><trkpt lat="45.5963765" lon="10.7342242"><ele>276.40000000000003</ele><time>2026-04-26T07:45:17.688Z</time></trkpt><trkpt lat="45.5963112" lon="10.7343382"><ele>276.0</ele><time>2026-04-26T07:45:19.69Z</time></trkpt><trkpt lat="45.5962293" lon="10.7344778"><ele>273.5</ele><time>2026-04-26T07:45:21.689Z</time></trkpt><trkpt lat="45.5961754" lon="10.7345609"><ele>271.0</ele><time>2026-04-26T07:45:22.699Z</time></trkpt><trkpt lat="45.5961229" lon="10.7346403"><ele>268.5</ele><time>2026-04-26T07:45:23.688Z</time></trkpt><trkpt lat="45.5960721" lon="10.7347142"><ele>266.0</ele><time>2026-04-26T07:45:24.693Z</time></trkpt><trkpt lat="45.5960253" lon="10.734782"><ele>263.5</ele><time>2026-04-26T07:45:25.69Z</time></trkpt><trkpt lat="45.595942" lon="10.7348836"><ele>261.0</ele><time>2026-04-26T07:45:27.69Z</time></trkpt><trkpt lat="45.5958578" lon="10.7349053"><ele>260.5</ele><time>2026-04-26T07:45:29.696Z</time></trkpt><trkpt lat="45.5957729" lon="10.7349778"><ele>260.0</ele><time>2026-04-26T07:45:31.694Z</time></trkpt><trkpt lat="45.5957291" lon="10.73505"><ele>259.5</ele><time>2026-04-26T07:45:32.689Z</time></trkpt><trkpt lat="45.5956883" lon="10.7351342"><ele>259.0</ele><time>2026-04-26T07:45:33.686Z</time></trkpt><trkpt lat="45.5956505" lon="10.735214"><ele>258.5</ele><time>2026-04-26T07:45:34.687Z</time></trkpt><trkpt lat="45.5955779" lon="10.7353308"><ele>258.0</ele><time>2026-04-26T07:45:36.686Z</time></trkpt><trkpt lat="45.5955388" lon="10.7354258"><ele>255.8</ele><time>2026-04-26T07:45:38.687Z</time></trkpt><trkpt lat="45.5955655" lon="10.7355298"><ele>253.60000000000002</ele><time>2026-04-26T07:45:40.682Z</time></trkpt><trkpt lat="45.5956477" lon="10.7356374"><ele>251.39999999999998</ele><time>2026-04-26T07:45:42.687Z</time></trkpt><trkpt lat="45.5957566" lon="10.7356988"><ele>249.2</ele><time>2026-04-26T07:45:44.685Z</time></trkpt><trkpt lat="45.5958627" lon="10.7357309"><ele>247.0</ele><time>2026-04-26T07:45:46.686Z</time></trkpt><trkpt lat="45.5959319" lon="10.7357751"><ele>246.99999999999997</ele><time>2026-04-26T07:45:48.689Z</time></trkpt><trkpt lat="45.5959374" lon="10.7358701"><ele>247.0</ele><time>2026-04-26T07:45:50.687Z</time></trkpt><trkpt lat="45.5958635" lon="10.7359432"><ele>247.0</ele><time>2026-04-26T07:45:52.683Z</time></trkpt><trkpt lat="45.5957436" lon="10.7359641"><ele>247.0</ele><time>2026-04-26T07:45:54.68Z</time></trkpt><trkpt lat="45.5956658" lon="10.7359377"><ele>246.99999999999997</ele><time>2026-04-26T07:45:55.679Z</time></trkpt><trkpt lat="45.5955867" lon="10.7358922"><ele>247.0</ele><time>2026-04-26T07:45:56.677Z</time></trkpt><trkpt lat="45.5955095" lon="10.7358373"><ele>246.99999999999997</ele><time>2026-04-26T07:45:57.676Z</time></trkpt><trkpt lat="45.5954461" lon="10.7357906"><ele>247.0</ele><time>2026-04-26T07:45:58.681Z</time></trkpt><trkpt lat="45.5953486" lon="10.7357204"><ele>247.0</ele><time>2026-04-26T07:46:00.682Z</time></trkpt><trkpt lat="45.5952662" lon="10.7356813"><ele>247.0</ele><time>2026-04-26T07:46:02.676Z</time></trkpt><trkpt lat="45.5951932" lon="10.7356413"><ele>246.99999999999997</ele><time>2026-04-26T07:46:05.677Z</time></trkpt><trkpt lat="45.5952097" lon="10.7357428"><ele>247.0</ele><time>2026-04-26T07:46:09.674Z</time></trkpt><trkpt lat="45.5952659" lon="10.7358435"><ele>246.99999999999997</ele><time>2026-04-26T07:46:11.673Z</time></trkpt><trkpt lat="45.5953077" lon="10.7359167"><ele>247.0</ele><time>2026-04-26T07:46:12.677Z</time></trkpt><trkpt lat="45.5953537" lon="10.7359918"><ele>247.0</ele><time>2026-04-26T07:46:13.68Z</time></trkpt><trkpt lat="45.5953884" lon="10.7360673"><ele>247.0</ele><time>2026-04-26T07:46:14.673Z</time></trkpt><trkpt lat="45.5954378" lon="10.7362143"><ele>246.99999999999997</ele><time>2026-04-26T07:46:16.679Z</time></trkpt><trkpt lat="45.5954551" lon="10.7363549"><ele>247.0</ele><time>2026-04-26T07:46:18.67Z</time></trkpt><trkpt lat="45.5954204" lon="10.7365114"><ele>245.39999999999998</ele><time>2026-04-26T07:46:20.678Z</time></trkpt><trkpt lat="45.5953753" lon="10.7365921"><ele>243.79999999999998</ele><time>2026-04-26T07:46:21.672Z</time></trkpt><trkpt lat="45.5953187" lon="10.7366703"><ele>242.2</ele><time>2026-04-26T07:46:22.667Z</time></trkpt><trkpt lat="45.595266" lon="10.7367318"><ele>240.6</ele><time>2026-04-26T07:46:23.674Z</time></trkpt><trkpt lat="45.5951682" lon="10.7367874"><ele>239.0</ele><time>2026-04-26T07:46:25.673Z</time></trkpt><trkpt lat="45.5950406" lon="10.7367425"><ele>239.00000000000003</ele><time>2026-04-26T07:46:27.663Z</time></trkpt><trkpt lat="45.5949711" lon="10.7366948"><ele>239.0</ele><time>2026-04-26T07:46:28.672Z</time></trkpt><trkpt lat="45.5949051" lon="10.7366525"><ele>239.0</ele><time>2026-04-26T07:46:29.67Z</time></trkpt><trkpt lat="45.5948462" lon="10.7366159"><ele>239.0</ele><time>2026-04-26T07:46:30.672Z</time></trkpt><trkpt lat="45.5947439" lon="10.7365293"><ele>239.00000000000003</ele><time>2026-04-26T07:46:32.67Z</time></trkpt><trkpt lat="45.5946474" lon="10.7364558"><ele>239.0</ele><time>2026-04-26T07:46:34.667Z</time></trkpt><trkpt lat="45.594558" lon="10.7363913"><ele>240.0</ele><time>2026-04-26T07:46:36.671Z</time></trkpt><trkpt lat="45.5944697" lon="10.7363547"><ele>240.99999999999997</ele><time>2026-04-26T07:46:38.675Z</time></trkpt><trkpt lat="45.5943743" lon="10.7363219"><ele>241.99999999999997</ele><time>2026-04-26T07:46:40.671Z</time></trkpt><trkpt lat="45.5942862" lon="10.7362946"><ele>243.0</ele><time>2026-04-26T07:46:42.673Z</time></trkpt><trkpt lat="45.5941979" lon="10.7362636"><ele>244.0</ele><time>2026-04-26T07:46:44.666Z</time></trkpt><trkpt lat="45.5941214" lon="10.7361761"><ele>244.0</ele><time>2026-04-26T07:46:46.675Z</time></trkpt><trkpt lat="45.5940474" lon="10.7361017"><ele>243.99999999999997</ele><time>2026-04-26T07:46:48.682Z</time></trkpt><trkpt lat="45.594084" lon="10.7362238"><ele>243.99999999999997</ele><time>2026-04-26T07:46:54.689Z</time></trkpt><trkpt lat="45.5941503" lon="10.7362972"><ele>244.0</ele><time>2026-04-26T07:46:55.676Z</time></trkpt><trkpt lat="45.5942304" lon="10.7364051"><ele>244.0</ele><time>2026-04-26T07:46:56.676Z</time></trkpt><trkpt lat="45.5943146" lon="10.7365473"><ele>244.0</ele><time>2026-04-26T07:46:57.678Z</time></trkpt><trkpt lat="45.5944083" lon="10.7366943"><ele>244.0</ele><time>2026-04-26T07:46:58.686Z</time></trkpt><trkpt lat="45.5944996" lon="10.736826"><ele>244.0</ele><time>2026-04-26T07:46:59.687Z</time></trkpt><trkpt lat="45.5945837" lon="10.7369376"><ele>244.0</ele><time>2026-04-26T07:47:00.682Z</time></trkpt><trkpt lat="45.5946658" lon="10.7370516"><ele>244.39999999999998</ele><time>2026-04-26T07:47:01.687Z</time></trkpt><trkpt lat="45.5947468" lon="10.7371562"><ele>244.79999999999998</ele><time>2026-04-26T07:47:02.69Z</time></trkpt><trkpt lat="45.5948323" lon="10.7372527"><ele>245.20000000000002</ele><time>2026-04-26T07:47:03.681Z</time></trkpt><trkpt lat="45.5949175" lon="10.7373512"><ele>245.60000000000002</ele><time>2026-04-26T07:47:04.683Z</time></trkpt><trkpt lat="45.5949988" lon="10.7374533"><ele>246.0</ele><time>2026-04-26T07:47:05.688Z</time></trkpt><trkpt lat="45.5950759" lon="10.7375573"><ele>246.0</ele><time>2026-04-26T07:47:06.68Z</time></trkpt><trkpt lat="45.5951423" lon="10.7376627"><ele>246.00000000000003</ele><time>2026-04-26T07:47:07.684Z</time></trkpt><trkpt lat="45.5951975" lon="10.7377739"><ele>246.00000000000003</ele><time>2026-04-26T07:47:08.687Z</time></trkpt><trkpt lat="45.595241" lon="10.7378879"><ele>246.0</ele><time>2026-04-26T07:47:09.681Z</time></trkpt><trkpt lat="45.5952826" lon="10.7379963"><ele>246.0</ele><time>2026-04-26T07:47:10.684Z</time></trkpt><trkpt lat="45.5953101" lon="10.7381042"><ele>246.0</ele><time>2026-04-26T07:47:11.682Z</time></trkpt><trkpt lat="45.5953424" lon="10.7382163"><ele>246.0</ele><time>2026-04-26T07:47:12.684Z</time></trkpt><trkpt lat="45.5953736" lon="10.7383156"><ele>246.0</ele><time>2026-04-26T07:47:13.684Z</time></trkpt><trkpt lat="45.5954012" lon="10.7384083"><ele>246.0</ele><time>2026-04-26T07:47:14.683Z</time></trkpt><trkpt lat="45.5954464" lon="10.7385532"><ele>246.0</ele><time>2026-04-26T07:47:16.684Z</time></trkpt><trkpt lat="45.5954729" lon="10.7386518"><ele>246.0</ele><time>2026-04-26T07:47:18.691Z</time></trkpt><trkpt lat="45.5954921" lon="10.7387474"><ele>246.0</ele><time>2026-04-26T07:47:39.688Z</time></trkpt><trkpt lat="45.5955415" lon="10.7388879"><ele>246.00000000000003</ele><time>2026-04-26T07:47:45.683Z</time></trkpt><trkpt lat="45.5955719" lon="10.7389691"><ele>246.00000000000003</ele><time>2026-04-26T07:47:46.682Z</time></trkpt><trkpt lat="45.5956108" lon="10.739067"><ele>246.0</ele><time>2026-04-26T07:47:47.681Z</time></trkpt><trkpt lat="45.5956505" lon="10.7391847"><ele>246.0</ele><time>2026-04-26T07:47:48.691Z</time></trkpt><trkpt lat="45.5956951" lon="10.7393256"><ele>245.5</ele><time>2026-04-26T07:47:49.692Z</time></trkpt><trkpt lat="45.5957412" lon="10.7394831"><ele>245.0</ele><time>2026-04-26T07:47:50.69Z</time></trkpt><trkpt lat="45.5957928" lon="10.7396387"><ele>244.5</ele><time>2026-04-26T07:47:51.689Z</time></trkpt><trkpt lat="45.5958414" lon="10.7397874"><ele>244.0</ele><time>2026-04-26T07:47:52.685Z</time></trkpt><trkpt lat="45.595895" lon="10.7399419"><ele>244.0</ele><time>2026-04-26T07:47:53.693Z</time></trkpt><trkpt lat="45.5959464" lon="10.7400956"><ele>244.0</ele><time>2026-04-26T07:47:54.686Z</time></trkpt><trkpt lat="45.5960023" lon="10.7402436"><ele>244.0</ele><time>2026-04-26T07:47:55.686Z</time></trkpt><trkpt lat="45.596054" lon="10.7403936"><ele>244.0</ele><time>2026-04-26T07:47:56.692Z</time></trkpt><trkpt lat="45.5961068" lon="10.7405392"><ele>243.75</ele><time>2026-04-26T07:47:57.683Z</time></trkpt><trkpt lat="45.5961535" lon="10.7406841"><ele>243.5</ele><time>2026-04-26T07:47:58.688Z</time></trkpt><trkpt lat="45.5962015" lon="10.7408237"><ele>243.25</ele><time>2026-04-26T07:47:59.688Z</time></trkpt><trkpt lat="45.596254" lon="10.7409683"><ele>243.0</ele><time>2026-04-26T07:48:00.686Z</time></trkpt><trkpt lat="45.5963115" lon="10.7411118"><ele>243.60000000000002</ele><time>2026-04-26T07:48:01.688Z</time></trkpt><trkpt lat="45.5963695" lon="10.7412388"><ele>244.20000000000002</ele><time>2026-04-26T07:48:02.686Z</time></trkpt><trkpt lat="45.5964248" lon="10.7413646"><ele>244.8</ele><time>2026-04-26T07:48:03.678Z</time></trkpt><trkpt lat="45.5964737" lon="10.7414863"><ele>245.4</ele><time>2026-04-26T07:48:04.677Z</time></trkpt><trkpt lat="45.5965138" lon="10.741593"><ele>246.0</ele><time>2026-04-26T07:48:05.673Z</time></trkpt><trkpt lat="45.596554" lon="10.7416752"><ele>246.0</ele><time>2026-04-26T07:48:06.678Z</time></trkpt><trkpt lat="45.5966419" lon="10.7417358"><ele>246.00000000000003</ele><time>2026-04-26T07:48:08.676Z</time></trkpt><trkpt lat="45.5967411" lon="10.7417652"><ele>246.00000000000003</ele><time>2026-04-26T07:48:10.675Z</time></trkpt><trkpt lat="45.5968306" lon="10.7418759"><ele>246.0</ele><time>2026-04-26T07:48:12.679Z</time></trkpt><trkpt lat="45.5968606" lon="10.7419854"><ele>246.0</ele><time>2026-04-26T07:48:13.673Z</time></trkpt><trkpt lat="45.5968955" lon="10.7421135"><ele>246.0</ele><time>2026-04-26T07:48:14.676Z</time></trkpt><trkpt lat="45.5969421" lon="10.7422599"><ele>246.0</ele><time>2026-04-26T07:48:15.682Z</time></trkpt><trkpt lat="45.5970078" lon="10.7423989"><ele>246.0</ele><time>2026-04-26T07:48:16.678Z</time></trkpt><trkpt lat="45.5970848" lon="10.7425341"><ele>246.0</ele><time>2026-04-26T07:48:17.673Z</time></trkpt><trkpt lat="45.5971748" lon="10.7426614"><ele>247.20000000000002</ele><time>2026-04-26T07:48:18.68Z</time></trkpt><trkpt lat="45.5972753" lon="10.7427884"><ele>248.40000000000003</ele><time>2026-04-26T07:48:19.68Z</time></trkpt><trkpt lat="45.5973654" lon="10.7428891"><ele>249.6</ele><time>2026-04-26T07:48:20.68Z</time></trkpt><trkpt lat="45.5974413" lon="10.7429759"><ele>250.8</ele><time>2026-04-26T07:48:21.684Z</time></trkpt><trkpt lat="45.5975051" lon="10.7430447"><ele>252.0</ele><time>2026-04-26T07:48:22.682Z</time></trkpt><trkpt lat="45.5975494" lon="10.7431747"><ele>252.0</ele><time>2026-04-26T07:48:25.682Z</time></trkpt><trkpt lat="45.5975255" lon="10.7433737"><ele>252.0</ele><time>2026-04-26T07:48:27.685Z</time></trkpt><trkpt lat="45.5974931" lon="10.7435094"><ele>252.0</ele><time>2026-04-26T07:48:28.678Z</time></trkpt><trkpt lat="45.5974628" lon="10.7436501"><ele>252.0</ele><time>2026-04-26T07:48:29.682Z</time></trkpt><trkpt lat="45.5974437" lon="10.7438057"><ele>251.39999999999998</ele><time>2026-04-26T07:48:30.678Z</time></trkpt><trkpt lat="45.5974211" lon="10.7439713"><ele>250.79999999999998</ele><time>2026-04-26T07:48:31.681Z</time></trkpt><trkpt lat="45.5974004" lon="10.7441309"><ele>250.2</ele><time>2026-04-26T07:48:32.681Z</time></trkpt><trkpt lat="45.5973904" lon="10.7442805"><ele>249.6</ele><time>2026-04-26T07:48:33.678Z</time></trkpt><trkpt lat="45.5973938" lon="10.7444173"><ele>249.0</ele><time>2026-04-26T07:48:34.682Z</time></trkpt><trkpt lat="45.5974124" lon="10.744561"><ele>248.39999999999998</ele><time>2026-04-26T07:48:35.681Z</time></trkpt><trkpt lat="45.5974268" lon="10.7447216"><ele>247.79999999999998</ele><time>2026-04-26T07:48:36.689Z</time></trkpt><trkpt lat="45.5974411" lon="10.7448814"><ele>247.20000000000002</ele><time>2026-04-26T07:48:37.677Z</time></trkpt><trkpt lat="45.5974502" lon="10.7450313"><ele>246.60000000000002</ele><time>2026-04-26T07:48:38.677Z</time></trkpt><trkpt lat="45.5974453" lon="10.7451859"><ele>246.0</ele><time>2026-04-26T07:48:39.678Z</time></trkpt><trkpt lat="45.5974276" lon="10.7453409"><ele>245.0</ele><time>2026-04-26T07:48:40.678Z</time></trkpt><trkpt lat="45.5973897" lon="10.745509"><ele>244.0</ele><time>2026-04-26T07:48:41.683Z</time></trkpt><trkpt lat="45.5973403" lon="10.7456796"><ele>243.0</ele><time>2026-04-26T07:48:42.687Z</time></trkpt><trkpt lat="45.5973" lon="10.7458566"><ele>242.0</ele><time>2026-04-26T07:48:43.685Z</time></trkpt><trkpt lat="45.5972677" lon="10.7460406"><ele>242.2</ele><time>2026-04-26T07:48:44.686Z</time></trkpt><trkpt lat="45.5972481" lon="10.7462145"><ele>242.39999999999998</ele><time>2026-04-26T07:48:45.676Z</time></trkpt><trkpt lat="45.5972388" lon="10.7463717"><ele>242.60000000000002</ele><time>2026-04-26T07:48:46.687Z</time></trkpt><trkpt lat="45.5972417" lon="10.7465"><ele>242.8</ele><time>2026-04-26T07:48:47.678Z</time></trkpt><trkpt lat="45.5972524" lon="10.7466296"><ele>243.0</ele><time>2026-04-26T07:48:51.681Z</time></trkpt><trkpt lat="45.5972224" lon="10.746713"><ele>243.0</ele><time>2026-04-26T07:48:52.68Z</time></trkpt><trkpt lat="45.5972045" lon="10.7468309"><ele>243.0</ele><time>2026-04-26T07:48:53.678Z</time></trkpt><trkpt lat="45.5971891" lon="10.7469672"><ele>243.0</ele><time>2026-04-26T07:48:54.687Z</time></trkpt><trkpt lat="45.5971761" lon="10.7471122"><ele>243.0</ele><time>2026-04-26T07:48:55.693Z</time></trkpt><trkpt lat="45.5971637" lon="10.7472435"><ele>243.0</ele><time>2026-04-26T07:48:56.68Z</time></trkpt><trkpt lat="45.5971522" lon="10.7473757"><ele>243.0</ele><time>2026-04-26T07:48:57.68Z</time></trkpt><trkpt lat="45.5971465" lon="10.7475034"><ele>243.0</ele><time>2026-04-26T07:48:58.693Z</time></trkpt><trkpt lat="45.5971398" lon="10.7476256"><ele>243.0</ele><time>2026-04-26T07:48:59.679Z</time></trkpt><trkpt lat="45.5971355" lon="10.7477378"><ele>243.0</ele><time>2026-04-26T07:49:00.678Z</time></trkpt><trkpt lat="45.5971237" lon="10.747853"><ele>243.0</ele><time>2026-04-26T07:49:01.68Z</time></trkpt><trkpt lat="45.5971118" lon="10.7479573"><ele>243.0</ele><time>2026-04-26T07:49:02.68Z</time></trkpt><trkpt lat="45.5970995" lon="10.7480701"><ele>243.0</ele><time>2026-04-26T07:49:03.683Z</time></trkpt><trkpt lat="45.5970912" lon="10.7481828"><ele>243.0</ele><time>2026-04-26T07:49:04.683Z</time></trkpt><trkpt lat="45.5970822" lon="10.748294"><ele>243.0</ele><time>2026-04-26T07:49:05.683Z</time></trkpt><trkpt lat="45.5970698" lon="10.7484058"><ele>243.0</ele><time>2026-04-26T07:49:06.68Z</time></trkpt><trkpt lat="45.5970577" lon="10.7485394"><ele>243.0</ele><time>2026-04-26T07:49:07.681Z</time></trkpt><trkpt lat="45.5970314" lon="10.7486834"><ele>243.0</ele><time>2026-04-26T07:49:08.689Z</time></trkpt><trkpt lat="45.5969742" lon="10.7488375"><ele>241.75</ele><time>2026-04-26T07:49:09.681Z</time></trkpt><trkpt lat="45.5968997" lon="10.749001"><ele>240.5</ele><time>2026-04-26T07:49:10.686Z</time></trkpt><trkpt lat="45.5968382" lon="10.7491842"><ele>239.25</ele><time>2026-04-26T07:49:11.686Z</time></trkpt><trkpt lat="45.5967888" lon="10.7493777"><ele>238.0</ele><time>2026-04-26T07:49:12.68Z</time></trkpt><trkpt lat="45.5967404" lon="10.7495867"><ele>238.0</ele><time>2026-04-26T07:49:13.681Z</time></trkpt><trkpt lat="45.5966929" lon="10.749803"><ele>238.0</ele><time>2026-04-26T07:49:14.685Z</time></trkpt><trkpt lat="45.596623" lon="10.7500077"><ele>238.0</ele><time>2026-04-26T07:49:15.681Z</time></trkpt><trkpt lat="45.596547" lon="10.7501902"><ele>238.2</ele><time>2026-04-26T07:49:16.681Z</time></trkpt><trkpt lat="45.5964745" lon="10.7503625"><ele>238.4</ele><time>2026-04-26T07:49:17.682Z</time></trkpt><trkpt lat="45.5964169" lon="10.7505056"><ele>238.59999999999997</ele><time>2026-04-26T07:49:18.688Z</time></trkpt><trkpt lat="45.5963729" lon="10.7506183"><ele>238.79999999999998</ele><time>2026-04-26T07:49:19.688Z</time></trkpt><trkpt lat="45.5963446" lon="10.7507176"><ele>239.0</ele><time>2026-04-26T07:49:20.686Z</time></trkpt><trkpt lat="45.5963316" lon="10.7508248"><ele>239.0</ele><time>2026-04-26T07:49:22.685Z</time></trkpt><trkpt lat="45.5963101" lon="10.750992"><ele>238.99999999999997</ele><time>2026-04-26T07:49:24.682Z</time></trkpt><trkpt lat="45.5962955" lon="10.7511081"><ele>238.99999999999997</ele><time>2026-04-26T07:49:25.681Z</time></trkpt><trkpt lat="45.5962766" lon="10.7512337"><ele>239.0</ele><time>2026-04-26T07:49:26.7Z</time></trkpt><trkpt lat="45.5962558" lon="10.7513566"><ele>239.0</ele><time>2026-04-26T07:49:27.685Z</time></trkpt><trkpt lat="45.5962422" lon="10.7514656"><ele>238.6</ele><time>2026-04-26T07:49:28.686Z</time></trkpt><trkpt lat="45.5962138" lon="10.7516168"><ele>238.2</ele><time>2026-04-26T07:49:30.69Z</time></trkpt><trkpt lat="45.5961368" lon="10.7517815"><ele>237.79999999999998</ele><time>2026-04-26T07:49:32.684Z</time></trkpt><trkpt lat="45.5960947" lon="10.7518788"><ele>237.39999999999998</ele><time>2026-04-26T07:49:33.682Z</time></trkpt><trkpt lat="45.5960587" lon="10.7519885"><ele>237.0</ele><time>2026-04-26T07:49:34.682Z</time></trkpt><trkpt lat="45.5960175" lon="10.7520958"><ele>236.16666666666666</ele><time>2026-04-26T07:49:35.685Z</time></trkpt><trkpt lat="45.5959703" lon="10.7522037"><ele>235.33333333333331</ele><time>2026-04-26T07:49:36.683Z</time></trkpt><trkpt lat="45.5959078" lon="10.7522877"><ele>234.5</ele><time>2026-04-26T07:49:37.693Z</time></trkpt><trkpt lat="45.5958441" lon="10.7523721"><ele>233.66666666666666</ele><time>2026-04-26T07:49:38.687Z</time></trkpt><trkpt lat="45.5957797" lon="10.7524571"><ele>232.83333333333331</ele><time>2026-04-26T07:49:39.684Z</time></trkpt><trkpt lat="45.5957128" lon="10.7525427"><ele>232.0</ele><time>2026-04-26T07:49:40.684Z</time></trkpt><trkpt lat="45.5956553" lon="10.7526245"><ele>232.33333333333331</ele><time>2026-04-26T07:49:41.686Z</time></trkpt><trkpt lat="45.5955879" lon="10.7527182"><ele>232.66666666666666</ele><time>2026-04-26T07:49:43.671Z</time></trkpt><trkpt lat="45.5956" lon="10.7528091"><ele>233.0</ele><time>2026-04-26T07:49:49.691Z</time></trkpt><trkpt lat="45.5956604" lon="10.7528415"><ele>233.33333333333331</ele><time>2026-04-26T07:49:50.68Z</time></trkpt><trkpt lat="45.5957383" lon="10.7528737"><ele>233.66666666666666</ele><time>2026-04-26T07:49:51.687Z</time></trkpt><trkpt lat="45.5958038" lon="10.7529049"><ele>234.0</ele><time>2026-04-26T07:49:52.678Z</time></trkpt><trkpt lat="45.5958672" lon="10.7529655"><ele>234.0</ele><time>2026-04-26T07:49:54.681Z</time></trkpt><trkpt lat="45.5958565" lon="10.753059"><ele>233.99999999999997</ele><time>2026-04-26T07:49:56.691Z</time></trkpt><trkpt lat="45.5957315" lon="10.7531393"><ele>233.99999999999997</ele><time>2026-04-26T07:49:58.682Z</time></trkpt><trkpt lat="45.5956359" lon="10.753175"><ele>234.0</ele><time>2026-04-26T07:49:59.674Z</time></trkpt><trkpt lat="45.5955313" lon="10.753216"><ele>234.0</ele><time>2026-04-26T07:50:00.684Z</time></trkpt><trkpt lat="45.5954279" lon="10.7532531"><ele>232.25</ele><time>2026-04-26T07:50:01.676Z</time></trkpt><trkpt lat="45.5953212" lon="10.7532977"><ele>230.5</ele><time>2026-04-26T07:50:02.678Z</time></trkpt><trkpt lat="45.5952152" lon="10.7533552"><ele>228.75</ele><time>2026-04-26T07:50:03.679Z</time></trkpt><trkpt lat="45.5951155" lon="10.7534322"><ele>227.0</ele><time>2026-04-26T07:50:04.681Z</time></trkpt><trkpt lat="45.5950175" lon="10.7535119"><ele>227.0</ele><time>2026-04-26T07:50:05.679Z</time></trkpt><trkpt lat="45.5949208" lon="10.7535948"><ele>227.0</ele><time>2026-04-26T07:50:06.676Z</time></trkpt><trkpt lat="45.5948285" lon="10.7536738"><ele>227.0</ele><time>2026-04-26T07:50:07.684Z</time></trkpt><trkpt lat="45.5947385" lon="10.7537425"><ele>227.0</ele><time>2026-04-26T07:50:08.678Z</time></trkpt><trkpt lat="45.5946604" lon="10.7538075"><ele>227.0</ele><time>2026-04-26T07:50:09.679Z</time></trkpt><trkpt lat="45.5945927" lon="10.7538566"><ele>227.00000000000003</ele><time>2026-04-26T07:50:10.679Z</time></trkpt><trkpt lat="45.5944848" lon="10.7539202"><ele>227.0</ele><time>2026-04-26T07:50:12.684Z</time></trkpt><trkpt lat="45.5943968" lon="10.7539867"><ele>227.0</ele><time>2026-04-26T07:50:14.679Z</time></trkpt><trkpt lat="45.5943433" lon="10.7540406"><ele>227.0</ele><time>2026-04-26T07:50:18.685Z</time></trkpt><trkpt lat="45.5944106" lon="10.7540155"><ele>227.00000000000003</ele><time>2026-04-26T07:50:23.681Z</time></trkpt><trkpt lat="45.5944629" lon="10.7539645"><ele>227.0</ele><time>2026-04-26T07:50:24.681Z</time></trkpt><trkpt lat="45.5945337" lon="10.7539054"><ele>227.0</ele><time>2026-04-26T07:50:25.678Z</time></trkpt><trkpt lat="45.594621" lon="10.7538246"><ele>227.0</ele><time>2026-04-26T07:50:26.683Z</time></trkpt><trkpt lat="45.5947119" lon="10.7537343"><ele>227.0</ele><time>2026-04-26T07:50:27.684Z</time></trkpt><trkpt lat="45.5948016" lon="10.7536554"><ele>227.0</ele><time>2026-04-26T07:50:28.676Z</time></trkpt><trkpt lat="45.5949608" lon="10.7535466"><ele>227.00000000000003</ele><time>2026-04-26T07:50:30.682Z</time></trkpt><trkpt lat="45.5950341" lon="10.753487"><ele>227.0</ele><time>2026-04-26T07:50:31.689Z</time></trkpt><trkpt lat="45.5951078" lon="10.7534209"><ele>227.0</ele><time>2026-04-26T07:50:32.681Z</time></trkpt><trkpt lat="45.5951793" lon="10.7533545"><ele>227.0</ele><time>2026-04-26T07:50:33.681Z</time></trkpt><trkpt lat="45.5952418" lon="10.753301"><ele>227.00000000000003</ele><time>2026-04-26T07:50:34.682Z</time></trkpt><trkpt lat="45.5953353" lon="10.7532684"><ele>227.0</ele><time>2026-04-26T07:50:36.683Z</time></trkpt><trkpt lat="45.5953387" lon="10.7534187"><ele>227.0</ele><time>2026-04-26T07:50:39.678Z</time></trkpt><trkpt lat="45.5952986" lon="10.7535884"><ele>227.0</ele><time>2026-04-26T07:50:41.679Z</time></trkpt><trkpt lat="45.5952603" lon="10.7537501"><ele>227.0</ele><time>2026-04-26T07:50:43.684Z</time></trkpt><trkpt lat="45.5952244" lon="10.7539138"><ele>227.0</ele><time>2026-04-26T07:50:45.685Z</time></trkpt><trkpt lat="45.5951929" lon="10.7540726"><ele>227.00000000000003</ele><time>2026-04-26T07:50:47.685Z</time></trkpt><trkpt lat="45.5951588" lon="10.7542039"><ele>227.0</ele><time>2026-04-26T07:50:49.687Z</time></trkpt><trkpt lat="45.59513" lon="10.7543049"><ele>227.0</ele><time>2026-04-26T07:50:51.685Z</time></trkpt><trkpt lat="45.5950857" lon="10.7544081"><ele>227.0</ele><time>2026-04-26T07:50:54.675Z</time></trkpt><trkpt lat="45.5950576" lon="10.7544967"><ele>227.00000000000003</ele><time>2026-04-26T07:50:58.694Z</time></trkpt><trkpt lat="45.5950411" lon="10.7545887"><ele>227.0</ele><time>2026-04-26T07:51:03.679Z</time></trkpt><trkpt lat="45.5950473" lon="10.7547396"><ele>226.83333333333334</ele><time>2026-04-26T07:51:06.687Z</time></trkpt><trkpt lat="45.5950274" lon="10.7548948"><ele>226.66666666666669</ele><time>2026-04-26T07:51:08.684Z</time></trkpt><trkpt lat="45.5950001" lon="10.7549865"><ele>226.5</ele><time>2026-04-26T07:51:09.682Z</time></trkpt><trkpt lat="45.5949624" lon="10.7550921"><ele>226.33333333333331</ele><time>2026-04-26T07:51:10.688Z</time></trkpt><trkpt lat="45.594911" lon="10.7551993"><ele>226.16666666666666</ele><time>2026-04-26T07:51:11.685Z</time></trkpt><trkpt lat="45.5948605" lon="10.7553126"><ele>226.0</ele><time>2026-04-26T07:51:12.681Z</time></trkpt><trkpt lat="45.5948121" lon="10.7554195"><ele>225.8</ele><time>2026-04-26T07:51:13.685Z</time></trkpt><trkpt lat="45.5947643" lon="10.7555271"><ele>225.60000000000002</ele><time>2026-04-26T07:51:14.686Z</time></trkpt><trkpt lat="45.5947115" lon="10.7556418"><ele>225.4</ele><time>2026-04-26T07:51:15.685Z</time></trkpt><trkpt lat="45.5946606" lon="10.7557666"><ele>225.2</ele><time>2026-04-26T07:51:16.688Z</time></trkpt><trkpt lat="45.59461" lon="10.7558936"><ele>225.0</ele><time>2026-04-26T07:51:17.678Z</time></trkpt><trkpt lat="45.594567" lon="10.7560221"><ele>224.8</ele><time>2026-04-26T07:51:18.683Z</time></trkpt><trkpt lat="45.594531" lon="10.7561572"><ele>224.6</ele><time>2026-04-26T07:51:19.688Z</time></trkpt><trkpt lat="45.5944872" lon="10.7562977"><ele>224.39999999999998</ele><time>2026-04-26T07:51:20.681Z</time></trkpt><trkpt lat="45.594444" lon="10.7564489"><ele>224.2</ele><time>2026-04-26T07:51:21.686Z</time></trkpt><trkpt lat="45.5944042" lon="10.7566042"><ele>224.0</ele><time>2026-04-26T07:51:22.682Z</time></trkpt><trkpt lat="45.5943697" lon="10.7567688"><ele>222.5</ele><time>2026-04-26T07:51:23.688Z</time></trkpt><trkpt lat="45.5943305" lon="10.7569262"><ele>221.0</ele><time>2026-04-26T07:51:24.686Z</time></trkpt><trkpt lat="45.5942869" lon="10.7570798"><ele>219.5</ele><time>2026-04-26T07:51:25.686Z</time></trkpt><trkpt lat="45.5942452" lon="10.7572318"><ele>218.0</ele><time>2026-04-26T07:51:26.682Z</time></trkpt><trkpt lat="45.5942052" lon="10.7573695"><ele>218.0</ele><time>2026-04-26T07:51:27.687Z</time></trkpt><trkpt lat="45.5941692" lon="10.7574926"><ele>218.0</ele><time>2026-04-26T07:51:28.688Z</time></trkpt><trkpt lat="45.594137" lon="10.7576112"><ele>218.0</ele><time>2026-04-26T07:51:29.694Z</time></trkpt><trkpt lat="45.5941028" lon="10.7577309"><ele>218.0</ele><time>2026-04-26T07:51:30.687Z</time></trkpt><trkpt lat="45.5940687" lon="10.7578496"><ele>218.0</ele><time>2026-04-26T07:51:31.686Z</time></trkpt><trkpt lat="45.5940369" lon="10.7579735"><ele>218.33333333333334</ele><time>2026-04-26T07:51:32.697Z</time></trkpt><trkpt lat="45.5940064" lon="10.7580947"><ele>218.66666666666669</ele><time>2026-04-26T07:51:33.683Z</time></trkpt><trkpt lat="45.5939812" lon="10.7582152"><ele>219.0</ele><time>2026-04-26T07:51:34.683Z</time></trkpt><trkpt lat="45.5939555" lon="10.7583248"><ele>219.33333333333331</ele><time>2026-04-26T07:51:35.684Z</time></trkpt><trkpt lat="45.5939242" lon="10.7584183"><ele>219.66666666666666</ele><time>2026-04-26T07:51:36.681Z</time></trkpt><trkpt lat="45.59389" lon="10.7585047"><ele>220.0</ele><time>2026-04-26T07:51:37.685Z</time></trkpt><trkpt lat="45.5938535" lon="10.7585938"><ele>220.4</ele><time>2026-04-26T07:51:38.684Z</time></trkpt><trkpt lat="45.5938277" lon="10.7587004"><ele>220.8</ele><time>2026-04-26T07:51:39.674Z</time></trkpt><trkpt lat="45.593805" lon="10.7588171"><ele>221.2</ele><time>2026-04-26T07:51:40.685Z</time></trkpt><trkpt lat="45.5937794" lon="10.7589455"><ele>221.6</ele><time>2026-04-26T07:51:41.677Z</time></trkpt><trkpt lat="45.5937574" lon="10.7591078"><ele>222.0</ele><time>2026-04-26T07:51:42.678Z</time></trkpt><trkpt lat="45.5937489" lon="10.7592869"><ele>221.0</ele><time>2026-04-26T07:51:43.682Z</time></trkpt><trkpt lat="45.5937377" lon="10.7594739"><ele>220.0</ele><time>2026-04-26T07:51:44.684Z</time></trkpt><trkpt lat="45.5937254" lon="10.759671"><ele>219.0</ele><time>2026-04-26T07:51:45.683Z</time></trkpt><trkpt lat="45.5937156" lon="10.7598783"><ele>218.0</ele><time>2026-04-26T07:51:46.686Z</time></trkpt><trkpt lat="45.5937112" lon="10.7600904"><ele>217.5</ele><time>2026-04-26T07:51:47.687Z</time></trkpt><trkpt lat="45.5937164" lon="10.7602951"><ele>217.0</ele><time>2026-04-26T07:51:48.688Z</time></trkpt><trkpt lat="45.5937238" lon="10.760472"><ele>216.5</ele><time>2026-04-26T07:51:49.692Z</time></trkpt><trkpt lat="45.5937234" lon="10.7606396"><ele>216.0</ele><time>2026-04-26T07:51:50.687Z</time></trkpt><trkpt lat="45.5937246" lon="10.7608158"><ele>216.0</ele><time>2026-04-26T07:51:51.691Z</time></trkpt><trkpt lat="45.5937153" lon="10.7609946"><ele>216.00000000000003</ele><time>2026-04-26T07:51:52.691Z</time></trkpt><trkpt lat="45.5937154" lon="10.7611517"><ele>216.00000000000003</ele><time>2026-04-26T07:51:53.684Z</time></trkpt><trkpt lat="45.5937076" lon="10.7613036"><ele>216.0</ele><time>2026-04-26T07:51:54.685Z</time></trkpt><trkpt lat="45.5937036" lon="10.7614338"><ele>216.0</ele><time>2026-04-26T07:51:55.682Z</time></trkpt><trkpt lat="45.5937013" lon="10.7615565"><ele>216.0</ele><time>2026-04-26T07:51:56.687Z</time></trkpt><trkpt lat="45.5936957" lon="10.7616729"><ele>216.0</ele><time>2026-04-26T07:51:57.687Z</time></trkpt><trkpt lat="45.5936912" lon="10.7617813"><ele>216.0</ele><time>2026-04-26T07:51:58.688Z</time></trkpt><trkpt lat="45.5936849" lon="10.7618913"><ele>216.0</ele><time>2026-04-26T07:51:59.687Z</time></trkpt><trkpt lat="45.5936765" lon="10.7619959"><ele>216.0</ele><time>2026-04-26T07:52:00.695Z</time></trkpt><trkpt lat="45.5936647" lon="10.7620912"><ele>216.0</ele><time>2026-04-26T07:52:01.687Z</time></trkpt><trkpt lat="45.5936526" lon="10.7621802"><ele>216.0</ele><time>2026-04-26T07:52:02.688Z</time></trkpt><trkpt lat="45.5936244" lon="10.7623612"><ele>216.0</ele><time>2026-04-26T07:52:04.685Z</time></trkpt><trkpt lat="45.5936057" lon="10.762478"><ele>216.0</ele><time>2026-04-26T07:52:05.684Z</time></trkpt><trkpt lat="45.5935879" lon="10.7625971"><ele>216.0</ele><time>2026-04-26T07:52:06.683Z</time></trkpt><trkpt lat="45.5935679" lon="10.762711"><ele>216.0</ele><time>2026-04-26T07:52:07.685Z</time></trkpt><trkpt lat="45.5935414" lon="10.7628195"><ele>216.0</ele><time>2026-04-26T07:52:08.684Z</time></trkpt><trkpt lat="45.5935063" lon="10.7629277"><ele>216.0</ele><time>2026-04-26T07:52:09.685Z</time></trkpt><trkpt lat="45.5934735" lon="10.7630375"><ele>216.0</ele><time>2026-04-26T07:52:10.693Z</time></trkpt><trkpt lat="45.5934421" lon="10.7631408"><ele>216.0</ele><time>2026-04-26T07:52:11.687Z</time></trkpt><trkpt lat="45.5934145" lon="10.7632359"><ele>216.0</ele><time>2026-04-26T07:52:12.682Z</time></trkpt><trkpt lat="45.5933864" lon="10.7633266"><ele>216.0</ele><time>2026-04-26T07:52:13.685Z</time></trkpt><trkpt lat="45.5933315" lon="10.763443"><ele>216.0</ele><time>2026-04-26T07:52:15.684Z</time></trkpt><trkpt lat="45.5932884" lon="10.7635198"><ele>216.0</ele><time>2026-04-26T07:52:18.695Z</time></trkpt><trkpt lat="45.5932385" lon="10.7636409"><ele>216.0</ele><time>2026-04-26T07:52:21.682Z</time></trkpt><trkpt lat="45.593203" lon="10.7637459"><ele>216.0</ele><time>2026-04-26T07:52:23.685Z</time></trkpt><trkpt lat="45.5931428" lon="10.7638619"><ele>216.0</ele><time>2026-04-26T07:52:26.685Z</time></trkpt><trkpt lat="45.5930688" lon="10.7639447"><ele>216.0</ele><time>2026-04-26T07:52:28.692Z</time></trkpt><trkpt lat="45.5930066" lon="10.7640239"><ele>216.0</ele><time>2026-04-26T07:52:30.686Z</time></trkpt><trkpt lat="45.5929503" lon="10.7640897"><ele>216.0</ele><time>2026-04-26T07:52:32.689Z</time></trkpt><trkpt lat="45.5928831" lon="10.7641623"><ele>216.0</ele><time>2026-04-26T07:52:34.69Z</time></trkpt><trkpt lat="45.5928243" lon="10.7642452"><ele>216.0</ele><time>2026-04-26T07:52:36.682Z</time></trkpt><trkpt lat="45.5927641" lon="10.7643352"><ele>216.0</ele><time>2026-04-26T07:52:38.682Z</time></trkpt><trkpt lat="45.5927082" lon="10.7644339"><ele>216.0</ele><time>2026-04-26T07:52:40.682Z</time></trkpt><trkpt lat="45.5926524" lon="10.76453"><ele>216.0</ele><time>2026-04-26T07:52:42.688Z</time></trkpt><trkpt lat="45.5926033" lon="10.7646206"><ele>216.0</ele><time>2026-04-26T07:52:44.687Z</time></trkpt><trkpt lat="45.5925954" lon="10.7647371"><ele>216.0</ele><time>2026-04-26T07:52:46.681Z</time></trkpt><trkpt lat="45.5926083" lon="10.7648707"><ele>216.00000000000003</ele><time>2026-04-26T07:52:48.688Z</time></trkpt><trkpt lat="45.5925706" lon="10.7650236"><ele>216.00000000000003</ele><time>2026-04-26T07:52:50.694Z</time></trkpt><trkpt lat="45.592527" lon="10.765115"><ele>216.0</ele><time>2026-04-26T07:52:51.69Z</time></trkpt><trkpt lat="45.5924654" lon="10.7652243"><ele>216.0</ele><time>2026-04-26T07:52:52.69Z</time></trkpt><trkpt lat="45.5924022" lon="10.765329"><ele>216.0</ele><time>2026-04-26T07:52:53.677Z</time></trkpt><trkpt lat="45.5923403" lon="10.7654288"><ele>216.00000000000003</ele><time>2026-04-26T07:52:54.686Z</time></trkpt><trkpt lat="45.5922739" lon="10.7655277"><ele>216.00000000000003</ele><time>2026-04-26T07:52:55.684Z</time></trkpt><trkpt lat="45.5922088" lon="10.7656255"><ele>216.0</ele><time>2026-04-26T07:52:56.684Z</time></trkpt><trkpt lat="45.5921462" lon="10.7657252"><ele>216.0</ele><time>2026-04-26T07:52:57.689Z</time></trkpt><trkpt lat="45.5920861" lon="10.7658271"><ele>216.0</ele><time>2026-04-26T07:52:58.689Z</time></trkpt><trkpt lat="45.5920266" lon="10.7659354"><ele>216.00000000000003</ele><time>2026-04-26T07:52:59.684Z</time></trkpt><trkpt lat="45.591965" lon="10.7660481"><ele>216.00000000000003</ele><time>2026-04-26T07:53:00.688Z</time></trkpt><trkpt lat="45.5919091" lon="10.7661746"><ele>216.0</ele><time>2026-04-26T07:53:01.686Z</time></trkpt><trkpt lat="45.5918607" lon="10.7663029"><ele>216.0</ele><time>2026-04-26T07:53:02.695Z</time></trkpt><trkpt lat="45.591818" lon="10.7664271"><ele>216.0</ele><time>2026-04-26T07:53:03.692Z</time></trkpt><trkpt lat="45.5917751" lon="10.7665515"><ele>216.00000000000003</ele><time>2026-04-26T07:53:04.686Z</time></trkpt><trkpt lat="45.5917345" lon="10.7666754"><ele>216.00000000000003</ele><time>2026-04-26T07:53:05.69Z</time></trkpt><trkpt lat="45.5916936" lon="10.766788"><ele>216.0</ele><time>2026-04-26T07:53:06.686Z</time></trkpt><trkpt lat="45.5916488" lon="10.766899"><ele>216.0</ele><time>2026-04-26T07:53:07.689Z</time></trkpt><trkpt lat="45.5916037" lon="10.7670063"><ele>216.4</ele><time>2026-04-26T07:53:08.683Z</time></trkpt><trkpt lat="45.5915646" lon="10.7671266"><ele>216.8</ele><time>2026-04-26T07:53:09.679Z</time></trkpt><trkpt lat="45.5915317" lon="10.7672564"><ele>217.20000000000002</ele><time>2026-04-26T07:53:10.686Z</time></trkpt><trkpt lat="45.5915121" lon="10.7673902"><ele>217.60000000000002</ele><time>2026-04-26T07:53:11.687Z</time></trkpt><trkpt lat="45.5915021" lon="10.7675336"><ele>218.0</ele><time>2026-04-26T07:53:12.686Z</time></trkpt><trkpt lat="45.5915012" lon="10.7676791"><ele>217.8</ele><time>2026-04-26T07:53:13.687Z</time></trkpt><trkpt lat="45.5915068" lon="10.7678233"><ele>217.60000000000002</ele><time>2026-04-26T07:53:14.695Z</time></trkpt><trkpt lat="45.5915213" lon="10.767975"><ele>217.39999999999998</ele><time>2026-04-26T07:53:15.697Z</time></trkpt><trkpt lat="45.5915398" lon="10.7681178"><ele>217.2</ele><time>2026-04-26T07:53:16.689Z</time></trkpt><trkpt lat="45.5915517" lon="10.7682515"><ele>217.0</ele><time>2026-04-26T07:53:17.689Z</time></trkpt><trkpt lat="45.5915714" lon="10.7683738"><ele>217.0</ele><time>2026-04-26T07:53:18.689Z</time></trkpt><trkpt lat="45.5915974" lon="10.7684804"><ele>217.0</ele><time>2026-04-26T07:53:19.694Z</time></trkpt><trkpt lat="45.5916337" lon="10.7685837"><ele>217.0</ele><time>2026-04-26T07:53:20.684Z</time></trkpt><trkpt lat="45.5916744" lon="10.7687034"><ele>217.0</ele><time>2026-04-26T07:53:21.687Z</time></trkpt><trkpt lat="45.5917166" lon="10.7688362"><ele>217.0</ele><time>2026-04-26T07:53:22.685Z</time></trkpt><trkpt lat="45.5917586" lon="10.7689776"><ele>217.0</ele><time>2026-04-26T07:53:23.687Z</time></trkpt><trkpt lat="45.5917984" lon="10.7691153"><ele>217.0</ele><time>2026-04-26T07:53:24.683Z</time></trkpt><trkpt lat="45.5918417" lon="10.7692443"><ele>217.0</ele><time>2026-04-26T07:53:25.687Z</time></trkpt><trkpt lat="45.5918946" lon="10.7693598"><ele>217.0</ele><time>2026-04-26T07:53:26.684Z</time></trkpt><trkpt lat="45.5919602" lon="10.769485"><ele>217.0</ele><time>2026-04-26T07:53:27.688Z</time></trkpt><trkpt lat="45.5920326" lon="10.7696197"><ele>217.5</ele><time>2026-04-26T07:53:28.69Z</time></trkpt><trkpt lat="45.5921125" lon="10.7697632"><ele>218.0</ele><time>2026-04-26T07:53:29.689Z</time></trkpt><trkpt lat="45.592186" lon="10.7698911"><ele>218.5</ele><time>2026-04-26T07:53:30.69Z</time></trkpt><trkpt lat="45.5922563" lon="10.770022"><ele>219.0</ele><time>2026-04-26T07:53:31.692Z</time></trkpt><trkpt lat="45.5923242" lon="10.7701433"><ele>219.0</ele><time>2026-04-26T07:53:32.69Z</time></trkpt><trkpt lat="45.5923875" lon="10.7702609"><ele>219.0</ele><time>2026-04-26T07:53:33.698Z</time></trkpt><trkpt lat="45.5924457" lon="10.7703688"><ele>219.0</ele><time>2026-04-26T07:53:34.691Z</time></trkpt><trkpt lat="45.5925009" lon="10.7704641"><ele>219.0</ele><time>2026-04-26T07:53:35.677Z</time></trkpt><trkpt lat="45.5925514" lon="10.7705549"><ele>219.0</ele><time>2026-04-26T07:53:36.694Z</time></trkpt><trkpt lat="45.5926065" lon="10.7706389"><ele>219.0</ele><time>2026-04-26T07:53:37.679Z</time></trkpt><trkpt lat="45.5926697" lon="10.7707087"><ele>219.0</ele><time>2026-04-26T07:53:38.69Z</time></trkpt><trkpt lat="45.5927484" lon="10.7707896"><ele>218.99999999999997</ele><time>2026-04-26T07:53:39.681Z</time></trkpt><trkpt lat="45.5928334" lon="10.7708923"><ele>218.99999999999997</ele><time>2026-04-26T07:53:40.682Z</time></trkpt><trkpt lat="45.5929101" lon="10.7710037"><ele>219.0</ele><time>2026-04-26T07:53:41.683Z</time></trkpt><trkpt lat="45.5929888" lon="10.771109"><ele>219.0</ele><time>2026-04-26T07:53:42.685Z</time></trkpt><trkpt lat="45.5930607" lon="10.7712037"><ele>219.2</ele><time>2026-04-26T07:53:43.686Z</time></trkpt><trkpt lat="45.5931412" lon="10.7712896"><ele>219.39999999999998</ele><time>2026-04-26T07:53:44.683Z</time></trkpt><trkpt lat="45.5932324" lon="10.771375"><ele>219.6</ele><time>2026-04-26T07:53:45.687Z</time></trkpt><trkpt lat="45.5933229" lon="10.7714623"><ele>219.8</ele><time>2026-04-26T07:53:46.688Z</time></trkpt><trkpt lat="45.5934053" lon="10.7715607"><ele>220.0</ele><time>2026-04-26T07:53:47.689Z</time></trkpt><trkpt lat="45.593489" lon="10.7716704"><ele>220.0</ele><time>2026-04-26T07:53:48.689Z</time></trkpt><trkpt lat="45.5935723" lon="10.7717755"><ele>220.0</ele><time>2026-04-26T07:53:49.691Z</time></trkpt><trkpt lat="45.5936508" lon="10.7718863"><ele>220.0</ele><time>2026-04-26T07:53:50.688Z</time></trkpt><trkpt lat="45.5937205" lon="10.7719972"><ele>220.0</ele><time>2026-04-26T07:53:51.692Z</time></trkpt><trkpt lat="45.5937903" lon="10.7720972"><ele>220.0</ele><time>2026-04-26T07:53:52.681Z</time></trkpt><trkpt lat="45.593868" lon="10.7721821"><ele>220.2</ele><time>2026-04-26T07:53:53.684Z</time></trkpt><trkpt lat="45.5939648" lon="10.7722612"><ele>220.4</ele><time>2026-04-26T07:53:54.691Z</time></trkpt><trkpt lat="45.5940589" lon="10.772331"><ele>220.60000000000002</ele><time>2026-04-26T07:53:55.685Z</time></trkpt><trkpt lat="45.5941466" lon="10.7724056"><ele>220.8</ele><time>2026-04-26T07:53:56.694Z</time></trkpt><trkpt lat="45.5942314" lon="10.7724747"><ele>221.0</ele><time>2026-04-26T07:53:57.688Z</time></trkpt><trkpt lat="45.5943123" lon="10.7725358"><ele>221.00000000000003</ele><time>2026-04-26T07:53:58.695Z</time></trkpt><trkpt lat="45.5943964" lon="10.7725897"><ele>221.0</ele><time>2026-04-26T07:53:59.688Z</time></trkpt><trkpt lat="45.5944738" lon="10.7726379"><ele>221.0</ele><time>2026-04-26T07:54:00.681Z</time></trkpt><trkpt lat="45.5945479" lon="10.7726832"><ele>221.0</ele><time>2026-04-26T07:54:01.683Z</time></trkpt><trkpt lat="45.5946174" lon="10.7727162"><ele>221.00000000000003</ele><time>2026-04-26T07:54:02.686Z</time></trkpt><trkpt lat="45.5946822" lon="10.7727608"><ele>221.0</ele><time>2026-04-26T07:54:03.683Z</time></trkpt><trkpt lat="45.5947492" lon="10.7728275"><ele>221.4</ele><time>2026-04-26T07:54:04.691Z</time></trkpt><trkpt lat="45.594823" lon="10.7729045"><ele>221.8</ele><time>2026-04-26T07:54:05.688Z</time></trkpt><trkpt lat="45.5949053" lon="10.7729884"><ele>222.20000000000002</ele><time>2026-04-26T07:54:06.686Z</time></trkpt><trkpt lat="45.5950049" lon="10.7730717"><ele>222.60000000000002</ele><time>2026-04-26T07:54:07.691Z</time></trkpt><trkpt lat="45.5951126" lon="10.7731363"><ele>223.0</ele><time>2026-04-26T07:54:08.681Z</time></trkpt><trkpt lat="45.595223" lon="10.7731875"><ele>222.75</ele><time>2026-04-26T07:54:09.684Z</time></trkpt><trkpt lat="45.5953375" lon="10.7732277"><ele>222.5</ele><time>2026-04-26T07:54:10.682Z</time></trkpt><trkpt lat="45.5954544" lon="10.7732478"><ele>222.25</ele><time>2026-04-26T07:54:11.685Z</time></trkpt><trkpt lat="45.595574" lon="10.7732565"><ele>222.0</ele><time>2026-04-26T07:54:12.687Z</time></trkpt><trkpt lat="45.5956889" lon="10.7732495"><ele>222.0</ele><time>2026-04-26T07:54:13.688Z</time></trkpt><trkpt lat="45.5957923" lon="10.7732441"><ele>222.0</ele><time>2026-04-26T07:54:14.685Z</time></trkpt><trkpt lat="45.5958919" lon="10.7732606"><ele>222.0</ele><time>2026-04-26T07:54:15.679Z</time></trkpt><trkpt lat="45.595983" lon="10.7733114"><ele>222.0</ele><time>2026-04-26T07:54:16.69Z</time></trkpt><trkpt lat="45.5960765" lon="10.7733938"><ele>222.0</ele><time>2026-04-26T07:54:17.685Z</time></trkpt><trkpt lat="45.5961761" lon="10.7735015"><ele>222.5</ele><time>2026-04-26T07:54:18.687Z</time></trkpt><trkpt lat="45.5962891" lon="10.7736195"><ele>223.0</ele><time>2026-04-26T07:54:19.694Z</time></trkpt><trkpt lat="45.5963942" lon="10.7737313"><ele>223.5</ele><time>2026-04-26T07:54:20.686Z</time></trkpt><trkpt lat="45.5964848" lon="10.7738269"><ele>224.0</ele><time>2026-04-26T07:54:21.686Z</time></trkpt><trkpt lat="45.5965587" lon="10.7739011"><ele>224.00000000000003</ele><time>2026-04-26T07:54:22.681Z</time></trkpt><trkpt lat="45.5966145" lon="10.7739578"><ele>224.0</ele><time>2026-04-26T07:54:23.688Z</time></trkpt><trkpt lat="45.5966701" lon="10.7740042"><ele>224.0</ele><time>2026-04-26T07:54:25.696Z</time></trkpt><trkpt lat="45.5966424" lon="10.7740991"><ele>224.0</ele><time>2026-04-26T07:54:28.702Z</time></trkpt><trkpt lat="45.5965837" lon="10.774151"><ele>224.00000000000003</ele><time>2026-04-26T07:54:29.699Z</time></trkpt><trkpt lat="45.5965131" lon="10.7742201"><ele>224.0</ele><time>2026-04-26T07:54:30.692Z</time></trkpt><trkpt lat="45.5964417" lon="10.7743092"><ele>224.0</ele><time>2026-04-26T07:54:31.698Z</time></trkpt><trkpt lat="45.5963695" lon="10.7743931"><ele>223.99999999999997</ele><time>2026-04-26T07:54:32.7Z</time></trkpt><trkpt lat="45.5962967" lon="10.7744872"><ele>223.99999999999997</ele><time>2026-04-26T07:54:33.689Z</time></trkpt><trkpt lat="45.5962225" lon="10.7745932"><ele>224.0</ele><time>2026-04-26T07:54:34.688Z</time></trkpt><trkpt lat="45.596155" lon="10.7747004"><ele>224.0</ele><time>2026-04-26T07:54:35.698Z</time></trkpt><trkpt lat="45.5960907" lon="10.7748089"><ele>223.79999999999998</ele><time>2026-04-26T07:54:36.694Z</time></trkpt><trkpt lat="45.5960259" lon="10.7749171"><ele>223.59999999999997</ele><time>2026-04-26T07:54:37.686Z</time></trkpt><trkpt lat="45.5959546" lon="10.775027"><ele>223.4</ele><time>2026-04-26T07:54:38.693Z</time></trkpt><trkpt lat="45.5958728" lon="10.7751339"><ele>223.2</ele><time>2026-04-26T07:54:39.689Z</time></trkpt><trkpt lat="45.5957754" lon="10.7752349"><ele>223.0</ele><time>2026-04-26T07:54:40.687Z</time></trkpt><trkpt lat="45.5956671" lon="10.7753287"><ele>223.75</ele><time>2026-04-26T07:54:41.689Z</time></trkpt><trkpt lat="45.5955548" lon="10.7754106"><ele>224.5</ele><time>2026-04-26T07:54:42.692Z</time></trkpt><trkpt lat="45.5954386" lon="10.7754906"><ele>225.25</ele><time>2026-04-26T07:54:43.699Z</time></trkpt><trkpt lat="45.5953285" lon="10.7755831"><ele>226.0</ele><time>2026-04-26T07:54:44.684Z</time></trkpt><trkpt lat="45.5952205" lon="10.7756761"><ele>226.0</ele><time>2026-04-26T07:54:45.696Z</time></trkpt><trkpt lat="45.5951128" lon="10.775777"><ele>226.0</ele><time>2026-04-26T07:54:46.691Z</time></trkpt><trkpt lat="45.5950042" lon="10.775881"><ele>226.0</ele><time>2026-04-26T07:54:47.692Z</time></trkpt><trkpt lat="45.5948971" lon="10.7759806"><ele>226.0</ele><time>2026-04-26T07:54:48.69Z</time></trkpt><trkpt lat="45.5947884" lon="10.7760889"><ele>226.25</ele><time>2026-04-26T07:54:49.69Z</time></trkpt><trkpt lat="45.5946801" lon="10.7762045"><ele>226.5</ele><time>2026-04-26T07:54:50.693Z</time></trkpt><trkpt lat="45.5945702" lon="10.7763247"><ele>226.75</ele><time>2026-04-26T07:54:51.689Z</time></trkpt><trkpt lat="45.5944631" lon="10.7764497"><ele>227.0</ele><time>2026-04-26T07:54:52.688Z</time></trkpt><trkpt lat="45.5943533" lon="10.7765794"><ele>226.5</ele><time>2026-04-26T07:54:53.691Z</time></trkpt><trkpt lat="45.5942477" lon="10.7767088"><ele>226.0</ele><time>2026-04-26T07:54:54.691Z</time></trkpt><trkpt lat="45.5941467" lon="10.7768405"><ele>225.5</ele><time>2026-04-26T07:54:55.692Z</time></trkpt><trkpt lat="45.5940372" lon="10.7769737"><ele>225.0</ele><time>2026-04-26T07:54:56.687Z</time></trkpt><trkpt lat="45.5939289" lon="10.7771074"><ele>224.75</ele><time>2026-04-26T07:54:57.686Z</time></trkpt><trkpt lat="45.5938204" lon="10.7772381"><ele>224.5</ele><time>2026-04-26T07:54:58.69Z</time></trkpt><trkpt lat="45.5937116" lon="10.7773705"><ele>224.25</ele><time>2026-04-26T07:54:59.687Z</time></trkpt><trkpt lat="45.5936121" lon="10.7775066"><ele>224.0</ele><time>2026-04-26T07:55:00.69Z</time></trkpt><trkpt lat="45.5935053" lon="10.7776296"><ele>224.0</ele><time>2026-04-26T07:55:01.69Z</time></trkpt><trkpt lat="45.5934062" lon="10.7777526"><ele>224.0</ele><time>2026-04-26T07:55:02.686Z</time></trkpt><trkpt lat="45.5933097" lon="10.7778637"><ele>224.0</ele><time>2026-04-26T07:55:03.691Z</time></trkpt><trkpt lat="45.5932129" lon="10.7779724"><ele>224.0</ele><time>2026-04-26T07:55:04.686Z</time></trkpt><trkpt lat="45.5931182" lon="10.7780789"><ele>224.0</ele><time>2026-04-26T07:55:05.686Z</time></trkpt><trkpt lat="45.5930269" lon="10.778176"><ele>223.99999999999997</ele><time>2026-04-26T07:55:06.695Z</time></trkpt><trkpt lat="45.5929386" lon="10.7782677"><ele>223.99999999999997</ele><time>2026-04-26T07:55:07.687Z</time></trkpt><trkpt lat="45.5928564" lon="10.7783635"><ele>224.0</ele><time>2026-04-26T07:55:08.686Z</time></trkpt><trkpt lat="45.5927805" lon="10.7784533"><ele>224.0</ele><time>2026-04-26T07:55:09.7Z</time></trkpt><trkpt lat="45.5927049" lon="10.7785383"><ele>224.39999999999998</ele><time>2026-04-26T07:55:10.69Z</time></trkpt><trkpt lat="45.5926353" lon="10.7786295"><ele>224.79999999999998</ele><time>2026-04-26T07:55:11.684Z</time></trkpt><trkpt lat="45.5925689" lon="10.778733"><ele>225.20000000000002</ele><time>2026-04-26T07:55:12.685Z</time></trkpt><trkpt lat="45.5925027" lon="10.778841"><ele>225.60000000000002</ele><time>2026-04-26T07:55:13.687Z</time></trkpt><trkpt lat="45.5924416" lon="10.7789483"><ele>226.0</ele><time>2026-04-26T07:55:14.685Z</time></trkpt><trkpt lat="45.5923937" lon="10.7790494"><ele>225.99999999999997</ele><time>2026-04-26T07:55:15.685Z</time></trkpt><trkpt lat="45.5923596" lon="10.7791388"><ele>226.0</ele><time>2026-04-26T07:55:16.684Z</time></trkpt><trkpt lat="45.5923392" lon="10.779236"><ele>226.0</ele><time>2026-04-26T07:55:17.69Z</time></trkpt><trkpt lat="45.592323" lon="10.7793365"><ele>226.0</ele><time>2026-04-26T07:55:18.689Z</time></trkpt><trkpt lat="45.5923072" lon="10.7794467"><ele>225.99999999999997</ele><time>2026-04-26T07:55:19.691Z</time></trkpt><trkpt lat="45.5922885" lon="10.7795638"><ele>226.0</ele><time>2026-04-26T07:55:20.688Z</time></trkpt><trkpt lat="45.5922486" lon="10.7796819"><ele>226.4</ele><time>2026-04-26T07:55:21.687Z</time></trkpt><trkpt lat="45.5921957" lon="10.7797965"><ele>226.8</ele><time>2026-04-26T07:55:22.688Z</time></trkpt><trkpt lat="45.5921333" lon="10.7799167"><ele>227.20000000000002</ele><time>2026-04-26T07:55:23.682Z</time></trkpt><trkpt lat="45.5920621" lon="10.7800427"><ele>227.60000000000002</ele><time>2026-04-26T07:55:24.686Z</time></trkpt><trkpt lat="45.5919819" lon="10.7801644"><ele>228.0</ele><time>2026-04-26T07:55:25.682Z</time></trkpt><trkpt lat="45.5918978" lon="10.7802951"><ele>229.2</ele><time>2026-04-26T07:55:26.683Z</time></trkpt><trkpt lat="45.5918148" lon="10.7804196"><ele>230.4</ele><time>2026-04-26T07:55:27.683Z</time></trkpt><trkpt lat="45.5917449" lon="10.7805394"><ele>231.59999999999997</ele><time>2026-04-26T07:55:28.683Z</time></trkpt><trkpt lat="45.5916831" lon="10.7806476"><ele>232.79999999999998</ele><time>2026-04-26T07:55:29.686Z</time></trkpt><trkpt lat="45.5916375" lon="10.7807374"><ele>234.0</ele><time>2026-04-26T07:55:30.68Z</time></trkpt><trkpt lat="45.5916035" lon="10.7808167"><ele>234.0</ele><time>2026-04-26T07:55:31.681Z</time></trkpt><trkpt lat="45.5915982" lon="10.7809468"><ele>234.0</ele><time>2026-04-26T07:55:33.683Z</time></trkpt><trkpt lat="45.5916583" lon="10.781028"><ele>234.0</ele><time>2026-04-26T07:55:35.68Z</time></trkpt><trkpt lat="45.5917111" lon="10.7810805"><ele>234.0</ele><time>2026-04-26T07:55:37.686Z</time></trkpt><trkpt lat="45.5917842" lon="10.7811329"><ele>234.0</ele><time>2026-04-26T07:55:39.692Z</time></trkpt><trkpt lat="45.5918551" lon="10.7811983"><ele>234.0</ele><time>2026-04-26T07:55:41.669Z</time></trkpt><trkpt lat="45.5919035" lon="10.7812978"><ele>234.0</ele><time>2026-04-26T07:55:48.681Z</time></trkpt><trkpt lat="45.5919486" lon="10.781379"><ele>234.00000000000003</ele><time>2026-04-26T07:55:50.677Z</time></trkpt><trkpt lat="45.5919635" lon="10.7812858"><ele>234.0</ele><time>2026-04-26T07:55:54.68Z</time></trkpt><trkpt lat="45.5918992" lon="10.7812135"><ele>234.0</ele><time>2026-04-26T07:55:57.684Z</time></trkpt><trkpt lat="45.5918451" lon="10.7811549"><ele>234.00000000000003</ele><time>2026-04-26T07:55:59.682Z</time></trkpt><trkpt lat="45.5917946" lon="10.7810773"><ele>234.0</ele><time>2026-04-26T07:56:01.678Z</time></trkpt><trkpt lat="45.5917332" lon="10.7810053"><ele>234.0</ele><time>2026-04-26T07:56:03.673Z</time></trkpt><trkpt lat="45.5916832" lon="10.7809326"><ele>235.0</ele><time>2026-04-26T07:56:05.669Z</time></trkpt><trkpt lat="45.5916211" lon="10.7810538"><ele>236.0</ele><time>2026-04-26T07:56:09.676Z</time></trkpt><trkpt lat="45.5915913" lon="10.7811413"><ele>237.0</ele><time>2026-04-26T07:56:10.691Z</time></trkpt><trkpt lat="45.5915654" lon="10.7812252"><ele>238.0</ele><time>2026-04-26T07:56:11.685Z</time></trkpt><trkpt lat="45.5915087" lon="10.7813933"><ele>239.0</ele><time>2026-04-26T07:56:13.684Z</time></trkpt><trkpt lat="45.5914806" lon="10.7814816"><ele>240.0</ele><time>2026-04-26T07:56:14.685Z</time></trkpt><trkpt lat="45.5914527" lon="10.7815675"><ele>240.0</ele><time>2026-04-26T07:56:15.683Z</time></trkpt><trkpt lat="45.5914168" lon="10.7817219"><ele>240.0</ele><time>2026-04-26T07:56:17.68Z</time></trkpt><trkpt lat="45.5914103" lon="10.7818638"><ele>240.0</ele><time>2026-04-26T07:56:19.691Z</time></trkpt><trkpt lat="45.5914074" lon="10.7820083"><ele>240.0</ele><time>2026-04-26T07:56:21.689Z</time></trkpt><trkpt lat="45.591389" lon="10.7821182"><ele>240.0</ele><time>2026-04-26T07:56:23.683Z</time></trkpt><trkpt lat="45.5913179" lon="10.7821345"><ele>240.83333333333334</ele><time>2026-04-26T07:56:25.683Z</time></trkpt><trkpt lat="45.5912014" lon="10.782073"><ele>241.66666666666669</ele><time>2026-04-26T07:56:27.672Z</time></trkpt><trkpt lat="45.5911369" lon="10.7820121"><ele>242.5</ele><time>2026-04-26T07:56:28.683Z</time></trkpt><trkpt lat="45.591077" lon="10.7819357"><ele>243.33333333333334</ele><time>2026-04-26T07:56:29.686Z</time></trkpt><trkpt lat="45.5910235" lon="10.7818575"><ele>244.16666666666669</ele><time>2026-04-26T07:56:30.685Z</time></trkpt><trkpt lat="45.5909754" lon="10.7817918"><ele>245.0</ele><time>2026-04-26T07:56:31.68Z</time></trkpt><trkpt lat="45.5909271" lon="10.7817265"><ele>245.28571428571428</ele><time>2026-04-26T07:56:32.688Z</time></trkpt><trkpt lat="45.5908761" lon="10.7816691"><ele>245.57142857142856</ele><time>2026-04-26T07:56:33.687Z</time></trkpt><trkpt lat="45.5908193" lon="10.7816141"><ele>245.85714285714286</ele><time>2026-04-26T07:56:34.684Z</time></trkpt><trkpt lat="45.5907628" lon="10.7815521"><ele>246.14285714285714</ele><time>2026-04-26T07:56:35.691Z</time></trkpt><trkpt lat="45.5907078" lon="10.7814843"><ele>246.42857142857142</ele><time>2026-04-26T07:56:36.683Z</time></trkpt><trkpt lat="45.5906508" lon="10.7814169"><ele>246.71428571428572</ele><time>2026-04-26T07:56:37.686Z</time></trkpt><trkpt lat="45.5905854" lon="10.7813556"><ele>247.0</ele><time>2026-04-26T07:56:38.68Z</time></trkpt><trkpt lat="45.5905113" lon="10.7812924"><ele>246.99999999999997</ele><time>2026-04-26T07:56:39.69Z</time></trkpt><trkpt lat="45.5904402" lon="10.7812292"><ele>247.0</ele><time>2026-04-26T07:56:40.693Z</time></trkpt><trkpt lat="45.5903616" lon="10.7811635"><ele>247.0</ele><time>2026-04-26T07:56:41.69Z</time></trkpt><trkpt lat="45.5902877" lon="10.781093"><ele>247.0</ele><time>2026-04-26T07:56:42.682Z</time></trkpt><trkpt lat="45.5902204" lon="10.7810204"><ele>246.99999999999997</ele><time>2026-04-26T07:56:43.689Z</time></trkpt><trkpt lat="45.5901604" lon="10.780953"><ele>247.0</ele><time>2026-04-26T07:56:44.686Z</time></trkpt><trkpt lat="45.590078" lon="10.7808585"><ele>246.83333333333331</ele><time>2026-04-26T07:56:46.683Z</time></trkpt><trkpt lat="45.5900044" lon="10.780854"><ele>246.66666666666666</ele><time>2026-04-26T07:56:48.687Z</time></trkpt><trkpt lat="45.5899128" lon="10.7809413"><ele>246.5</ele><time>2026-04-26T07:56:50.684Z</time></trkpt><trkpt lat="45.5898632" lon="10.7810426"><ele>246.33333333333331</ele><time>2026-04-26T07:56:51.679Z</time></trkpt><trkpt lat="45.5898174" lon="10.781153"><ele>246.16666666666666</ele><time>2026-04-26T07:56:52.673Z</time></trkpt><trkpt lat="45.5897834" lon="10.7812651"><ele>246.0</ele><time>2026-04-26T07:56:53.67Z</time></trkpt><trkpt lat="45.5897516" lon="10.7813864"><ele>246.0</ele><time>2026-04-26T07:56:54.67Z</time></trkpt><trkpt lat="45.58973" lon="10.7815194"><ele>246.00000000000003</ele><time>2026-04-26T07:56:55.669Z</time></trkpt><trkpt lat="45.5897084" lon="10.7816682"><ele>246.00000000000003</ele><time>2026-04-26T07:56:56.67Z</time></trkpt><trkpt lat="45.5896916" lon="10.781822"><ele>246.0</ele><time>2026-04-26T07:56:57.684Z</time></trkpt><trkpt lat="45.5896744" lon="10.7819723"><ele>246.0</ele><time>2026-04-26T07:56:58.689Z</time></trkpt><trkpt lat="45.5896583" lon="10.7821157"><ele>246.16666666666666</ele><time>2026-04-26T07:56:59.675Z</time></trkpt><trkpt lat="45.5896355" lon="10.7822514"><ele>246.33333333333331</ele><time>2026-04-26T07:57:00.672Z</time></trkpt><trkpt lat="45.5896144" lon="10.782369"><ele>246.5</ele><time>2026-04-26T07:57:01.677Z</time></trkpt><trkpt lat="45.5895941" lon="10.7824769"><ele>246.66666666666666</ele><time>2026-04-26T07:57:02.683Z</time></trkpt><trkpt lat="45.5895576" lon="10.7826109"><ele>246.83333333333331</ele><time>2026-04-26T07:57:04.683Z</time></trkpt><trkpt lat="45.5894839" lon="10.7826634"><ele>247.0</ele><time>2026-04-26T07:57:13.68Z</time></trkpt><trkpt lat="45.5893787" lon="10.7826342"><ele>247.33333333333331</ele><time>2026-04-26T07:57:15.675Z</time></trkpt><trkpt lat="45.5892904" lon="10.7825724"><ele>247.66666666666666</ele><time>2026-04-26T07:57:16.684Z</time></trkpt><trkpt lat="45.5891973" lon="10.7825109"><ele>248.0</ele><time>2026-04-26T07:57:17.683Z</time></trkpt><trkpt lat="45.5891116" lon="10.782456"><ele>248.33333333333331</ele><time>2026-04-26T07:57:18.682Z</time></trkpt><trkpt lat="45.5890371" lon="10.7824083"><ele>248.66666666666666</ele><time>2026-04-26T07:57:19.677Z</time></trkpt><trkpt lat="45.5889769" lon="10.7823611"><ele>249.0</ele><time>2026-04-26T07:57:20.68Z</time></trkpt><trkpt lat="45.5889141" lon="10.782313"><ele>249.0</ele><time>2026-04-26T07:57:21.682Z</time></trkpt><trkpt lat="45.5887984" lon="10.7822213"><ele>249.0</ele><time>2026-04-26T07:57:23.69Z</time></trkpt><trkpt lat="45.5887358" lon="10.7821741"><ele>249.0</ele><time>2026-04-26T07:57:24.688Z</time></trkpt><trkpt lat="45.5886658" lon="10.7821316"><ele>249.0</ele><time>2026-04-26T07:57:25.687Z</time></trkpt><trkpt lat="45.5885951" lon="10.7820849"><ele>249.0</ele><time>2026-04-26T07:57:26.689Z</time></trkpt><trkpt lat="45.5885195" lon="10.7820328"><ele>249.0</ele><time>2026-04-26T07:57:27.683Z</time></trkpt><trkpt lat="45.5884341" lon="10.7819708"><ele>248.0</ele><time>2026-04-26T07:57:28.688Z</time></trkpt><trkpt lat="45.5883376" lon="10.7819023"><ele>247.0</ele><time>2026-04-26T07:57:29.685Z</time></trkpt><trkpt lat="45.5882362" lon="10.7818206"><ele>246.0</ele><time>2026-04-26T07:57:30.686Z</time></trkpt><trkpt lat="45.5881278" lon="10.7817334"><ele>245.0</ele><time>2026-04-26T07:57:31.684Z</time></trkpt><trkpt lat="45.5880085" lon="10.7816381"><ele>245.0</ele><time>2026-04-26T07:57:32.683Z</time></trkpt><trkpt lat="45.5878822" lon="10.7815352"><ele>245.0</ele><time>2026-04-26T07:57:33.69Z</time></trkpt><trkpt lat="45.5877517" lon="10.7814327"><ele>245.0</ele><time>2026-04-26T07:57:34.696Z</time></trkpt><trkpt lat="45.5876132" lon="10.7813163"><ele>244.66666666666669</ele><time>2026-04-26T07:57:35.687Z</time></trkpt><trkpt lat="45.5874717" lon="10.7812078"><ele>244.33333333333331</ele><time>2026-04-26T07:57:36.689Z</time></trkpt><trkpt lat="45.5873285" lon="10.7810987"><ele>244.0</ele><time>2026-04-26T07:57:37.69Z</time></trkpt><trkpt lat="45.5871804" lon="10.7809812"><ele>244.0</ele><time>2026-04-26T07:57:38.69Z</time></trkpt><trkpt lat="45.5870313" lon="10.7808726"><ele>244.0</ele><time>2026-04-26T07:57:39.69Z</time></trkpt><trkpt lat="45.5868815" lon="10.7807645"><ele>244.0</ele><time>2026-04-26T07:57:40.688Z</time></trkpt><trkpt lat="45.5867242" lon="10.7806537"><ele>245.33333333333331</ele><time>2026-04-26T07:57:41.696Z</time></trkpt><trkpt lat="45.5865769" lon="10.7805556"><ele>246.66666666666669</ele><time>2026-04-26T07:57:42.689Z</time></trkpt><trkpt lat="45.5864168" lon="10.7804478"><ele>248.0</ele><time>2026-04-26T07:57:43.695Z</time></trkpt><trkpt lat="45.5862595" lon="10.7803517"><ele>247.0</ele><time>2026-04-26T07:57:44.687Z</time></trkpt><trkpt lat="45.5861078" lon="10.780237"><ele>246.0</ele><time>2026-04-26T07:57:45.688Z</time></trkpt><trkpt lat="45.585954" lon="10.7801263"><ele>245.0</ele><time>2026-04-26T07:57:46.687Z</time></trkpt><trkpt lat="45.5857966" lon="10.7800256"><ele>245.0</ele><time>2026-04-26T07:57:47.691Z</time></trkpt><trkpt lat="45.5856428" lon="10.7799175"><ele>245.0</ele><time>2026-04-26T07:57:48.693Z</time></trkpt><trkpt lat="45.5854894" lon="10.7798119"><ele>245.0</ele><time>2026-04-26T07:57:49.694Z</time></trkpt><trkpt lat="45.5853335" lon="10.7797127"><ele>245.33333333333334</ele><time>2026-04-26T07:57:50.692Z</time></trkpt><trkpt lat="45.5851848" lon="10.7796025"><ele>245.66666666666669</ele><time>2026-04-26T07:57:51.695Z</time></trkpt><trkpt lat="45.5850341" lon="10.779496"><ele>246.0</ele><time>2026-04-26T07:57:52.695Z</time></trkpt><trkpt lat="45.5848799" lon="10.7793913"><ele>245.0</ele><time>2026-04-26T07:57:53.692Z</time></trkpt><trkpt lat="45.5847326" lon="10.779288"><ele>244.0</ele><time>2026-04-26T07:57:54.687Z</time></trkpt><trkpt lat="45.584589" lon="10.7791868"><ele>243.0</ele><time>2026-04-26T07:57:55.683Z</time></trkpt><trkpt lat="45.5844577" lon="10.7790919"><ele>243.0</ele><time>2026-04-26T07:57:56.693Z</time></trkpt><trkpt lat="45.584324" lon="10.7790011"><ele>243.0</ele><time>2026-04-26T07:57:57.69Z</time></trkpt><trkpt lat="45.5841961" lon="10.7789079"><ele>243.0</ele><time>2026-04-26T07:57:58.693Z</time></trkpt><trkpt lat="45.5840708" lon="10.778804"><ele>243.0</ele><time>2026-04-26T07:57:59.691Z</time></trkpt><trkpt lat="45.5839563" lon="10.7786829"><ele>243.0</ele><time>2026-04-26T07:58:00.687Z</time></trkpt><trkpt lat="45.5838255" lon="10.7785615"><ele>243.0</ele><time>2026-04-26T07:58:01.69Z</time></trkpt><trkpt lat="45.5837154" lon="10.778437"><ele>243.0</ele><time>2026-04-26T07:58:02.684Z</time></trkpt><trkpt lat="45.583618" lon="10.7783053"><ele>243.0</ele><time>2026-04-26T07:58:03.681Z</time></trkpt><trkpt lat="45.5835421" lon="10.778173"><ele>241.5</ele><time>2026-04-26T07:58:04.682Z</time></trkpt><trkpt lat="45.5834751" lon="10.7780644"><ele>240.0</ele><time>2026-04-26T07:58:05.679Z</time></trkpt><trkpt lat="45.5834181" lon="10.7779719"><ele>238.5</ele><time>2026-04-26T07:58:06.678Z</time></trkpt><trkpt lat="45.5833711" lon="10.7778923"><ele>237.0</ele><time>2026-04-26T07:58:07.683Z</time></trkpt><trkpt lat="45.5833195" lon="10.7778144"><ele>235.5</ele><time>2026-04-26T07:58:09.681Z</time></trkpt><trkpt lat="45.5832664" lon="10.7779191"><ele>234.0</ele><time>2026-04-26T07:58:13.69Z</time></trkpt><trkpt lat="45.5832266" lon="10.7780915"><ele>234.0</ele><time>2026-04-26T07:58:15.692Z</time></trkpt><trkpt lat="45.5832111" lon="10.7782018"><ele>234.0</ele><time>2026-04-26T07:58:16.689Z</time></trkpt><trkpt lat="45.5831939" lon="10.7783208"><ele>234.0</ele><time>2026-04-26T07:58:17.691Z</time></trkpt><trkpt lat="45.5831808" lon="10.7784511"><ele>234.0</ele><time>2026-04-26T07:58:18.697Z</time></trkpt><trkpt lat="45.5831632" lon="10.7785864"><ele>234.0</ele><time>2026-04-26T07:58:19.697Z</time></trkpt><trkpt lat="45.5831484" lon="10.7787117"><ele>234.0</ele><time>2026-04-26T07:58:20.697Z</time></trkpt><trkpt lat="45.5831268" lon="10.7788319"><ele>234.39999999999998</ele><time>2026-04-26T07:58:21.697Z</time></trkpt><trkpt lat="45.5831001" lon="10.7789559"><ele>234.79999999999998</ele><time>2026-04-26T07:58:22.693Z</time></trkpt><trkpt lat="45.5830785" lon="10.7790875"><ele>235.20000000000002</ele><time>2026-04-26T07:58:23.692Z</time></trkpt><trkpt lat="45.5830583" lon="10.7792396"><ele>235.60000000000002</ele><time>2026-04-26T07:58:24.689Z</time></trkpt><trkpt lat="45.5830304" lon="10.779397"><ele>236.0</ele><time>2026-04-26T07:58:25.685Z</time></trkpt><trkpt lat="45.5830041" lon="10.7795527"><ele>237.20000000000002</ele><time>2026-04-26T07:58:26.687Z</time></trkpt><trkpt lat="45.5829841" lon="10.7797039"><ele>238.40000000000003</ele><time>2026-04-26T07:58:27.688Z</time></trkpt><trkpt lat="45.5829643" lon="10.7798529"><ele>239.6</ele><time>2026-04-26T07:58:28.696Z</time></trkpt><trkpt lat="45.5829422" lon="10.779993"><ele>240.8</ele><time>2026-04-26T07:58:29.691Z</time></trkpt><trkpt lat="45.5829213" lon="10.780123"><ele>242.0</ele><time>2026-04-26T07:58:30.694Z</time></trkpt><trkpt lat="45.5829014" lon="10.7802387"><ele>242.50000000000003</ele><time>2026-04-26T07:58:31.688Z</time></trkpt><trkpt lat="45.5828772" lon="10.7803416"><ele>243.0</ele><time>2026-04-26T07:58:32.688Z</time></trkpt><trkpt lat="45.5828517" lon="10.7804697"><ele>243.5</ele><time>2026-04-26T07:58:34.685Z</time></trkpt><trkpt lat="45.5829458" lon="10.7804787"><ele>244.0</ele><time>2026-04-26T07:58:37.681Z</time></trkpt><trkpt lat="45.5830072" lon="10.7804581"><ele>244.50000000000003</ele><time>2026-04-26T07:58:38.688Z</time></trkpt><trkpt lat="45.5830705" lon="10.7804672"><ele>245.0</ele><time>2026-04-26T07:58:39.689Z</time></trkpt><trkpt lat="45.583152" lon="10.7805997"><ele>245.0</ele><time>2026-04-26T07:58:41.687Z</time></trkpt><trkpt lat="45.5831778" lon="10.7807186"><ele>245.0</ele><time>2026-04-26T07:58:42.687Z</time></trkpt><trkpt lat="45.5832166" lon="10.7808607"><ele>245.0</ele><time>2026-04-26T07:58:43.694Z</time></trkpt><trkpt lat="45.5832631" lon="10.7809995"><ele>245.0</ele><time>2026-04-26T07:58:44.681Z</time></trkpt><trkpt lat="45.5833111" lon="10.7811345"><ele>245.0</ele><time>2026-04-26T07:58:45.691Z</time></trkpt><trkpt lat="45.583363" lon="10.7812639"><ele>245.0</ele><time>2026-04-26T07:58:46.684Z</time></trkpt><trkpt lat="45.5834168" lon="10.7813977"><ele>245.0</ele><time>2026-04-26T07:58:47.682Z</time></trkpt><trkpt lat="45.5834612" lon="10.781535"><ele>245.0</ele><time>2026-04-26T07:58:48.684Z</time></trkpt><trkpt lat="45.5835028" lon="10.7816672"><ele>245.0</ele><time>2026-04-26T07:58:49.681Z</time></trkpt><trkpt lat="45.5835406" lon="10.7817923"><ele>245.0</ele><time>2026-04-26T07:58:50.682Z</time></trkpt><trkpt lat="45.5835869" lon="10.7819117"><ele>245.00000000000003</ele><time>2026-04-26T07:58:51.685Z</time></trkpt><trkpt lat="45.5836391" lon="10.7820237"><ele>245.0</ele><time>2026-04-26T07:58:52.681Z</time></trkpt><trkpt lat="45.5836907" lon="10.7821278"><ele>245.0</ele><time>2026-04-26T07:58:53.679Z</time></trkpt><trkpt lat="45.5837406" lon="10.7822268"><ele>245.0</ele><time>2026-04-26T07:58:54.681Z</time></trkpt><trkpt lat="45.5837953" lon="10.7823079"><ele>245.00000000000003</ele><time>2026-04-26T07:58:55.677Z</time></trkpt><trkpt lat="45.5838568" lon="10.7823722"><ele>245.0</ele><time>2026-04-26T07:58:56.682Z</time></trkpt><trkpt lat="45.5839229" lon="10.7824269"><ele>245.16666666666669</ele><time>2026-04-26T07:58:57.683Z</time></trkpt><trkpt lat="45.5839972" lon="10.7824841"><ele>245.33333333333334</ele><time>2026-04-26T07:58:58.681Z</time></trkpt><trkpt lat="45.5840709" lon="10.7825357"><ele>245.5</ele><time>2026-04-26T07:58:59.681Z</time></trkpt><trkpt lat="45.5841507" lon="10.7825944"><ele>245.66666666666669</ele><time>2026-04-26T07:59:00.683Z</time></trkpt><trkpt lat="45.5842246" lon="10.782665"><ele>245.83333333333334</ele><time>2026-04-26T07:59:01.688Z</time></trkpt><trkpt lat="45.5843007" lon="10.7827365"><ele>246.0</ele><time>2026-04-26T07:59:02.684Z</time></trkpt><trkpt lat="45.5843709" lon="10.7828196"><ele>245.5</ele><time>2026-04-26T07:59:03.687Z</time></trkpt><trkpt lat="45.5844341" lon="10.7829037"><ele>245.0</ele><time>2026-04-26T07:59:04.685Z</time></trkpt><trkpt lat="45.5844867" lon="10.7829938"><ele>244.5</ele><time>2026-04-26T07:59:05.679Z</time></trkpt><trkpt lat="45.5845218" lon="10.7830905"><ele>244.0</ele><time>2026-04-26T07:59:06.683Z</time></trkpt><trkpt lat="45.5845413" lon="10.783191"><ele>243.5</ele><time>2026-04-26T07:59:07.682Z</time></trkpt><trkpt lat="45.5845532" lon="10.7833056"><ele>243.0</ele><time>2026-04-26T07:59:08.678Z</time></trkpt><trkpt lat="45.5845584" lon="10.7834322"><ele>245.2</ele><time>2026-04-26T07:59:09.68Z</time></trkpt><trkpt lat="45.584553" lon="10.7835784"><ele>247.4</ele><time>2026-04-26T07:59:10.68Z</time></trkpt><trkpt lat="45.5845512" lon="10.7837455"><ele>249.59999999999997</ele><time>2026-04-26T07:59:11.678Z</time></trkpt><trkpt lat="45.5845512" lon="10.7839116"><ele>251.79999999999998</ele><time>2026-04-26T07:59:12.682Z</time></trkpt><trkpt lat="45.5845556" lon="10.7840672"><ele>254.0</ele><time>2026-04-26T07:59:13.679Z</time></trkpt><trkpt lat="45.5845625" lon="10.7842257"><ele>253.79999999999998</ele><time>2026-04-26T07:59:14.689Z</time></trkpt><trkpt lat="45.5845714" lon="10.7843747"><ele>253.59999999999997</ele><time>2026-04-26T07:59:15.689Z</time></trkpt><trkpt lat="45.5845753" lon="10.7845161"><ele>253.4</ele><time>2026-04-26T07:59:16.692Z</time></trkpt><trkpt lat="45.5845766" lon="10.7846536"><ele>253.2</ele><time>2026-04-26T07:59:17.69Z</time></trkpt><trkpt lat="45.5845797" lon="10.7847763"><ele>253.0</ele><time>2026-04-26T07:59:18.691Z</time></trkpt><trkpt lat="45.5845822" lon="10.7848788"><ele>253.0</ele><time>2026-04-26T07:59:19.692Z</time></trkpt><trkpt lat="45.5845959" lon="10.7850064"><ele>253.0</ele><time>2026-04-26T07:59:21.696Z</time></trkpt><trkpt lat="45.5846824" lon="10.7849405"><ele>253.0</ele><time>2026-04-26T07:59:24.687Z</time></trkpt><trkpt lat="45.5847365" lon="10.7848895"><ele>253.0</ele><time>2026-04-26T07:59:25.688Z</time></trkpt><trkpt lat="45.58485" lon="10.7848094"><ele>253.0</ele><time>2026-04-26T07:59:27.68Z</time></trkpt><trkpt lat="45.5849413" lon="10.7847452"><ele>253.0</ele><time>2026-04-26T07:59:29.679Z</time></trkpt><trkpt lat="45.5849501" lon="10.7845937"><ele>253.0</ele><time>2026-04-26T07:59:31.676Z</time></trkpt><trkpt lat="45.5849259" lon="10.7844972"><ele>253.0</ele><time>2026-04-26T07:59:32.679Z</time></trkpt><trkpt lat="45.5849133" lon="10.7843746"><ele>253.0</ele><time>2026-04-26T07:59:33.675Z</time></trkpt><trkpt lat="45.5849018" lon="10.7842334"><ele>253.0</ele><time>2026-04-26T07:59:34.68Z</time></trkpt><trkpt lat="45.5848932" lon="10.784097"><ele>253.2</ele><time>2026-04-26T07:59:35.678Z</time></trkpt><trkpt lat="45.5848974" lon="10.7839647"><ele>253.4</ele><time>2026-04-26T07:59:36.682Z</time></trkpt><trkpt lat="45.5849042" lon="10.7838306"><ele>253.59999999999997</ele><time>2026-04-26T07:59:37.682Z</time></trkpt><trkpt lat="45.5849101" lon="10.7837023"><ele>253.79999999999998</ele><time>2026-04-26T07:59:38.685Z</time></trkpt><trkpt lat="45.584915" lon="10.7835782"><ele>254.0</ele><time>2026-04-26T07:59:39.684Z</time></trkpt><trkpt lat="45.5849274" lon="10.7834538"><ele>254.00000000000003</ele><time>2026-04-26T07:59:40.686Z</time></trkpt><trkpt lat="45.5849534" lon="10.7833433"><ele>254.0</ele><time>2026-04-26T07:59:41.686Z</time></trkpt><trkpt lat="45.5849827" lon="10.7832277"><ele>254.0</ele><time>2026-04-26T07:59:42.669Z</time></trkpt><trkpt lat="45.5850049" lon="10.7831236"><ele>254.0</ele><time>2026-04-26T07:59:43.671Z</time></trkpt><trkpt lat="45.5850201" lon="10.7830363"><ele>254.00000000000003</ele><time>2026-04-26T07:59:44.672Z</time></trkpt><trkpt lat="45.5850232" lon="10.7828875"><ele>254.0</ele><time>2026-04-26T07:59:46.671Z</time></trkpt><trkpt lat="45.5850037" lon="10.7827512"><ele>254.6</ele><time>2026-04-26T07:59:48.679Z</time></trkpt><trkpt lat="45.5849957" lon="10.7826164"><ele>255.2</ele><time>2026-04-26T07:59:50.676Z</time></trkpt><trkpt lat="45.5850454" lon="10.7824964"><ele>255.79999999999998</ele><time>2026-04-26T07:59:52.673Z</time></trkpt><trkpt lat="45.5850909" lon="10.7824333"><ele>256.4</ele><time>2026-04-26T07:59:53.675Z</time></trkpt><trkpt lat="45.5851738" lon="10.7823963"><ele>257.0</ele><time>2026-04-26T07:59:55.676Z</time></trkpt><trkpt lat="45.5852753" lon="10.7824739"><ele>257.0</ele><time>2026-04-26T07:59:57.652Z</time></trkpt><trkpt lat="45.5853281" lon="10.7825639"><ele>257.0</ele><time>2026-04-26T07:59:58.653Z</time></trkpt><trkpt lat="45.5853902" lon="10.7826719"><ele>257.0</ele><time>2026-04-26T07:59:59.644Z</time></trkpt><trkpt lat="45.5854599" lon="10.7827788"><ele>257.0</ele><time>2026-04-26T08:00:00.647Z</time></trkpt><trkpt lat="45.5855471" lon="10.7828774"><ele>257.0</ele><time>2026-04-26T08:00:01.644Z</time></trkpt><trkpt lat="45.5856452" lon="10.782967"><ele>258.0</ele><time>2026-04-26T08:00:02.651Z</time></trkpt><trkpt lat="45.5857691" lon="10.7830403"><ele>259.0</ele><time>2026-04-26T08:00:03.644Z</time></trkpt><trkpt lat="45.5858948" lon="10.7831076"><ele>260.0</ele><time>2026-04-26T08:00:04.648Z</time></trkpt><trkpt lat="45.5860189" lon="10.7831627"><ele>261.0</ele><time>2026-04-26T08:00:05.647Z</time></trkpt><trkpt lat="45.5861456" lon="10.783208"><ele>261.5</ele><time>2026-04-26T08:00:06.642Z</time></trkpt><trkpt lat="45.5862634" lon="10.7832476"><ele>262.0</ele><time>2026-04-26T08:00:07.64Z</time></trkpt><trkpt lat="45.5863802" lon="10.7832844"><ele>262.5</ele><time>2026-04-26T08:00:08.64Z</time></trkpt><trkpt lat="45.5864896" lon="10.7833195"><ele>263.0</ele><time>2026-04-26T08:00:09.648Z</time></trkpt><trkpt lat="45.5865966" lon="10.7833655"><ele>263.0</ele><time>2026-04-26T08:00:10.652Z</time></trkpt><trkpt lat="45.5867021" lon="10.7834131"><ele>263.0</ele><time>2026-04-26T08:00:11.645Z</time></trkpt><trkpt lat="45.5868145" lon="10.7834877"><ele>263.0</ele><time>2026-04-26T08:00:12.651Z</time></trkpt><trkpt lat="45.5869291" lon="10.7835739"><ele>263.0</ele><time>2026-04-26T08:00:13.642Z</time></trkpt><trkpt lat="45.5870452" lon="10.7836663"><ele>262.75</ele><time>2026-04-26T08:00:14.648Z</time></trkpt><trkpt lat="45.5871539" lon="10.7837571"><ele>262.5</ele><time>2026-04-26T08:00:15.65Z</time></trkpt><trkpt lat="45.5872563" lon="10.7838359"><ele>262.25</ele><time>2026-04-26T08:00:16.658Z</time></trkpt><trkpt lat="45.5873521" lon="10.7839046"><ele>262.0</ele><time>2026-04-26T08:00:17.651Z</time></trkpt><trkpt lat="45.5874504" lon="10.7839683"><ele>262.0</ele><time>2026-04-26T08:00:18.65Z</time></trkpt><trkpt lat="45.5875503" lon="10.7840218"><ele>262.0</ele><time>2026-04-26T08:00:19.651Z</time></trkpt><trkpt lat="45.5876579" lon="10.7840613"><ele>262.0</ele><time>2026-04-26T08:00:20.651Z</time></trkpt><trkpt lat="45.5877712" lon="10.7840965"><ele>262.0</ele><time>2026-04-26T08:00:21.655Z</time></trkpt><trkpt lat="45.5878805" lon="10.7841252"><ele>262.0</ele><time>2026-04-26T08:00:22.651Z</time></trkpt><trkpt lat="45.5879871" lon="10.7841604"><ele>261.8333333333333</ele><time>2026-04-26T08:00:23.65Z</time></trkpt><trkpt lat="45.5880792" lon="10.7842118"><ele>261.66666666666663</ele><time>2026-04-26T08:00:24.648Z</time></trkpt><trkpt lat="45.5881617" lon="10.7842697"><ele>261.5</ele><time>2026-04-26T08:00:25.652Z</time></trkpt><trkpt lat="45.5882283" lon="10.7843258"><ele>261.3333333333333</ele><time>2026-04-26T08:00:26.655Z</time></trkpt><trkpt lat="45.5882856" lon="10.7843741"><ele>261.1666666666667</ele><time>2026-04-26T08:00:27.646Z</time></trkpt><trkpt lat="45.5883387" lon="10.7844231"><ele>261.0</ele><time>2026-04-26T08:00:28.651Z</time></trkpt><trkpt lat="45.5884186" lon="10.7845087"><ele>261.0</ele><time>2026-04-26T08:00:30.647Z</time></trkpt><trkpt lat="45.5884832" lon="10.784524"><ele>261.0</ele><time>2026-04-26T08:00:32.648Z</time></trkpt><trkpt lat="45.5885773" lon="10.7845133"><ele>261.0</ele><time>2026-04-26T08:00:34.655Z</time></trkpt><trkpt lat="45.5887054" lon="10.7845823"><ele>261.0</ele><time>2026-04-26T08:00:36.649Z</time></trkpt><trkpt lat="45.588791" lon="10.7846509"><ele>261.0</ele><time>2026-04-26T08:00:37.652Z</time></trkpt><trkpt lat="45.5888911" lon="10.784727"><ele>261.0</ele><time>2026-04-26T08:00:38.648Z</time></trkpt><trkpt lat="45.5890014" lon="10.7848137"><ele>261.0</ele><time>2026-04-26T08:00:39.648Z</time></trkpt><trkpt lat="45.589107" lon="10.7849176"><ele>261.0</ele><time>2026-04-26T08:00:40.652Z</time></trkpt><trkpt lat="45.5892101" lon="10.7850404"><ele>261.0</ele><time>2026-04-26T08:00:41.653Z</time></trkpt><trkpt lat="45.5893117" lon="10.7851789"><ele>262.0</ele><time>2026-04-26T08:00:42.657Z</time></trkpt><trkpt lat="45.5894138" lon="10.7853106"><ele>263.0</ele><time>2026-04-26T08:00:43.655Z</time></trkpt><trkpt lat="45.5895079" lon="10.7854335"><ele>264.0</ele><time>2026-04-26T08:00:44.654Z</time></trkpt><trkpt lat="45.5895951" lon="10.7855509"><ele>265.0</ele><time>2026-04-26T08:00:45.654Z</time></trkpt><trkpt lat="45.589681" lon="10.7856652"><ele>265.0</ele><time>2026-04-26T08:00:46.653Z</time></trkpt><trkpt lat="45.5897647" lon="10.7857706"><ele>265.0</ele><time>2026-04-26T08:00:47.654Z</time></trkpt><trkpt lat="45.589851" lon="10.7858647"><ele>265.0</ele><time>2026-04-26T08:00:48.652Z</time></trkpt><trkpt lat="45.5899475" lon="10.7859536"><ele>265.0</ele><time>2026-04-26T08:00:49.655Z</time></trkpt><trkpt lat="45.5900541" lon="10.7860467"><ele>265.5</ele><time>2026-04-26T08:00:50.654Z</time></trkpt><trkpt lat="45.5901633" lon="10.7861393"><ele>266.0</ele><time>2026-04-26T08:00:51.651Z</time></trkpt><trkpt lat="45.5902682" lon="10.7862378"><ele>266.5</ele><time>2026-04-26T08:00:52.655Z</time></trkpt><trkpt lat="45.5903702" lon="10.7863386"><ele>267.0</ele><time>2026-04-26T08:00:53.65Z</time></trkpt><trkpt lat="45.5904656" lon="10.786444"><ele>267.0</ele><time>2026-04-26T08:00:54.654Z</time></trkpt><trkpt lat="45.5905623" lon="10.7865445"><ele>267.0</ele><time>2026-04-26T08:00:55.658Z</time></trkpt><trkpt lat="45.590651" lon="10.7866541"><ele>267.0</ele><time>2026-04-26T08:00:56.651Z</time></trkpt><trkpt lat="45.5907381" lon="10.7867581"><ele>267.0</ele><time>2026-04-26T08:00:57.659Z</time></trkpt><trkpt lat="45.590821" lon="10.7868751"><ele>268.5</ele><time>2026-04-26T08:00:58.652Z</time></trkpt><trkpt lat="45.5909096" lon="10.7869956"><ele>270.0</ele><time>2026-04-26T08:00:59.652Z</time></trkpt><trkpt lat="45.5909965" lon="10.7871185"><ele>271.5</ele><time>2026-04-26T08:01:00.656Z</time></trkpt><trkpt lat="45.5910826" lon="10.7872428"><ele>273.0</ele><time>2026-04-26T08:01:01.655Z</time></trkpt><trkpt lat="45.5911667" lon="10.7873573"><ele>272.75</ele><time>2026-04-26T08:01:02.653Z</time></trkpt><trkpt lat="45.5912516" lon="10.7874689"><ele>272.5</ele><time>2026-04-26T08:01:03.655Z</time></trkpt><trkpt lat="45.5913396" lon="10.7875746"><ele>272.25</ele><time>2026-04-26T08:01:04.656Z</time></trkpt><trkpt lat="45.5914288" lon="10.7876766"><ele>272.0</ele><time>2026-04-26T08:01:05.654Z</time></trkpt><trkpt lat="45.5915179" lon="10.7877833"><ele>272.0</ele><time>2026-04-26T08:01:06.656Z</time></trkpt><trkpt lat="45.5916059" lon="10.7878964"><ele>272.0</ele><time>2026-04-26T08:01:07.654Z</time></trkpt><trkpt lat="45.5916992" lon="10.7880158"><ele>272.0</ele><time>2026-04-26T08:01:08.654Z</time></trkpt><trkpt lat="45.5917985" lon="10.788127"><ele>272.0</ele><time>2026-04-26T08:01:09.651Z</time></trkpt><trkpt lat="45.5919017" lon="10.7882336"><ele>272.0</ele><time>2026-04-26T08:01:10.661Z</time></trkpt><trkpt lat="45.5920028" lon="10.788337"><ele>272.0</ele><time>2026-04-26T08:01:11.651Z</time></trkpt><trkpt lat="45.5921022" lon="10.7884312"><ele>272.0</ele><time>2026-04-26T08:01:12.655Z</time></trkpt><trkpt lat="45.5921913" lon="10.7885329"><ele>272.0</ele><time>2026-04-26T08:01:13.654Z</time></trkpt><trkpt lat="45.5922697" lon="10.7886322"><ele>272.1666666666667</ele><time>2026-04-26T08:01:14.657Z</time></trkpt><trkpt lat="45.5923375" lon="10.7887275"><ele>272.33333333333337</ele><time>2026-04-26T08:01:15.651Z</time></trkpt><trkpt lat="45.5924082" lon="10.7888189"><ele>272.5</ele><time>2026-04-26T08:01:16.648Z</time></trkpt><trkpt lat="45.5924775" lon="10.7888907"><ele>272.6666666666667</ele><time>2026-04-26T08:01:17.658Z</time></trkpt><trkpt lat="45.5925464" lon="10.788937"><ele>272.8333333333333</ele><time>2026-04-26T08:01:18.648Z</time></trkpt><trkpt lat="45.5926211" lon="10.7889955"><ele>273.0</ele><time>2026-04-26T08:01:19.663Z</time></trkpt><trkpt lat="45.5927008" lon="10.7890771"><ele>273.0</ele><time>2026-04-26T08:01:20.659Z</time></trkpt><trkpt lat="45.5927804" lon="10.7891607"><ele>273.0</ele><time>2026-04-26T08:01:21.669Z</time></trkpt><trkpt lat="45.5928604" lon="10.7892567"><ele>273.0</ele><time>2026-04-26T08:01:22.664Z</time></trkpt><trkpt lat="45.5929341" lon="10.7893524"><ele>273.0</ele><time>2026-04-26T08:01:23.659Z</time></trkpt><trkpt lat="45.5930039" lon="10.7894366"><ele>273.0</ele><time>2026-04-26T08:01:24.666Z</time></trkpt><trkpt lat="45.5930633" lon="10.789513"><ele>273.8</ele><time>2026-04-26T08:01:25.662Z</time></trkpt><trkpt lat="45.5931149" lon="10.7895801"><ele>274.6</ele><time>2026-04-26T08:01:26.669Z</time></trkpt><trkpt lat="45.5931562" lon="10.7897104"><ele>275.4</ele><time>2026-04-26T08:01:28.669Z</time></trkpt><trkpt lat="45.593089" lon="10.7898435"><ele>276.2</ele><time>2026-04-26T08:01:30.654Z</time></trkpt><trkpt lat="45.5930279" lon="10.789913"><ele>277.0</ele><time>2026-04-26T08:01:31.661Z</time></trkpt><trkpt lat="45.5929588" lon="10.7899908"><ele>277.0</ele><time>2026-04-26T08:01:32.656Z</time></trkpt><trkpt lat="45.5928982" lon="10.7900688"><ele>277.0</ele><time>2026-04-26T08:01:33.656Z</time></trkpt><trkpt lat="45.5928618" lon="10.7901897"><ele>277.0</ele><time>2026-04-26T08:01:35.655Z</time></trkpt><trkpt lat="45.5929649" lon="10.790286"><ele>277.0</ele><time>2026-04-26T08:01:37.658Z</time></trkpt><trkpt lat="45.59305" lon="10.7903688"><ele>277.0</ele><time>2026-04-26T08:01:38.657Z</time></trkpt><trkpt lat="45.5931417" lon="10.7904627"><ele>277.5</ele><time>2026-04-26T08:01:39.661Z</time></trkpt><trkpt lat="45.5932373" lon="10.7905732"><ele>278.0</ele><time>2026-04-26T08:01:40.671Z</time></trkpt><trkpt lat="45.5933247" lon="10.7906871"><ele>278.5</ele><time>2026-04-26T08:01:41.663Z</time></trkpt><trkpt lat="45.5934033" lon="10.7908065"><ele>279.0</ele><time>2026-04-26T08:01:42.66Z</time></trkpt><trkpt lat="45.5934737" lon="10.790936"><ele>279.59999999999997</ele><time>2026-04-26T08:01:43.668Z</time></trkpt><trkpt lat="45.5935399" lon="10.7910636"><ele>280.2</ele><time>2026-04-26T08:01:44.658Z</time></trkpt><trkpt lat="45.5936022" lon="10.7911767"><ele>280.79999999999995</ele><time>2026-04-26T08:01:45.657Z</time></trkpt><trkpt lat="45.5936733" lon="10.7912786"><ele>281.4</ele><time>2026-04-26T08:01:46.655Z</time></trkpt><trkpt lat="45.5937504" lon="10.7913901"><ele>282.0</ele><time>2026-04-26T08:01:47.654Z</time></trkpt><trkpt lat="45.5938214" lon="10.791496"><ele>282.0</ele><time>2026-04-26T08:01:48.656Z</time></trkpt><trkpt lat="45.5938826" lon="10.7915938"><ele>282.0</ele><time>2026-04-26T08:01:49.66Z</time></trkpt><trkpt lat="45.5939422" lon="10.7916876"><ele>282.0</ele><time>2026-04-26T08:01:50.655Z</time></trkpt><trkpt lat="45.5939965" lon="10.7917861"><ele>282.0</ele><time>2026-04-26T08:01:51.663Z</time></trkpt><trkpt lat="45.5940507" lon="10.7919038"><ele>282.0</ele><time>2026-04-26T08:01:52.665Z</time></trkpt><trkpt lat="45.5940936" lon="10.7920323"><ele>282.8</ele><time>2026-04-26T08:01:53.658Z</time></trkpt><trkpt lat="45.5941362" lon="10.7921637"><ele>283.6</ele><time>2026-04-26T08:01:54.656Z</time></trkpt><trkpt lat="45.594185" lon="10.7922803"><ele>284.40000000000003</ele><time>2026-04-26T08:01:55.652Z</time></trkpt><trkpt lat="45.5942466" lon="10.7923727"><ele>285.2</ele><time>2026-04-26T08:01:56.659Z</time></trkpt><trkpt lat="45.5943105" lon="10.7924508"><ele>286.0</ele><time>2026-04-26T08:01:57.659Z</time></trkpt><trkpt lat="45.5943751" lon="10.792525"><ele>286.0</ele><time>2026-04-26T08:01:58.655Z</time></trkpt><trkpt lat="45.594432" lon="10.7926055"><ele>286.0</ele><time>2026-04-26T08:01:59.653Z</time></trkpt><trkpt lat="45.5944916" lon="10.7927035"><ele>286.0</ele><time>2026-04-26T08:02:00.652Z</time></trkpt><trkpt lat="45.5945567" lon="10.7928076"><ele>286.0</ele><time>2026-04-26T08:02:01.651Z</time></trkpt><trkpt lat="45.5946216" lon="10.7929219"><ele>286.0</ele><time>2026-04-26T08:02:02.649Z</time></trkpt><trkpt lat="45.5946935" lon="10.7930379"><ele>285.8</ele><time>2026-04-26T08:02:03.647Z</time></trkpt><trkpt lat="45.5947618" lon="10.7931524"><ele>285.6</ele><time>2026-04-26T08:02:04.645Z</time></trkpt><trkpt lat="45.5948293" lon="10.7932685"><ele>285.4</ele><time>2026-04-26T08:02:05.656Z</time></trkpt><trkpt lat="45.594887" lon="10.7933738"><ele>285.2</ele><time>2026-04-26T08:02:06.651Z</time></trkpt><trkpt lat="45.5949434" lon="10.7934745"><ele>285.0</ele><time>2026-04-26T08:02:07.655Z</time></trkpt><trkpt lat="45.5950109" lon="10.7935736"><ele>284.4</ele><time>2026-04-26T08:02:08.65Z</time></trkpt><trkpt lat="45.5950821" lon="10.7936701"><ele>283.8</ele><time>2026-04-26T08:02:09.647Z</time></trkpt><trkpt lat="45.5951552" lon="10.7937649"><ele>283.2</ele><time>2026-04-26T08:02:10.654Z</time></trkpt><trkpt lat="45.5952349" lon="10.7938515"><ele>282.6</ele><time>2026-04-26T08:02:11.649Z</time></trkpt><trkpt lat="45.5953064" lon="10.7939387"><ele>282.0</ele><time>2026-04-26T08:02:12.655Z</time></trkpt><trkpt lat="45.5953679" lon="10.7940249"><ele>282.0</ele><time>2026-04-26T08:02:13.651Z</time></trkpt><trkpt lat="45.5954222" lon="10.7941118"><ele>282.0</ele><time>2026-04-26T08:02:14.645Z</time></trkpt><trkpt lat="45.5954749" lon="10.7941932"><ele>282.0</ele><time>2026-04-26T08:02:15.654Z</time></trkpt><trkpt lat="45.5955262" lon="10.7942718"><ele>282.0</ele><time>2026-04-26T08:02:16.65Z</time></trkpt><trkpt lat="45.5955742" lon="10.7943562"><ele>282.0</ele><time>2026-04-26T08:02:17.658Z</time></trkpt><trkpt lat="45.595647" lon="10.7944699"><ele>282.0</ele><time>2026-04-26T08:02:19.647Z</time></trkpt><trkpt lat="45.5957024" lon="10.7945565"><ele>282.4</ele><time>2026-04-26T08:02:21.65Z</time></trkpt><trkpt lat="45.5957984" lon="10.7945857"><ele>282.79999999999995</ele><time>2026-04-26T08:02:23.648Z</time></trkpt><trkpt lat="45.5958919" lon="10.7945448"><ele>283.2</ele><time>2026-04-26T08:02:24.645Z</time></trkpt><trkpt lat="45.5959946" lon="10.7945253"><ele>283.59999999999997</ele><time>2026-04-26T08:02:25.654Z</time></trkpt><trkpt lat="45.5961131" lon="10.7945039"><ele>284.0</ele><time>2026-04-26T08:02:26.644Z</time></trkpt><trkpt lat="45.5962315" lon="10.7944693"><ele>282.25</ele><time>2026-04-26T08:02:27.64Z</time></trkpt><trkpt lat="45.5963397" lon="10.7944362"><ele>280.5</ele><time>2026-04-26T08:02:28.648Z</time></trkpt><trkpt lat="45.5964564" lon="10.7944018"><ele>278.75</ele><time>2026-04-26T08:02:29.652Z</time></trkpt><trkpt lat="45.5965752" lon="10.7943537"><ele>277.0</ele><time>2026-04-26T08:02:30.649Z</time></trkpt><trkpt lat="45.5966946" lon="10.7943171"><ele>276.4</ele><time>2026-04-26T08:02:31.648Z</time></trkpt><trkpt lat="45.5968029" lon="10.7942866"><ele>275.79999999999995</ele><time>2026-04-26T08:02:32.649Z</time></trkpt><trkpt lat="45.5969108" lon="10.7942682"><ele>275.2</ele><time>2026-04-26T08:02:33.648Z</time></trkpt><trkpt lat="45.5970142" lon="10.7942559"><ele>274.59999999999997</ele><time>2026-04-26T08:02:34.651Z</time></trkpt><trkpt lat="45.5971009" lon="10.7942548"><ele>274.0</ele><time>2026-04-26T08:02:35.646Z</time></trkpt><trkpt lat="45.5971823" lon="10.7942534"><ele>272.4</ele><time>2026-04-26T08:02:36.648Z</time></trkpt><trkpt lat="45.5972575" lon="10.7942589"><ele>270.79999999999995</ele><time>2026-04-26T08:02:37.66Z</time></trkpt><trkpt lat="45.5973353" lon="10.7942962"><ele>269.20000000000005</ele><time>2026-04-26T08:02:38.65Z</time></trkpt><trkpt lat="45.5974145" lon="10.7943655"><ele>267.6</ele><time>2026-04-26T08:02:39.662Z</time></trkpt><trkpt lat="45.5975063" lon="10.7944483"><ele>266.0</ele><time>2026-04-26T08:02:40.658Z</time></trkpt><trkpt lat="45.5976101" lon="10.7945292"><ele>266.0</ele><time>2026-04-26T08:02:41.658Z</time></trkpt><trkpt lat="45.5977185" lon="10.7946045"><ele>266.0</ele><time>2026-04-26T08:02:42.657Z</time></trkpt><trkpt lat="45.5978269" lon="10.7946767"><ele>266.0</ele><time>2026-04-26T08:02:43.66Z</time></trkpt><trkpt lat="45.5979278" lon="10.7947448"><ele>266.0</ele><time>2026-04-26T08:02:44.657Z</time></trkpt><trkpt lat="45.5980183" lon="10.7948096"><ele>264.1666666666667</ele><time>2026-04-26T08:02:45.655Z</time></trkpt><trkpt lat="45.5980958" lon="10.7948657"><ele>262.33333333333337</ele><time>2026-04-26T08:02:46.657Z</time></trkpt><trkpt lat="45.5981615" lon="10.7949305"><ele>260.5</ele><time>2026-04-26T08:02:47.654Z</time></trkpt><trkpt lat="45.5982203" lon="10.795009"><ele>258.6666666666667</ele><time>2026-04-26T08:02:48.659Z</time></trkpt><trkpt lat="45.5982733" lon="10.7950831"><ele>256.8333333333333</ele><time>2026-04-26T08:02:49.657Z</time></trkpt><trkpt lat="45.5983342" lon="10.7951224"><ele>255.0</ele><time>2026-04-26T08:02:50.656Z</time></trkpt><trkpt lat="45.5984165" lon="10.7951251"><ele>255.0</ele><time>2026-04-26T08:02:51.656Z</time></trkpt><trkpt lat="45.5985181" lon="10.7951001"><ele>255.0</ele><time>2026-04-26T08:02:52.654Z</time></trkpt><trkpt lat="45.5986352" lon="10.7950612"><ele>255.0</ele><time>2026-04-26T08:02:53.659Z</time></trkpt><trkpt lat="45.59876" lon="10.7950061"><ele>255.0</ele><time>2026-04-26T08:02:54.654Z</time></trkpt><trkpt lat="45.5988905" lon="10.7949353"><ele>254.0</ele><time>2026-04-26T08:02:55.652Z</time></trkpt><trkpt lat="45.5990065" lon="10.794851"><ele>253.0</ele><time>2026-04-26T08:02:56.652Z</time></trkpt><trkpt lat="45.5991111" lon="10.794779"><ele>252.0</ele><time>2026-04-26T08:02:57.654Z</time></trkpt><trkpt lat="45.5992066" lon="10.7947285"><ele>251.0</ele><time>2026-04-26T08:02:58.648Z</time></trkpt><trkpt lat="45.5993022" lon="10.794698"><ele>250.0</ele><time>2026-04-26T08:02:59.646Z</time></trkpt><trkpt lat="45.599394" lon="10.7946846"><ele>249.99999999999997</ele><time>2026-04-26T08:03:00.648Z</time></trkpt><trkpt lat="45.5994906" lon="10.7946763"><ele>250.0</ele><time>2026-04-26T08:03:01.645Z</time></trkpt><trkpt lat="45.5995804" lon="10.7946781"><ele>250.0</ele><time>2026-04-26T08:03:02.651Z</time></trkpt><trkpt lat="45.5996618" lon="10.7946784"><ele>250.0</ele><time>2026-04-26T08:03:03.648Z</time></trkpt><trkpt lat="45.5997264" lon="10.794672"><ele>249.99999999999997</ele><time>2026-04-26T08:03:04.65Z</time></trkpt><trkpt lat="45.5997977" lon="10.7946538"><ele>250.0</ele><time>2026-04-26T08:03:06.651Z</time></trkpt><trkpt lat="45.5999245" lon="10.7946536"><ele>249.8</ele><time>2026-04-26T08:03:09.657Z</time></trkpt><trkpt lat="45.6000156" lon="10.7946407"><ele>249.6</ele><time>2026-04-26T08:03:10.66Z</time></trkpt><trkpt lat="45.6001279" lon="10.7946262"><ele>249.39999999999998</ele><time>2026-04-26T08:03:11.656Z</time></trkpt><trkpt lat="45.600241" lon="10.7946072"><ele>249.2</ele><time>2026-04-26T08:03:12.657Z</time></trkpt><trkpt lat="45.6003456" lon="10.7945821"><ele>249.0</ele><time>2026-04-26T08:03:13.66Z</time></trkpt><trkpt lat="45.6004388" lon="10.7945596"><ele>249.0</ele><time>2026-04-26T08:03:14.653Z</time></trkpt><trkpt lat="45.6005241" lon="10.7945456"><ele>248.99999999999997</ele><time>2026-04-26T08:03:15.652Z</time></trkpt><trkpt lat="45.6005913" lon="10.7945292"><ele>248.99999999999997</ele><time>2026-04-26T08:03:16.66Z</time></trkpt><trkpt lat="45.6006918" lon="10.7944989"><ele>249.0</ele><time>2026-04-26T08:03:18.655Z</time></trkpt><trkpt lat="45.6007807" lon="10.7944806"><ele>249.0</ele><time>2026-04-26T08:03:24.653Z</time></trkpt><trkpt lat="45.6008808" lon="10.7945816"><ele>249.0</ele><time>2026-04-26T08:03:26.651Z</time></trkpt><trkpt lat="45.6009486" lon="10.7946583"><ele>248.99999999999997</ele><time>2026-04-26T08:03:27.645Z</time></trkpt><trkpt lat="45.6010286" lon="10.7947419"><ele>248.99999999999997</ele><time>2026-04-26T08:03:28.648Z</time></trkpt><trkpt lat="45.6011148" lon="10.7948328"><ele>249.0</ele><time>2026-04-26T08:03:29.658Z</time></trkpt><trkpt lat="45.6012012" lon="10.7949139"><ele>249.0</ele><time>2026-04-26T08:03:30.659Z</time></trkpt><trkpt lat="45.601285" lon="10.7950021"><ele>248.79999999999998</ele><time>2026-04-26T08:03:31.66Z</time></trkpt><trkpt lat="45.6013725" lon="10.7950885"><ele>248.59999999999997</ele><time>2026-04-26T08:03:32.651Z</time></trkpt><trkpt lat="45.6014589" lon="10.7951445"><ele>248.4</ele><time>2026-04-26T08:03:33.651Z</time></trkpt><trkpt lat="45.6015498" lon="10.7951753"><ele>248.2</ele><time>2026-04-26T08:03:34.664Z</time></trkpt><trkpt lat="45.6016378" lon="10.7951907"><ele>248.0</ele><time>2026-04-26T08:03:35.664Z</time></trkpt><trkpt lat="45.6017243" lon="10.7951981"><ele>248.4</ele><time>2026-04-26T08:03:36.657Z</time></trkpt><trkpt lat="45.6018188" lon="10.7951979"><ele>248.8</ele><time>2026-04-26T08:03:37.664Z</time></trkpt><trkpt lat="45.6019168" lon="10.7951897"><ele>249.2</ele><time>2026-04-26T08:03:38.653Z</time></trkpt><trkpt lat="45.6020179" lon="10.7951936"><ele>249.6</ele><time>2026-04-26T08:03:39.663Z</time></trkpt><trkpt lat="45.6021109" lon="10.7951916"><ele>250.0</ele><time>2026-04-26T08:03:40.655Z</time></trkpt><trkpt lat="45.6021988" lon="10.795186"><ele>250.2</ele><time>2026-04-26T08:03:41.658Z</time></trkpt><trkpt lat="45.6022761" lon="10.7951843"><ele>250.4</ele><time>2026-04-26T08:03:42.667Z</time></trkpt><trkpt lat="45.6023479" lon="10.7951839"><ele>250.60000000000002</ele><time>2026-04-26T08:03:43.66Z</time></trkpt><trkpt lat="45.602413" lon="10.7951844"><ele>250.8</ele><time>2026-04-26T08:03:44.662Z</time></trkpt><trkpt lat="45.6025258" lon="10.7952165"><ele>251.0</ele><time>2026-04-26T08:03:46.657Z</time></trkpt><trkpt lat="45.6026351" lon="10.7953267"><ele>251.0</ele><time>2026-04-26T08:03:48.669Z</time></trkpt><trkpt lat="45.6026895" lon="10.7954053"><ele>251.00000000000003</ele><time>2026-04-26T08:03:49.669Z</time></trkpt><trkpt lat="45.6027366" lon="10.7955033"><ele>251.00000000000003</ele><time>2026-04-26T08:03:50.671Z</time></trkpt><trkpt lat="45.6027663" lon="10.7956297"><ele>251.0</ele><time>2026-04-26T08:03:51.672Z</time></trkpt><trkpt lat="45.6027735" lon="10.7957672"><ele>251.0</ele><time>2026-04-26T08:03:52.668Z</time></trkpt><trkpt lat="45.6027678" lon="10.795914"><ele>251.0</ele><time>2026-04-26T08:03:53.671Z</time></trkpt><trkpt lat="45.6027655" lon="10.7960602"><ele>251.00000000000003</ele><time>2026-04-26T08:03:54.66Z</time></trkpt><trkpt lat="45.6027638" lon="10.7962083"><ele>251.00000000000003</ele><time>2026-04-26T08:03:55.664Z</time></trkpt><trkpt lat="45.6027648" lon="10.7963595"><ele>251.0</ele><time>2026-04-26T08:03:56.667Z</time></trkpt><trkpt lat="45.6027667" lon="10.7965087"><ele>251.0</ele><time>2026-04-26T08:03:57.664Z</time></trkpt><trkpt lat="45.6027705" lon="10.7966578"><ele>251.00000000000003</ele><time>2026-04-26T08:03:58.66Z</time></trkpt><trkpt lat="45.6027811" lon="10.7968024"><ele>251.0</ele><time>2026-04-26T08:03:59.678Z</time></trkpt><trkpt lat="45.6027903" lon="10.7969436"><ele>251.0</ele><time>2026-04-26T08:04:00.663Z</time></trkpt><trkpt lat="45.6027966" lon="10.7970728"><ele>251.0</ele><time>2026-04-26T08:04:01.667Z</time></trkpt><trkpt lat="45.6028169" lon="10.7971766"><ele>251.00000000000003</ele><time>2026-04-26T08:04:02.663Z</time></trkpt><trkpt lat="45.6028432" lon="10.7972729"><ele>251.0</ele><time>2026-04-26T08:04:03.664Z</time></trkpt><trkpt lat="45.6028951" lon="10.7973323"><ele>251.00000000000003</ele><time>2026-04-26T08:04:04.669Z</time></trkpt><trkpt lat="45.6029853" lon="10.7973577"><ele>251.0</ele><time>2026-04-26T08:04:05.664Z</time></trkpt><trkpt lat="45.6030785" lon="10.7973812"><ele>251.0</ele><time>2026-04-26T08:04:06.669Z</time></trkpt><trkpt lat="45.6031603" lon="10.7974144"><ele>251.0</ele><time>2026-04-26T08:04:07.663Z</time></trkpt><trkpt lat="45.6032158" lon="10.7974672"><ele>251.00000000000003</ele><time>2026-04-26T08:04:08.661Z</time></trkpt><trkpt lat="45.603245" lon="10.7975496"><ele>251.0</ele><time>2026-04-26T08:04:09.659Z</time></trkpt><trkpt lat="45.603253" lon="10.7976742"><ele>251.00000000000003</ele><time>2026-04-26T08:04:10.664Z</time></trkpt><trkpt lat="45.6032487" lon="10.7978219"><ele>251.0</ele><time>2026-04-26T08:04:11.66Z</time></trkpt><trkpt lat="45.6032486" lon="10.7979649"><ele>251.0</ele><time>2026-04-26T08:04:12.665Z</time></trkpt><trkpt lat="45.6032641" lon="10.7980846"><ele>251.0</ele><time>2026-04-26T08:04:13.657Z</time></trkpt><trkpt lat="45.6033023" lon="10.798176"><ele>251.00000000000003</ele><time>2026-04-26T08:04:14.664Z</time></trkpt><trkpt lat="45.6033739" lon="10.798242"><ele>251.0</ele><time>2026-04-26T08:04:15.664Z</time></trkpt><trkpt lat="45.6034799" lon="10.7982744"><ele>251.0</ele><time>2026-04-26T08:04:16.663Z</time></trkpt><trkpt lat="45.6036086" lon="10.7983192"><ele>251.0</ele><time>2026-04-26T08:04:17.67Z</time></trkpt><trkpt lat="45.6037446" lon="10.7983711"><ele>251.0</ele><time>2026-04-26T08:04:18.668Z</time></trkpt><trkpt lat="45.6038773" lon="10.7984312"><ele>251.0</ele><time>2026-04-26T08:04:19.663Z</time></trkpt><trkpt lat="45.6040017" lon="10.7985043"><ele>251.20000000000002</ele><time>2026-04-26T08:04:20.662Z</time></trkpt><trkpt lat="45.6041165" lon="10.7985723"><ele>251.40000000000003</ele><time>2026-04-26T08:04:21.665Z</time></trkpt><trkpt lat="45.6042205" lon="10.7986237"><ele>251.6</ele><time>2026-04-26T08:04:22.666Z</time></trkpt><trkpt lat="45.6043207" lon="10.7986744"><ele>251.8</ele><time>2026-04-26T08:04:23.671Z</time></trkpt><trkpt lat="45.6044156" lon="10.7987284"><ele>252.0</ele><time>2026-04-26T08:04:24.666Z</time></trkpt><trkpt lat="45.6045136" lon="10.7987825"><ele>252.0</ele><time>2026-04-26T08:04:25.667Z</time></trkpt><trkpt lat="45.6046088" lon="10.7988397"><ele>252.0</ele><time>2026-04-26T08:04:26.667Z</time></trkpt><trkpt lat="45.6047064" lon="10.7988989"><ele>252.0</ele><time>2026-04-26T08:04:27.661Z</time></trkpt><trkpt lat="45.6048066" lon="10.7989604"><ele>252.0</ele><time>2026-04-26T08:04:28.67Z</time></trkpt><trkpt lat="45.6049078" lon="10.7990178"><ele>252.0</ele><time>2026-04-26T08:04:29.669Z</time></trkpt><trkpt lat="45.6050069" lon="10.7990698"><ele>252.0</ele><time>2026-04-26T08:04:30.663Z</time></trkpt><trkpt lat="45.605096" lon="10.7991136"><ele>252.0</ele><time>2026-04-26T08:04:31.664Z</time></trkpt><trkpt lat="45.6051766" lon="10.7991613"><ele>252.0</ele><time>2026-04-26T08:04:32.67Z</time></trkpt><trkpt lat="45.6052527" lon="10.7992113"><ele>252.0</ele><time>2026-04-26T08:04:33.661Z</time></trkpt><trkpt lat="45.6053239" lon="10.7992584"><ele>252.0</ele><time>2026-04-26T08:04:34.664Z</time></trkpt><trkpt lat="45.6053866" lon="10.7993002"><ele>252.0</ele><time>2026-04-26T08:04:35.658Z</time></trkpt><trkpt lat="45.6054892" lon="10.7993895"><ele>253.8</ele><time>2026-04-26T08:04:37.675Z</time></trkpt><trkpt lat="45.605531" lon="10.79946"><ele>255.6</ele><time>2026-04-26T08:04:38.672Z</time></trkpt><trkpt lat="45.6055604" lon="10.7995466"><ele>257.40000000000003</ele><time>2026-04-26T08:04:39.675Z</time></trkpt><trkpt lat="45.6055803" lon="10.799679"><ele>259.2</ele><time>2026-04-26T08:04:40.679Z</time></trkpt><trkpt lat="45.6055899" lon="10.7998322"><ele>261.0</ele><time>2026-04-26T08:04:41.672Z</time></trkpt><trkpt lat="45.6055884" lon="10.8000081"><ele>261.5</ele><time>2026-04-26T08:04:42.669Z</time></trkpt><trkpt lat="45.6055739" lon="10.8001897"><ele>262.0</ele><time>2026-04-26T08:04:43.67Z</time></trkpt><trkpt lat="45.6055464" lon="10.8003771"><ele>262.5</ele><time>2026-04-26T08:04:44.674Z</time></trkpt><trkpt lat="45.6055208" lon="10.8005751"><ele>263.0</ele><time>2026-04-26T08:04:45.669Z</time></trkpt><trkpt lat="45.6054939" lon="10.8007797"><ele>263.0</ele><time>2026-04-26T08:04:46.673Z</time></trkpt><trkpt lat="45.605464" lon="10.8009832"><ele>263.0</ele><time>2026-04-26T08:04:47.669Z</time></trkpt><trkpt lat="45.6054351" lon="10.8011757"><ele>263.0</ele><time>2026-04-26T08:04:48.673Z</time></trkpt><trkpt lat="45.6054109" lon="10.8013604"><ele>263.0</ele><time>2026-04-26T08:04:49.672Z</time></trkpt><trkpt lat="45.6053887" lon="10.8015401"><ele>264.25</ele><time>2026-04-26T08:04:50.669Z</time></trkpt><trkpt lat="45.605367" lon="10.8017129"><ele>265.5</ele><time>2026-04-26T08:04:51.674Z</time></trkpt><trkpt lat="45.6053467" lon="10.8018824"><ele>266.75</ele><time>2026-04-26T08:04:52.674Z</time></trkpt><trkpt lat="45.6053336" lon="10.8020455"><ele>268.0</ele><time>2026-04-26T08:04:53.672Z</time></trkpt><trkpt lat="45.6053141" lon="10.8022011"><ele>265.8</ele><time>2026-04-26T08:04:54.675Z</time></trkpt><trkpt lat="45.6052879" lon="10.8023454"><ele>263.6</ele><time>2026-04-26T08:04:55.677Z</time></trkpt><trkpt lat="45.6052591" lon="10.8024808"><ele>261.4</ele><time>2026-04-26T08:04:56.678Z</time></trkpt><trkpt lat="45.6052293" lon="10.8026073"><ele>259.2</ele><time>2026-04-26T08:04:57.671Z</time></trkpt><trkpt lat="45.6052038" lon="10.8027305"><ele>257.0</ele><time>2026-04-26T08:04:58.678Z</time></trkpt><trkpt lat="45.6051842" lon="10.8028476"><ele>257.0</ele><time>2026-04-26T08:04:59.678Z</time></trkpt><trkpt lat="45.6051753" lon="10.8029638"><ele>257.0</ele><time>2026-04-26T08:05:00.677Z</time></trkpt><trkpt lat="45.6051699" lon="10.8030561"><ele>257.0</ele><time>2026-04-26T08:05:01.679Z</time></trkpt><trkpt lat="45.6051823" lon="10.8031531"><ele>257.0</ele><time>2026-04-26T08:05:02.669Z</time></trkpt><trkpt lat="45.6052032" lon="10.8032496"><ele>257.0</ele><time>2026-04-26T08:05:03.671Z</time></trkpt><trkpt lat="45.6052258" lon="10.8033501"><ele>257.0</ele><time>2026-04-26T08:05:04.676Z</time></trkpt><trkpt lat="45.6052371" lon="10.8034697"><ele>257.0</ele><time>2026-04-26T08:05:05.668Z</time></trkpt><trkpt lat="45.6052352" lon="10.8036051"><ele>257.6</ele><time>2026-04-26T08:05:06.677Z</time></trkpt><trkpt lat="45.6052264" lon="10.8037575"><ele>258.2</ele><time>2026-04-26T08:05:07.674Z</time></trkpt><trkpt lat="45.6052123" lon="10.8039062"><ele>258.8</ele><time>2026-04-26T08:05:08.673Z</time></trkpt><trkpt lat="45.6051967" lon="10.8040652"><ele>259.4</ele><time>2026-04-26T08:05:09.681Z</time></trkpt><trkpt lat="45.605179" lon="10.8042213"><ele>260.0</ele><time>2026-04-26T08:05:10.669Z</time></trkpt><trkpt lat="45.6051657" lon="10.8043795"><ele>260.4</ele><time>2026-04-26T08:05:11.679Z</time></trkpt><trkpt lat="45.6051498" lon="10.8045294"><ele>260.8</ele><time>2026-04-26T08:05:12.676Z</time></trkpt><trkpt lat="45.6051411" lon="10.8046706"><ele>261.2</ele><time>2026-04-26T08:05:13.681Z</time></trkpt><trkpt lat="45.605138" lon="10.8048058"><ele>261.6</ele><time>2026-04-26T08:05:14.675Z</time></trkpt><trkpt lat="45.605138" lon="10.8049299"><ele>262.0</ele><time>2026-04-26T08:05:15.668Z</time></trkpt><trkpt lat="45.6051414" lon="10.8050353"><ele>262.0</ele><time>2026-04-26T08:05:16.672Z</time></trkpt><trkpt lat="45.6051482" lon="10.8051323"><ele>262.0</ele><time>2026-04-26T08:05:17.676Z</time></trkpt><trkpt lat="45.6051705" lon="10.8052986"><ele>262.0</ele><time>2026-04-26T08:05:19.673Z</time></trkpt><trkpt lat="45.6052446" lon="10.8054476"><ele>262.0</ele><time>2026-04-26T08:05:21.675Z</time></trkpt><trkpt lat="45.6053139" lon="10.8055086"><ele>262.0</ele><time>2026-04-26T08:05:22.667Z</time></trkpt><trkpt lat="45.6053807" lon="10.8055657"><ele>262.6</ele><time>2026-04-26T08:05:23.665Z</time></trkpt><trkpt lat="45.6054354" lon="10.8056196"><ele>263.2</ele><time>2026-04-26T08:05:24.669Z</time></trkpt><trkpt lat="45.6055268" lon="10.805734"><ele>263.8</ele><time>2026-04-26T08:05:26.669Z</time></trkpt><trkpt lat="45.6055984" lon="10.8058813"><ele>264.4</ele><time>2026-04-26T08:05:28.674Z</time></trkpt><trkpt lat="45.6056277" lon="10.8059696"><ele>265.0</ele><time>2026-04-26T08:05:29.674Z</time></trkpt><trkpt lat="45.605659" lon="10.8060681"><ele>265.0</ele><time>2026-04-26T08:05:30.665Z</time></trkpt><trkpt lat="45.6056879" lon="10.8061726"><ele>265.0</ele><time>2026-04-26T08:05:31.667Z</time></trkpt><trkpt lat="45.6057113" lon="10.8062711"><ele>265.0</ele><time>2026-04-26T08:05:32.671Z</time></trkpt><trkpt lat="45.605737" lon="10.8063727"><ele>265.0</ele><time>2026-04-26T08:05:33.66Z</time></trkpt><trkpt lat="45.6057611" lon="10.8064781"><ele>265.0</ele><time>2026-04-26T08:05:34.672Z</time></trkpt><trkpt lat="45.6057828" lon="10.806582"><ele>265.0</ele><time>2026-04-26T08:05:35.659Z</time></trkpt><trkpt lat="45.6058076" lon="10.8066821"><ele>265.0</ele><time>2026-04-26T08:05:36.674Z</time></trkpt><trkpt lat="45.6058345" lon="10.8067823"><ele>265.0</ele><time>2026-04-26T08:05:37.663Z</time></trkpt><trkpt lat="45.6058604" lon="10.8068855"><ele>265.0</ele><time>2026-04-26T08:05:38.66Z</time></trkpt><trkpt lat="45.6058876" lon="10.8069973"><ele>265.0</ele><time>2026-04-26T08:05:39.663Z</time></trkpt><trkpt lat="45.6059188" lon="10.8071086"><ele>265.0</ele><time>2026-04-26T08:05:40.666Z</time></trkpt><trkpt lat="45.6059451" lon="10.8072231"><ele>265.0</ele><time>2026-04-26T08:05:41.658Z</time></trkpt><trkpt lat="45.6059691" lon="10.8073403"><ele>264.8333333333333</ele><time>2026-04-26T08:05:42.669Z</time></trkpt><trkpt lat="45.6059899" lon="10.8074483"><ele>264.66666666666663</ele><time>2026-04-26T08:05:43.661Z</time></trkpt><trkpt lat="45.6060143" lon="10.8075519"><ele>264.5</ele><time>2026-04-26T08:05:44.668Z</time></trkpt><trkpt lat="45.6060409" lon="10.8076463"><ele>264.3333333333333</ele><time>2026-04-26T08:05:45.666Z</time></trkpt><trkpt lat="45.6060724" lon="10.8077419"><ele>264.1666666666667</ele><time>2026-04-26T08:05:46.666Z</time></trkpt><trkpt lat="45.6061052" lon="10.8078406"><ele>264.0</ele><time>2026-04-26T08:05:47.673Z</time></trkpt><trkpt lat="45.6061358" lon="10.8079392"><ele>264.5</ele><time>2026-04-26T08:05:48.676Z</time></trkpt><trkpt lat="45.6061711" lon="10.8080411"><ele>265.0</ele><time>2026-04-26T08:05:49.671Z</time></trkpt><trkpt lat="45.6061982" lon="10.8081449"><ele>265.5</ele><time>2026-04-26T08:05:50.67Z</time></trkpt><trkpt lat="45.6062165" lon="10.8082527"><ele>266.0</ele><time>2026-04-26T08:05:51.675Z</time></trkpt><trkpt lat="45.606232" lon="10.8083664"><ele>266.5</ele><time>2026-04-26T08:05:52.672Z</time></trkpt><trkpt lat="45.6062505" lon="10.8084815"><ele>267.0</ele><time>2026-04-26T08:05:53.671Z</time></trkpt><trkpt lat="45.6062798" lon="10.8085931"><ele>267.0</ele><time>2026-04-26T08:05:54.673Z</time></trkpt><trkpt lat="45.6063255" lon="10.8086956"><ele>267.0</ele><time>2026-04-26T08:05:55.665Z</time></trkpt><trkpt lat="45.606382" lon="10.8087893"><ele>267.0</ele><time>2026-04-26T08:05:56.665Z</time></trkpt><trkpt lat="45.6064511" lon="10.808885"><ele>267.0</ele><time>2026-04-26T08:05:57.665Z</time></trkpt><trkpt lat="45.6065276" lon="10.8089841"><ele>267.0</ele><time>2026-04-26T08:05:58.666Z</time></trkpt><trkpt lat="45.6066111" lon="10.8090835"><ele>267.0</ele><time>2026-04-26T08:05:59.664Z</time></trkpt><trkpt lat="45.6067014" lon="10.8091865"><ele>267.0</ele><time>2026-04-26T08:06:00.661Z</time></trkpt><trkpt lat="45.6067937" lon="10.8092851"><ele>267.0</ele><time>2026-04-26T08:06:01.667Z</time></trkpt><trkpt lat="45.6068824" lon="10.8093897"><ele>267.0</ele><time>2026-04-26T08:06:02.661Z</time></trkpt><trkpt lat="45.6069528" lon="10.8094779"><ele>267.0</ele><time>2026-04-26T08:06:03.66Z</time></trkpt><trkpt lat="45.6070134" lon="10.8095501"><ele>267.0</ele><time>2026-04-26T08:06:04.665Z</time></trkpt><trkpt lat="45.6070645" lon="10.8096149"><ele>267.0</ele><time>2026-04-26T08:06:05.66Z</time></trkpt><trkpt lat="45.6071328" lon="10.8096989"><ele>267.0</ele><time>2026-04-26T08:06:07.66Z</time></trkpt><trkpt lat="45.6070935" lon="10.8098311"><ele>267.0</ele><time>2026-04-26T08:06:10.666Z</time></trkpt><trkpt lat="45.6069927" lon="10.8099202"><ele>267.0</ele><time>2026-04-26T08:06:12.664Z</time></trkpt><trkpt lat="45.6069178" lon="10.809951"><ele>267.0</ele><time>2026-04-26T08:06:13.663Z</time></trkpt><trkpt lat="45.606832" lon="10.8099843"><ele>267.0</ele><time>2026-04-26T08:06:14.667Z</time></trkpt><trkpt lat="45.606751" lon="10.8100285"><ele>267.0</ele><time>2026-04-26T08:06:15.671Z</time></trkpt><trkpt lat="45.6066796" lon="10.8100741"><ele>267.0</ele><time>2026-04-26T08:06:16.667Z</time></trkpt><trkpt lat="45.6066136" lon="10.8101132"><ele>267.0</ele><time>2026-04-26T08:06:17.665Z</time></trkpt><trkpt lat="45.6065202" lon="10.8101827"><ele>267.0</ele><time>2026-04-26T08:06:19.661Z</time></trkpt><trkpt lat="45.6064559" lon="10.8102418"><ele>267.1666666666667</ele><time>2026-04-26T08:06:21.667Z</time></trkpt><trkpt lat="45.6064269" lon="10.8103488"><ele>267.3333333333333</ele><time>2026-04-26T08:06:23.664Z</time></trkpt><trkpt lat="45.606388" lon="10.810494"><ele>267.5</ele><time>2026-04-26T08:06:25.656Z</time></trkpt><trkpt lat="45.6063546" lon="10.8105905"><ele>267.66666666666663</ele><time>2026-04-26T08:06:26.663Z</time></trkpt><trkpt lat="45.6063197" lon="10.810684"><ele>267.8333333333333</ele><time>2026-04-26T08:06:27.663Z</time></trkpt><trkpt lat="45.6062715" lon="10.8107764"><ele>268.0</ele><time>2026-04-26T08:06:28.67Z</time></trkpt><trkpt lat="45.6062178" lon="10.8108777"><ele>267.8</ele><time>2026-04-26T08:06:29.663Z</time></trkpt><trkpt lat="45.6061606" lon="10.8109799"><ele>267.6</ele><time>2026-04-26T08:06:30.67Z</time></trkpt><trkpt lat="45.6061027" lon="10.8110798"><ele>267.4</ele><time>2026-04-26T08:06:31.668Z</time></trkpt><trkpt lat="45.6060417" lon="10.8111776"><ele>267.2</ele><time>2026-04-26T08:06:32.665Z</time></trkpt><trkpt lat="45.6059798" lon="10.8112753"><ele>267.0</ele><time>2026-04-26T08:06:33.666Z</time></trkpt><trkpt lat="45.6059207" lon="10.8113695"><ele>267.3333333333333</ele><time>2026-04-26T08:06:34.664Z</time></trkpt><trkpt lat="45.6058587" lon="10.8114592"><ele>267.6666666666667</ele><time>2026-04-26T08:06:35.661Z</time></trkpt><trkpt lat="45.6057969" lon="10.8115483"><ele>268.0</ele><time>2026-04-26T08:06:36.669Z</time></trkpt><trkpt lat="45.6057324" lon="10.8116372"><ele>268.33333333333337</ele><time>2026-04-26T08:06:37.662Z</time></trkpt><trkpt lat="45.6056807" lon="10.8117224"><ele>268.6666666666667</ele><time>2026-04-26T08:06:38.66Z</time></trkpt><trkpt lat="45.6056437" lon="10.8118111"><ele>269.0</ele><time>2026-04-26T08:06:39.663Z</time></trkpt><trkpt lat="45.6056193" lon="10.8118992"><ele>269.1666666666667</ele><time>2026-04-26T08:06:40.659Z</time></trkpt><trkpt lat="45.6056008" lon="10.8120014"><ele>269.33333333333337</ele><time>2026-04-26T08:06:41.658Z</time></trkpt><trkpt lat="45.6055862" lon="10.8121123"><ele>269.5</ele><time>2026-04-26T08:06:42.665Z</time></trkpt><trkpt lat="45.605567" lon="10.8122195"><ele>269.6666666666667</ele><time>2026-04-26T08:06:43.659Z</time></trkpt><trkpt lat="45.6055585" lon="10.812314"><ele>269.8333333333333</ele><time>2026-04-26T08:06:44.663Z</time></trkpt><trkpt lat="45.6055513" lon="10.8124357"><ele>270.0</ele><time>2026-04-26T08:06:46.661Z</time></trkpt><trkpt lat="45.6055237" lon="10.8125237"><ele>270.0</ele><time>2026-04-26T08:06:49.661Z</time></trkpt><trkpt lat="45.6054489" lon="10.8126318"><ele>270.0</ele><time>2026-04-26T08:06:51.654Z</time></trkpt><trkpt lat="45.6053727" lon="10.8127427"><ele>270.0</ele><time>2026-04-26T08:06:53.654Z</time></trkpt><trkpt lat="45.6053198" lon="10.8128128"><ele>270.0</ele><time>2026-04-26T08:06:54.653Z</time></trkpt><trkpt lat="45.6052746" lon="10.8129054"><ele>270.0</ele><time>2026-04-26T08:06:55.659Z</time></trkpt><trkpt lat="45.6052289" lon="10.8130061"><ele>269.6</ele><time>2026-04-26T08:06:56.663Z</time></trkpt><trkpt lat="45.605185" lon="10.8131165"><ele>269.2</ele><time>2026-04-26T08:06:57.662Z</time></trkpt><trkpt lat="45.6051429" lon="10.8132319"><ele>268.8</ele><time>2026-04-26T08:06:58.661Z</time></trkpt><trkpt lat="45.6051048" lon="10.813362"><ele>268.4</ele><time>2026-04-26T08:06:59.663Z</time></trkpt><trkpt lat="45.6050655" lon="10.8135062"><ele>268.0</ele><time>2026-04-26T08:07:00.666Z</time></trkpt><trkpt lat="45.605029" lon="10.8136536"><ele>268.0</ele><time>2026-04-26T08:07:01.664Z</time></trkpt><trkpt lat="45.6049921" lon="10.8137905"><ele>268.0</ele><time>2026-04-26T08:07:02.665Z</time></trkpt><trkpt lat="45.604957" lon="10.8139163"><ele>268.0</ele><time>2026-04-26T08:07:03.66Z</time></trkpt><trkpt lat="45.60492" lon="10.8140339"><ele>268.0</ele><time>2026-04-26T08:07:04.667Z</time></trkpt><trkpt lat="45.6048918" lon="10.8141523"><ele>268.0</ele><time>2026-04-26T08:07:05.663Z</time></trkpt><trkpt lat="45.6048629" lon="10.814267"><ele>268.16666666666663</ele><time>2026-04-26T08:07:06.66Z</time></trkpt><trkpt lat="45.6048371" lon="10.8143806"><ele>268.3333333333333</ele><time>2026-04-26T08:07:07.662Z</time></trkpt><trkpt lat="45.604812" lon="10.8144939"><ele>268.5</ele><time>2026-04-26T08:07:08.661Z</time></trkpt><trkpt lat="45.6047894" lon="10.8146074"><ele>268.6666666666667</ele><time>2026-04-26T08:07:09.659Z</time></trkpt><trkpt lat="45.6047729" lon="10.8147305"><ele>268.83333333333337</ele><time>2026-04-26T08:07:10.664Z</time></trkpt><trkpt lat="45.6047492" lon="10.8148571"><ele>269.0</ele><time>2026-04-26T08:07:11.66Z</time></trkpt><trkpt lat="45.604726" lon="10.814988"><ele>269.0</ele><time>2026-04-26T08:07:12.671Z</time></trkpt><trkpt lat="45.6047025" lon="10.8151245"><ele>269.0</ele><time>2026-04-26T08:07:13.66Z</time></trkpt><trkpt lat="45.6046828" lon="10.815261"><ele>269.0</ele><time>2026-04-26T08:07:14.664Z</time></trkpt><trkpt lat="45.6046667" lon="10.8153998"><ele>269.0</ele><time>2026-04-26T08:07:15.667Z</time></trkpt><trkpt lat="45.6046512" lon="10.8155237"><ele>269.0</ele><time>2026-04-26T08:07:16.664Z</time></trkpt><trkpt lat="45.6046442" lon="10.8156343"><ele>269.0</ele><time>2026-04-26T08:07:17.664Z</time></trkpt><trkpt lat="45.6046376" lon="10.815731"><ele>269.0</ele><time>2026-04-26T08:07:18.66Z</time></trkpt><trkpt lat="45.6046434" lon="10.8158815"><ele>269.0</ele><time>2026-04-26T08:07:20.67Z</time></trkpt><trkpt lat="45.6046773" lon="10.816001"><ele>269.0</ele><time>2026-04-26T08:07:24.658Z</time></trkpt><trkpt lat="45.6047302" lon="10.8161339"><ele>269.0</ele><time>2026-04-26T08:07:26.663Z</time></trkpt><trkpt lat="45.6047458" lon="10.816231"><ele>269.0</ele><time>2026-04-26T08:07:27.664Z</time></trkpt><trkpt lat="45.6047513" lon="10.8163669"><ele>269.0</ele><time>2026-04-26T08:07:28.664Z</time></trkpt><trkpt lat="45.604761" lon="10.8165284"><ele>269.0</ele><time>2026-04-26T08:07:29.661Z</time></trkpt><trkpt lat="45.6047735" lon="10.8167035"><ele>269.0</ele><time>2026-04-26T08:07:30.664Z</time></trkpt><trkpt lat="45.6047829" lon="10.8168768"><ele>269.0</ele><time>2026-04-26T08:07:31.662Z</time></trkpt><trkpt lat="45.6047895" lon="10.817026"><ele>269.8</ele><time>2026-04-26T08:07:32.666Z</time></trkpt><trkpt lat="45.6048061" lon="10.8171602"><ele>270.59999999999997</ele><time>2026-04-26T08:07:33.661Z</time></trkpt><trkpt lat="45.6048339" lon="10.8172899"><ele>271.4</ele><time>2026-04-26T08:07:34.662Z</time></trkpt><trkpt lat="45.6048731" lon="10.8174254"><ele>272.2</ele><time>2026-04-26T08:07:35.657Z</time></trkpt><trkpt lat="45.6049058" lon="10.8175459"><ele>273.0</ele><time>2026-04-26T08:07:36.656Z</time></trkpt><trkpt lat="45.6049309" lon="10.8176561"><ele>273.1666666666667</ele><time>2026-04-26T08:07:37.656Z</time></trkpt><trkpt lat="45.6049497" lon="10.8177527"><ele>273.3333333333333</ele><time>2026-04-26T08:07:38.65Z</time></trkpt><trkpt lat="45.6049261" lon="10.8179327"><ele>273.5</ele><time>2026-04-26T08:07:40.66Z</time></trkpt><trkpt lat="45.604874" lon="10.8180216"><ele>273.66666666666663</ele><time>2026-04-26T08:07:41.651Z</time></trkpt><trkpt lat="45.6048244" lon="10.8181127"><ele>273.8333333333333</ele><time>2026-04-26T08:07:42.659Z</time></trkpt><trkpt lat="45.6047787" lon="10.8182029"><ele>274.0</ele><time>2026-04-26T08:07:43.653Z</time></trkpt><trkpt lat="45.6047307" lon="10.8182987"><ele>274.0</ele><time>2026-04-26T08:07:44.653Z</time></trkpt><trkpt lat="45.6046899" lon="10.8183814"><ele>274.0</ele><time>2026-04-26T08:07:45.661Z</time></trkpt><trkpt lat="45.6046276" lon="10.818518"><ele>274.0</ele><time>2026-04-26T08:07:47.657Z</time></trkpt><trkpt lat="45.6045779" lon="10.8186327"><ele>274.0</ele><time>2026-04-26T08:07:49.661Z</time></trkpt><trkpt lat="45.6045383" lon="10.8187583"><ele>274.0</ele><time>2026-04-26T08:07:51.666Z</time></trkpt><trkpt lat="45.6044992" lon="10.8188749"><ele>274.59999999999997</ele><time>2026-04-26T08:07:53.66Z</time></trkpt><trkpt lat="45.6045026" lon="10.8190096"><ele>275.2</ele><time>2026-04-26T08:07:59.662Z</time></trkpt><trkpt lat="45.6045111" lon="10.8191313"><ele>275.79999999999995</ele><time>2026-04-26T08:08:01.664Z</time></trkpt><trkpt lat="45.6045344" lon="10.8192497"><ele>276.4</ele><time>2026-04-26T08:08:03.656Z</time></trkpt><trkpt lat="45.604577" lon="10.8193796"><ele>277.0</ele><time>2026-04-26T08:08:05.654Z</time></trkpt><trkpt lat="45.6046303" lon="10.8195517"><ele>278.3333333333333</ele><time>2026-04-26T08:08:07.657Z</time></trkpt><trkpt lat="45.6046552" lon="10.819643"><ele>279.66666666666663</ele><time>2026-04-26T08:08:08.649Z</time></trkpt><trkpt lat="45.6046737" lon="10.819734"><ele>281.0</ele><time>2026-04-26T08:08:09.65Z</time></trkpt><trkpt lat="45.6046852" lon="10.8198241"><ele>282.3333333333333</ele><time>2026-04-26T08:08:10.663Z</time></trkpt><trkpt lat="45.6046816" lon="10.8200105"><ele>283.6666666666667</ele><time>2026-04-26T08:08:12.659Z</time></trkpt><trkpt lat="45.6046707" lon="10.8201096"><ele>285.0</ele><time>2026-04-26T08:08:13.653Z</time></trkpt><trkpt lat="45.6046516" lon="10.8202047"><ele>286.1666666666667</ele><time>2026-04-26T08:08:14.656Z</time></trkpt><trkpt lat="45.6046229" lon="10.8203111"><ele>287.3333333333333</ele><time>2026-04-26T08:08:15.655Z</time></trkpt><trkpt lat="45.6045874" lon="10.8204269"><ele>288.5</ele><time>2026-04-26T08:08:16.653Z</time></trkpt><trkpt lat="45.6045512" lon="10.8205336"><ele>289.66666666666663</ele><time>2026-04-26T08:08:17.658Z</time></trkpt><trkpt lat="45.6045152" lon="10.8206332"><ele>290.8333333333333</ele><time>2026-04-26T08:08:18.66Z</time></trkpt><trkpt lat="45.6044898" lon="10.8207235"><ele>292.0</ele><time>2026-04-26T08:08:19.655Z</time></trkpt><trkpt lat="45.6044706" lon="10.820818"><ele>290.16666666666663</ele><time>2026-04-26T08:08:20.664Z</time></trkpt><trkpt lat="45.604453" lon="10.820919"><ele>288.3333333333333</ele><time>2026-04-26T08:08:21.659Z</time></trkpt><trkpt lat="45.604441" lon="10.8210225"><ele>286.5</ele><time>2026-04-26T08:08:22.657Z</time></trkpt><trkpt lat="45.6044352" lon="10.8211354"><ele>284.6666666666667</ele><time>2026-04-26T08:08:23.657Z</time></trkpt><trkpt lat="45.604435" lon="10.8212514"><ele>282.83333333333337</ele><time>2026-04-26T08:08:24.659Z</time></trkpt><trkpt lat="45.6044345" lon="10.8213811"><ele>281.0</ele><time>2026-04-26T08:08:25.657Z</time></trkpt><trkpt lat="45.6044323" lon="10.8215212"><ele>281.0</ele><time>2026-04-26T08:08:26.659Z</time></trkpt><trkpt lat="45.6044268" lon="10.8216587"><ele>281.0</ele><time>2026-04-26T08:08:27.656Z</time></trkpt><trkpt lat="45.6044167" lon="10.8217766"><ele>281.0</ele><time>2026-04-26T08:08:28.66Z</time></trkpt><trkpt lat="45.6044037" lon="10.8218797"><ele>281.0</ele><time>2026-04-26T08:08:29.648Z</time></trkpt><trkpt lat="45.6043688" lon="10.822028"><ele>281.0</ele><time>2026-04-26T08:08:31.653Z</time></trkpt><trkpt lat="45.6042804" lon="10.8221236"><ele>281.6</ele><time>2026-04-26T08:08:33.658Z</time></trkpt><trkpt lat="45.6042115" lon="10.8221436"><ele>282.20000000000005</ele><time>2026-04-26T08:08:34.656Z</time></trkpt><trkpt lat="45.6041267" lon="10.8221519"><ele>282.79999999999995</ele><time>2026-04-26T08:08:35.664Z</time></trkpt><trkpt lat="45.6040249" lon="10.8221409"><ele>283.4</ele><time>2026-04-26T08:08:36.663Z</time></trkpt><trkpt lat="45.6039277" lon="10.8221396"><ele>284.0</ele><time>2026-04-26T08:08:37.659Z</time></trkpt><trkpt lat="45.603828" lon="10.8221419"><ele>284.0</ele><time>2026-04-26T08:08:38.668Z</time></trkpt><trkpt lat="45.6037296" lon="10.8221569"><ele>284.0</ele><time>2026-04-26T08:08:39.656Z</time></trkpt><trkpt lat="45.6036367" lon="10.822158"><ele>284.0</ele><time>2026-04-26T08:08:40.667Z</time></trkpt><trkpt lat="45.6035425" lon="10.8221667"><ele>284.0</ele><time>2026-04-26T08:08:41.667Z</time></trkpt><trkpt lat="45.6034543" lon="10.8221768"><ele>284.0</ele><time>2026-04-26T08:08:42.669Z</time></trkpt><trkpt lat="45.6033693" lon="10.8221948"><ele>283.0</ele><time>2026-04-26T08:08:43.661Z</time></trkpt><trkpt lat="45.6032841" lon="10.8222249"><ele>282.0</ele><time>2026-04-26T08:08:44.673Z</time></trkpt><trkpt lat="45.6032066" lon="10.8222665"><ele>281.0</ele><time>2026-04-26T08:08:45.668Z</time></trkpt><trkpt lat="45.6031374" lon="10.8223066"><ele>280.0</ele><time>2026-04-26T08:08:46.668Z</time></trkpt><trkpt lat="45.6030716" lon="10.82234"><ele>279.0</ele><time>2026-04-26T08:08:47.667Z</time></trkpt><trkpt lat="45.6030007" lon="10.8223792"><ele>278.0</ele><time>2026-04-26T08:08:48.672Z</time></trkpt><trkpt lat="45.60292" lon="10.8224225"><ele>278.0</ele><time>2026-04-26T08:08:49.669Z</time></trkpt><trkpt lat="45.6028323" lon="10.822474"><ele>278.0</ele><time>2026-04-26T08:08:50.672Z</time></trkpt><trkpt lat="45.6027438" lon="10.8225213"><ele>278.0</ele><time>2026-04-26T08:08:51.67Z</time></trkpt><trkpt lat="45.6026633" lon="10.8225602"><ele>278.0</ele><time>2026-04-26T08:08:52.668Z</time></trkpt><trkpt lat="45.6025921" lon="10.822602"><ele>278.0</ele><time>2026-04-26T08:08:53.669Z</time></trkpt><trkpt lat="45.6025291" lon="10.8226437"><ele>278.0</ele><time>2026-04-26T08:08:54.668Z</time></trkpt><trkpt lat="45.6024672" lon="10.822691"><ele>278.42857142857144</ele><time>2026-04-26T08:08:55.67Z</time></trkpt><trkpt lat="45.6024033" lon="10.8227419"><ele>278.8571428571429</ele><time>2026-04-26T08:08:56.669Z</time></trkpt><trkpt lat="45.6023423" lon="10.8227938"><ele>279.28571428571433</ele><time>2026-04-26T08:08:57.668Z</time></trkpt><trkpt lat="45.6022814" lon="10.8228486"><ele>279.7142857142857</ele><time>2026-04-26T08:08:58.668Z</time></trkpt><trkpt lat="45.6022196" lon="10.8228944"><ele>280.14285714285717</ele><time>2026-04-26T08:08:59.659Z</time></trkpt><trkpt lat="45.6021549" lon="10.8229356"><ele>280.5714285714286</ele><time>2026-04-26T08:09:00.662Z</time></trkpt><trkpt lat="45.6020964" lon="10.8229779"><ele>281.0</ele><time>2026-04-26T08:09:01.658Z</time></trkpt><trkpt lat="45.6020056" lon="10.8230494"><ele>280.83333333333337</ele><time>2026-04-26T08:09:03.664Z</time></trkpt><trkpt lat="45.601933" lon="10.8230962"><ele>280.6666666666667</ele><time>2026-04-26T08:09:05.663Z</time></trkpt><trkpt lat="45.6018755" lon="10.8231342"><ele>280.5</ele><time>2026-04-26T08:09:07.665Z</time></trkpt><trkpt lat="45.601785" lon="10.8232145"><ele>280.3333333333333</ele><time>2026-04-26T08:09:14.652Z</time></trkpt><trkpt lat="45.6016963" lon="10.8233025"><ele>280.16666666666663</ele><time>2026-04-26T08:09:16.658Z</time></trkpt><trkpt lat="45.6016376" lon="10.8233845"><ele>280.0</ele><time>2026-04-26T08:09:18.664Z</time></trkpt><trkpt lat="45.6015568" lon="10.8234894"><ele>281.66666666666663</ele><time>2026-04-26T08:09:20.66Z</time></trkpt><trkpt lat="45.6014978" lon="10.8235937"><ele>283.3333333333333</ele><time>2026-04-26T08:09:22.658Z</time></trkpt><trkpt lat="45.6014355" lon="10.8236502"><ele>285.0</ele><time>2026-04-26T08:09:26.669Z</time></trkpt><trkpt lat="45.6013579" lon="10.8236924"><ele>286.6666666666667</ele><time>2026-04-26T08:09:29.66Z</time></trkpt><trkpt lat="45.601285" lon="10.8237439"><ele>288.33333333333337</ele><time>2026-04-26T08:09:31.658Z</time></trkpt><trkpt lat="45.6011992" lon="10.8237957"><ele>290.0</ele><time>2026-04-26T08:09:33.653Z</time></trkpt><trkpt lat="45.6011338" lon="10.8238442"><ele>290.2</ele><time>2026-04-26T08:09:39.658Z</time></trkpt><trkpt lat="45.6010629" lon="10.823878"><ele>290.4</ele><time>2026-04-26T08:09:41.658Z</time></trkpt><trkpt lat="45.6009842" lon="10.8239021"><ele>290.6</ele><time>2026-04-26T08:09:43.653Z</time></trkpt><trkpt lat="45.6009058" lon="10.8239476"><ele>290.8</ele><time>2026-04-26T08:09:45.657Z</time></trkpt><trkpt lat="45.6008187" lon="10.8240031"><ele>291.0</ele><time>2026-04-26T08:09:47.657Z</time></trkpt><trkpt lat="45.6007081" lon="10.8240691"><ele>291.0</ele><time>2026-04-26T08:09:49.667Z</time></trkpt><trkpt lat="45.6006311" lon="10.824077"><ele>291.0</ele><time>2026-04-26T08:09:51.663Z</time></trkpt><trkpt lat="45.6005614" lon="10.8240298"><ele>291.0</ele><time>2026-04-26T08:09:53.668Z</time></trkpt><trkpt lat="45.6004453" lon="10.8239384"><ele>291.0</ele><time>2026-04-26T08:09:55.671Z</time></trkpt><trkpt lat="45.6003721" lon="10.8238802"><ele>291.0</ele><time>2026-04-26T08:09:56.668Z</time></trkpt><trkpt lat="45.6002862" lon="10.8238194"><ele>291.40000000000003</ele><time>2026-04-26T08:09:57.668Z</time></trkpt><trkpt lat="45.6002013" lon="10.8237571"><ele>291.8</ele><time>2026-04-26T08:09:58.669Z</time></trkpt><trkpt lat="45.6001139" lon="10.8236972"><ele>292.20000000000005</ele><time>2026-04-26T08:09:59.669Z</time></trkpt><trkpt lat="45.6000252" lon="10.8236392"><ele>292.6</ele><time>2026-04-26T08:10:00.663Z</time></trkpt><trkpt lat="45.5999338" lon="10.8235819"><ele>293.0</ele><time>2026-04-26T08:10:01.66Z</time></trkpt><trkpt lat="45.5998382" lon="10.8235265"><ele>291.6</ele><time>2026-04-26T08:10:02.667Z</time></trkpt><trkpt lat="45.5997471" lon="10.8234663"><ele>290.20000000000005</ele><time>2026-04-26T08:10:03.666Z</time></trkpt><trkpt lat="45.5996558" lon="10.8234084"><ele>288.8</ele><time>2026-04-26T08:10:04.67Z</time></trkpt><trkpt lat="45.5995772" lon="10.8233456"><ele>287.40000000000003</ele><time>2026-04-26T08:10:05.66Z</time></trkpt><trkpt lat="45.5995053" lon="10.8232897"><ele>286.0</ele><time>2026-04-26T08:10:06.665Z</time></trkpt><trkpt lat="45.5994213" lon="10.8232567"><ele>286.0</ele><time>2026-04-26T08:10:07.664Z</time></trkpt><trkpt lat="45.5993455" lon="10.8232378"><ele>286.0</ele><time>2026-04-26T08:10:08.657Z</time></trkpt><trkpt lat="45.5992579" lon="10.8232155"><ele>286.0</ele><time>2026-04-26T08:10:09.668Z</time></trkpt><trkpt lat="45.599157" lon="10.8231882"><ele>286.0</ele><time>2026-04-26T08:10:10.664Z</time></trkpt><trkpt lat="45.5990458" lon="10.8231711"><ele>286.0</ele><time>2026-04-26T08:10:11.662Z</time></trkpt><trkpt lat="45.5989244" lon="10.8231521"><ele>286.0</ele><time>2026-04-26T08:10:12.662Z</time></trkpt><trkpt lat="45.5987995" lon="10.8231213"><ele>286.0</ele><time>2026-04-26T08:10:13.667Z</time></trkpt><trkpt lat="45.5986788" lon="10.8230802"><ele>286.0</ele><time>2026-04-26T08:10:14.666Z</time></trkpt><trkpt lat="45.5985598" lon="10.8230396"><ele>286.0</ele><time>2026-04-26T08:10:15.671Z</time></trkpt><trkpt lat="45.5984462" lon="10.8230019"><ele>286.75</ele><time>2026-04-26T08:10:16.663Z</time></trkpt><trkpt lat="45.5983347" lon="10.8229634"><ele>287.5</ele><time>2026-04-26T08:10:17.662Z</time></trkpt><trkpt lat="45.5982223" lon="10.8229262"><ele>288.25</ele><time>2026-04-26T08:10:18.66Z</time></trkpt><trkpt lat="45.5981103" lon="10.8229032"><ele>289.0</ele><time>2026-04-26T08:10:19.656Z</time></trkpt><trkpt lat="45.5980035" lon="10.8228808"><ele>289.0</ele><time>2026-04-26T08:10:20.673Z</time></trkpt><trkpt lat="45.5978999" lon="10.8228547"><ele>289.0</ele><time>2026-04-26T08:10:21.668Z</time></trkpt><trkpt lat="45.5977925" lon="10.8228326"><ele>289.0</ele><time>2026-04-26T08:10:22.664Z</time></trkpt><trkpt lat="45.5976887" lon="10.8228037"><ele>289.0</ele><time>2026-04-26T08:10:23.662Z</time></trkpt><trkpt lat="45.5975809" lon="10.8227651"><ele>289.0</ele><time>2026-04-26T08:10:24.661Z</time></trkpt><trkpt lat="45.5974721" lon="10.8227177"><ele>287.8</ele><time>2026-04-26T08:10:25.662Z</time></trkpt><trkpt lat="45.5973668" lon="10.822667"><ele>286.59999999999997</ele><time>2026-04-26T08:10:26.662Z</time></trkpt><trkpt lat="45.5972507" lon="10.8226171"><ele>285.4</ele><time>2026-04-26T08:10:27.659Z</time></trkpt><trkpt lat="45.5971388" lon="10.8225672"><ele>284.2</ele><time>2026-04-26T08:10:28.664Z</time></trkpt><trkpt lat="45.5970436" lon="10.822526"><ele>283.0</ele><time>2026-04-26T08:10:29.663Z</time></trkpt><trkpt lat="45.5969718" lon="10.8224863"><ele>281.3333333333333</ele><time>2026-04-26T08:10:30.659Z</time></trkpt><trkpt lat="45.5969119" lon="10.8224371"><ele>279.66666666666663</ele><time>2026-04-26T08:10:31.664Z</time></trkpt><trkpt lat="45.596852" lon="10.822367"><ele>278.0</ele><time>2026-04-26T08:10:32.659Z</time></trkpt><trkpt lat="45.5967983" lon="10.8222845"><ele>276.3333333333333</ele><time>2026-04-26T08:10:33.66Z</time></trkpt><trkpt lat="45.5967542" lon="10.8222024"><ele>274.6666666666667</ele><time>2026-04-26T08:10:34.664Z</time></trkpt><trkpt lat="45.5967099" lon="10.8220753"><ele>273.0</ele><time>2026-04-26T08:10:36.661Z</time></trkpt><trkpt lat="45.5966307" lon="10.8221446"><ele>273.0</ele><time>2026-04-26T08:10:41.664Z</time></trkpt><trkpt lat="45.5965821" lon="10.8222056"><ele>273.0</ele><time>2026-04-26T08:10:42.669Z</time></trkpt><trkpt lat="45.5965203" lon="10.8222707"><ele>273.0</ele><time>2026-04-26T08:10:43.661Z</time></trkpt><trkpt lat="45.5964529" lon="10.8223317"><ele>273.0</ele><time>2026-04-26T08:10:44.661Z</time></trkpt><trkpt lat="45.5963844" lon="10.8223877"><ele>273.0</ele><time>2026-04-26T08:10:45.664Z</time></trkpt><trkpt lat="45.5963143" lon="10.8224443"><ele>273.0</ele><time>2026-04-26T08:10:46.667Z</time></trkpt><trkpt lat="45.5962449" lon="10.8225015"><ele>273.0</ele><time>2026-04-26T08:10:47.658Z</time></trkpt><trkpt lat="45.5961741" lon="10.8225568"><ele>273.0</ele><time>2026-04-26T08:10:48.665Z</time></trkpt><trkpt lat="45.596102" lon="10.822601"><ele>273.0</ele><time>2026-04-26T08:10:49.662Z</time></trkpt><trkpt lat="45.5960255" lon="10.8226488"><ele>273.0</ele><time>2026-04-26T08:10:50.666Z</time></trkpt><trkpt lat="45.5959475" lon="10.8226995"><ele>273.0</ele><time>2026-04-26T08:10:51.664Z</time></trkpt><trkpt lat="45.5958689" lon="10.8227585"><ele>273.0</ele><time>2026-04-26T08:10:52.663Z</time></trkpt><trkpt lat="45.5957945" lon="10.8228128"><ele>273.6666666666667</ele><time>2026-04-26T08:10:53.659Z</time></trkpt><trkpt lat="45.5957238" lon="10.822871"><ele>274.3333333333333</ele><time>2026-04-26T08:10:54.66Z</time></trkpt><trkpt lat="45.595662" lon="10.822936"><ele>275.0</ele><time>2026-04-26T08:10:55.668Z</time></trkpt><trkpt lat="45.595602" lon="10.8230002"><ele>275.66666666666663</ele><time>2026-04-26T08:10:56.671Z</time></trkpt><trkpt lat="45.5955477" lon="10.8230682"><ele>276.3333333333333</ele><time>2026-04-26T08:10:57.667Z</time></trkpt><trkpt lat="45.5954862" lon="10.8231585"><ele>277.0</ele><time>2026-04-26T08:10:58.665Z</time></trkpt><trkpt lat="45.595431" lon="10.8232506"><ele>277.0</ele><time>2026-04-26T08:10:59.664Z</time></trkpt><trkpt lat="45.5953746" lon="10.8233459"><ele>277.0</ele><time>2026-04-26T08:11:00.662Z</time></trkpt><trkpt lat="45.595332" lon="10.8234399"><ele>277.0</ele><time>2026-04-26T08:11:01.664Z</time></trkpt><trkpt lat="45.595294" lon="10.8235314"><ele>277.0</ele><time>2026-04-26T08:11:02.666Z</time></trkpt><trkpt lat="45.5952562" lon="10.8236096"><ele>277.0</ele><time>2026-04-26T08:11:03.672Z</time></trkpt><trkpt lat="45.5952174" lon="10.8236862"><ele>277.0</ele><time>2026-04-26T08:11:04.664Z</time></trkpt><trkpt lat="45.595157" lon="10.8238144"><ele>276.2</ele><time>2026-04-26T08:11:06.672Z</time></trkpt><trkpt lat="45.5950884" lon="10.8239121"><ele>275.4</ele><time>2026-04-26T08:11:08.667Z</time></trkpt><trkpt lat="45.595024" lon="10.8240075"><ele>274.6</ele><time>2026-04-26T08:11:10.667Z</time></trkpt><trkpt lat="45.594969" lon="10.8240971"><ele>273.8</ele><time>2026-04-26T08:11:12.667Z</time></trkpt><trkpt lat="45.5949107" lon="10.8241752"><ele>273.0</ele><time>2026-04-26T08:11:14.665Z</time></trkpt><trkpt lat="45.5948251" lon="10.8242437"><ele>273.0</ele><time>2026-04-26T08:11:16.666Z</time></trkpt><trkpt lat="45.5947131" lon="10.8242876"><ele>273.0</ele><time>2026-04-26T08:11:18.667Z</time></trkpt><trkpt lat="45.5946059" lon="10.8243061"><ele>273.0</ele><time>2026-04-26T08:11:20.668Z</time></trkpt><trkpt lat="45.5945133" lon="10.8243305"><ele>273.0</ele><time>2026-04-26T08:11:22.667Z</time></trkpt><trkpt lat="45.5944055" lon="10.8243312"><ele>273.0</ele><time>2026-04-26T08:11:24.668Z</time></trkpt><trkpt lat="45.5943387" lon="10.8243144"><ele>272.0</ele><time>2026-04-26T08:11:25.669Z</time></trkpt><trkpt lat="45.5942665" lon="10.8242829"><ele>271.0</ele><time>2026-04-26T08:11:26.668Z</time></trkpt><trkpt lat="45.5941865" lon="10.8242312"><ele>270.0</ele><time>2026-04-26T08:11:27.664Z</time></trkpt><trkpt lat="45.5941035" lon="10.824171"><ele>269.0</ele><time>2026-04-26T08:11:28.666Z</time></trkpt><trkpt lat="45.5940252" lon="10.824115"><ele>268.0</ele><time>2026-04-26T08:11:29.656Z</time></trkpt><trkpt lat="45.5939603" lon="10.824049"><ele>267.0</ele><time>2026-04-26T08:11:30.668Z</time></trkpt><trkpt lat="45.5938968" lon="10.8239689"><ele>267.0</ele><time>2026-04-26T08:11:31.667Z</time></trkpt><trkpt lat="45.5938378" lon="10.8238824"><ele>267.0</ele><time>2026-04-26T08:11:32.664Z</time></trkpt><trkpt lat="45.5937878" lon="10.8237948"><ele>267.0</ele><time>2026-04-26T08:11:33.663Z</time></trkpt><trkpt lat="45.5937289" lon="10.8237092"><ele>267.0</ele><time>2026-04-26T08:11:34.659Z</time></trkpt><trkpt lat="45.5936586" lon="10.8236304"><ele>267.0</ele><time>2026-04-26T08:11:35.664Z</time></trkpt><trkpt lat="45.5935747" lon="10.8235467"><ele>267.0</ele><time>2026-04-26T08:11:36.665Z</time></trkpt><trkpt lat="45.5934815" lon="10.8234739"><ele>264.4</ele><time>2026-04-26T08:11:37.661Z</time></trkpt><trkpt lat="45.5933882" lon="10.8234102"><ele>261.79999999999995</ele><time>2026-04-26T08:11:38.665Z</time></trkpt><trkpt lat="45.5932947" lon="10.8233497"><ele>259.2</ele><time>2026-04-26T08:11:39.669Z</time></trkpt><trkpt lat="45.5932001" lon="10.8233017"><ele>256.59999999999997</ele><time>2026-04-26T08:11:40.66Z</time></trkpt><trkpt lat="45.5931189" lon="10.823254"><ele>254.0</ele><time>2026-04-26T08:11:41.663Z</time></trkpt><trkpt lat="45.5930558" lon="10.8232128"><ele>254.00000000000003</ele><time>2026-04-26T08:11:42.661Z</time></trkpt><trkpt lat="45.5929428" lon="10.8231595"><ele>254.0</ele><time>2026-04-26T08:11:44.665Z</time></trkpt><trkpt lat="45.5928723" lon="10.8231551"><ele>254.0</ele><time>2026-04-26T08:11:45.667Z</time></trkpt><trkpt lat="45.5928023" lon="10.8231589"><ele>254.0</ele><time>2026-04-26T08:11:46.662Z</time></trkpt><trkpt lat="45.5927312" lon="10.8231702"><ele>254.00000000000003</ele><time>2026-04-26T08:11:47.665Z</time></trkpt><trkpt lat="45.5926605" lon="10.8231622"><ele>254.0</ele><time>2026-04-26T08:11:48.658Z</time></trkpt><trkpt lat="45.5925664" lon="10.8231243"><ele>254.16666666666669</ele><time>2026-04-26T08:11:50.667Z</time></trkpt><trkpt lat="45.5925178" lon="10.8230645"><ele>254.33333333333334</ele><time>2026-04-26T08:11:57.658Z</time></trkpt><trkpt lat="45.5924492" lon="10.8229649"><ele>254.5</ele><time>2026-04-26T08:12:00.658Z</time></trkpt><trkpt lat="45.5924053" lon="10.82282"><ele>254.66666666666669</ele><time>2026-04-26T08:12:02.661Z</time></trkpt><trkpt lat="45.5923995" lon="10.822723"><ele>254.83333333333334</ele><time>2026-04-26T08:12:03.658Z</time></trkpt><trkpt lat="45.5924086" lon="10.8226128"><ele>255.0</ele><time>2026-04-26T08:12:04.657Z</time></trkpt><trkpt lat="45.5924203" lon="10.8225056"><ele>252.4</ele><time>2026-04-26T08:12:05.658Z</time></trkpt><trkpt lat="45.592439" lon="10.8223972"><ele>249.8</ele><time>2026-04-26T08:12:06.664Z</time></trkpt><trkpt lat="45.5924667" lon="10.8223026"><ele>247.2</ele><time>2026-04-26T08:12:07.656Z</time></trkpt><trkpt lat="45.5924681" lon="10.8221716"><ele>244.6</ele><time>2026-04-26T08:12:09.654Z</time></trkpt><trkpt lat="45.5923555" lon="10.8221393"><ele>242.0</ele><time>2026-04-26T08:12:11.653Z</time></trkpt><trkpt lat="45.5922581" lon="10.8221382"><ele>242.0</ele><time>2026-04-26T08:12:12.666Z</time></trkpt><trkpt lat="45.5921326" lon="10.8221265"><ele>242.0</ele><time>2026-04-26T08:12:13.667Z</time></trkpt><trkpt lat="45.5920055" lon="10.8221091"><ele>242.0</ele><time>2026-04-26T08:12:14.668Z</time></trkpt><trkpt lat="45.5918848" lon="10.822088"><ele>242.0</ele><time>2026-04-26T08:12:15.67Z</time></trkpt><trkpt lat="45.5917605" lon="10.8220816"><ele>241.66666666666669</ele><time>2026-04-26T08:12:16.673Z</time></trkpt><trkpt lat="45.5916475" lon="10.822081"><ele>241.33333333333334</ele><time>2026-04-26T08:12:17.661Z</time></trkpt><trkpt lat="45.5915535" lon="10.8220984"><ele>241.0</ele><time>2026-04-26T08:12:18.668Z</time></trkpt><trkpt lat="45.5914861" lon="10.8221255"><ele>240.66666666666669</ele><time>2026-04-26T08:12:19.67Z</time></trkpt><trkpt lat="45.5914135" lon="10.8221567"><ele>240.33333333333334</ele><time>2026-04-26T08:12:20.662Z</time></trkpt><trkpt lat="45.5913434" lon="10.8221661"><ele>240.0</ele><time>2026-04-26T08:12:21.67Z</time></trkpt><trkpt lat="45.5912693" lon="10.822152"><ele>240.0</ele><time>2026-04-26T08:12:22.66Z</time></trkpt><trkpt lat="45.591193" lon="10.822122"><ele>240.0</ele><time>2026-04-26T08:12:23.665Z</time></trkpt><trkpt lat="45.5911073" lon="10.8220716"><ele>240.0</ele><time>2026-04-26T08:12:24.66Z</time></trkpt><trkpt lat="45.5910058" lon="10.8220157"><ele>240.0</ele><time>2026-04-26T08:12:25.662Z</time></trkpt><trkpt lat="45.5908988" lon="10.821956"><ele>240.0</ele><time>2026-04-26T08:12:26.665Z</time></trkpt><trkpt lat="45.5907828" lon="10.821895"><ele>239.75</ele><time>2026-04-26T08:12:27.661Z</time></trkpt><trkpt lat="45.5906658" lon="10.8218384"><ele>239.5</ele><time>2026-04-26T08:12:28.669Z</time></trkpt><trkpt lat="45.5905504" lon="10.8217887"><ele>239.25</ele><time>2026-04-26T08:12:29.663Z</time></trkpt><trkpt lat="45.5904398" lon="10.8217372"><ele>239.0</ele><time>2026-04-26T08:12:30.662Z</time></trkpt><trkpt lat="45.5903387" lon="10.8216956"><ele>236.0</ele><time>2026-04-26T08:12:31.672Z</time></trkpt><trkpt lat="45.5902473" lon="10.821653"><ele>232.99999999999997</ele><time>2026-04-26T08:12:32.673Z</time></trkpt><trkpt lat="45.5901559" lon="10.8216206"><ele>229.99999999999997</ele><time>2026-04-26T08:12:33.67Z</time></trkpt><trkpt lat="45.5900641" lon="10.8215908"><ele>227.0</ele><time>2026-04-26T08:12:34.675Z</time></trkpt><trkpt lat="45.589973" lon="10.821568"><ele>224.0</ele><time>2026-04-26T08:12:35.671Z</time></trkpt><trkpt lat="45.5898834" lon="10.8215359"><ele>224.0</ele><time>2026-04-26T08:12:36.673Z</time></trkpt><trkpt lat="45.5897867" lon="10.8215065"><ele>223.99999999999997</ele><time>2026-04-26T08:12:37.673Z</time></trkpt><trkpt lat="45.589688" lon="10.8214939"><ele>223.99999999999997</ele><time>2026-04-26T08:12:38.667Z</time></trkpt><trkpt lat="45.5895772" lon="10.8215015"><ele>224.0</ele><time>2026-04-26T08:12:39.671Z</time></trkpt><trkpt lat="45.5894629" lon="10.8215308"><ele>224.0</ele><time>2026-04-26T08:12:40.671Z</time></trkpt><trkpt lat="45.5893423" lon="10.8215653"><ele>223.5</ele><time>2026-04-26T08:12:41.671Z</time></trkpt><trkpt lat="45.5892177" lon="10.8216015"><ele>223.0</ele><time>2026-04-26T08:12:42.673Z</time></trkpt><trkpt lat="45.5890956" lon="10.8216457"><ele>222.5</ele><time>2026-04-26T08:12:43.673Z</time></trkpt><trkpt lat="45.5889708" lon="10.8216876"><ele>222.0</ele><time>2026-04-26T08:12:44.67Z</time></trkpt><trkpt lat="45.5888535" lon="10.821723"><ele>222.0</ele><time>2026-04-26T08:12:45.667Z</time></trkpt><trkpt lat="45.5887434" lon="10.8217526"><ele>222.0</ele><time>2026-04-26T08:12:46.664Z</time></trkpt><trkpt lat="45.5886437" lon="10.8217803"><ele>222.0</ele><time>2026-04-26T08:12:47.668Z</time></trkpt><trkpt lat="45.5885557" lon="10.8218039"><ele>222.0</ele><time>2026-04-26T08:12:48.668Z</time></trkpt><trkpt lat="45.5884643" lon="10.8218204"><ele>222.0</ele><time>2026-04-26T08:12:49.661Z</time></trkpt><trkpt lat="45.5883713" lon="10.8218251"><ele>221.33333333333334</ele><time>2026-04-26T08:12:50.663Z</time></trkpt><trkpt lat="45.5882809" lon="10.8218209"><ele>220.66666666666669</ele><time>2026-04-26T08:12:51.672Z</time></trkpt><trkpt lat="45.588192" lon="10.8217964"><ele>220.0</ele><time>2026-04-26T08:12:52.664Z</time></trkpt><trkpt lat="45.5881034" lon="10.8217616"><ele>219.33333333333334</ele><time>2026-04-26T08:12:53.672Z</time></trkpt><trkpt lat="45.5880189" lon="10.8217147"><ele>218.66666666666669</ele><time>2026-04-26T08:12:54.668Z</time></trkpt><trkpt lat="45.5879399" lon="10.8216778"><ele>218.0</ele><time>2026-04-26T08:12:55.665Z</time></trkpt><trkpt lat="45.5878635" lon="10.8216501"><ele>217.50000000000003</ele><time>2026-04-26T08:12:56.672Z</time></trkpt><trkpt lat="45.5877805" lon="10.8216215"><ele>217.0</ele><time>2026-04-26T08:12:57.666Z</time></trkpt><trkpt lat="45.587698" lon="10.8215996"><ele>216.5</ele><time>2026-04-26T08:12:58.66Z</time></trkpt><trkpt lat="45.5876211" lon="10.8215689"><ele>216.0</ele><time>2026-04-26T08:12:59.658Z</time></trkpt><trkpt lat="45.5875572" lon="10.8215483"><ele>215.50000000000003</ele><time>2026-04-26T08:13:00.663Z</time></trkpt><trkpt lat="45.5874904" lon="10.821538"><ele>215.0</ele><time>2026-04-26T08:13:01.657Z</time></trkpt><trkpt lat="45.5873654" lon="10.8215389"><ele>215.0</ele><time>2026-04-26T08:13:03.659Z</time></trkpt><trkpt lat="45.5872755" lon="10.8215332"><ele>215.0</ele><time>2026-04-26T08:13:05.658Z</time></trkpt><trkpt lat="45.5872423" lon="10.821422"><ele>215.0</ele><time>2026-04-26T08:13:09.657Z</time></trkpt><trkpt lat="45.5872385" lon="10.8212753"><ele>215.0</ele><time>2026-04-26T08:13:11.66Z</time></trkpt><trkpt lat="45.5871734" lon="10.821146"><ele>215.0</ele><time>2026-04-26T08:13:13.656Z</time></trkpt><trkpt lat="45.5871138" lon="10.8211044"><ele>215.00000000000003</ele><time>2026-04-26T08:13:14.664Z</time></trkpt><trkpt lat="45.5870439" lon="10.8210598"><ele>215.0</ele><time>2026-04-26T08:13:15.664Z</time></trkpt><trkpt lat="45.5869679" lon="10.821018"><ele>215.0</ele><time>2026-04-26T08:13:16.652Z</time></trkpt><trkpt lat="45.5868908" lon="10.8209841"><ele>215.0</ele><time>2026-04-26T08:13:17.661Z</time></trkpt><trkpt lat="45.5868299" lon="10.820941"><ele>215.00000000000003</ele><time>2026-04-26T08:13:18.667Z</time></trkpt><trkpt lat="45.5867709" lon="10.8208895"><ele>215.0</ele><time>2026-04-26T08:13:19.66Z</time></trkpt><trkpt lat="45.5867019" lon="10.8207705"><ele>213.83333333333334</ele><time>2026-04-26T08:13:21.679Z</time></trkpt><trkpt lat="45.5867314" lon="10.8206625"><ele>212.66666666666669</ele><time>2026-04-26T08:13:23.669Z</time></trkpt><trkpt lat="45.5867895" lon="10.8206235"><ele>211.5</ele><time>2026-04-26T08:13:24.663Z</time></trkpt><trkpt lat="45.5868613" lon="10.8205971"><ele>210.33333333333331</ele><time>2026-04-26T08:13:25.666Z</time></trkpt><trkpt lat="45.5869425" lon="10.8205797"><ele>209.16666666666666</ele><time>2026-04-26T08:13:26.661Z</time></trkpt><trkpt lat="45.5870245" lon="10.8205636"><ele>208.0</ele><time>2026-04-26T08:13:27.657Z</time></trkpt><trkpt lat="45.5870966" lon="10.8205338"><ele>207.99999999999997</ele><time>2026-04-26T08:13:28.657Z</time></trkpt><trkpt lat="45.5871752" lon="10.8204642"><ele>208.0</ele><time>2026-04-26T08:13:30.658Z</time></trkpt><trkpt lat="45.5871457" lon="10.8203398"><ele>208.0</ele><time>2026-04-26T08:13:32.657Z</time></trkpt><trkpt lat="45.5870929" lon="10.820283"><ele>208.0</ele><time>2026-04-26T08:13:33.662Z</time></trkpt><trkpt lat="45.587016" lon="10.8202225"><ele>207.99999999999997</ele><time>2026-04-26T08:13:34.661Z</time></trkpt><trkpt lat="45.5869229" lon="10.8201776"><ele>208.0</ele><time>2026-04-26T08:13:35.661Z</time></trkpt><trkpt lat="45.586845" lon="10.8201344"><ele>205.60000000000002</ele><time>2026-04-26T08:13:36.664Z</time></trkpt><trkpt lat="45.5867579" lon="10.8200099"><ele>203.20000000000002</ele><time>2026-04-26T08:13:38.657Z</time></trkpt><trkpt lat="45.5867436" lon="10.8198986"><ele>200.8</ele><time>2026-04-26T08:13:39.658Z</time></trkpt><trkpt lat="45.5867361" lon="10.8197492"><ele>198.4</ele><time>2026-04-26T08:13:40.662Z</time></trkpt><trkpt lat="45.5867289" lon="10.819573"><ele>196.0</ele><time>2026-04-26T08:13:41.664Z</time></trkpt><trkpt lat="45.5867331" lon="10.8193822"><ele>195.0</ele><time>2026-04-26T08:13:42.667Z</time></trkpt><trkpt lat="45.5867359" lon="10.8191908"><ele>194.0</ele><time>2026-04-26T08:13:43.664Z</time></trkpt><trkpt lat="45.5867305" lon="10.8190051"><ele>193.0</ele><time>2026-04-26T08:13:44.664Z</time></trkpt><trkpt lat="45.5867209" lon="10.818829"><ele>192.0</ele><time>2026-04-26T08:13:45.663Z</time></trkpt><trkpt lat="45.5867101" lon="10.8186781"><ele>192.0</ele><time>2026-04-26T08:13:46.662Z</time></trkpt><trkpt lat="45.5867059" lon="10.8185376"><ele>192.0</ele><time>2026-04-26T08:13:47.659Z</time></trkpt><trkpt lat="45.5867083" lon="10.8183946"><ele>192.0</ele><time>2026-04-26T08:13:48.663Z</time></trkpt><trkpt lat="45.5867131" lon="10.818252"><ele>192.0</ele><time>2026-04-26T08:13:49.666Z</time></trkpt><trkpt lat="45.5867078" lon="10.8181178"><ele>192.0</ele><time>2026-04-26T08:13:50.664Z</time></trkpt><trkpt lat="45.5866993" lon="10.8179936"><ele>192.16666666666666</ele><time>2026-04-26T08:13:51.66Z</time></trkpt><trkpt lat="45.5866755" lon="10.8178693"><ele>192.33333333333331</ele><time>2026-04-26T08:13:52.66Z</time></trkpt><trkpt lat="45.5866439" lon="10.8177444"><ele>192.5</ele><time>2026-04-26T08:13:53.67Z</time></trkpt><trkpt lat="45.5866236" lon="10.8176233"><ele>192.66666666666666</ele><time>2026-04-26T08:13:54.659Z</time></trkpt><trkpt lat="45.5866098" lon="10.8175023"><ele>192.83333333333331</ele><time>2026-04-26T08:13:55.664Z</time></trkpt><trkpt lat="45.5866041" lon="10.8173732"><ele>193.0</ele><time>2026-04-26T08:13:56.665Z</time></trkpt><trkpt lat="45.5866059" lon="10.8172327"><ele>193.0</ele><time>2026-04-26T08:13:57.666Z</time></trkpt><trkpt lat="45.5866084" lon="10.8170885"><ele>193.0</ele><time>2026-04-26T08:13:58.667Z</time></trkpt><trkpt lat="45.58661" lon="10.816956"><ele>193.0</ele><time>2026-04-26T08:13:59.659Z</time></trkpt><trkpt lat="45.5866038" lon="10.8168265"><ele>193.0</ele><time>2026-04-26T08:14:00.656Z</time></trkpt><trkpt lat="45.5865787" lon="10.8167077"><ele>193.0</ele><time>2026-04-26T08:14:01.661Z</time></trkpt><trkpt lat="45.5865363" lon="10.8165909"><ele>192.25</ele><time>2026-04-26T08:14:02.661Z</time></trkpt><trkpt lat="45.5864472" lon="10.8164758"><ele>191.5</ele><time>2026-04-26T08:14:03.67Z</time></trkpt><trkpt lat="45.5863546" lon="10.8163507"><ele>190.75</ele><time>2026-04-26T08:14:04.666Z</time></trkpt><trkpt lat="45.5862643" lon="10.8162267"><ele>190.0</ele><time>2026-04-26T08:14:05.666Z</time></trkpt><trkpt lat="45.5861806" lon="10.8160976"><ele>189.0</ele><time>2026-04-26T08:14:06.665Z</time></trkpt><trkpt lat="45.5860983" lon="10.8159761"><ele>188.0</ele><time>2026-04-26T08:14:07.666Z</time></trkpt><trkpt lat="45.5860166" lon="10.8158515"><ele>187.0</ele><time>2026-04-26T08:14:08.655Z</time></trkpt><trkpt lat="45.5859316" lon="10.8157308"><ele>186.0</ele><time>2026-04-26T08:14:09.671Z</time></trkpt><trkpt lat="45.5858516" lon="10.8156007"><ele>186.0</ele><time>2026-04-26T08:14:10.667Z</time></trkpt><trkpt lat="45.585771" lon="10.8154786"><ele>186.0</ele><time>2026-04-26T08:14:11.664Z</time></trkpt><trkpt lat="45.5856879" lon="10.8153508"><ele>186.0</ele><time>2026-04-26T08:14:12.663Z</time></trkpt><trkpt lat="45.5856061" lon="10.8152235"><ele>186.0</ele><time>2026-04-26T08:14:13.668Z</time></trkpt><trkpt lat="45.5855277" lon="10.8150974"><ele>186.25</ele><time>2026-04-26T08:14:14.667Z</time></trkpt><trkpt lat="45.5854477" lon="10.8149773"><ele>186.5</ele><time>2026-04-26T08:14:15.668Z</time></trkpt><trkpt lat="45.5853705" lon="10.8148563"><ele>186.75</ele><time>2026-04-26T08:14:16.665Z</time></trkpt><trkpt lat="45.5852926" lon="10.8147412"><ele>187.0</ele><time>2026-04-26T08:14:17.67Z</time></trkpt><trkpt lat="45.5852159" lon="10.8146281"><ele>186.6</ele><time>2026-04-26T08:14:18.669Z</time></trkpt><trkpt lat="45.5851462" lon="10.8145193"><ele>186.2</ele><time>2026-04-26T08:14:19.668Z</time></trkpt><trkpt lat="45.5850856" lon="10.8144157"><ele>185.8</ele><time>2026-04-26T08:14:20.665Z</time></trkpt><trkpt lat="45.5850254" lon="10.814307"><ele>185.4</ele><time>2026-04-26T08:14:21.664Z</time></trkpt><trkpt lat="45.5849704" lon="10.8141926"><ele>185.0</ele><time>2026-04-26T08:14:22.669Z</time></trkpt><trkpt lat="45.584915" lon="10.8140808"><ele>185.0</ele><time>2026-04-26T08:14:23.662Z</time></trkpt><trkpt lat="45.5848629" lon="10.8139839"><ele>185.0</ele><time>2026-04-26T08:14:24.663Z</time></trkpt><trkpt lat="45.5847856" lon="10.8138904"><ele>185.0</ele><time>2026-04-26T08:14:26.666Z</time></trkpt><trkpt lat="45.5847448" lon="10.8139614"><ele>185.0</ele><time>2026-04-26T08:14:28.662Z</time></trkpt><trkpt lat="45.584768" lon="10.8141734"><ele>185.0</ele><time>2026-04-26T08:14:30.661Z</time></trkpt><trkpt lat="45.5848162" lon="10.8143276"><ele>183.66666666666666</ele><time>2026-04-26T08:14:31.658Z</time></trkpt><trkpt lat="45.5848801" lon="10.8145121"><ele>182.33333333333334</ele><time>2026-04-26T08:14:32.663Z</time></trkpt><trkpt lat="45.5849343" lon="10.8147371"><ele>181.0</ele><time>2026-04-26T08:14:33.657Z</time></trkpt><trkpt lat="45.5849682" lon="10.8149668"><ele>181.0</ele><time>2026-04-26T08:14:34.659Z</time></trkpt><trkpt lat="45.5849606" lon="10.8152398"><ele>181.0</ele><time>2026-04-26T08:14:35.664Z</time></trkpt><trkpt lat="45.5849117" lon="10.8155013"><ele>181.0</ele><time>2026-04-26T08:14:36.665Z</time></trkpt><trkpt lat="45.5848595" lon="10.8157387"><ele>181.0</ele><time>2026-04-26T08:14:37.663Z</time></trkpt><trkpt lat="45.5847876" lon="10.8159582"><ele>181.0</ele><time>2026-04-26T08:14:38.666Z</time></trkpt><trkpt lat="45.5846881" lon="10.8161577"><ele>181.0</ele><time>2026-04-26T08:14:39.66Z</time></trkpt><trkpt lat="45.5845762" lon="10.8163522"><ele>178.33333333333334</ele><time>2026-04-26T08:14:40.662Z</time></trkpt><trkpt lat="45.5844635" lon="10.8165317"><ele>175.66666666666666</ele><time>2026-04-26T08:14:41.656Z</time></trkpt><trkpt lat="45.5843535" lon="10.8167164"><ele>173.0</ele><time>2026-04-26T08:14:42.66Z</time></trkpt><trkpt lat="45.5842531" lon="10.8169089"><ele>173.0</ele><time>2026-04-26T08:14:43.662Z</time></trkpt><trkpt lat="45.5841686" lon="10.8171099"><ele>173.0</ele><time>2026-04-26T08:14:44.658Z</time></trkpt><trkpt lat="45.5841032" lon="10.8173215"><ele>173.0</ele><time>2026-04-26T08:14:45.654Z</time></trkpt><trkpt lat="45.584089" lon="10.8175368"><ele>171.33333333333331</ele><time>2026-04-26T08:14:46.659Z</time></trkpt><trkpt lat="45.5841365" lon="10.8177792"><ele>169.66666666666666</ele><time>2026-04-26T08:14:47.663Z</time></trkpt><trkpt lat="45.5841599" lon="10.8180133"><ele>168.0</ele><time>2026-04-26T08:14:48.665Z</time></trkpt><trkpt lat="45.584154" lon="10.8182485"><ele>168.0</ele><time>2026-04-26T08:14:49.672Z</time></trkpt><trkpt lat="45.5841275" lon="10.8184769"><ele>168.0</ele><time>2026-04-26T08:14:50.668Z</time></trkpt><trkpt lat="45.5841046" lon="10.8187041"><ele>168.0</ele><time>2026-04-26T08:14:51.668Z</time></trkpt><trkpt lat="45.58409" lon="10.8189316"><ele>167.0</ele><time>2026-04-26T08:14:52.665Z</time></trkpt><trkpt lat="45.5840864" lon="10.8191637"><ele>166.0</ele><time>2026-04-26T08:14:53.663Z</time></trkpt><trkpt lat="45.584122" lon="10.819374"><ele>165.0</ele><time>2026-04-26T08:14:54.66Z</time></trkpt><trkpt lat="45.5841698" lon="10.8195822"><ele>164.2</ele><time>2026-04-26T08:14:55.663Z</time></trkpt><trkpt lat="45.5842213" lon="10.8197668"><ele>163.4</ele><time>2026-04-26T08:14:56.665Z</time></trkpt><trkpt lat="45.5842553" lon="10.8199104"><ele>162.60000000000002</ele><time>2026-04-26T08:14:57.661Z</time></trkpt><trkpt lat="45.5842776" lon="10.820037"><ele>161.8</ele><time>2026-04-26T08:14:58.664Z</time></trkpt><trkpt lat="45.5842904" lon="10.8201404"><ele>161.0</ele><time>2026-04-26T08:14:59.661Z</time></trkpt><trkpt lat="45.5842817" lon="10.820249"><ele>161.0</ele><time>2026-04-26T08:15:00.665Z</time></trkpt><trkpt lat="45.5842353" lon="10.8203105"><ele>161.0</ele><time>2026-04-26T08:15:01.663Z</time></trkpt><trkpt lat="45.5841137" lon="10.8203292"><ele>161.0</ele><time>2026-04-26T08:15:03.664Z</time></trkpt><trkpt lat="45.584045" lon="10.8202715"><ele>161.0</ele><time>2026-04-26T08:15:04.664Z</time></trkpt><trkpt lat="45.583978" lon="10.8201559"><ele>161.0</ele><time>2026-04-26T08:15:05.662Z</time></trkpt><trkpt lat="45.5839023" lon="10.8200023"><ele>161.0</ele><time>2026-04-26T08:15:06.66Z</time></trkpt><trkpt lat="45.5838245" lon="10.8198289"><ele>161.0</ele><time>2026-04-26T08:15:07.661Z</time></trkpt><trkpt lat="45.5837461" lon="10.8196309"><ele>161.0</ele><time>2026-04-26T08:15:08.657Z</time></trkpt><trkpt lat="45.583691" lon="10.8193817"><ele>157.25</ele><time>2026-04-26T08:15:09.661Z</time></trkpt><trkpt lat="45.5836663" lon="10.8191474"><ele>153.5</ele><time>2026-04-26T08:15:10.662Z</time></trkpt><trkpt lat="45.5836428" lon="10.818964"><ele>149.75</ele><time>2026-04-26T08:15:11.661Z</time></trkpt><trkpt lat="45.5836247" lon="10.8188144"><ele>146.0</ele><time>2026-04-26T08:15:12.66Z</time></trkpt><trkpt lat="45.5836025" lon="10.8186769"><ele>146.0</ele><time>2026-04-26T08:15:13.656Z</time></trkpt><trkpt lat="45.5835735" lon="10.8185468"><ele>146.0</ele><time>2026-04-26T08:15:14.66Z</time></trkpt><trkpt lat="45.5835149" lon="10.8184525"><ele>146.0</ele><time>2026-04-26T08:15:15.667Z</time></trkpt><trkpt lat="45.5834378" lon="10.8184004"><ele>146.0</ele><time>2026-04-26T08:15:16.668Z</time></trkpt><trkpt lat="45.5833553" lon="10.8184058"><ele>146.0</ele><time>2026-04-26T08:15:17.67Z</time></trkpt><trkpt lat="45.5832748" lon="10.8184791"><ele>146.0</ele><time>2026-04-26T08:15:18.672Z</time></trkpt><trkpt lat="45.5832146" lon="10.8186123"><ele>146.0</ele><time>2026-04-26T08:15:19.673Z</time></trkpt><trkpt lat="45.5831861" lon="10.8187795"><ele>146.0</ele><time>2026-04-26T08:15:20.674Z</time></trkpt><trkpt lat="45.5831994" lon="10.8189805"><ele>146.0</ele><time>2026-04-26T08:15:21.677Z</time></trkpt><trkpt lat="45.583241" lon="10.8191758"><ele>146.0</ele><time>2026-04-26T08:15:22.672Z</time></trkpt><trkpt lat="45.5832775" lon="10.8193664"><ele>144.25</ele><time>2026-04-26T08:15:23.673Z</time></trkpt><trkpt lat="45.5832874" lon="10.8195502"><ele>142.5</ele><time>2026-04-26T08:15:24.672Z</time></trkpt><trkpt lat="45.5832676" lon="10.8197218"><ele>140.75</ele><time>2026-04-26T08:15:25.67Z</time></trkpt><trkpt lat="45.58322" lon="10.8198707"><ele>139.0</ele><time>2026-04-26T08:15:26.67Z</time></trkpt><trkpt lat="45.5831532" lon="10.8200084"><ele>139.0</ele><time>2026-04-26T08:15:27.667Z</time></trkpt><trkpt lat="45.5830814" lon="10.8201202"><ele>139.0</ele><time>2026-04-26T08:15:28.67Z</time></trkpt><trkpt lat="45.5830003" lon="10.8202294"><ele>139.0</ele><time>2026-04-26T08:15:29.674Z</time></trkpt><trkpt lat="45.5829216" lon="10.8203469"><ele>139.0</ele><time>2026-04-26T08:15:30.663Z</time></trkpt><trkpt lat="45.5828666" lon="10.8204692"><ele>139.0</ele><time>2026-04-26T08:15:31.663Z</time></trkpt><trkpt lat="45.5828334" lon="10.8206019"><ele>137.6</ele><time>2026-04-26T08:15:32.666Z</time></trkpt><trkpt lat="45.5828213" lon="10.8207428"><ele>136.2</ele><time>2026-04-26T08:15:33.664Z</time></trkpt><trkpt lat="45.5828212" lon="10.8208948"><ele>134.79999999999998</ele><time>2026-04-26T08:15:34.672Z</time></trkpt><trkpt lat="45.5828331" lon="10.8210542"><ele>133.4</ele><time>2026-04-26T08:15:35.673Z</time></trkpt><trkpt lat="45.5828593" lon="10.8212104"><ele>132.0</ele><time>2026-04-26T08:15:36.673Z</time></trkpt><trkpt lat="45.5828875" lon="10.8213686"><ele>131.25</ele><time>2026-04-26T08:15:37.674Z</time></trkpt><trkpt lat="45.5829192" lon="10.8215312"><ele>130.5</ele><time>2026-04-26T08:15:38.672Z</time></trkpt><trkpt lat="45.5829469" lon="10.8216926"><ele>129.75</ele><time>2026-04-26T08:15:39.669Z</time></trkpt><trkpt lat="45.5829763" lon="10.821865"><ele>129.0</ele><time>2026-04-26T08:15:40.675Z</time></trkpt><trkpt lat="45.5830092" lon="10.8220473"><ele>127.5</ele><time>2026-04-26T08:15:41.668Z</time></trkpt><trkpt lat="45.5830342" lon="10.8222292"><ele>126.0</ele><time>2026-04-26T08:15:42.672Z</time></trkpt><trkpt lat="45.5830644" lon="10.8224201"><ele>124.5</ele><time>2026-04-26T08:15:43.676Z</time></trkpt><trkpt lat="45.5830945" lon="10.8226093"><ele>123.0</ele><time>2026-04-26T08:15:44.679Z</time></trkpt><trkpt lat="45.5831244" lon="10.8227992"><ele>122.25</ele><time>2026-04-26T08:15:45.674Z</time></trkpt><trkpt lat="45.5831572" lon="10.8229799"><ele>121.5</ele><time>2026-04-26T08:15:46.676Z</time></trkpt><trkpt lat="45.5831947" lon="10.823155"><ele>120.75</ele><time>2026-04-26T08:15:47.675Z</time></trkpt><trkpt lat="45.5832395" lon="10.8233205"><ele>120.0</ele><time>2026-04-26T08:15:48.674Z</time></trkpt><trkpt lat="45.5832937" lon="10.8234665"><ele>117.75</ele><time>2026-04-26T08:15:49.672Z</time></trkpt><trkpt lat="45.5833548" lon="10.8235907"><ele>115.5</ele><time>2026-04-26T08:15:50.674Z</time></trkpt><trkpt lat="45.5834394" lon="10.823672"><ele>113.25</ele><time>2026-04-26T08:15:51.682Z</time></trkpt><trkpt lat="45.5835616" lon="10.8237124"><ele>111.0</ele><time>2026-04-26T08:15:52.674Z</time></trkpt><trkpt lat="45.5837074" lon="10.8237387"><ele>110.5</ele><time>2026-04-26T08:15:53.675Z</time></trkpt><trkpt lat="45.5838588" lon="10.8237568"><ele>110.0</ele><time>2026-04-26T08:15:54.672Z</time></trkpt><trkpt lat="45.5840072" lon="10.8237754"><ele>109.5</ele><time>2026-04-26T08:15:55.678Z</time></trkpt><trkpt lat="45.5841549" lon="10.823795"><ele>109.0</ele><time>2026-04-26T08:15:56.673Z</time></trkpt><trkpt lat="45.5842957" lon="10.8238227"><ele>109.0</ele><time>2026-04-26T08:15:57.673Z</time></trkpt><trkpt lat="45.5844279" lon="10.8238623"><ele>109.0</ele><time>2026-04-26T08:15:58.675Z</time></trkpt><trkpt lat="45.5845535" lon="10.8239247"><ele>109.0</ele><time>2026-04-26T08:15:59.668Z</time></trkpt><trkpt lat="45.5846629" lon="10.8240267"><ele>109.0</ele><time>2026-04-26T08:16:00.672Z</time></trkpt><trkpt lat="45.5847537" lon="10.8241799"><ele>116.25</ele><time>2026-04-26T08:16:01.667Z</time></trkpt><trkpt lat="45.5848285" lon="10.8243431"><ele>123.5</ele><time>2026-04-26T08:16:02.666Z</time></trkpt><trkpt lat="45.5848861" lon="10.8245197"><ele>130.75</ele><time>2026-04-26T08:16:03.666Z</time></trkpt><trkpt lat="45.584943" lon="10.8246943"><ele>138.0</ele><time>2026-04-26T08:16:04.663Z</time></trkpt><trkpt lat="45.5849967" lon="10.8248526"><ele>138.0</ele><time>2026-04-26T08:16:05.664Z</time></trkpt><trkpt lat="45.5850458" lon="10.8250032"><ele>138.0</ele><time>2026-04-26T08:16:06.669Z</time></trkpt><trkpt lat="45.5850873" lon="10.8251489"><ele>138.0</ele><time>2026-04-26T08:16:07.666Z</time></trkpt><trkpt lat="45.585127" lon="10.8252925"><ele>138.0</ele><time>2026-04-26T08:16:08.669Z</time></trkpt><trkpt lat="45.5851682" lon="10.8254456"><ele>138.0</ele><time>2026-04-26T08:16:09.668Z</time></trkpt><trkpt lat="45.5852152" lon="10.8255994"><ele>140.5</ele><time>2026-04-26T08:16:10.667Z</time></trkpt><trkpt lat="45.5852677" lon="10.8257633"><ele>143.0</ele><time>2026-04-26T08:16:11.662Z</time></trkpt><trkpt lat="45.5853203" lon="10.8259305"><ele>145.5</ele><time>2026-04-26T08:16:12.668Z</time></trkpt><trkpt lat="45.5853749" lon="10.8260936"><ele>148.0</ele><time>2026-04-26T08:16:13.667Z</time></trkpt><trkpt lat="45.5854256" lon="10.8262548"><ele>148.0</ele><time>2026-04-26T08:16:14.67Z</time></trkpt><trkpt lat="45.5854727" lon="10.826408"><ele>148.0</ele><time>2026-04-26T08:16:15.667Z</time></trkpt><trkpt lat="45.5855177" lon="10.8265561"><ele>148.0</ele><time>2026-04-26T08:16:16.664Z</time></trkpt><trkpt lat="45.5855556" lon="10.8266963"><ele>148.0</ele><time>2026-04-26T08:16:17.667Z</time></trkpt><trkpt lat="45.5855972" lon="10.8268212"><ele>148.0</ele><time>2026-04-26T08:16:18.669Z</time></trkpt><trkpt lat="45.5856425" lon="10.8269391"><ele>143.0</ele><time>2026-04-26T08:16:19.667Z</time></trkpt><trkpt lat="45.5857001" lon="10.8270466"><ele>138.0</ele><time>2026-04-26T08:16:20.668Z</time></trkpt><trkpt lat="45.5857486" lon="10.8271531"><ele>133.0</ele><time>2026-04-26T08:16:21.667Z</time></trkpt><trkpt lat="45.5857975" lon="10.8272482"><ele>128.0</ele><time>2026-04-26T08:16:22.665Z</time></trkpt><trkpt lat="45.5858478" lon="10.8273378"><ele>123.00000000000001</ele><time>2026-04-26T08:16:23.662Z</time></trkpt><trkpt lat="45.5858983" lon="10.8274287"><ele>118.0</ele><time>2026-04-26T08:16:24.67Z</time></trkpt><trkpt lat="45.5859471" lon="10.8275329"><ele>116.00000000000001</ele><time>2026-04-26T08:16:25.671Z</time></trkpt><trkpt lat="45.5859924" lon="10.8276445"><ele>114.0</ele><time>2026-04-26T08:16:26.666Z</time></trkpt><trkpt lat="45.5860353" lon="10.8277579"><ele>112.0</ele><time>2026-04-26T08:16:27.665Z</time></trkpt><trkpt lat="45.5860815" lon="10.8278614"><ele>110.0</ele><time>2026-04-26T08:16:28.673Z</time></trkpt><trkpt lat="45.5861205" lon="10.8279523"><ele>108.00000000000001</ele><time>2026-04-26T08:16:29.665Z</time></trkpt><trkpt lat="45.5861413" lon="10.8280384"><ele>106.0</ele><time>2026-04-26T08:16:30.668Z</time></trkpt><trkpt lat="45.5861421" lon="10.828208"><ele>106.00000000000001</ele><time>2026-04-26T08:16:32.662Z</time></trkpt><trkpt lat="45.5861131" lon="10.8283008"><ele>106.0</ele><time>2026-04-26T08:16:33.665Z</time></trkpt><trkpt lat="45.5860633" lon="10.8283959"><ele>106.0</ele><time>2026-04-26T08:16:34.66Z</time></trkpt><trkpt lat="45.5860293" lon="10.8285037"><ele>106.0</ele><time>2026-04-26T08:16:35.663Z</time></trkpt><trkpt lat="45.5860123" lon="10.8286148"><ele>106.00000000000001</ele><time>2026-04-26T08:16:36.663Z</time></trkpt><trkpt lat="45.5860154" lon="10.828728"><ele>106.0</ele><time>2026-04-26T08:16:37.667Z</time></trkpt><trkpt lat="45.5860315" lon="10.8288405"><ele>105.4</ele><time>2026-04-26T08:16:38.67Z</time></trkpt><trkpt lat="45.5860485" lon="10.8289598"><ele>104.8</ele><time>2026-04-26T08:16:39.663Z</time></trkpt><trkpt lat="45.5860676" lon="10.8290851"><ele>104.2</ele><time>2026-04-26T08:16:40.67Z</time></trkpt><trkpt lat="45.5860792" lon="10.8292176"><ele>103.60000000000001</ele><time>2026-04-26T08:16:41.671Z</time></trkpt><trkpt lat="45.5860951" lon="10.8293591"><ele>103.0</ele><time>2026-04-26T08:16:42.672Z</time></trkpt><trkpt lat="45.586127" lon="10.8295003"><ele>102.0</ele><time>2026-04-26T08:16:43.673Z</time></trkpt><trkpt lat="45.5861716" lon="10.8296417"><ele>101.0</ele><time>2026-04-26T08:16:44.673Z</time></trkpt><trkpt lat="45.5862248" lon="10.8297841"><ele>100.0</ele><time>2026-04-26T08:16:45.677Z</time></trkpt><trkpt lat="45.5862819" lon="10.8299313"><ele>99.0</ele><time>2026-04-26T08:16:46.67Z</time></trkpt><trkpt lat="45.586334" lon="10.8300931"><ele>101.5</ele><time>2026-04-26T08:16:47.677Z</time></trkpt><trkpt lat="45.5863815" lon="10.830263"><ele>104.0</ele><time>2026-04-26T08:16:48.676Z</time></trkpt><trkpt lat="45.5864254" lon="10.8304381"><ele>106.5</ele><time>2026-04-26T08:16:49.674Z</time></trkpt><trkpt lat="45.5864647" lon="10.8306184"><ele>109.0</ele><time>2026-04-26T08:16:50.673Z</time></trkpt><trkpt lat="45.586507" lon="10.8307984"><ele>109.0</ele><time>2026-04-26T08:16:51.682Z</time></trkpt><trkpt lat="45.5865497" lon="10.8309729"><ele>109.0</ele><time>2026-04-26T08:16:52.669Z</time></trkpt><trkpt lat="45.5865932" lon="10.8311387"><ele>109.0</ele><time>2026-04-26T08:16:53.671Z</time></trkpt><trkpt lat="45.5866458" lon="10.8312921"><ele>109.0</ele><time>2026-04-26T08:16:54.677Z</time></trkpt><trkpt lat="45.5867029" lon="10.8314433"><ele>107.5</ele><time>2026-04-26T08:16:55.674Z</time></trkpt><trkpt lat="45.5867633" lon="10.8315989"><ele>106.0</ele><time>2026-04-26T08:16:56.674Z</time></trkpt><trkpt lat="45.586835" lon="10.8317512"><ele>104.5</ele><time>2026-04-26T08:16:57.676Z</time></trkpt><trkpt lat="45.586909" lon="10.8318997"><ele>103.0</ele><time>2026-04-26T08:16:58.675Z</time></trkpt><trkpt lat="45.5869961" lon="10.8320399"><ele>104.25</ele><time>2026-04-26T08:16:59.667Z</time></trkpt><trkpt lat="45.587097" lon="10.832171"><ele>105.5</ele><time>2026-04-26T08:17:00.676Z</time></trkpt><trkpt lat="45.5872038" lon="10.8322955"><ele>106.75</ele><time>2026-04-26T08:17:01.672Z</time></trkpt><trkpt lat="45.5873255" lon="10.8324044"><ele>108.0</ele><time>2026-04-26T08:17:02.669Z</time></trkpt><trkpt lat="45.5874474" lon="10.8325326"><ele>106.0</ele><time>2026-04-26T08:17:03.671Z</time></trkpt><trkpt lat="45.587564" lon="10.8326756"><ele>104.0</ele><time>2026-04-26T08:17:04.669Z</time></trkpt><trkpt lat="45.5876786" lon="10.8328237"><ele>102.0</ele><time>2026-04-26T08:17:05.671Z</time></trkpt><trkpt lat="45.587785" lon="10.8329913"><ele>102.25</ele><time>2026-04-26T08:17:06.674Z</time></trkpt><trkpt lat="45.58788" lon="10.8331685"><ele>102.5</ele><time>2026-04-26T08:17:07.676Z</time></trkpt><trkpt lat="45.5879562" lon="10.8333478"><ele>102.75</ele><time>2026-04-26T08:17:08.669Z</time></trkpt><trkpt lat="45.5880274" lon="10.8335143"><ele>103.0</ele><time>2026-04-26T08:17:09.67Z</time></trkpt><trkpt lat="45.5881002" lon="10.8336689"><ele>103.0</ele><time>2026-04-26T08:17:10.677Z</time></trkpt><trkpt lat="45.5881717" lon="10.8338152"><ele>103.0</ele><time>2026-04-26T08:17:11.667Z</time></trkpt><trkpt lat="45.5882402" lon="10.8339453"><ele>103.0</ele><time>2026-04-26T08:17:12.668Z</time></trkpt><trkpt lat="45.5882991" lon="10.8340532"><ele>103.0</ele><time>2026-04-26T08:17:13.675Z</time></trkpt><trkpt lat="45.5883411" lon="10.8341493"><ele>103.0</ele><time>2026-04-26T08:17:14.678Z</time></trkpt><trkpt lat="45.5883854" lon="10.8342224"><ele>103.2</ele><time>2026-04-26T08:17:15.672Z</time></trkpt><trkpt lat="45.5884599" lon="10.8343705"><ele>103.4</ele><time>2026-04-26T08:17:17.678Z</time></trkpt><trkpt lat="45.5885227" lon="10.8344394"><ele>103.60000000000001</ele><time>2026-04-26T08:17:18.669Z</time></trkpt><trkpt lat="45.5885841" lon="10.8345221"><ele>103.80000000000001</ele><time>2026-04-26T08:17:19.673Z</time></trkpt><trkpt lat="45.5886582" lon="10.834601"><ele>104.0</ele><time>2026-04-26T08:17:20.668Z</time></trkpt><trkpt lat="45.5887335" lon="10.8346712"><ele>103.66666666666666</ele><time>2026-04-26T08:17:21.672Z</time></trkpt><trkpt lat="45.5888077" lon="10.8347301"><ele>103.33333333333333</ele><time>2026-04-26T08:17:22.678Z</time></trkpt><trkpt lat="45.5888784" lon="10.8347824"><ele>103.0</ele><time>2026-04-26T08:17:23.674Z</time></trkpt><trkpt lat="45.5889542" lon="10.8348355"><ele>102.66666666666666</ele><time>2026-04-26T08:17:24.677Z</time></trkpt><trkpt lat="45.5890281" lon="10.83489"><ele>102.33333333333333</ele><time>2026-04-26T08:17:25.673Z</time></trkpt><trkpt lat="45.5891069" lon="10.8349389"><ele>102.0</ele><time>2026-04-26T08:17:26.677Z</time></trkpt><trkpt lat="45.5891853" lon="10.8349916"><ele>102.0</ele><time>2026-04-26T08:17:27.674Z</time></trkpt><trkpt lat="45.5892664" lon="10.8350385"><ele>102.0</ele><time>2026-04-26T08:17:28.676Z</time></trkpt><trkpt lat="45.5893471" lon="10.8350871"><ele>102.0</ele><time>2026-04-26T08:17:29.673Z</time></trkpt><trkpt lat="45.5894291" lon="10.8351325"><ele>102.0</ele><time>2026-04-26T08:17:30.674Z</time></trkpt><trkpt lat="45.5895146" lon="10.8351753"><ele>102.0</ele><time>2026-04-26T08:17:31.684Z</time></trkpt><trkpt lat="45.5896059" lon="10.8352264"><ele>102.6</ele><time>2026-04-26T08:17:32.671Z</time></trkpt><trkpt lat="45.5896993" lon="10.8352784"><ele>103.19999999999999</ele><time>2026-04-26T08:17:33.687Z</time></trkpt><trkpt lat="45.5897936" lon="10.8353316"><ele>103.8</ele><time>2026-04-26T08:17:34.677Z</time></trkpt><trkpt lat="45.5898894" lon="10.8353781"><ele>104.4</ele><time>2026-04-26T08:17:35.677Z</time></trkpt><trkpt lat="45.5899801" lon="10.8354264"><ele>105.0</ele><time>2026-04-26T08:17:36.678Z</time></trkpt><trkpt lat="45.5900712" lon="10.8354751"><ele>105.0</ele><time>2026-04-26T08:17:37.679Z</time></trkpt><trkpt lat="45.5901629" lon="10.8355182"><ele>105.0</ele><time>2026-04-26T08:17:38.685Z</time></trkpt><trkpt lat="45.5902545" lon="10.8355624"><ele>105.0</ele><time>2026-04-26T08:17:39.681Z</time></trkpt><trkpt lat="45.5903491" lon="10.835604"><ele>105.0</ele><time>2026-04-26T08:17:40.683Z</time></trkpt><trkpt lat="45.5904439" lon="10.8356508"><ele>105.0</ele><time>2026-04-26T08:17:41.675Z</time></trkpt><trkpt lat="45.5905338" lon="10.835693"><ele>105.0</ele><time>2026-04-26T08:17:42.672Z</time></trkpt><trkpt lat="45.5906194" lon="10.8357277"><ele>105.0</ele><time>2026-04-26T08:17:43.679Z</time></trkpt><trkpt lat="45.5906938" lon="10.8357604"><ele>105.0</ele><time>2026-04-26T08:17:44.674Z</time></trkpt><trkpt lat="45.5907568" lon="10.8357997"><ele>105.0</ele><time>2026-04-26T08:17:45.674Z</time></trkpt><trkpt lat="45.5908588" lon="10.8358721"><ele>105.0</ele><time>2026-04-26T08:17:47.667Z</time></trkpt><trkpt lat="45.5909407" lon="10.835928"><ele>105.0</ele><time>2026-04-26T08:17:49.675Z</time></trkpt><trkpt lat="45.5910256" lon="10.8359845"><ele>105.6</ele><time>2026-04-26T08:17:51.68Z</time></trkpt><trkpt lat="45.5911273" lon="10.8360407"><ele>106.2</ele><time>2026-04-26T08:17:53.675Z</time></trkpt><trkpt lat="45.5912144" lon="10.8360926"><ele>106.80000000000001</ele><time>2026-04-26T08:17:55.676Z</time></trkpt><trkpt lat="45.5912752" lon="10.8361166"><ele>107.4</ele><time>2026-04-26T08:17:57.669Z</time></trkpt><trkpt lat="45.5913367" lon="10.8362038"><ele>108.0</ele><time>2026-04-26T08:18:31.674Z</time></trkpt><trkpt lat="45.5914279" lon="10.8363085"><ele>109.5</ele><time>2026-04-26T08:18:33.662Z</time></trkpt><trkpt lat="45.5914927" lon="10.8363592"><ele>111.0</ele><time>2026-04-26T08:18:34.67Z</time></trkpt><trkpt lat="45.5915593" lon="10.8364056"><ele>112.5</ele><time>2026-04-26T08:18:35.671Z</time></trkpt><trkpt lat="45.5916624" lon="10.836432"><ele>114.0</ele><time>2026-04-26T08:18:37.659Z</time></trkpt><trkpt lat="45.5917593" lon="10.836375"><ele>115.5</ele><time>2026-04-26T08:18:39.649Z</time></trkpt><trkpt lat="45.5918045" lon="10.8363105"><ele>117.0</ele><time>2026-04-26T08:18:40.656Z</time></trkpt><trkpt lat="45.5918428" lon="10.8362196"><ele>117.0</ele><time>2026-04-26T08:18:41.661Z</time></trkpt><trkpt lat="45.5918792" lon="10.8361255"><ele>116.99999999999999</ele><time>2026-04-26T08:18:42.656Z</time></trkpt><trkpt lat="45.5919182" lon="10.8359714"><ele>116.99999999999999</ele><time>2026-04-26T08:18:44.662Z</time></trkpt><trkpt lat="45.5919384" lon="10.8358222"><ele>117.0</ele><time>2026-04-26T08:18:46.661Z</time></trkpt><trkpt lat="45.5919603" lon="10.8356639"><ele>117.0</ele><time>2026-04-26T08:18:48.662Z</time></trkpt><trkpt lat="45.5919749" lon="10.83553"><ele>117.5</ele><time>2026-04-26T08:18:50.666Z</time></trkpt><trkpt lat="45.5920003" lon="10.835435"><ele>118.0</ele><time>2026-04-26T08:18:56.668Z</time></trkpt><trkpt lat="45.5920619" lon="10.8354163"><ele>118.5</ele><time>2026-04-26T08:18:58.668Z</time></trkpt><trkpt lat="45.5921675" lon="10.8354681"><ele>119.0</ele><time>2026-04-26T08:19:00.672Z</time></trkpt><trkpt lat="45.5922425" lon="10.8355318"><ele>119.5</ele><time>2026-04-26T08:19:01.666Z</time></trkpt><trkpt lat="45.592336" lon="10.8356179"><ele>120.0</ele><time>2026-04-26T08:19:02.666Z</time></trkpt><trkpt lat="45.5924392" lon="10.8357201"><ele>121.75</ele><time>2026-04-26T08:19:03.661Z</time></trkpt><trkpt lat="45.5925524" lon="10.8358353"><ele>123.5</ele><time>2026-04-26T08:19:04.665Z</time></trkpt><trkpt lat="45.5926648" lon="10.8359608"><ele>125.25</ele><time>2026-04-26T08:19:05.667Z</time></trkpt><trkpt lat="45.5927799" lon="10.8360883"><ele>127.0</ele><time>2026-04-26T08:19:06.671Z</time></trkpt><trkpt lat="45.5928869" lon="10.8362146"><ele>128.79999999999998</ele><time>2026-04-26T08:19:07.67Z</time></trkpt><trkpt lat="45.5929819" lon="10.8363276"><ele>130.6</ele><time>2026-04-26T08:19:08.669Z</time></trkpt><trkpt lat="45.5930622" lon="10.8364203"><ele>132.39999999999998</ele><time>2026-04-26T08:19:09.664Z</time></trkpt><trkpt lat="45.5931322" lon="10.8364993"><ele>134.2</ele><time>2026-04-26T08:19:10.671Z</time></trkpt><trkpt lat="45.5931771" lon="10.8365812"><ele>136.0</ele><time>2026-04-26T08:19:12.669Z</time></trkpt><trkpt lat="45.5931221" lon="10.8366842"><ele>136.0</ele><time>2026-04-26T08:19:14.679Z</time></trkpt><trkpt lat="45.5930669" lon="10.8367586"><ele>136.0</ele><time>2026-04-26T08:19:15.673Z</time></trkpt><trkpt lat="45.5930047" lon="10.8368401"><ele>136.0</ele><time>2026-04-26T08:19:16.678Z</time></trkpt><trkpt lat="45.5929508" lon="10.8369259"><ele>136.0</ele><time>2026-04-26T08:19:17.669Z</time></trkpt><trkpt lat="45.5929169" lon="10.8370065"><ele>136.0</ele><time>2026-04-26T08:19:18.677Z</time></trkpt><trkpt lat="45.5929101" lon="10.8371573"><ele>136.0</ele><time>2026-04-26T08:19:20.679Z</time></trkpt><trkpt lat="45.5930175" lon="10.8372615"><ele>134.25</ele><time>2026-04-26T08:19:22.68Z</time></trkpt><trkpt lat="45.5931142" lon="10.837319"><ele>132.5</ele><time>2026-04-26T08:19:23.671Z</time></trkpt><trkpt lat="45.5932299" lon="10.837372"><ele>130.75</ele><time>2026-04-26T08:19:24.659Z</time></trkpt><trkpt lat="45.5933597" lon="10.8374311"><ele>129.0</ele><time>2026-04-26T08:19:25.675Z</time></trkpt><trkpt lat="45.5935094" lon="10.8375074"><ele>129.0</ele><time>2026-04-26T08:19:26.673Z</time></trkpt><trkpt lat="45.5936638" lon="10.8375703"><ele>129.0</ele><time>2026-04-26T08:19:27.675Z</time></trkpt><trkpt lat="45.593819" lon="10.8376321"><ele>129.0</ele><time>2026-04-26T08:19:28.673Z</time></trkpt><trkpt lat="45.5939512" lon="10.8377247"><ele>128.0</ele><time>2026-04-26T08:19:29.674Z</time></trkpt><trkpt lat="45.5940893" lon="10.8378106"><ele>127.0</ele><time>2026-04-26T08:19:30.669Z</time></trkpt><trkpt lat="45.5942311" lon="10.8378953"><ele>126.0</ele><time>2026-04-26T08:19:31.675Z</time></trkpt><trkpt lat="45.5943638" lon="10.8379839"><ele>126.0</ele><time>2026-04-26T08:19:32.671Z</time></trkpt><trkpt lat="45.5944884" lon="10.8380663"><ele>126.0</ele><time>2026-04-26T08:19:33.669Z</time></trkpt><trkpt lat="45.5946154" lon="10.8381537"><ele>126.0</ele><time>2026-04-26T08:19:34.672Z</time></trkpt><trkpt lat="45.5947525" lon="10.8382428"><ele>126.0</ele><time>2026-04-26T08:19:35.678Z</time></trkpt><trkpt lat="45.5948832" lon="10.8383401"><ele>126.25</ele><time>2026-04-26T08:19:36.679Z</time></trkpt><trkpt lat="45.5950163" lon="10.8384346"><ele>126.5</ele><time>2026-04-26T08:19:37.674Z</time></trkpt><trkpt lat="45.5951493" lon="10.8385404"><ele>126.75</ele><time>2026-04-26T08:19:38.675Z</time></trkpt><trkpt lat="45.5952685" lon="10.8386507"><ele>127.0</ele><time>2026-04-26T08:19:39.674Z</time></trkpt><trkpt lat="45.5953902" lon="10.8387605"><ele>127.5</ele><time>2026-04-26T08:19:40.675Z</time></trkpt><trkpt lat="45.5955043" lon="10.8388638"><ele>128.0</ele><time>2026-04-26T08:19:41.676Z</time></trkpt><trkpt lat="45.5956171" lon="10.838965"><ele>128.5</ele><time>2026-04-26T08:19:42.676Z</time></trkpt><trkpt lat="45.5957272" lon="10.8390608"><ele>129.0</ele><time>2026-04-26T08:19:43.675Z</time></trkpt><trkpt lat="45.5958427" lon="10.8391541"><ele>129.0</ele><time>2026-04-26T08:19:44.682Z</time></trkpt><trkpt lat="45.5959592" lon="10.8392536"><ele>129.0</ele><time>2026-04-26T08:19:45.677Z</time></trkpt><trkpt lat="45.5960684" lon="10.8393671"><ele>129.0</ele><time>2026-04-26T08:19:46.68Z</time></trkpt><trkpt lat="45.5961836" lon="10.8394864"><ele>129.0</ele><time>2026-04-26T08:19:47.685Z</time></trkpt><trkpt lat="45.5963011" lon="10.8395889"><ele>129.25</ele><time>2026-04-26T08:19:48.681Z</time></trkpt><trkpt lat="45.5964179" lon="10.8396726"><ele>129.5</ele><time>2026-04-26T08:19:49.681Z</time></trkpt><trkpt lat="45.5965328" lon="10.8397714"><ele>129.75</ele><time>2026-04-26T08:19:50.675Z</time></trkpt><trkpt lat="45.5966523" lon="10.8398855"><ele>130.0</ele><time>2026-04-26T08:19:51.685Z</time></trkpt><trkpt lat="45.5967795" lon="10.8400062"><ele>130.0</ele><time>2026-04-26T08:19:52.68Z</time></trkpt><trkpt lat="45.5968932" lon="10.8401178"><ele>130.0</ele><time>2026-04-26T08:19:53.677Z</time></trkpt><trkpt lat="45.5969917" lon="10.8402124"><ele>130.0</ele><time>2026-04-26T08:19:54.679Z</time></trkpt><trkpt lat="45.5970741" lon="10.8402796"><ele>130.0</ele><time>2026-04-26T08:19:55.672Z</time></trkpt><trkpt lat="45.5971337" lon="10.8403255"><ele>130.0</ele><time>2026-04-26T08:19:56.675Z</time></trkpt><trkpt lat="45.597201" lon="10.8403503"><ele>130.0</ele><time>2026-04-26T08:19:58.679Z</time></trkpt><trkpt lat="45.597256" lon="10.8402501"><ele>130.0</ele><time>2026-04-26T08:20:00.678Z</time></trkpt><trkpt lat="45.597301" lon="10.8401657"><ele>130.0</ele><time>2026-04-26T08:20:01.674Z</time></trkpt><trkpt lat="45.5973534" lon="10.8401021"><ele>130.0</ele><time>2026-04-26T08:20:02.674Z</time></trkpt><trkpt lat="45.5974646" lon="10.8400743"><ele>130.0</ele><time>2026-04-26T08:20:04.67Z</time></trkpt><trkpt lat="45.5975288" lon="10.8401136"><ele>130.0</ele><time>2026-04-26T08:20:05.667Z</time></trkpt><trkpt lat="45.5976137" lon="10.8401908"><ele>130.25</ele><time>2026-04-26T08:20:06.666Z</time></trkpt><trkpt lat="45.5977129" lon="10.8402957"><ele>130.5</ele><time>2026-04-26T08:20:07.667Z</time></trkpt><trkpt lat="45.5978296" lon="10.8404005"><ele>130.75</ele><time>2026-04-26T08:20:08.668Z</time></trkpt><trkpt lat="45.5979497" lon="10.8404879"><ele>131.0</ele><time>2026-04-26T08:20:09.665Z</time></trkpt><trkpt lat="45.598059" lon="10.840564"><ele>131.0</ele><time>2026-04-26T08:20:10.667Z</time></trkpt><trkpt lat="45.5981564" lon="10.8406254"><ele>131.0</ele><time>2026-04-26T08:20:11.663Z</time></trkpt><trkpt lat="45.5982375" lon="10.8406734"><ele>131.0</ele><time>2026-04-26T08:20:12.665Z</time></trkpt><trkpt lat="45.5982997" lon="10.8407295"><ele>131.0</ele><time>2026-04-26T08:20:14.67Z</time></trkpt><trkpt lat="45.5982594" lon="10.8408519"><ele>131.0</ele><time>2026-04-26T08:20:17.673Z</time></trkpt><trkpt lat="45.5981954" lon="10.8409771"><ele>130.0</ele><time>2026-04-26T08:20:19.668Z</time></trkpt><trkpt lat="45.5981547" lon="10.8410778"><ele>129.0</ele><time>2026-04-26T08:20:20.674Z</time></trkpt><trkpt lat="45.5981019" lon="10.8412029"><ele>128.0</ele><time>2026-04-26T08:20:21.681Z</time></trkpt><trkpt lat="45.5980388" lon="10.8413468"><ele>127.0</ele><time>2026-04-26T08:20:22.677Z</time></trkpt><trkpt lat="45.597969" lon="10.8414985"><ele>126.0</ele><time>2026-04-26T08:20:23.682Z</time></trkpt><trkpt lat="45.5979032" lon="10.8416438"><ele>126.0</ele><time>2026-04-26T08:20:24.668Z</time></trkpt><trkpt lat="45.5978407" lon="10.8417759"><ele>126.0</ele><time>2026-04-26T08:20:25.669Z</time></trkpt><trkpt lat="45.5977884" lon="10.8418841"><ele>126.0</ele><time>2026-04-26T08:20:26.671Z</time></trkpt><trkpt lat="45.5977516" lon="10.8419631"><ele>126.0</ele><time>2026-04-26T08:20:27.676Z</time></trkpt><trkpt lat="45.5977628" lon="10.8421321"><ele>126.0</ele><time>2026-04-26T08:20:29.673Z</time></trkpt><trkpt lat="45.5978039" lon="10.842219"><ele>125.75</ele><time>2026-04-26T08:20:30.675Z</time></trkpt><trkpt lat="45.5978892" lon="10.8423054"><ele>125.5</ele><time>2026-04-26T08:20:31.676Z</time></trkpt><trkpt lat="45.5980001" lon="10.8424021"><ele>125.25</ele><time>2026-04-26T08:20:32.674Z</time></trkpt><trkpt lat="45.5981261" lon="10.8425079"><ele>125.0</ele><time>2026-04-26T08:20:33.67Z</time></trkpt><trkpt lat="45.5982449" lon="10.8426155"><ele>124.0</ele><time>2026-04-26T08:20:34.677Z</time></trkpt><trkpt lat="45.5983593" lon="10.8427171"><ele>123.0</ele><time>2026-04-26T08:20:35.668Z</time></trkpt><trkpt lat="45.5984661" lon="10.8428096"><ele>122.0</ele><time>2026-04-26T08:20:36.67Z</time></trkpt><trkpt lat="45.5985612" lon="10.8428888"><ele>121.0</ele><time>2026-04-26T08:20:37.671Z</time></trkpt><trkpt lat="45.5986417" lon="10.842957"><ele>121.75</ele><time>2026-04-26T08:20:38.671Z</time></trkpt><trkpt lat="45.5987205" lon="10.8430365"><ele>122.5</ele><time>2026-04-26T08:20:39.669Z</time></trkpt><trkpt lat="45.5988089" lon="10.8431179"><ele>123.25</ele><time>2026-04-26T08:20:40.666Z</time></trkpt><trkpt lat="45.5989125" lon="10.843199"><ele>124.0</ele><time>2026-04-26T08:20:41.671Z</time></trkpt><trkpt lat="45.5990298" lon="10.8433012"><ele>124.0</ele><time>2026-04-26T08:20:42.656Z</time></trkpt><trkpt lat="45.5991638" lon="10.8434041"><ele>124.0</ele><time>2026-04-26T08:20:43.665Z</time></trkpt><trkpt lat="45.5993039" lon="10.843518"><ele>124.0</ele><time>2026-04-26T08:20:44.666Z</time></trkpt><trkpt lat="45.5994447" lon="10.8436183"><ele>123.5</ele><time>2026-04-26T08:20:45.666Z</time></trkpt><trkpt lat="45.5995781" lon="10.8437288"><ele>123.0</ele><time>2026-04-26T08:20:46.664Z</time></trkpt><trkpt lat="45.5997092" lon="10.8438216"><ele>122.5</ele><time>2026-04-26T08:20:47.675Z</time></trkpt><trkpt lat="45.599836" lon="10.8439074"><ele>122.0</ele><time>2026-04-26T08:20:48.671Z</time></trkpt><trkpt lat="45.5999683" lon="10.8439929"><ele>122.0</ele><time>2026-04-26T08:20:49.671Z</time></trkpt><trkpt lat="45.6001075" lon="10.8440794"><ele>122.0</ele><time>2026-04-26T08:20:50.666Z</time></trkpt><trkpt lat="45.6002544" lon="10.8441792"><ele>122.0</ele><time>2026-04-26T08:20:51.663Z</time></trkpt><trkpt lat="45.6004044" lon="10.8442881"><ele>120.66666666666666</ele><time>2026-04-26T08:20:52.664Z</time></trkpt><trkpt lat="45.6005474" lon="10.8444186"><ele>119.33333333333334</ele><time>2026-04-26T08:20:53.659Z</time></trkpt><trkpt lat="45.6006899" lon="10.8445558"><ele>118.0</ele><time>2026-04-26T08:20:54.665Z</time></trkpt><trkpt lat="45.6008291" lon="10.8447053"><ele>118.0</ele><time>2026-04-26T08:20:55.666Z</time></trkpt><trkpt lat="45.6009663" lon="10.8448402"><ele>118.0</ele><time>2026-04-26T08:20:56.665Z</time></trkpt><trkpt lat="45.6011079" lon="10.8449675"><ele>118.0</ele><time>2026-04-26T08:20:57.668Z</time></trkpt><trkpt lat="45.6012508" lon="10.8450857"><ele>118.33333333333334</ele><time>2026-04-26T08:20:58.664Z</time></trkpt><trkpt lat="45.6013981" lon="10.8451899"><ele>118.66666666666666</ele><time>2026-04-26T08:20:59.671Z</time></trkpt><trkpt lat="45.6015413" lon="10.8452925"><ele>119.0</ele><time>2026-04-26T08:21:00.66Z</time></trkpt><trkpt lat="45.6016976" lon="10.8454048"><ele>119.0</ele><time>2026-04-26T08:21:01.66Z</time></trkpt><trkpt lat="45.6018477" lon="10.8455356"><ele>119.0</ele><time>2026-04-26T08:21:02.665Z</time></trkpt><trkpt lat="45.6019841" lon="10.8456626"><ele>119.0</ele><time>2026-04-26T08:21:03.66Z</time></trkpt><trkpt lat="45.602139" lon="10.8457702"><ele>118.66666666666666</ele><time>2026-04-26T08:21:04.663Z</time></trkpt><trkpt lat="45.6022823" lon="10.8458944"><ele>118.33333333333334</ele><time>2026-04-26T08:21:05.663Z</time></trkpt><trkpt lat="45.6024241" lon="10.8460072"><ele>118.0</ele><time>2026-04-26T08:21:06.659Z</time></trkpt><trkpt lat="45.6025656" lon="10.846134"><ele>118.0</ele><time>2026-04-26T08:21:07.664Z</time></trkpt><trkpt lat="45.6027136" lon="10.8462592"><ele>118.0</ele><time>2026-04-26T08:21:08.661Z</time></trkpt><trkpt lat="45.6028715" lon="10.8463933"><ele>118.0</ele><time>2026-04-26T08:21:09.665Z</time></trkpt><trkpt lat="45.6030297" lon="10.8465251"><ele>117.33333333333334</ele><time>2026-04-26T08:21:10.658Z</time></trkpt><trkpt lat="45.6031773" lon="10.8466685"><ele>116.66666666666666</ele><time>2026-04-26T08:21:11.663Z</time></trkpt><trkpt lat="45.6033288" lon="10.846806"><ele>116.0</ele><time>2026-04-26T08:21:12.662Z</time></trkpt><trkpt lat="45.6034756" lon="10.846943"><ele>116.33333333333333</ele><time>2026-04-26T08:21:13.663Z</time></trkpt><trkpt lat="45.60363" lon="10.8470705"><ele>116.66666666666666</ele><time>2026-04-26T08:21:14.666Z</time></trkpt><trkpt lat="45.6037839" lon="10.8472058"><ele>117.0</ele><time>2026-04-26T08:21:15.667Z</time></trkpt><trkpt lat="45.6039388" lon="10.8473363"><ele>117.0</ele><time>2026-04-26T08:21:16.67Z</time></trkpt><trkpt lat="45.6040899" lon="10.8474673"><ele>117.0</ele><time>2026-04-26T08:21:17.669Z</time></trkpt><trkpt lat="45.6042508" lon="10.8475968"><ele>117.0</ele><time>2026-04-26T08:21:18.674Z</time></trkpt><trkpt lat="45.6044078" lon="10.8477471"><ele>116.66666666666666</ele><time>2026-04-26T08:21:19.667Z</time></trkpt><trkpt lat="45.6045566" lon="10.8478775"><ele>116.33333333333333</ele><time>2026-04-26T08:21:20.671Z</time></trkpt><trkpt lat="45.6047104" lon="10.8480077"><ele>116.0</ele><time>2026-04-26T08:21:21.672Z</time></trkpt><trkpt lat="45.6048651" lon="10.8481366"><ele>116.0</ele><time>2026-04-26T08:21:22.67Z</time></trkpt><trkpt lat="45.6050165" lon="10.8482703"><ele>116.0</ele><time>2026-04-26T08:21:23.676Z</time></trkpt><trkpt lat="45.6051767" lon="10.8484016"><ele>116.0</ele><time>2026-04-26T08:21:24.667Z</time></trkpt><trkpt lat="45.6053203" lon="10.8485313"><ele>115.33333333333333</ele><time>2026-04-26T08:21:25.67Z</time></trkpt><trkpt lat="45.6054621" lon="10.8486407"><ele>114.66666666666666</ele><time>2026-04-26T08:21:26.674Z</time></trkpt><trkpt lat="45.6056017" lon="10.8487559"><ele>114.0</ele><time>2026-04-26T08:21:27.67Z</time></trkpt><trkpt lat="45.6057371" lon="10.8488848"><ele>114.0</ele><time>2026-04-26T08:21:28.674Z</time></trkpt><trkpt lat="45.6058802" lon="10.8490192"><ele>114.0</ele><time>2026-04-26T08:21:29.67Z</time></trkpt><trkpt lat="45.6060323" lon="10.8491593"><ele>114.0</ele><time>2026-04-26T08:21:30.68Z</time></trkpt><trkpt lat="45.6061903" lon="10.8492976"><ele>114.0</ele><time>2026-04-26T08:21:31.67Z</time></trkpt><trkpt lat="45.6063388" lon="10.8494382"><ele>114.0</ele><time>2026-04-26T08:21:32.667Z</time></trkpt><trkpt lat="45.6064925" lon="10.8495801"><ele>114.0</ele><time>2026-04-26T08:21:33.666Z</time></trkpt><trkpt lat="45.6066341" lon="10.8497127"><ele>114.0</ele><time>2026-04-26T08:21:34.673Z</time></trkpt><trkpt lat="45.6067863" lon="10.8498352"><ele>114.0</ele><time>2026-04-26T08:21:35.674Z</time></trkpt><trkpt lat="45.6069449" lon="10.84995"><ele>114.0</ele><time>2026-04-26T08:21:36.675Z</time></trkpt><trkpt lat="45.6071005" lon="10.8500482"><ele>113.33333333333334</ele><time>2026-04-26T08:21:37.67Z</time></trkpt><trkpt lat="45.6072535" lon="10.850147"><ele>112.66666666666667</ele><time>2026-04-26T08:21:38.671Z</time></trkpt><trkpt lat="45.6074051" lon="10.8502376"><ele>112.0</ele><time>2026-04-26T08:21:39.672Z</time></trkpt><trkpt lat="45.6075557" lon="10.8503235"><ele>112.0</ele><time>2026-04-26T08:21:40.67Z</time></trkpt><trkpt lat="45.6077122" lon="10.8503886"><ele>112.0</ele><time>2026-04-26T08:21:41.669Z</time></trkpt><trkpt lat="45.6078616" lon="10.8504505"><ele>112.0</ele><time>2026-04-26T08:21:42.674Z</time></trkpt><trkpt lat="45.6080071" lon="10.850524"><ele>112.0</ele><time>2026-04-26T08:21:43.673Z</time></trkpt><trkpt lat="45.6081568" lon="10.8505944"><ele>112.0</ele><time>2026-04-26T08:21:44.677Z</time></trkpt><trkpt lat="45.6083087" lon="10.8506681"><ele>112.0</ele><time>2026-04-26T08:21:45.674Z</time></trkpt><trkpt lat="45.6084652" lon="10.8507357"><ele>112.0</ele><time>2026-04-26T08:21:46.676Z</time></trkpt><trkpt lat="45.6086251" lon="10.8508009"><ele>112.0</ele><time>2026-04-26T08:21:47.672Z</time></trkpt><trkpt lat="45.6087842" lon="10.8508608"><ele>112.0</ele><time>2026-04-26T08:21:48.68Z</time></trkpt><trkpt lat="45.6089486" lon="10.8509439"><ele>112.33333333333334</ele><time>2026-04-26T08:21:49.668Z</time></trkpt><trkpt lat="45.6091129" lon="10.8510187"><ele>112.66666666666666</ele><time>2026-04-26T08:21:50.665Z</time></trkpt><trkpt lat="45.609272" lon="10.8510929"><ele>113.0</ele><time>2026-04-26T08:21:51.669Z</time></trkpt><trkpt lat="45.6094399" lon="10.8511608"><ele>112.66666666666666</ele><time>2026-04-26T08:21:52.666Z</time></trkpt><trkpt lat="45.6095918" lon="10.8512408"><ele>112.33333333333334</ele><time>2026-04-26T08:21:53.663Z</time></trkpt><trkpt lat="45.6097317" lon="10.8513418"><ele>112.0</ele><time>2026-04-26T08:21:54.661Z</time></trkpt><trkpt lat="45.609875" lon="10.8514678"><ele>112.0</ele><time>2026-04-26T08:21:55.666Z</time></trkpt><trkpt lat="45.6100333" lon="10.8515845"><ele>112.0</ele><time>2026-04-26T08:21:56.667Z</time></trkpt><trkpt lat="45.6101884" lon="10.8516994"><ele>112.0</ele><time>2026-04-26T08:21:57.664Z</time></trkpt><trkpt lat="45.6103389" lon="10.8518068"><ele>111.33333333333334</ele><time>2026-04-26T08:21:58.665Z</time></trkpt><trkpt lat="45.6104879" lon="10.8519158"><ele>110.66666666666666</ele><time>2026-04-26T08:21:59.67Z</time></trkpt><trkpt lat="45.6106322" lon="10.852019"><ele>110.0</ele><time>2026-04-26T08:22:00.672Z</time></trkpt><trkpt lat="45.6107765" lon="10.8521153"><ele>110.0</ele><time>2026-04-26T08:22:01.675Z</time></trkpt><trkpt lat="45.6109123" lon="10.852214"><ele>110.0</ele><time>2026-04-26T08:22:02.676Z</time></trkpt><trkpt lat="45.611044" lon="10.8523078"><ele>110.0</ele><time>2026-04-26T08:22:03.678Z</time></trkpt><trkpt lat="45.6111686" lon="10.8524055"><ele>110.0</ele><time>2026-04-26T08:22:04.668Z</time></trkpt><trkpt lat="45.6112923" lon="10.8524893"><ele>109.5</ele><time>2026-04-26T08:22:05.673Z</time></trkpt><trkpt lat="45.6114165" lon="10.8525558"><ele>109.0</ele><time>2026-04-26T08:22:06.674Z</time></trkpt><trkpt lat="45.6115478" lon="10.8525973"><ele>108.5</ele><time>2026-04-26T08:22:07.671Z</time></trkpt><trkpt lat="45.6116899" lon="10.8526046"><ele>108.0</ele><time>2026-04-26T08:22:08.668Z</time></trkpt><trkpt lat="45.6118367" lon="10.8525808"><ele>108.0</ele><time>2026-04-26T08:22:09.664Z</time></trkpt><trkpt lat="45.6119799" lon="10.8525175"><ele>108.0</ele><time>2026-04-26T08:22:10.684Z</time></trkpt><trkpt lat="45.6121272" lon="10.8524534"><ele>108.0</ele><time>2026-04-26T08:22:11.655Z</time></trkpt><trkpt lat="45.6122893" lon="10.8523812"><ele>107.33333333333334</ele><time>2026-04-26T08:22:12.663Z</time></trkpt><trkpt lat="45.6124513" lon="10.8522918"><ele>106.66666666666667</ele><time>2026-04-26T08:22:13.658Z</time></trkpt><trkpt lat="45.6125937" lon="10.8522162"><ele>106.0</ele><time>2026-04-26T08:22:14.665Z</time></trkpt><trkpt lat="45.6127226" lon="10.8521551"><ele>105.0</ele><time>2026-04-26T08:22:15.666Z</time></trkpt><trkpt lat="45.6128476" lon="10.8520957"><ele>104.0</ele><time>2026-04-26T08:22:16.653Z</time></trkpt><trkpt lat="45.6129819" lon="10.8520112"><ele>103.0</ele><time>2026-04-26T08:22:17.667Z</time></trkpt><trkpt lat="45.613114" lon="10.8519641"><ele>102.0</ele><time>2026-04-26T08:22:18.666Z</time></trkpt><trkpt lat="45.6132463" lon="10.8519125"><ele>102.0</ele><time>2026-04-26T08:22:19.665Z</time></trkpt><trkpt lat="45.6133852" lon="10.8518549"><ele>102.0</ele><time>2026-04-26T08:22:20.662Z</time></trkpt><trkpt lat="45.6135232" lon="10.8517991"><ele>102.0</ele><time>2026-04-26T08:22:21.673Z</time></trkpt><trkpt lat="45.613667" lon="10.851757"><ele>102.0</ele><time>2026-04-26T08:22:22.666Z</time></trkpt><trkpt lat="45.6138119" lon="10.8517297"><ele>102.0</ele><time>2026-04-26T08:22:23.664Z</time></trkpt><trkpt lat="45.6139518" lon="10.8517202"><ele>102.0</ele><time>2026-04-26T08:22:24.663Z</time></trkpt><trkpt lat="45.6141029" lon="10.8517504"><ele>102.0</ele><time>2026-04-26T08:22:25.659Z</time></trkpt><trkpt lat="45.6142539" lon="10.8517945"><ele>102.0</ele><time>2026-04-26T08:22:26.664Z</time></trkpt><trkpt lat="45.61442" lon="10.8518288"><ele>103.0</ele><time>2026-04-26T08:22:27.666Z</time></trkpt><trkpt lat="45.6145967" lon="10.8518557"><ele>104.0</ele><time>2026-04-26T08:22:28.662Z</time></trkpt><trkpt lat="45.6147775" lon="10.8518829"><ele>105.0</ele><time>2026-04-26T08:22:29.661Z</time></trkpt><trkpt lat="45.614948" lon="10.851929"><ele>105.0</ele><time>2026-04-26T08:22:30.664Z</time></trkpt><trkpt lat="45.6151219" lon="10.8519771"><ele>105.0</ele><time>2026-04-26T08:22:31.662Z</time></trkpt><trkpt lat="45.6152942" lon="10.8520342"><ele>105.0</ele><time>2026-04-26T08:22:32.665Z</time></trkpt><trkpt lat="45.6154715" lon="10.8520934"><ele>104.66666666666666</ele><time>2026-04-26T08:22:33.665Z</time></trkpt><trkpt lat="45.615633" lon="10.8521384"><ele>104.33333333333333</ele><time>2026-04-26T08:22:34.662Z</time></trkpt><trkpt lat="45.6158039" lon="10.8521722"><ele>104.0</ele><time>2026-04-26T08:22:35.661Z</time></trkpt><trkpt lat="45.6159827" lon="10.8521891"><ele>104.0</ele><time>2026-04-26T08:22:36.666Z</time></trkpt><trkpt lat="45.6161553" lon="10.8522015"><ele>104.0</ele><time>2026-04-26T08:22:37.664Z</time></trkpt><trkpt lat="45.6163243" lon="10.8522186"><ele>104.0</ele><time>2026-04-26T08:22:38.661Z</time></trkpt><trkpt lat="45.6164925" lon="10.852222"><ele>104.0</ele><time>2026-04-26T08:22:39.668Z</time></trkpt><trkpt lat="45.6166636" lon="10.8522381"><ele>104.0</ele><time>2026-04-26T08:22:40.662Z</time></trkpt><trkpt lat="45.6168291" lon="10.8522546"><ele>104.0</ele><time>2026-04-26T08:22:41.659Z</time></trkpt><trkpt lat="45.6169954" lon="10.852278"><ele>105.0</ele><time>2026-04-26T08:22:42.663Z</time></trkpt><trkpt lat="45.6171654" lon="10.8523136"><ele>106.0</ele><time>2026-04-26T08:22:43.662Z</time></trkpt><trkpt lat="45.6173382" lon="10.8523546"><ele>107.0</ele><time>2026-04-26T08:22:44.66Z</time></trkpt><trkpt lat="45.6175027" lon="10.8523992"><ele>107.0</ele><time>2026-04-26T08:22:45.661Z</time></trkpt><trkpt lat="45.6176647" lon="10.8524505"><ele>107.0</ele><time>2026-04-26T08:22:46.663Z</time></trkpt><trkpt lat="45.6178346" lon="10.8524979"><ele>107.0</ele><time>2026-04-26T08:22:47.661Z</time></trkpt><trkpt lat="45.6180011" lon="10.8525407"><ele>104.66666666666666</ele><time>2026-04-26T08:22:48.664Z</time></trkpt><trkpt lat="45.6181777" lon="10.8525837"><ele>102.33333333333334</ele><time>2026-04-26T08:22:49.664Z</time></trkpt><trkpt lat="45.6183467" lon="10.8526313"><ele>100.0</ele><time>2026-04-26T08:22:50.658Z</time></trkpt><trkpt lat="45.6185117" lon="10.852666"><ele>100.66666666666667</ele><time>2026-04-26T08:22:51.661Z</time></trkpt><trkpt lat="45.6186753" lon="10.8526969"><ele>101.33333333333334</ele><time>2026-04-26T08:22:52.654Z</time></trkpt><trkpt lat="45.6188345" lon="10.8527153"><ele>102.0</ele><time>2026-04-26T08:22:53.658Z</time></trkpt><trkpt lat="45.6189939" lon="10.852744"><ele>102.0</ele><time>2026-04-26T08:22:54.659Z</time></trkpt><trkpt lat="45.6191377" lon="10.8528057"><ele>102.0</ele><time>2026-04-26T08:22:55.656Z</time></trkpt><trkpt lat="45.6192742" lon="10.8528824"><ele>102.0</ele><time>2026-04-26T08:22:56.652Z</time></trkpt><trkpt lat="45.6194225" lon="10.8529758"><ele>105.33333333333334</ele><time>2026-04-26T08:22:57.653Z</time></trkpt><trkpt lat="45.6195647" lon="10.8530814"><ele>108.66666666666667</ele><time>2026-04-26T08:22:58.655Z</time></trkpt><trkpt lat="45.6197105" lon="10.8531814"><ele>112.0</ele><time>2026-04-26T08:22:59.651Z</time></trkpt><trkpt lat="45.6198714" lon="10.853287"><ele>112.0</ele><time>2026-04-26T08:23:00.652Z</time></trkpt><trkpt lat="45.6200287" lon="10.853387"><ele>112.0</ele><time>2026-04-26T08:23:01.655Z</time></trkpt><trkpt lat="45.6201771" lon="10.8534873"><ele>112.0</ele><time>2026-04-26T08:23:02.656Z</time></trkpt><trkpt lat="45.6203252" lon="10.8535701"><ele>110.33333333333334</ele><time>2026-04-26T08:23:03.663Z</time></trkpt><trkpt lat="45.6204817" lon="10.8536445"><ele>108.66666666666666</ele><time>2026-04-26T08:23:04.66Z</time></trkpt><trkpt lat="45.6206312" lon="10.8537201"><ele>107.0</ele><time>2026-04-26T08:23:05.661Z</time></trkpt><trkpt lat="45.6207775" lon="10.853798"><ele>107.0</ele><time>2026-04-26T08:23:06.653Z</time></trkpt><trkpt lat="45.6209006" lon="10.8538863"><ele>107.0</ele><time>2026-04-26T08:23:07.657Z</time></trkpt><trkpt lat="45.6210276" lon="10.8539852"><ele>107.0</ele><time>2026-04-26T08:23:08.66Z</time></trkpt><trkpt lat="45.6211505" lon="10.8540921"><ele>107.0</ele><time>2026-04-26T08:23:09.664Z</time></trkpt><trkpt lat="45.6212659" lon="10.8542359"><ele>108.33333333333333</ele><time>2026-04-26T08:23:10.669Z</time></trkpt><trkpt lat="45.6213845" lon="10.8543711"><ele>109.66666666666666</ele><time>2026-04-26T08:23:11.668Z</time></trkpt><trkpt lat="45.6215047" lon="10.8545018"><ele>111.0</ele><time>2026-04-26T08:23:12.666Z</time></trkpt><trkpt lat="45.6216344" lon="10.8546243"><ele>111.0</ele><time>2026-04-26T08:23:13.674Z</time></trkpt><trkpt lat="45.6217695" lon="10.8547529"><ele>111.0</ele><time>2026-04-26T08:23:14.666Z</time></trkpt><trkpt lat="45.6218948" lon="10.8548821"><ele>111.0</ele><time>2026-04-26T08:23:15.664Z</time></trkpt><trkpt lat="45.6220164" lon="10.8550196"><ele>114.0</ele><time>2026-04-26T08:23:16.673Z</time></trkpt><trkpt lat="45.622128" lon="10.8551809"><ele>117.0</ele><time>2026-04-26T08:23:17.668Z</time></trkpt><trkpt lat="45.6222351" lon="10.8553499"><ele>120.0</ele><time>2026-04-26T08:23:18.675Z</time></trkpt><trkpt lat="45.6223222" lon="10.8555318"><ele>120.0</ele><time>2026-04-26T08:23:19.67Z</time></trkpt><trkpt lat="45.6224011" lon="10.8557101"><ele>120.0</ele><time>2026-04-26T08:23:20.672Z</time></trkpt><trkpt lat="45.6224901" lon="10.8558848"><ele>120.0</ele><time>2026-04-26T08:23:21.677Z</time></trkpt><trkpt lat="45.622574" lon="10.8560633"><ele>120.0</ele><time>2026-04-26T08:23:22.669Z</time></trkpt><trkpt lat="45.6226489" lon="10.8562294"><ele>120.0</ele><time>2026-04-26T08:23:23.669Z</time></trkpt><trkpt lat="45.6227361" lon="10.856404"><ele>120.0</ele><time>2026-04-26T08:23:24.666Z</time></trkpt><trkpt lat="45.6228235" lon="10.8565752"><ele>120.0</ele><time>2026-04-26T08:23:25.669Z</time></trkpt><trkpt lat="45.6229093" lon="10.8567438"><ele>120.0</ele><time>2026-04-26T08:23:26.673Z</time></trkpt><trkpt lat="45.6229925" lon="10.8569164"><ele>120.0</ele><time>2026-04-26T08:23:27.671Z</time></trkpt><trkpt lat="45.6230778" lon="10.8570818"><ele>120.0</ele><time>2026-04-26T08:23:28.67Z</time></trkpt><trkpt lat="45.6231542" lon="10.8572491"><ele>120.0</ele><time>2026-04-26T08:23:29.673Z</time></trkpt><trkpt lat="45.6232383" lon="10.8574114"><ele>120.0</ele><time>2026-04-26T08:23:30.678Z</time></trkpt><trkpt lat="45.6233235" lon="10.8575762"><ele>120.0</ele><time>2026-04-26T08:23:31.675Z</time></trkpt><trkpt lat="45.6234094" lon="10.8577412"><ele>120.0</ele><time>2026-04-26T08:23:32.676Z</time></trkpt><trkpt lat="45.6234863" lon="10.8579075"><ele>120.0</ele><time>2026-04-26T08:23:33.676Z</time></trkpt><trkpt lat="45.6235719" lon="10.8580685"><ele>120.0</ele><time>2026-04-26T08:23:34.674Z</time></trkpt><trkpt lat="45.6236569" lon="10.8582344"><ele>122.0</ele><time>2026-04-26T08:23:35.675Z</time></trkpt><trkpt lat="45.6237307" lon="10.8584015"><ele>124.0</ele><time>2026-04-26T08:23:36.675Z</time></trkpt><trkpt lat="45.6237993" lon="10.8585645"><ele>126.0</ele><time>2026-04-26T08:23:37.67Z</time></trkpt><trkpt lat="45.6238699" lon="10.8587335"><ele>128.0</ele><time>2026-04-26T08:23:38.667Z</time></trkpt><trkpt lat="45.6239215" lon="10.85891"><ele>128.5</ele><time>2026-04-26T08:23:39.672Z</time></trkpt><trkpt lat="45.623966" lon="10.8590946"><ele>129.0</ele><time>2026-04-26T08:23:40.668Z</time></trkpt><trkpt lat="45.6240036" lon="10.859287"><ele>129.5</ele><time>2026-04-26T08:23:41.664Z</time></trkpt><trkpt lat="45.6240399" lon="10.8594521"><ele>130.0</ele><time>2026-04-26T08:23:42.672Z</time></trkpt><trkpt lat="45.6240762" lon="10.859628"><ele>130.0</ele><time>2026-04-26T08:23:43.67Z</time></trkpt><trkpt lat="45.6241098" lon="10.859802"><ele>130.0</ele><time>2026-04-26T08:23:44.676Z</time></trkpt><trkpt lat="45.6241384" lon="10.8599792"><ele>130.0</ele><time>2026-04-26T08:23:45.677Z</time></trkpt><trkpt lat="45.624171" lon="10.8601531"><ele>130.0</ele><time>2026-04-26T08:23:46.683Z</time></trkpt><trkpt lat="45.6242051" lon="10.8603321"><ele>130.5</ele><time>2026-04-26T08:23:47.679Z</time></trkpt><trkpt lat="45.6242452" lon="10.8605047"><ele>131.0</ele><time>2026-04-26T08:23:48.677Z</time></trkpt><trkpt lat="45.6242823" lon="10.8606822"><ele>131.5</ele><time>2026-04-26T08:23:49.679Z</time></trkpt><trkpt lat="45.6243219" lon="10.8608628"><ele>132.0</ele><time>2026-04-26T08:23:50.68Z</time></trkpt><trkpt lat="45.6243731" lon="10.8610476"><ele>131.25</ele><time>2026-04-26T08:23:51.68Z</time></trkpt><trkpt lat="45.624435" lon="10.861235"><ele>130.5</ele><time>2026-04-26T08:23:52.68Z</time></trkpt><trkpt lat="45.6245056" lon="10.8614303"><ele>129.75</ele><time>2026-04-26T08:23:53.686Z</time></trkpt><trkpt lat="45.6245778" lon="10.861618"><ele>129.0</ele><time>2026-04-26T08:23:54.678Z</time></trkpt><trkpt lat="45.6246544" lon="10.8618004"><ele>129.0</ele><time>2026-04-26T08:23:55.68Z</time></trkpt><trkpt lat="45.6247262" lon="10.861991"><ele>129.0</ele><time>2026-04-26T08:23:56.68Z</time></trkpt><trkpt lat="45.6247967" lon="10.8621867"><ele>129.0</ele><time>2026-04-26T08:23:57.681Z</time></trkpt><trkpt lat="45.6248666" lon="10.8623693"><ele>129.0</ele><time>2026-04-26T08:23:58.687Z</time></trkpt><trkpt lat="45.6249333" lon="10.8625243"><ele>129.0</ele><time>2026-04-26T08:23:59.681Z</time></trkpt><trkpt lat="45.6249879" lon="10.8626351"><ele>129.0</ele><time>2026-04-26T08:24:00.676Z</time></trkpt><trkpt lat="45.6250391" lon="10.8627178"><ele>129.0</ele><time>2026-04-26T08:24:01.677Z</time></trkpt><trkpt lat="45.6250833" lon="10.8627884"><ele>129.0</ele><time>2026-04-26T08:24:02.674Z</time></trkpt><trkpt lat="45.6251412" lon="10.8628907"><ele>128.8</ele><time>2026-04-26T08:24:04.673Z</time></trkpt><trkpt lat="45.6251176" lon="10.8630167"><ele>128.60000000000002</ele><time>2026-04-26T08:24:06.675Z</time></trkpt><trkpt lat="45.62508" lon="10.8631087"><ele>128.4</ele><time>2026-04-26T08:24:07.676Z</time></trkpt><trkpt lat="45.6250437" lon="10.863212"><ele>128.20000000000002</ele><time>2026-04-26T08:24:08.677Z</time></trkpt><trkpt lat="45.6250022" lon="10.8633446"><ele>128.0</ele><time>2026-04-26T08:24:09.68Z</time></trkpt><trkpt lat="45.6249792" lon="10.86349"><ele>127.60000000000001</ele><time>2026-04-26T08:24:10.681Z</time></trkpt><trkpt lat="45.6249696" lon="10.8636541"><ele>127.20000000000002</ele><time>2026-04-26T08:24:11.675Z</time></trkpt><trkpt lat="45.6249748" lon="10.8638112"><ele>126.8</ele><time>2026-04-26T08:24:12.677Z</time></trkpt><trkpt lat="45.6249733" lon="10.8639687"><ele>126.4</ele><time>2026-04-26T08:24:13.68Z</time></trkpt><trkpt lat="45.6249571" lon="10.8641178"><ele>126.0</ele><time>2026-04-26T08:24:14.677Z</time></trkpt><trkpt lat="45.62493" lon="10.8642493"><ele>125.6</ele><time>2026-04-26T08:24:15.675Z</time></trkpt><trkpt lat="45.6248854" lon="10.8643629"><ele>125.19999999999999</ele><time>2026-04-26T08:24:16.679Z</time></trkpt><trkpt lat="45.6248307" lon="10.8644822"><ele>124.80000000000001</ele><time>2026-04-26T08:24:17.674Z</time></trkpt><trkpt lat="45.6247797" lon="10.8645974"><ele>124.4</ele><time>2026-04-26T08:24:18.685Z</time></trkpt><trkpt lat="45.6247339" lon="10.8647117"><ele>124.0</ele><time>2026-04-26T08:24:19.669Z</time></trkpt><trkpt lat="45.6246918" lon="10.8648124"><ele>124.00000000000001</ele><time>2026-04-26T08:24:20.675Z</time></trkpt><trkpt lat="45.624653" lon="10.8648902"><ele>124.0</ele><time>2026-04-26T08:24:21.676Z</time></trkpt><trkpt lat="45.6246235" lon="10.8650211"><ele>124.0</ele><time>2026-04-26T08:24:23.683Z</time></trkpt><trkpt lat="45.6246932" lon="10.8650719"><ele>124.0</ele><time>2026-04-26T08:24:25.677Z</time></trkpt><trkpt lat="45.6247746" lon="10.8650835"><ele>124.00000000000001</ele><time>2026-04-26T08:24:26.677Z</time></trkpt><trkpt lat="45.6248625" lon="10.8651001"><ele>124.0</ele><time>2026-04-26T08:24:27.677Z</time></trkpt><trkpt lat="45.6249562" lon="10.8651248"><ele>124.0</ele><time>2026-04-26T08:24:28.674Z</time></trkpt><trkpt lat="45.6250657" lon="10.8651573"><ele>124.0</ele><time>2026-04-26T08:24:29.679Z</time></trkpt><trkpt lat="45.6251778" lon="10.8651934"><ele>124.0</ele><time>2026-04-26T08:24:30.672Z</time></trkpt><trkpt lat="45.6252919" lon="10.8652396"><ele>124.0</ele><time>2026-04-26T08:24:31.678Z</time></trkpt><trkpt lat="45.6254062" lon="10.8652896"><ele>124.0</ele><time>2026-04-26T08:24:32.678Z</time></trkpt><trkpt lat="45.6255162" lon="10.8653479"><ele>124.0</ele><time>2026-04-26T08:24:33.674Z</time></trkpt><trkpt lat="45.625617" lon="10.8654148"><ele>124.0</ele><time>2026-04-26T08:24:34.675Z</time></trkpt><trkpt lat="45.6257175" lon="10.8654892"><ele>124.0</ele><time>2026-04-26T08:24:35.676Z</time></trkpt><trkpt lat="45.6258173" lon="10.865562"><ele>124.0</ele><time>2026-04-26T08:24:36.677Z</time></trkpt><trkpt lat="45.625914" lon="10.865646"><ele>124.0</ele><time>2026-04-26T08:24:37.675Z</time></trkpt><trkpt lat="45.6260075" lon="10.8657276"><ele>124.0</ele><time>2026-04-26T08:24:38.683Z</time></trkpt><trkpt lat="45.6260993" lon="10.8658016"><ele>124.0</ele><time>2026-04-26T08:24:39.675Z</time></trkpt><trkpt lat="45.62619" lon="10.865882"><ele>124.0</ele><time>2026-04-26T08:24:40.677Z</time></trkpt><trkpt lat="45.6262827" lon="10.8659682"><ele>123.80000000000001</ele><time>2026-04-26T08:24:41.679Z</time></trkpt><trkpt lat="45.6263756" lon="10.8660519"><ele>123.60000000000001</ele><time>2026-04-26T08:24:42.676Z</time></trkpt><trkpt lat="45.626468" lon="10.8661304"><ele>123.4</ele><time>2026-04-26T08:24:43.679Z</time></trkpt><trkpt lat="45.6265618" lon="10.866217"><ele>123.2</ele><time>2026-04-26T08:24:44.68Z</time></trkpt><trkpt lat="45.6266586" lon="10.8662986"><ele>123.0</ele><time>2026-04-26T08:24:45.678Z</time></trkpt><trkpt lat="45.6267585" lon="10.866376"><ele>123.0</ele><time>2026-04-26T08:24:46.685Z</time></trkpt><trkpt lat="45.6268597" lon="10.8664618"><ele>123.0</ele><time>2026-04-26T08:24:47.679Z</time></trkpt><trkpt lat="45.6269667" lon="10.8665481"><ele>123.0</ele><time>2026-04-26T08:24:48.68Z</time></trkpt><trkpt lat="45.6270686" lon="10.8666362"><ele>123.0</ele><time>2026-04-26T08:24:49.68Z</time></trkpt><trkpt lat="45.627171" lon="10.8667232"><ele>122.5</ele><time>2026-04-26T08:24:50.679Z</time></trkpt><trkpt lat="45.6272728" lon="10.8668145"><ele>122.0</ele><time>2026-04-26T08:24:51.683Z</time></trkpt><trkpt lat="45.6273801" lon="10.8669128"><ele>121.5</ele><time>2026-04-26T08:24:52.682Z</time></trkpt><trkpt lat="45.6274896" lon="10.8670154"><ele>121.0</ele><time>2026-04-26T08:24:53.687Z</time></trkpt><trkpt lat="45.6276076" lon="10.8671211"><ele>121.0</ele><time>2026-04-26T08:24:54.685Z</time></trkpt><trkpt lat="45.6277235" lon="10.8672145"><ele>121.0</ele><time>2026-04-26T08:24:55.676Z</time></trkpt><trkpt lat="45.6278364" lon="10.8673027"><ele>121.0</ele><time>2026-04-26T08:24:56.679Z</time></trkpt><trkpt lat="45.627945" lon="10.8673904"><ele>121.0</ele><time>2026-04-26T08:24:57.675Z</time></trkpt><trkpt lat="45.6280559" lon="10.8674741"><ele>121.5</ele><time>2026-04-26T08:24:58.679Z</time></trkpt><trkpt lat="45.6281601" lon="10.8675693"><ele>122.0</ele><time>2026-04-26T08:24:59.678Z</time></trkpt><trkpt lat="45.6282695" lon="10.8676645"><ele>122.5</ele><time>2026-04-26T08:25:00.673Z</time></trkpt><trkpt lat="45.6283811" lon="10.8677635"><ele>123.0</ele><time>2026-04-26T08:25:01.687Z</time></trkpt><trkpt lat="45.6284973" lon="10.867858"><ele>123.0</ele><time>2026-04-26T08:25:02.678Z</time></trkpt><trkpt lat="45.6286072" lon="10.8679462"><ele>123.0</ele><time>2026-04-26T08:25:03.68Z</time></trkpt><trkpt lat="45.6287132" lon="10.8680368"><ele>123.0</ele><time>2026-04-26T08:25:04.674Z</time></trkpt><trkpt lat="45.6288164" lon="10.8681225"><ele>123.0</ele><time>2026-04-26T08:25:05.681Z</time></trkpt><trkpt lat="45.6289129" lon="10.8682104"><ele>122.75</ele><time>2026-04-26T08:25:06.685Z</time></trkpt><trkpt lat="45.6290096" lon="10.8683018"><ele>122.5</ele><time>2026-04-26T08:25:07.685Z</time></trkpt><trkpt lat="45.6291189" lon="10.8683879"><ele>122.25</ele><time>2026-04-26T08:25:08.674Z</time></trkpt><trkpt lat="45.6292341" lon="10.8684785"><ele>122.0</ele><time>2026-04-26T08:25:09.679Z</time></trkpt><trkpt lat="45.6293461" lon="10.8685741"><ele>122.0</ele><time>2026-04-26T08:25:10.68Z</time></trkpt><trkpt lat="45.6294647" lon="10.8686748"><ele>122.0</ele><time>2026-04-26T08:25:11.682Z</time></trkpt><trkpt lat="45.6295818" lon="10.868779"><ele>122.0</ele><time>2026-04-26T08:25:12.685Z</time></trkpt><trkpt lat="45.629696" lon="10.8688867"><ele>122.0</ele><time>2026-04-26T08:25:13.678Z</time></trkpt><trkpt lat="45.6298214" lon="10.869004"><ele>122.5</ele><time>2026-04-26T08:25:14.683Z</time></trkpt><trkpt lat="45.6299423" lon="10.8691215"><ele>123.0</ele><time>2026-04-26T08:25:15.679Z</time></trkpt><trkpt lat="45.6300597" lon="10.8692346"><ele>123.5</ele><time>2026-04-26T08:25:16.676Z</time></trkpt><trkpt lat="45.6301761" lon="10.8693315"><ele>124.0</ele><time>2026-04-26T08:25:17.683Z</time></trkpt><trkpt lat="45.630281" lon="10.8694199"><ele>123.5</ele><time>2026-04-26T08:25:18.679Z</time></trkpt><trkpt lat="45.6303791" lon="10.8694873"><ele>123.0</ele><time>2026-04-26T08:25:19.681Z</time></trkpt><trkpt lat="45.6304846" lon="10.8695481"><ele>122.5</ele><time>2026-04-26T08:25:20.687Z</time></trkpt><trkpt lat="45.6305846" lon="10.8696435"><ele>122.0</ele><time>2026-04-26T08:25:21.687Z</time></trkpt><trkpt lat="45.6306974" lon="10.8697413"><ele>122.0</ele><time>2026-04-26T08:25:22.68Z</time></trkpt><trkpt lat="45.6308191" lon="10.8698411"><ele>122.0</ele><time>2026-04-26T08:25:23.678Z</time></trkpt><trkpt lat="45.6309349" lon="10.869942"><ele>122.0</ele><time>2026-04-26T08:25:24.677Z</time></trkpt><trkpt lat="45.6310519" lon="10.870044"><ele>122.0</ele><time>2026-04-26T08:25:25.688Z</time></trkpt><trkpt lat="45.6311708" lon="10.8701506"><ele>122.0</ele><time>2026-04-26T08:25:26.675Z</time></trkpt><trkpt lat="45.6312917" lon="10.8702604"><ele>122.0</ele><time>2026-04-26T08:25:27.682Z</time></trkpt><trkpt lat="45.6314077" lon="10.8703898"><ele>122.0</ele><time>2026-04-26T08:25:28.68Z</time></trkpt><trkpt lat="45.6315364" lon="10.870522"><ele>122.0</ele><time>2026-04-26T08:25:29.676Z</time></trkpt><trkpt lat="45.6316726" lon="10.8706623"><ele>122.0</ele><time>2026-04-26T08:25:30.676Z</time></trkpt><trkpt lat="45.6318006" lon="10.8708007"><ele>122.0</ele><time>2026-04-26T08:25:31.682Z</time></trkpt><trkpt lat="45.6319195" lon="10.8709316"><ele>122.0</ele><time>2026-04-26T08:25:32.68Z</time></trkpt><trkpt lat="45.6320497" lon="10.8710443"><ele>122.6</ele><time>2026-04-26T08:25:33.678Z</time></trkpt><trkpt lat="45.6321572" lon="10.8711447"><ele>123.19999999999999</ele><time>2026-04-26T08:25:34.665Z</time></trkpt><trkpt lat="45.63224" lon="10.8712241"><ele>123.8</ele><time>2026-04-26T08:25:35.673Z</time></trkpt><trkpt lat="45.6323059" lon="10.871292"><ele>124.4</ele><time>2026-04-26T08:25:36.665Z</time></trkpt><trkpt lat="45.6323619" lon="10.871342"><ele>125.0</ele><time>2026-04-26T08:25:37.667Z</time></trkpt><trkpt lat="45.632451" lon="10.8714319"><ele>124.99999999999999</ele><time>2026-04-26T08:25:39.667Z</time></trkpt><trkpt lat="45.6324874" lon="10.8715487"><ele>125.0</ele><time>2026-04-26T08:25:41.674Z</time></trkpt><trkpt lat="45.6324906" lon="10.8716904"><ele>125.0</ele><time>2026-04-26T08:25:43.676Z</time></trkpt><trkpt lat="45.632478" lon="10.8718554"><ele>125.0</ele><time>2026-04-26T08:25:45.673Z</time></trkpt><trkpt lat="45.6324727" lon="10.8719489"><ele>124.99999999999999</ele><time>2026-04-26T08:25:46.68Z</time></trkpt><trkpt lat="45.6324655" lon="10.8720527"><ele>125.0</ele><time>2026-04-26T08:25:47.683Z</time></trkpt><trkpt lat="45.6324653" lon="10.8721737"><ele>125.0</ele><time>2026-04-26T08:25:48.671Z</time></trkpt><trkpt lat="45.6324814" lon="10.8722903"><ele>125.0</ele><time>2026-04-26T08:25:49.688Z</time></trkpt><trkpt lat="45.6325244" lon="10.8724032"><ele>125.0</ele><time>2026-04-26T08:25:50.683Z</time></trkpt><trkpt lat="45.6325989" lon="10.8725069"><ele>125.0</ele><time>2026-04-26T08:25:51.687Z</time></trkpt><trkpt lat="45.6327085" lon="10.8725795"><ele>125.0</ele><time>2026-04-26T08:25:52.677Z</time></trkpt><trkpt lat="45.6328225" lon="10.8726382"><ele>125.0</ele><time>2026-04-26T08:25:53.679Z</time></trkpt><trkpt lat="45.6329482" lon="10.8727086"><ele>125.0</ele><time>2026-04-26T08:25:54.681Z</time></trkpt><trkpt lat="45.6330778" lon="10.8727835"><ele>125.0</ele><time>2026-04-26T08:25:55.679Z</time></trkpt><trkpt lat="45.6332123" lon="10.8728662"><ele>125.0</ele><time>2026-04-26T08:25:56.688Z</time></trkpt><trkpt lat="45.6333464" lon="10.872954"><ele>125.0</ele><time>2026-04-26T08:25:57.683Z</time></trkpt><trkpt lat="45.6334779" lon="10.8730471"><ele>125.0</ele><time>2026-04-26T08:25:58.685Z</time></trkpt><trkpt lat="45.6336124" lon="10.8731412"><ele>125.0</ele><time>2026-04-26T08:25:59.672Z</time></trkpt><trkpt lat="45.6337453" lon="10.8732324"><ele>125.0</ele><time>2026-04-26T08:26:00.679Z</time></trkpt><trkpt lat="45.6338779" lon="10.8733318"><ele>124.25</ele><time>2026-04-26T08:26:01.681Z</time></trkpt><trkpt lat="45.6340062" lon="10.8734227"><ele>123.5</ele><time>2026-04-26T08:26:02.68Z</time></trkpt><trkpt lat="45.6341226" lon="10.8735039"><ele>122.75</ele><time>2026-04-26T08:26:03.686Z</time></trkpt><trkpt lat="45.6342352" lon="10.8735971"><ele>122.0</ele><time>2026-04-26T08:26:04.679Z</time></trkpt><trkpt lat="45.6343522" lon="10.8736939"><ele>122.0</ele><time>2026-04-26T08:26:05.678Z</time></trkpt><trkpt lat="45.6344609" lon="10.8737837"><ele>121.99999999999999</ele><time>2026-04-26T08:26:06.676Z</time></trkpt><trkpt lat="45.6345492" lon="10.8738557"><ele>121.99999999999999</ele><time>2026-04-26T08:26:07.68Z</time></trkpt><trkpt lat="45.6346301" lon="10.8739022"><ele>122.0</ele><time>2026-04-26T08:26:08.675Z</time></trkpt><trkpt lat="45.6346906" lon="10.8739306"><ele>122.0</ele><time>2026-04-26T08:26:09.673Z</time></trkpt><trkpt lat="45.6347779" lon="10.873916"><ele>121.99999999999999</ele><time>2026-04-26T08:26:11.679Z</time></trkpt><trkpt lat="45.634829" lon="10.8737689"><ele>122.0</ele><time>2026-04-26T08:26:13.68Z</time></trkpt><trkpt lat="45.6348585" lon="10.8736745"><ele>122.0</ele><time>2026-04-26T08:26:14.678Z</time></trkpt><trkpt lat="45.6348879" lon="10.8735812"><ele>122.0</ele><time>2026-04-26T08:26:15.674Z</time></trkpt><trkpt lat="45.6349428" lon="10.8734376"><ele>121.99999999999999</ele><time>2026-04-26T08:26:17.675Z</time></trkpt><trkpt lat="45.6349966" lon="10.8733908"><ele>122.0</ele><time>2026-04-26T08:26:19.677Z</time></trkpt><trkpt lat="45.6350764" lon="10.873438"><ele>122.0</ele><time>2026-04-26T08:26:21.676Z</time></trkpt><trkpt lat="45.6351293" lon="10.873494"><ele>121.99999999999999</ele><time>2026-04-26T08:26:22.671Z</time></trkpt><trkpt lat="45.6351894" lon="10.8735611"><ele>121.99999999999999</ele><time>2026-04-26T08:26:23.671Z</time></trkpt><trkpt lat="45.6352614" lon="10.8736234"><ele>122.0</ele><time>2026-04-26T08:26:24.673Z</time></trkpt><trkpt lat="45.6353511" lon="10.8736987"><ele>122.0</ele><time>2026-04-26T08:26:25.673Z</time></trkpt><trkpt lat="45.635458" lon="10.873794"><ele>122.0</ele><time>2026-04-26T08:26:26.673Z</time></trkpt><trkpt lat="45.6355689" lon="10.873881"><ele>122.0</ele><time>2026-04-26T08:26:27.675Z</time></trkpt><trkpt lat="45.6356728" lon="10.8739633"><ele>122.0</ele><time>2026-04-26T08:26:28.679Z</time></trkpt><trkpt lat="45.6357751" lon="10.8740571"><ele>122.0</ele><time>2026-04-26T08:26:29.674Z</time></trkpt><trkpt lat="45.6358742" lon="10.8741594"><ele>122.0</ele><time>2026-04-26T08:26:30.678Z</time></trkpt><trkpt lat="45.6359735" lon="10.8742602"><ele>122.0</ele><time>2026-04-26T08:26:31.677Z</time></trkpt><trkpt lat="45.6360712" lon="10.8743555"><ele>122.0</ele><time>2026-04-26T08:26:32.677Z</time></trkpt><trkpt lat="45.6361688" lon="10.8744483"><ele>122.0</ele><time>2026-04-26T08:26:33.681Z</time></trkpt><trkpt lat="45.6362684" lon="10.8745421"><ele>121.75</ele><time>2026-04-26T08:26:34.688Z</time></trkpt><trkpt lat="45.6363649" lon="10.8746397"><ele>121.5</ele><time>2026-04-26T08:26:35.683Z</time></trkpt><trkpt lat="45.6364585" lon="10.8747458"><ele>121.25</ele><time>2026-04-26T08:26:36.686Z</time></trkpt><trkpt lat="45.6365544" lon="10.8748392"><ele>121.0</ele><time>2026-04-26T08:26:37.683Z</time></trkpt><trkpt lat="45.6366469" lon="10.8749312"><ele>121.0</ele><time>2026-04-26T08:26:38.685Z</time></trkpt><trkpt lat="45.6367389" lon="10.875029"><ele>121.0</ele><time>2026-04-26T08:26:39.686Z</time></trkpt><trkpt lat="45.6368332" lon="10.8751253"><ele>121.0</ele><time>2026-04-26T08:26:40.688Z</time></trkpt><trkpt lat="45.6369345" lon="10.8752237"><ele>121.0</ele><time>2026-04-26T08:26:41.686Z</time></trkpt><trkpt lat="45.6370335" lon="10.8753272"><ele>121.0</ele><time>2026-04-26T08:26:42.686Z</time></trkpt><trkpt lat="45.6371284" lon="10.8754274"><ele>121.0</ele><time>2026-04-26T08:26:43.683Z</time></trkpt><trkpt lat="45.6372212" lon="10.8755213"><ele>121.0</ele><time>2026-04-26T08:26:44.685Z</time></trkpt><trkpt lat="45.6373162" lon="10.8755985"><ele>121.0</ele><time>2026-04-26T08:26:45.686Z</time></trkpt><trkpt lat="45.637408" lon="10.8756813"><ele>121.0</ele><time>2026-04-26T08:26:46.671Z</time></trkpt><trkpt lat="45.6374908" lon="10.8757664"><ele>121.00000000000001</ele><time>2026-04-26T08:26:47.679Z</time></trkpt><trkpt lat="45.6375669" lon="10.8758487"><ele>121.0</ele><time>2026-04-26T08:26:48.672Z</time></trkpt><trkpt lat="45.637636" lon="10.8759223"><ele>121.0</ele><time>2026-04-26T08:26:49.676Z</time></trkpt><trkpt lat="45.6376876" lon="10.8759877"><ele>121.0</ele><time>2026-04-26T08:26:50.673Z</time></trkpt><trkpt lat="45.6376932" lon="10.8761295"><ele>121.00000000000001</ele><time>2026-04-26T08:26:52.67Z</time></trkpt><trkpt lat="45.6376772" lon="10.8762292"><ele>121.0</ele><time>2026-04-26T08:26:53.662Z</time></trkpt><trkpt lat="45.6376725" lon="10.876344"><ele>120.8</ele><time>2026-04-26T08:26:54.664Z</time></trkpt><trkpt lat="45.6376785" lon="10.8764537"><ele>120.6</ele><time>2026-04-26T08:26:55.66Z</time></trkpt><trkpt lat="45.6377037" lon="10.8765424"><ele>120.4</ele><time>2026-04-26T08:26:56.668Z</time></trkpt><trkpt lat="45.6378187" lon="10.8766706"><ele>120.2</ele><time>2026-04-26T08:26:58.679Z</time></trkpt><trkpt lat="45.6379429" lon="10.8767152"><ele>120.0</ele><time>2026-04-26T08:26:59.667Z</time></trkpt><trkpt lat="45.6380474" lon="10.8767395"><ele>120.0</ele><time>2026-04-26T08:27:00.669Z</time></trkpt><trkpt lat="45.6381281" lon="10.8767547"><ele>120.0</ele><time>2026-04-26T08:27:01.673Z</time></trkpt><trkpt lat="45.6381999" lon="10.8768271"><ele>120.0</ele><time>2026-04-26T08:27:03.672Z</time></trkpt><trkpt lat="45.6382156" lon="10.8769529"><ele>120.0</ele><time>2026-04-26T08:27:05.679Z</time></trkpt><trkpt lat="45.6382593" lon="10.8770219"><ele>120.0</ele><time>2026-04-26T08:27:07.667Z</time></trkpt><trkpt lat="45.6383804" lon="10.877082"><ele>120.16666666666667</ele><time>2026-04-26T08:27:09.669Z</time></trkpt><trkpt lat="45.6384793" lon="10.8771031"><ele>120.33333333333334</ele><time>2026-04-26T08:27:10.671Z</time></trkpt><trkpt lat="45.6385619" lon="10.8771172"><ele>120.5</ele><time>2026-04-26T08:27:11.663Z</time></trkpt><trkpt lat="45.6386314" lon="10.8771342"><ele>120.66666666666667</ele><time>2026-04-26T08:27:12.67Z</time></trkpt><trkpt lat="45.6386929" lon="10.8771632"><ele>120.83333333333334</ele><time>2026-04-26T08:27:13.673Z</time></trkpt><trkpt lat="45.6387563" lon="10.8772068"><ele>121.0</ele><time>2026-04-26T08:27:14.671Z</time></trkpt><trkpt lat="45.6388234" lon="10.8772827"><ele>121.0</ele><time>2026-04-26T08:27:15.666Z</time></trkpt><trkpt lat="45.6388993" lon="10.8773708"><ele>121.0</ele><time>2026-04-26T08:27:16.675Z</time></trkpt><trkpt lat="45.6389809" lon="10.877475"><ele>121.0</ele><time>2026-04-26T08:27:17.668Z</time></trkpt><trkpt lat="45.6390664" lon="10.8775879"><ele>121.0</ele><time>2026-04-26T08:27:18.684Z</time></trkpt><trkpt lat="45.63916" lon="10.8777176"><ele>120.75</ele><time>2026-04-26T08:27:19.671Z</time></trkpt><trkpt lat="45.6392552" lon="10.8778366"><ele>120.5</ele><time>2026-04-26T08:27:20.673Z</time></trkpt><trkpt lat="45.6393501" lon="10.8779478"><ele>120.25</ele><time>2026-04-26T08:27:21.677Z</time></trkpt><trkpt lat="45.6394457" lon="10.8780626"><ele>120.0</ele><time>2026-04-26T08:27:22.682Z</time></trkpt><trkpt lat="45.6395368" lon="10.8781738"><ele>120.0</ele><time>2026-04-26T08:27:23.687Z</time></trkpt><trkpt lat="45.6396265" lon="10.8782869"><ele>120.0</ele><time>2026-04-26T08:27:24.672Z</time></trkpt><trkpt lat="45.6397208" lon="10.8783969"><ele>120.0</ele><time>2026-04-26T08:27:25.669Z</time></trkpt><trkpt lat="45.6398191" lon="10.8784997"><ele>120.0</ele><time>2026-04-26T08:27:26.673Z</time></trkpt><trkpt lat="45.6399207" lon="10.8786004"><ele>119.25</ele><time>2026-04-26T08:27:27.677Z</time></trkpt><trkpt lat="45.6400285" lon="10.8786945"><ele>118.5</ele><time>2026-04-26T08:27:28.677Z</time></trkpt><trkpt lat="45.6401268" lon="10.8787843"><ele>117.75</ele><time>2026-04-26T08:27:29.672Z</time></trkpt><trkpt lat="45.6402252" lon="10.8788723"><ele>117.0</ele><time>2026-04-26T08:27:30.677Z</time></trkpt><trkpt lat="45.6403265" lon="10.8789544"><ele>117.0</ele><time>2026-04-26T08:27:31.675Z</time></trkpt><trkpt lat="45.6404285" lon="10.8790337"><ele>117.0</ele><time>2026-04-26T08:27:32.673Z</time></trkpt><trkpt lat="45.640536" lon="10.8791115"><ele>117.0</ele><time>2026-04-26T08:27:33.671Z</time></trkpt><trkpt lat="45.640644" lon="10.8791969"><ele>117.0</ele><time>2026-04-26T08:27:34.674Z</time></trkpt><trkpt lat="45.6407525" lon="10.8792854"><ele>116.75</ele><time>2026-04-26T08:27:35.675Z</time></trkpt><trkpt lat="45.6408741" lon="10.8793747"><ele>116.5</ele><time>2026-04-26T08:27:36.68Z</time></trkpt><trkpt lat="45.6409937" lon="10.8794604"><ele>116.25</ele><time>2026-04-26T08:27:37.676Z</time></trkpt><trkpt lat="45.6411128" lon="10.8795361"><ele>116.0</ele><time>2026-04-26T08:27:38.68Z</time></trkpt><trkpt lat="45.6412271" lon="10.8796066"><ele>116.0</ele><time>2026-04-26T08:27:39.674Z</time></trkpt><trkpt lat="45.6413433" lon="10.8796799"><ele>116.0</ele><time>2026-04-26T08:27:40.681Z</time></trkpt><trkpt lat="45.6414597" lon="10.8797618"><ele>116.0</ele><time>2026-04-26T08:27:41.677Z</time></trkpt><trkpt lat="45.6415755" lon="10.8798418"><ele>116.0</ele><time>2026-04-26T08:27:42.67Z</time></trkpt><trkpt lat="45.6416896" lon="10.8799224"><ele>116.0</ele><time>2026-04-26T08:27:43.676Z</time></trkpt><trkpt lat="45.6418035" lon="10.8800102"><ele>116.0</ele><time>2026-04-26T08:27:44.675Z</time></trkpt><trkpt lat="45.6419144" lon="10.8801025"><ele>116.0</ele><time>2026-04-26T08:27:45.674Z</time></trkpt><trkpt lat="45.6420205" lon="10.8801967"><ele>116.0</ele><time>2026-04-26T08:27:46.679Z</time></trkpt><trkpt lat="45.6421159" lon="10.8803001"><ele>114.8</ele><time>2026-04-26T08:27:47.678Z</time></trkpt><trkpt lat="45.6422085" lon="10.8804091"><ele>113.6</ele><time>2026-04-26T08:27:48.677Z</time></trkpt><trkpt lat="45.6422972" lon="10.8805114"><ele>112.4</ele><time>2026-04-26T08:27:49.677Z</time></trkpt><trkpt lat="45.6423794" lon="10.8806029"><ele>111.2</ele><time>2026-04-26T08:27:50.678Z</time></trkpt><trkpt lat="45.6424481" lon="10.8806784"><ele>110.0</ele><time>2026-04-26T08:27:51.678Z</time></trkpt><trkpt lat="45.6425091" lon="10.8807417"><ele>109.99999999999999</ele><time>2026-04-26T08:27:52.67Z</time></trkpt><trkpt lat="45.6426049" lon="10.8807954"><ele>110.0</ele><time>2026-04-26T08:27:54.676Z</time></trkpt><trkpt lat="45.6427093" lon="10.8807238"><ele>110.0</ele><time>2026-04-26T08:27:56.667Z</time></trkpt><trkpt lat="45.6427703" lon="10.88068"><ele>110.0</ele><time>2026-04-26T08:27:57.662Z</time></trkpt><trkpt lat="45.6428385" lon="10.8806305"><ele>109.99999999999999</ele><time>2026-04-26T08:27:58.663Z</time></trkpt><trkpt lat="45.642901" lon="10.8805507"><ele>110.0</ele><time>2026-04-26T08:27:59.665Z</time></trkpt><trkpt lat="45.642973" lon="10.8804617"><ele>109.83333333333333</ele><time>2026-04-26T08:28:00.666Z</time></trkpt><trkpt lat="45.6430474" lon="10.8803814"><ele>109.66666666666666</ele><time>2026-04-26T08:28:01.67Z</time></trkpt><trkpt lat="45.6431233" lon="10.8803048"><ele>109.5</ele><time>2026-04-26T08:28:02.667Z</time></trkpt><trkpt lat="45.6431946" lon="10.8802387"><ele>109.33333333333334</ele><time>2026-04-26T08:28:03.669Z</time></trkpt><trkpt lat="45.6432604" lon="10.8801639"><ele>109.16666666666667</ele><time>2026-04-26T08:28:04.663Z</time></trkpt><trkpt lat="45.6433149" lon="10.8800776"><ele>109.0</ele><time>2026-04-26T08:28:05.669Z</time></trkpt><trkpt lat="45.6433517" lon="10.8799774"><ele>109.0</ele><time>2026-04-26T08:28:06.668Z</time></trkpt><trkpt lat="45.6433685" lon="10.8798358"><ele>109.0</ele><time>2026-04-26T08:28:07.668Z</time></trkpt><trkpt lat="45.6433772" lon="10.8796859"><ele>109.0</ele><time>2026-04-26T08:28:08.671Z</time></trkpt><trkpt lat="45.6433877" lon="10.879542"><ele>109.0</ele><time>2026-04-26T08:28:09.661Z</time></trkpt><trkpt lat="45.6433812" lon="10.8793978"><ele>109.0</ele><time>2026-04-26T08:28:10.66Z</time></trkpt><trkpt lat="45.6433618" lon="10.8792353"><ele>110.0</ele><time>2026-04-26T08:28:11.669Z</time></trkpt><trkpt lat="45.6433246" lon="10.879063"><ele>111.0</ele><time>2026-04-26T08:28:12.673Z</time></trkpt><trkpt lat="45.6432823" lon="10.8789057"><ele>112.0</ele><time>2026-04-26T08:28:13.66Z</time></trkpt><trkpt lat="45.6432326" lon="10.8787671"><ele>113.0</ele><time>2026-04-26T08:28:14.669Z</time></trkpt><trkpt lat="45.6431789" lon="10.8786546"><ele>114.0</ele><time>2026-04-26T08:28:15.668Z</time></trkpt><trkpt lat="45.6431335" lon="10.8785533"><ele>114.0</ele><time>2026-04-26T08:28:16.669Z</time></trkpt><trkpt lat="45.6430928" lon="10.8784785"><ele>114.0</ele><time>2026-04-26T08:28:17.669Z</time></trkpt><trkpt lat="45.6430566" lon="10.8784007"><ele>114.0</ele><time>2026-04-26T08:28:19.668Z</time></trkpt><trkpt lat="45.6431419" lon="10.8783774"><ele>114.0</ele><time>2026-04-26T08:28:22.679Z</time></trkpt><trkpt lat="45.6432075" lon="10.8784151"><ele>114.0</ele><time>2026-04-26T08:28:23.674Z</time></trkpt><trkpt lat="45.6433053" lon="10.8784575"><ele>114.0</ele><time>2026-04-26T08:28:24.672Z</time></trkpt><trkpt lat="45.6434301" lon="10.8785029"><ele>114.0</ele><time>2026-04-26T08:28:25.674Z</time></trkpt><trkpt lat="45.6435492" lon="10.878548"><ele>114.0</ele><time>2026-04-26T08:28:26.673Z</time></trkpt><trkpt lat="45.6436674" lon="10.8785921"><ele>114.0</ele><time>2026-04-26T08:28:27.661Z</time></trkpt><trkpt lat="45.643783" lon="10.8786292"><ele>114.0</ele><time>2026-04-26T08:28:28.677Z</time></trkpt><trkpt lat="45.6439007" lon="10.8786686"><ele>114.5</ele><time>2026-04-26T08:28:29.67Z</time></trkpt><trkpt lat="45.6440176" lon="10.878708"><ele>115.0</ele><time>2026-04-26T08:28:30.671Z</time></trkpt><trkpt lat="45.644138" lon="10.8787489"><ele>115.5</ele><time>2026-04-26T08:28:31.674Z</time></trkpt><trkpt lat="45.6442671" lon="10.8787885"><ele>116.0</ele><time>2026-04-26T08:28:32.677Z</time></trkpt><trkpt lat="45.644407" lon="10.8788415"><ele>117.5</ele><time>2026-04-26T08:28:33.671Z</time></trkpt><trkpt lat="45.6445486" lon="10.878892"><ele>119.0</ele><time>2026-04-26T08:28:34.674Z</time></trkpt><trkpt lat="45.6446912" lon="10.8789439"><ele>120.5</ele><time>2026-04-26T08:28:35.672Z</time></trkpt><trkpt lat="45.6448322" lon="10.8789968"><ele>122.0</ele><time>2026-04-26T08:28:36.67Z</time></trkpt><trkpt lat="45.6449704" lon="10.8790458"><ele>122.0</ele><time>2026-04-26T08:28:37.674Z</time></trkpt><trkpt lat="45.6451198" lon="10.8791043"><ele>122.0</ele><time>2026-04-26T08:28:38.666Z</time></trkpt><trkpt lat="45.6452811" lon="10.8791672"><ele>122.0</ele><time>2026-04-26T08:28:39.666Z</time></trkpt><trkpt lat="45.6454464" lon="10.8792248"><ele>118.66666666666666</ele><time>2026-04-26T08:28:40.662Z</time></trkpt><trkpt lat="45.6455979" lon="10.8792735"><ele>115.33333333333334</ele><time>2026-04-26T08:28:41.659Z</time></trkpt><trkpt lat="45.6457478" lon="10.879307"><ele>112.0</ele><time>2026-04-26T08:28:42.663Z</time></trkpt><trkpt lat="45.6458984" lon="10.8793534"><ele>112.0</ele><time>2026-04-26T08:28:43.664Z</time></trkpt><trkpt lat="45.6460491" lon="10.8793867"><ele>112.0</ele><time>2026-04-26T08:28:44.665Z</time></trkpt><trkpt lat="45.6461906" lon="10.8794424"><ele>112.0</ele><time>2026-04-26T08:28:45.661Z</time></trkpt><trkpt lat="45.6463373" lon="10.8795291"><ele>118.66666666666667</ele><time>2026-04-26T08:28:46.659Z</time></trkpt><trkpt lat="45.6464678" lon="10.8796534"><ele>125.33333333333334</ele><time>2026-04-26T08:28:47.663Z</time></trkpt><trkpt lat="45.6466015" lon="10.8798134"><ele>132.0</ele><time>2026-04-26T08:28:48.663Z</time></trkpt><trkpt lat="45.6467212" lon="10.8799976"><ele>127.33333333333334</ele><time>2026-04-26T08:28:49.667Z</time></trkpt><trkpt lat="45.646827" lon="10.880198"><ele>122.66666666666667</ele><time>2026-04-26T08:28:50.66Z</time></trkpt><trkpt lat="45.6469271" lon="10.8803921"><ele>118.0</ele><time>2026-04-26T08:28:51.664Z</time></trkpt><trkpt lat="45.6470233" lon="10.8805854"><ele>122.66666666666667</ele><time>2026-04-26T08:28:52.653Z</time></trkpt><trkpt lat="45.6471282" lon="10.8808072"><ele>127.33333333333334</ele><time>2026-04-26T08:28:53.659Z</time></trkpt><trkpt lat="45.647237" lon="10.8810194"><ele>132.0</ele><time>2026-04-26T08:28:54.659Z</time></trkpt><trkpt lat="45.6473326" lon="10.8812382"><ele>132.0</ele><time>2026-04-26T08:28:55.654Z</time></trkpt><trkpt lat="45.6474245" lon="10.8814453"><ele>132.0</ele><time>2026-04-26T08:28:56.654Z</time></trkpt><trkpt lat="45.6475079" lon="10.8816451"><ele>132.0</ele><time>2026-04-26T08:28:57.66Z</time></trkpt><trkpt lat="45.647593" lon="10.8818192"><ele>132.33333333333334</ele><time>2026-04-26T08:28:58.657Z</time></trkpt><trkpt lat="45.6476845" lon="10.8819982"><ele>132.66666666666669</ele><time>2026-04-26T08:28:59.665Z</time></trkpt><trkpt lat="45.6477888" lon="10.8821717"><ele>133.0</ele><time>2026-04-26T08:29:00.661Z</time></trkpt><trkpt lat="45.6478921" lon="10.8823463"><ele>133.0</ele><time>2026-04-26T08:29:01.667Z</time></trkpt><trkpt lat="45.6479919" lon="10.8825326"><ele>133.0</ele><time>2026-04-26T08:29:02.667Z</time></trkpt><trkpt lat="45.6480909" lon="10.8827098"><ele>133.0</ele><time>2026-04-26T08:29:03.663Z</time></trkpt><trkpt lat="45.6482059" lon="10.8828687"><ele>129.66666666666669</ele><time>2026-04-26T08:29:04.668Z</time></trkpt><trkpt lat="45.6483261" lon="10.8830344"><ele>126.33333333333334</ele><time>2026-04-26T08:29:05.663Z</time></trkpt><trkpt lat="45.6484525" lon="10.8831852"><ele>123.0</ele><time>2026-04-26T08:29:06.669Z</time></trkpt><trkpt lat="45.6485838" lon="10.8833273"><ele>123.0</ele><time>2026-04-26T08:29:07.667Z</time></trkpt><trkpt lat="45.6487209" lon="10.8834598"><ele>123.0</ele><time>2026-04-26T08:29:08.667Z</time></trkpt><trkpt lat="45.6488593" lon="10.8835894"><ele>123.0</ele><time>2026-04-26T08:29:09.671Z</time></trkpt><trkpt lat="45.6489974" lon="10.8837179"><ele>123.0</ele><time>2026-04-26T08:29:10.666Z</time></trkpt><trkpt lat="45.6491413" lon="10.8838479"><ele>123.0</ele><time>2026-04-26T08:29:11.667Z</time></trkpt><trkpt lat="45.6492946" lon="10.8839788"><ele>123.0</ele><time>2026-04-26T08:29:12.664Z</time></trkpt><trkpt lat="45.6494428" lon="10.8841218"><ele>125.0</ele><time>2026-04-26T08:29:13.666Z</time></trkpt><trkpt lat="45.6495823" lon="10.8842692"><ele>127.0</ele><time>2026-04-26T08:29:14.67Z</time></trkpt><trkpt lat="45.6497279" lon="10.8843986"><ele>129.0</ele><time>2026-04-26T08:29:15.668Z</time></trkpt><trkpt lat="45.6498666" lon="10.8845189"><ele>129.0</ele><time>2026-04-26T08:29:16.664Z</time></trkpt><trkpt lat="45.6499958" lon="10.884649"><ele>129.0</ele><time>2026-04-26T08:29:17.663Z</time></trkpt><trkpt lat="45.6501228" lon="10.8847741"><ele>129.0</ele><time>2026-04-26T08:29:18.664Z</time></trkpt><trkpt lat="45.6502515" lon="10.8848983"><ele>129.0</ele><time>2026-04-26T08:29:19.664Z</time></trkpt><trkpt lat="45.6503784" lon="10.8850166"><ele>129.0</ele><time>2026-04-26T08:29:20.671Z</time></trkpt><trkpt lat="45.650488" lon="10.8851678"><ele>129.0</ele><time>2026-04-26T08:29:21.672Z</time></trkpt><trkpt lat="45.6506085" lon="10.8853328"><ele>129.0</ele><time>2026-04-26T08:29:22.666Z</time></trkpt><trkpt lat="45.6507254" lon="10.8855097"><ele>129.0</ele><time>2026-04-26T08:29:23.672Z</time></trkpt><trkpt lat="45.6508405" lon="10.8856877"><ele>129.0</ele><time>2026-04-26T08:29:24.668Z</time></trkpt><trkpt lat="45.6509545" lon="10.8858635"><ele>128.0</ele><time>2026-04-26T08:29:25.667Z</time></trkpt><trkpt lat="45.6510635" lon="10.8860274"><ele>127.0</ele><time>2026-04-26T08:29:26.669Z</time></trkpt><trkpt lat="45.651171" lon="10.8861704"><ele>126.0</ele><time>2026-04-26T08:29:27.665Z</time></trkpt><trkpt lat="45.651264" lon="10.8863194"><ele>125.0</ele><time>2026-04-26T08:29:28.674Z</time></trkpt><trkpt lat="45.65136" lon="10.8864593"><ele>125.75</ele><time>2026-04-26T08:29:29.668Z</time></trkpt><trkpt lat="45.6514524" lon="10.8866069"><ele>126.5</ele><time>2026-04-26T08:29:30.673Z</time></trkpt><trkpt lat="45.6515371" lon="10.8867571"><ele>127.25</ele><time>2026-04-26T08:29:31.67Z</time></trkpt><trkpt lat="45.651638" lon="10.8869036"><ele>128.0</ele><time>2026-04-26T08:29:32.672Z</time></trkpt><trkpt lat="45.6517351" lon="10.8870308"><ele>128.0</ele><time>2026-04-26T08:29:33.674Z</time></trkpt><trkpt lat="45.6518298" lon="10.8871495"><ele>128.0</ele><time>2026-04-26T08:29:34.671Z</time></trkpt><trkpt lat="45.6519203" lon="10.8872736"><ele>128.0</ele><time>2026-04-26T08:29:35.675Z</time></trkpt><trkpt lat="45.6520178" lon="10.8873888"><ele>128.0</ele><time>2026-04-26T08:29:36.677Z</time></trkpt><trkpt lat="45.6521056" lon="10.8875017"><ele>129.0</ele><time>2026-04-26T08:29:37.677Z</time></trkpt><trkpt lat="45.6521971" lon="10.8876136"><ele>130.0</ele><time>2026-04-26T08:29:38.675Z</time></trkpt><trkpt lat="45.6522852" lon="10.8877205"><ele>131.0</ele><time>2026-04-26T08:29:39.674Z</time></trkpt><trkpt lat="45.6523708" lon="10.8878319"><ele>132.0</ele><time>2026-04-26T08:29:40.677Z</time></trkpt><trkpt lat="45.6524591" lon="10.8879364"><ele>132.0</ele><time>2026-04-26T08:29:41.68Z</time></trkpt><trkpt lat="45.6525392" lon="10.8880265"><ele>132.0</ele><time>2026-04-26T08:29:42.674Z</time></trkpt><trkpt lat="45.6526222" lon="10.8881046"><ele>132.0</ele><time>2026-04-26T08:29:43.67Z</time></trkpt><trkpt lat="45.6527045" lon="10.8881726"><ele>132.0</ele><time>2026-04-26T08:29:44.675Z</time></trkpt><trkpt lat="45.6527851" lon="10.8882501"><ele>132.0</ele><time>2026-04-26T08:29:45.673Z</time></trkpt><trkpt lat="45.6528602" lon="10.8883467"><ele>131.75</ele><time>2026-04-26T08:29:46.671Z</time></trkpt><trkpt lat="45.6529266" lon="10.8884688"><ele>131.5</ele><time>2026-04-26T08:29:47.674Z</time></trkpt><trkpt lat="45.6529739" lon="10.8886235"><ele>131.25</ele><time>2026-04-26T08:29:48.675Z</time></trkpt><trkpt lat="45.6530125" lon="10.8887999"><ele>131.0</ele><time>2026-04-26T08:29:49.669Z</time></trkpt><trkpt lat="45.6530538" lon="10.8889937"><ele>131.0</ele><time>2026-04-26T08:29:50.677Z</time></trkpt><trkpt lat="45.6530922" lon="10.8891849"><ele>131.0</ele><time>2026-04-26T08:29:51.672Z</time></trkpt><trkpt lat="45.6531254" lon="10.889369"><ele>131.0</ele><time>2026-04-26T08:29:52.674Z</time></trkpt><trkpt lat="45.6531606" lon="10.8895517"><ele>131.0</ele><time>2026-04-26T08:29:53.676Z</time></trkpt><trkpt lat="45.6531996" lon="10.8897344"><ele>130.5</ele><time>2026-04-26T08:29:54.673Z</time></trkpt><trkpt lat="45.653245" lon="10.8899114"><ele>130.0</ele><time>2026-04-26T08:29:55.678Z</time></trkpt><trkpt lat="45.6532881" lon="10.8900936"><ele>129.5</ele><time>2026-04-26T08:29:56.674Z</time></trkpt><trkpt lat="45.6533316" lon="10.8902803"><ele>129.0</ele><time>2026-04-26T08:29:57.672Z</time></trkpt><trkpt lat="45.6533778" lon="10.890466"><ele>128.5</ele><time>2026-04-26T08:29:58.674Z</time></trkpt><trkpt lat="45.6534287" lon="10.8906443"><ele>128.0</ele><time>2026-04-26T08:29:59.668Z</time></trkpt><trkpt lat="45.653496" lon="10.8908087"><ele>127.5</ele><time>2026-04-26T08:30:00.666Z</time></trkpt><trkpt lat="45.6535811" lon="10.8909597"><ele>127.0</ele><time>2026-04-26T08:30:01.67Z</time></trkpt><trkpt lat="45.6536567" lon="10.891115"><ele>127.0</ele><time>2026-04-26T08:30:02.67Z</time></trkpt><trkpt lat="45.6537436" lon="10.8912524"><ele>127.0</ele><time>2026-04-26T08:30:03.667Z</time></trkpt><trkpt lat="45.653832" lon="10.8913855"><ele>127.0</ele><time>2026-04-26T08:30:04.669Z</time></trkpt><trkpt lat="45.6539175" lon="10.8915293"><ele>127.0</ele><time>2026-04-26T08:30:05.668Z</time></trkpt><trkpt lat="45.6539932" lon="10.891668"><ele>126.75</ele><time>2026-04-26T08:30:06.666Z</time></trkpt><trkpt lat="45.6540765" lon="10.8918043"><ele>126.5</ele><time>2026-04-26T08:30:07.67Z</time></trkpt><trkpt lat="45.654152" lon="10.891946"><ele>126.25</ele><time>2026-04-26T08:30:08.669Z</time></trkpt><trkpt lat="45.6542203" lon="10.8920904"><ele>126.0</ele><time>2026-04-26T08:30:09.674Z</time></trkpt><trkpt lat="45.6542823" lon="10.8922456"><ele>126.0</ele><time>2026-04-26T08:30:10.672Z</time></trkpt><trkpt lat="45.654339" lon="10.8924144"><ele>126.0</ele><time>2026-04-26T08:30:11.673Z</time></trkpt><trkpt lat="45.6543856" lon="10.8925841"><ele>126.0</ele><time>2026-04-26T08:30:12.671Z</time></trkpt><trkpt lat="45.6544181" lon="10.8927549"><ele>126.0</ele><time>2026-04-26T08:30:13.669Z</time></trkpt><trkpt lat="45.6544546" lon="10.8929231"><ele>125.25</ele><time>2026-04-26T08:30:14.676Z</time></trkpt><trkpt lat="45.6544998" lon="10.8930893"><ele>124.5</ele><time>2026-04-26T08:30:15.67Z</time></trkpt><trkpt lat="45.6545513" lon="10.8932526"><ele>123.75</ele><time>2026-04-26T08:30:16.673Z</time></trkpt><trkpt lat="45.6546134" lon="10.8934049"><ele>123.0</ele><time>2026-04-26T08:30:17.671Z</time></trkpt><trkpt lat="45.6546866" lon="10.893549"><ele>122.0</ele><time>2026-04-26T08:30:18.678Z</time></trkpt><trkpt lat="45.654772" lon="10.893677"><ele>121.0</ele><time>2026-04-26T08:30:19.668Z</time></trkpt><trkpt lat="45.6548635" lon="10.8937814"><ele>120.0</ele><time>2026-04-26T08:30:20.673Z</time></trkpt><trkpt lat="45.6549724" lon="10.8938501"><ele>119.0</ele><time>2026-04-26T08:30:21.668Z</time></trkpt><trkpt lat="45.6550947" lon="10.8939021"><ele>119.0</ele><time>2026-04-26T08:30:22.668Z</time></trkpt><trkpt lat="45.65523" lon="10.8939322"><ele>119.0</ele><time>2026-04-26T08:30:23.665Z</time></trkpt><trkpt lat="45.6553726" lon="10.8939528"><ele>119.0</ele><time>2026-04-26T08:30:24.661Z</time></trkpt><trkpt lat="45.6555221" lon="10.893954"><ele>119.0</ele><time>2026-04-26T08:30:25.67Z</time></trkpt><trkpt lat="45.6556702" lon="10.8939482"><ele>119.0</ele><time>2026-04-26T08:30:26.674Z</time></trkpt><trkpt lat="45.6558267" lon="10.8939408"><ele>119.0</ele><time>2026-04-26T08:30:27.664Z</time></trkpt><trkpt lat="45.6559728" lon="10.8939636"><ele>119.0</ele><time>2026-04-26T08:30:28.67Z</time></trkpt><trkpt lat="45.6561062" lon="10.893981"><ele>119.0</ele><time>2026-04-26T08:30:29.672Z</time></trkpt><trkpt lat="45.6562327" lon="10.8940011"><ele>118.99999999999999</ele><time>2026-04-26T08:30:30.669Z</time></trkpt><trkpt lat="45.6563448" lon="10.8940214"><ele>119.0</ele><time>2026-04-26T08:30:31.666Z</time></trkpt><trkpt lat="45.6564319" lon="10.8940411"><ele>119.0</ele><time>2026-04-26T08:30:32.672Z</time></trkpt><trkpt lat="45.6565038" lon="10.8940684"><ele>119.0</ele><time>2026-04-26T08:30:33.662Z</time></trkpt><trkpt lat="45.6565684" lon="10.8940937"><ele>118.99999999999999</ele><time>2026-04-26T08:30:34.675Z</time></trkpt><trkpt lat="45.6566362" lon="10.8941062"><ele>119.0</ele><time>2026-04-26T08:30:35.673Z</time></trkpt><trkpt lat="45.6567325" lon="10.8941466"><ele>117.80000000000001</ele><time>2026-04-26T08:30:37.676Z</time></trkpt><trkpt lat="45.6567776" lon="10.8942834"><ele>116.60000000000001</ele><time>2026-04-26T08:30:39.676Z</time></trkpt><trkpt lat="45.6567684" lon="10.8944018"><ele>115.4</ele><time>2026-04-26T08:30:40.672Z</time></trkpt><trkpt lat="45.6567456" lon="10.8945361"><ele>114.2</ele><time>2026-04-26T08:30:41.674Z</time></trkpt><trkpt lat="45.6567231" lon="10.8946788"><ele>113.0</ele><time>2026-04-26T08:30:42.678Z</time></trkpt><trkpt lat="45.6567025" lon="10.8948198"><ele>113.0</ele><time>2026-04-26T08:30:43.671Z</time></trkpt><trkpt lat="45.6566857" lon="10.8949676"><ele>113.00000000000001</ele><time>2026-04-26T08:30:44.683Z</time></trkpt><trkpt lat="45.6566713" lon="10.895119"><ele>113.00000000000001</ele><time>2026-04-26T08:30:45.671Z</time></trkpt><trkpt lat="45.6566537" lon="10.895273"><ele>113.0</ele><time>2026-04-26T08:30:46.675Z</time></trkpt><trkpt lat="45.6566366" lon="10.8954339"><ele>113.0</ele><time>2026-04-26T08:30:47.678Z</time></trkpt><trkpt lat="45.656622" lon="10.895587"><ele>113.0</ele><time>2026-04-26T08:30:48.679Z</time></trkpt><trkpt lat="45.6566013" lon="10.8957347"><ele>113.00000000000001</ele><time>2026-04-26T08:30:49.67Z</time></trkpt><trkpt lat="45.6565812" lon="10.8958847"><ele>113.00000000000001</ele><time>2026-04-26T08:30:50.673Z</time></trkpt><trkpt lat="45.6565634" lon="10.8960348"><ele>113.0</ele><time>2026-04-26T08:30:51.68Z</time></trkpt><trkpt lat="45.6565457" lon="10.8961931"><ele>113.0</ele><time>2026-04-26T08:30:52.674Z</time></trkpt><trkpt lat="45.6565276" lon="10.8963581"><ele>114.0</ele><time>2026-04-26T08:30:53.671Z</time></trkpt><trkpt lat="45.6565143" lon="10.896521"><ele>115.0</ele><time>2026-04-26T08:30:54.672Z</time></trkpt><trkpt lat="45.6565011" lon="10.8966841"><ele>116.0</ele><time>2026-04-26T08:30:55.678Z</time></trkpt><trkpt lat="45.6564827" lon="10.8968468"><ele>117.0</ele><time>2026-04-26T08:30:56.674Z</time></trkpt><trkpt lat="45.6564651" lon="10.896995"><ele>117.33333333333333</ele><time>2026-04-26T08:30:57.674Z</time></trkpt><trkpt lat="45.6564491" lon="10.8971286"><ele>117.66666666666666</ele><time>2026-04-26T08:30:58.673Z</time></trkpt><trkpt lat="45.6564307" lon="10.8972575"><ele>118.0</ele><time>2026-04-26T08:30:59.67Z</time></trkpt><trkpt lat="45.6564151" lon="10.8973802"><ele>118.33333333333333</ele><time>2026-04-26T08:31:00.67Z</time></trkpt><trkpt lat="45.6564011" lon="10.8974957"><ele>118.66666666666666</ele><time>2026-04-26T08:31:01.676Z</time></trkpt><trkpt lat="45.6563845" lon="10.8976048"><ele>119.0</ele><time>2026-04-26T08:31:02.672Z</time></trkpt><trkpt lat="45.6563664" lon="10.8977053"><ele>118.99999999999999</ele><time>2026-04-26T08:31:03.673Z</time></trkpt><trkpt lat="45.6563378" lon="10.8978555"><ele>119.0</ele><time>2026-04-26T08:31:05.672Z</time></trkpt><trkpt lat="45.6563538" lon="10.8979464"><ele>119.0</ele><time>2026-04-26T08:31:08.667Z</time></trkpt><trkpt lat="45.6564097" lon="10.897899"><ele>119.0</ele><time>2026-04-26T08:31:11.658Z</time></trkpt><trkpt lat="45.656435" lon="10.8978159"><ele>118.99999999999999</ele><time>2026-04-26T08:31:13.669Z</time></trkpt><trkpt lat="45.6564473" lon="10.8976909"><ele>119.0</ele><time>2026-04-26T08:31:15.671Z</time></trkpt><trkpt lat="45.6564563" lon="10.8975569"><ele>119.0</ele><time>2026-04-26T08:31:17.676Z</time></trkpt><trkpt lat="45.6564747" lon="10.8974291"><ele>119.0</ele><time>2026-04-26T08:31:19.675Z</time></trkpt><trkpt lat="45.6564957" lon="10.897292"><ele>119.0</ele><time>2026-04-26T08:31:21.683Z</time></trkpt><trkpt lat="45.6565143" lon="10.8971333"><ele>119.0</ele><time>2026-04-26T08:31:23.681Z</time></trkpt><trkpt lat="45.6565311" lon="10.8969508"><ele>119.0</ele><time>2026-04-26T08:31:25.665Z</time></trkpt><trkpt lat="45.656542" lon="10.8968541"><ele>119.0</ele><time>2026-04-26T08:31:26.672Z</time></trkpt><trkpt lat="45.6565499" lon="10.8967587"><ele>119.0</ele><time>2026-04-26T08:31:27.672Z</time></trkpt><trkpt lat="45.6565616" lon="10.8966616"><ele>119.0</ele><time>2026-04-26T08:31:28.669Z</time></trkpt><trkpt lat="45.656575" lon="10.8965589"><ele>119.0</ele><time>2026-04-26T08:31:29.674Z</time></trkpt><trkpt lat="45.6565896" lon="10.8964633"><ele>119.0</ele><time>2026-04-26T08:31:30.671Z</time></trkpt><trkpt lat="45.6566029" lon="10.8963682"><ele>119.0</ele><time>2026-04-26T08:31:31.668Z</time></trkpt><trkpt lat="45.6566082" lon="10.8962771"><ele>119.0</ele><time>2026-04-26T08:31:32.672Z</time></trkpt><trkpt lat="45.6566178" lon="10.8961876"><ele>118.6</ele><time>2026-04-26T08:31:33.669Z</time></trkpt><trkpt lat="45.6566402" lon="10.8960174"><ele>118.2</ele><time>2026-04-26T08:31:35.673Z</time></trkpt><trkpt lat="45.6566511" lon="10.8959185"><ele>117.79999999999998</ele><time>2026-04-26T08:31:36.673Z</time></trkpt><trkpt lat="45.6566565" lon="10.8958255"><ele>117.39999999999999</ele><time>2026-04-26T08:31:37.672Z</time></trkpt><trkpt lat="45.6566687" lon="10.895664"><ele>117.0</ele><time>2026-04-26T08:31:39.665Z</time></trkpt><trkpt lat="45.6566813" lon="10.8955513"><ele>116.19999999999999</ele><time>2026-04-26T08:31:41.67Z</time></trkpt><trkpt lat="45.6566525" lon="10.8954507"><ele>115.39999999999999</ele><time>2026-04-26T08:31:44.667Z</time></trkpt><trkpt lat="45.6565412" lon="10.8954633"><ele>114.60000000000001</ele><time>2026-04-26T08:31:46.669Z</time></trkpt><trkpt lat="45.6564424" lon="10.8954711"><ele>113.80000000000001</ele><time>2026-04-26T08:31:47.672Z</time></trkpt><trkpt lat="45.6563287" lon="10.8954647"><ele>113.0</ele><time>2026-04-26T08:31:48.674Z</time></trkpt><trkpt lat="45.6562172" lon="10.8954482"><ele>113.25</ele><time>2026-04-26T08:31:49.661Z</time></trkpt><trkpt lat="45.6560812" lon="10.8954426"><ele>113.5</ele><time>2026-04-26T08:31:50.67Z</time></trkpt><trkpt lat="45.6559377" lon="10.8954348"><ele>113.75</ele><time>2026-04-26T08:31:51.674Z</time></trkpt><trkpt lat="45.6557917" lon="10.8954369"><ele>114.0</ele><time>2026-04-26T08:31:52.672Z</time></trkpt><trkpt lat="45.6556576" lon="10.895443"><ele>114.0</ele><time>2026-04-26T08:31:53.669Z</time></trkpt><trkpt lat="45.6555264" lon="10.8954544"><ele>114.0</ele><time>2026-04-26T08:31:54.671Z</time></trkpt><trkpt lat="45.6553947" lon="10.8954687"><ele>114.0</ele><time>2026-04-26T08:31:55.672Z</time></trkpt><trkpt lat="45.6552714" lon="10.8954922"><ele>114.0</ele><time>2026-04-26T08:31:56.67Z</time></trkpt><trkpt lat="45.655154" lon="10.8954997"><ele>114.0</ele><time>2026-04-26T08:31:57.671Z</time></trkpt><trkpt lat="45.6550471" lon="10.895514"><ele>114.0</ele><time>2026-04-26T08:31:58.675Z</time></trkpt><trkpt lat="45.6549457" lon="10.8955327"><ele>114.0</ele><time>2026-04-26T08:31:59.671Z</time></trkpt><trkpt lat="45.6548556" lon="10.8955483"><ele>114.0</ele><time>2026-04-26T08:32:00.665Z</time></trkpt><trkpt lat="45.6547781" lon="10.8955773"><ele>114.0</ele><time>2026-04-26T08:32:01.663Z</time></trkpt><trkpt lat="45.6547098" lon="10.8956218"><ele>114.0</ele><time>2026-04-26T08:32:02.669Z</time></trkpt><trkpt lat="45.6546581" lon="10.8956827"><ele>114.0</ele><time>2026-04-26T08:32:03.669Z</time></trkpt><trkpt lat="45.6546252" lon="10.8957602"><ele>114.0</ele><time>2026-04-26T08:32:04.669Z</time></trkpt><trkpt lat="45.6545974" lon="10.8959357"><ele>114.0</ele><time>2026-04-26T08:32:06.662Z</time></trkpt><trkpt lat="45.6545608" lon="10.8960741"><ele>114.0</ele><time>2026-04-26T08:32:08.664Z</time></trkpt><trkpt lat="45.6544936" lon="10.8960864"><ele>114.0</ele><time>2026-04-26T08:32:10.671Z</time></trkpt><trkpt lat="45.6543833" lon="10.8960148"><ele>114.0</ele><time>2026-04-26T08:32:12.665Z</time></trkpt><trkpt lat="45.6543331" lon="10.8959539"><ele>114.0</ele><time>2026-04-26T08:32:13.674Z</time></trkpt><trkpt lat="45.6542915" lon="10.8958779"><ele>114.0</ele><time>2026-04-26T08:32:14.675Z</time></trkpt><trkpt lat="45.6542637" lon="10.8957877"><ele>114.0</ele><time>2026-04-26T08:32:15.673Z</time></trkpt><trkpt lat="45.6542437" lon="10.895701"><ele>114.0</ele><time>2026-04-26T08:32:16.665Z</time></trkpt><trkpt lat="45.6541965" lon="10.895602"><ele>114.0</ele><time>2026-04-26T08:32:18.666Z</time></trkpt><trkpt lat="45.6540839" lon="10.8955923"><ele>114.0</ele><time>2026-04-26T08:32:20.662Z</time></trkpt><trkpt lat="45.6540058" lon="10.8956128"><ele>114.0</ele><time>2026-04-26T08:32:21.674Z</time></trkpt><trkpt lat="45.6539092" lon="10.8956411"><ele>114.0</ele><time>2026-04-26T08:32:22.667Z</time></trkpt><trkpt lat="45.6538101" lon="10.895667"><ele>114.0</ele><time>2026-04-26T08:32:23.664Z</time></trkpt><trkpt lat="45.653697" lon="10.8956996"><ele>114.0</ele><time>2026-04-26T08:32:24.666Z</time></trkpt><trkpt lat="45.6535817" lon="10.8957436"><ele>114.0</ele><time>2026-04-26T08:32:25.667Z</time></trkpt><trkpt lat="45.6534488" lon="10.895792"><ele>114.0</ele><time>2026-04-26T08:32:26.669Z</time></trkpt><trkpt lat="45.6533205" lon="10.895851"><ele>114.0</ele><time>2026-04-26T08:32:27.673Z</time></trkpt><trkpt lat="45.6532033" lon="10.8959063"><ele>114.0</ele><time>2026-04-26T08:32:28.667Z</time></trkpt><trkpt lat="45.6530893" lon="10.8959648"><ele>114.4</ele><time>2026-04-26T08:32:29.671Z</time></trkpt><trkpt lat="45.6529815" lon="10.8960142"><ele>114.80000000000001</ele><time>2026-04-26T08:32:30.668Z</time></trkpt><trkpt lat="45.6528758" lon="10.8960556"><ele>115.19999999999999</ele><time>2026-04-26T08:32:31.665Z</time></trkpt><trkpt lat="45.6527865" lon="10.8960884"><ele>115.6</ele><time>2026-04-26T08:32:32.665Z</time></trkpt><trkpt lat="45.6527073" lon="10.8961148"><ele>116.0</ele><time>2026-04-26T08:32:33.667Z</time></trkpt><trkpt lat="45.6526111" lon="10.8961744"><ele>116.0</ele><time>2026-04-26T08:32:35.667Z</time></trkpt><trkpt lat="45.652602" lon="10.8962846"><ele>116.0</ele><time>2026-04-26T08:32:37.664Z</time></trkpt><trkpt lat="45.6526593" lon="10.8964793"><ele>116.0</ele><time>2026-04-26T08:32:39.666Z</time></trkpt><trkpt lat="45.652698" lon="10.8966109"><ele>116.0</ele><time>2026-04-26T08:32:40.665Z</time></trkpt><trkpt lat="45.6527339" lon="10.8967602"><ele>116.0</ele><time>2026-04-26T08:32:41.664Z</time></trkpt><trkpt lat="45.6527672" lon="10.8969098"><ele>115.75</ele><time>2026-04-26T08:32:42.668Z</time></trkpt><trkpt lat="45.6528007" lon="10.8970709"><ele>115.5</ele><time>2026-04-26T08:32:43.666Z</time></trkpt><trkpt lat="45.6528281" lon="10.8972355"><ele>115.25</ele><time>2026-04-26T08:32:44.665Z</time></trkpt><trkpt lat="45.6528559" lon="10.8974101"><ele>115.0</ele><time>2026-04-26T08:32:45.666Z</time></trkpt><trkpt lat="45.6528732" lon="10.897575"><ele>115.4</ele><time>2026-04-26T08:32:46.668Z</time></trkpt><trkpt lat="45.6528839" lon="10.8977324"><ele>115.8</ele><time>2026-04-26T08:32:47.665Z</time></trkpt><trkpt lat="45.6528851" lon="10.897887"><ele>116.19999999999999</ele><time>2026-04-26T08:32:48.669Z</time></trkpt><trkpt lat="45.6528829" lon="10.8980381"><ele>116.6</ele><time>2026-04-26T08:32:49.665Z</time></trkpt><trkpt lat="45.6528805" lon="10.8981719"><ele>117.0</ele><time>2026-04-26T08:32:50.666Z</time></trkpt><trkpt lat="45.6528784" lon="10.8982932"><ele>117.0</ele><time>2026-04-26T08:32:51.671Z</time></trkpt><trkpt lat="45.6528683" lon="10.8984037"><ele>117.00000000000001</ele><time>2026-04-26T08:32:52.671Z</time></trkpt><trkpt lat="45.6528575" lon="10.898496"><ele>117.0</ele><time>2026-04-26T08:32:53.665Z</time></trkpt><trkpt lat="45.6528406" lon="10.8985898"><ele>117.0</ele><time>2026-04-26T08:32:54.666Z</time></trkpt><trkpt lat="45.6528203" lon="10.8986885"><ele>117.00000000000001</ele><time>2026-04-26T08:32:55.657Z</time></trkpt><trkpt lat="45.6528001" lon="10.8987937"><ele>117.0</ele><time>2026-04-26T08:32:56.658Z</time></trkpt><trkpt lat="45.6527876" lon="10.8988974"><ele>117.0</ele><time>2026-04-26T08:32:57.651Z</time></trkpt><trkpt lat="45.6527723" lon="10.898997"><ele>117.8</ele><time>2026-04-26T08:32:58.657Z</time></trkpt><trkpt lat="45.6527597" lon="10.8991167"><ele>118.6</ele><time>2026-04-26T08:32:59.653Z</time></trkpt><trkpt lat="45.6527362" lon="10.8992739"><ele>119.39999999999999</ele><time>2026-04-26T08:33:00.655Z</time></trkpt><trkpt lat="45.6527099" lon="10.8994342"><ele>120.19999999999999</ele><time>2026-04-26T08:33:01.661Z</time></trkpt><trkpt lat="45.6526951" lon="10.8995895"><ele>121.0</ele><time>2026-04-26T08:33:02.659Z</time></trkpt><trkpt lat="45.6526854" lon="10.8997364"><ele>123.19999999999999</ele><time>2026-04-26T08:33:03.659Z</time></trkpt><trkpt lat="45.6526941" lon="10.8998816"><ele>125.39999999999999</ele><time>2026-04-26T08:33:04.654Z</time></trkpt><trkpt lat="45.6527249" lon="10.9000059"><ele>127.6</ele><time>2026-04-26T08:33:05.66Z</time></trkpt><trkpt lat="45.6527779" lon="10.9001219"><ele>129.79999999999998</ele><time>2026-04-26T08:33:06.664Z</time></trkpt><trkpt lat="45.6528596" lon="10.9002109"><ele>132.0</ele><time>2026-04-26T08:33:07.651Z</time></trkpt><trkpt lat="45.6529598" lon="10.9002818"><ele>132.33333333333334</ele><time>2026-04-26T08:33:08.643Z</time></trkpt><trkpt lat="45.6530483" lon="10.900336"><ele>132.66666666666666</ele><time>2026-04-26T08:33:09.652Z</time></trkpt><trkpt lat="45.6531156" lon="10.9003835"><ele>133.0</ele><time>2026-04-26T08:33:10.657Z</time></trkpt><trkpt lat="45.6531798" lon="10.9004398"><ele>133.33333333333331</ele><time>2026-04-26T08:33:12.653Z</time></trkpt><trkpt lat="45.653107" lon="10.9004388"><ele>133.66666666666666</ele><time>2026-04-26T08:33:16.657Z</time></trkpt><trkpt lat="45.6530493" lon="10.900355"><ele>134.0</ele><time>2026-04-26T08:33:17.66Z</time></trkpt><trkpt lat="45.6529545" lon="10.9002519"><ele>134.0</ele><time>2026-04-26T08:33:18.659Z</time></trkpt><trkpt lat="45.6528445" lon="10.9001559"><ele>134.0</ele><time>2026-04-26T08:33:19.651Z</time></trkpt><trkpt lat="45.652721" lon="10.9000643"><ele>134.0</ele><time>2026-04-26T08:33:20.654Z</time></trkpt><trkpt lat="45.6525956" lon="10.899975"><ele>134.0</ele><time>2026-04-26T08:33:21.661Z</time></trkpt><trkpt lat="45.6524636" lon="10.899872"><ele>133.33333333333331</ele><time>2026-04-26T08:33:22.659Z</time></trkpt><trkpt lat="45.652332" lon="10.8997702"><ele>132.66666666666666</ele><time>2026-04-26T08:33:23.66Z</time></trkpt><trkpt lat="45.6521915" lon="10.899667"><ele>132.0</ele><time>2026-04-26T08:33:24.66Z</time></trkpt><trkpt lat="45.6520411" lon="10.899558"><ele>130.66666666666666</ele><time>2026-04-26T08:33:25.658Z</time></trkpt><trkpt lat="45.6518904" lon="10.8994347"><ele>129.33333333333331</ele><time>2026-04-26T08:33:26.659Z</time></trkpt><trkpt lat="45.6517313" lon="10.8993183"><ele>128.0</ele><time>2026-04-26T08:33:27.659Z</time></trkpt><trkpt lat="45.6515642" lon="10.8991941"><ele>128.0</ele><time>2026-04-26T08:33:28.661Z</time></trkpt><trkpt lat="45.6514053" lon="10.8990605"><ele>128.0</ele><time>2026-04-26T08:33:29.656Z</time></trkpt><trkpt lat="45.6512497" lon="10.8989485"><ele>128.0</ele><time>2026-04-26T08:33:30.663Z</time></trkpt><trkpt lat="45.6510963" lon="10.898853"><ele>133.0</ele><time>2026-04-26T08:33:31.665Z</time></trkpt><trkpt lat="45.650947" lon="10.898765"><ele>138.0</ele><time>2026-04-26T08:33:32.663Z</time></trkpt><trkpt lat="45.6507901" lon="10.8986898"><ele>143.0</ele><time>2026-04-26T08:33:33.658Z</time></trkpt><trkpt lat="45.6506364" lon="10.8986004"><ele>143.0</ele><time>2026-04-26T08:33:34.659Z</time></trkpt><trkpt lat="45.6504911" lon="10.8984969"><ele>143.0</ele><time>2026-04-26T08:33:35.659Z</time></trkpt><trkpt lat="45.6503608" lon="10.8984019"><ele>143.0</ele><time>2026-04-26T08:33:36.664Z</time></trkpt><trkpt lat="45.650215" lon="10.8983305"><ele>138.66666666666666</ele><time>2026-04-26T08:33:37.662Z</time></trkpt><trkpt lat="45.6500731" lon="10.8982534"><ele>134.33333333333334</ele><time>2026-04-26T08:33:38.657Z</time></trkpt><trkpt lat="45.6499342" lon="10.8981634"><ele>130.0</ele><time>2026-04-26T08:33:39.659Z</time></trkpt><trkpt lat="45.6497972" lon="10.8980876"><ele>130.0</ele><time>2026-04-26T08:33:40.661Z</time></trkpt><trkpt lat="45.6496626" lon="10.8980002"><ele>130.0</ele><time>2026-04-26T08:33:41.661Z</time></trkpt><trkpt lat="45.6495254" lon="10.8979213"><ele>130.0</ele><time>2026-04-26T08:33:42.662Z</time></trkpt><trkpt lat="45.6493786" lon="10.8978454"><ele>127.0</ele><time>2026-04-26T08:33:43.66Z</time></trkpt><trkpt lat="45.649227" lon="10.8977662"><ele>124.0</ele><time>2026-04-26T08:33:44.662Z</time></trkpt><trkpt lat="45.6490731" lon="10.8976766"><ele>121.0</ele><time>2026-04-26T08:33:45.659Z</time></trkpt><trkpt lat="45.6489197" lon="10.8975761"><ele>121.0</ele><time>2026-04-26T08:33:46.663Z</time></trkpt><trkpt lat="45.6487615" lon="10.8974762"><ele>121.0</ele><time>2026-04-26T08:33:47.669Z</time></trkpt><trkpt lat="45.6486088" lon="10.8973696"><ele>121.0</ele><time>2026-04-26T08:33:48.667Z</time></trkpt><trkpt lat="45.6484505" lon="10.8972618"><ele>125.66666666666667</ele><time>2026-04-26T08:33:49.664Z</time></trkpt><trkpt lat="45.6483047" lon="10.8971545"><ele>130.33333333333334</ele><time>2026-04-26T08:33:50.666Z</time></trkpt><trkpt lat="45.648158" lon="10.8970358"><ele>135.0</ele><time>2026-04-26T08:33:51.66Z</time></trkpt><trkpt lat="45.6480033" lon="10.8969248"><ele>135.0</ele><time>2026-04-26T08:33:52.668Z</time></trkpt><trkpt lat="45.6478443" lon="10.8968074"><ele>135.0</ele><time>2026-04-26T08:33:53.669Z</time></trkpt><trkpt lat="45.6476837" lon="10.8966819"><ele>135.0</ele><time>2026-04-26T08:33:54.665Z</time></trkpt><trkpt lat="45.6475386" lon="10.8965646"><ele>134.5</ele><time>2026-04-26T08:33:55.666Z</time></trkpt><trkpt lat="45.6474051" lon="10.8964542"><ele>134.0</ele><time>2026-04-26T08:33:56.667Z</time></trkpt><trkpt lat="45.6472905" lon="10.8963351"><ele>133.5</ele><time>2026-04-26T08:33:57.666Z</time></trkpt><trkpt lat="45.6471761" lon="10.8962272"><ele>133.0</ele><time>2026-04-26T08:33:58.674Z</time></trkpt><trkpt lat="45.647057" lon="10.8961183"><ele>132.33333333333334</ele><time>2026-04-26T08:33:59.665Z</time></trkpt><trkpt lat="45.646945" lon="10.8959935"><ele>131.66666666666666</ele><time>2026-04-26T08:34:00.667Z</time></trkpt><trkpt lat="45.6468277" lon="10.8958557"><ele>131.0</ele><time>2026-04-26T08:34:01.672Z</time></trkpt><trkpt lat="45.6467019" lon="10.8957175"><ele>131.0</ele><time>2026-04-26T08:34:02.668Z</time></trkpt><trkpt lat="45.6465752" lon="10.8955699"><ele>131.0</ele><time>2026-04-26T08:34:03.666Z</time></trkpt><trkpt lat="45.6464564" lon="10.8954178"><ele>131.0</ele><time>2026-04-26T08:34:04.662Z</time></trkpt><trkpt lat="45.6463472" lon="10.8952603"><ele>131.0</ele><time>2026-04-26T08:34:05.666Z</time></trkpt><trkpt lat="45.6462468" lon="10.8951089"><ele>131.0</ele><time>2026-04-26T08:34:06.661Z</time></trkpt><trkpt lat="45.6461521" lon="10.8949818"><ele>131.0</ele><time>2026-04-26T08:34:07.663Z</time></trkpt><trkpt lat="45.6460744" lon="10.8948686"><ele>131.0</ele><time>2026-04-26T08:34:08.665Z</time></trkpt><trkpt lat="45.6460033" lon="10.894758"><ele>131.83333333333331</ele><time>2026-04-26T08:34:09.66Z</time></trkpt><trkpt lat="45.6459521" lon="10.8946684"><ele>132.66666666666666</ele><time>2026-04-26T08:34:10.667Z</time></trkpt><trkpt lat="45.6459117" lon="10.8945822"><ele>133.5</ele><time>2026-04-26T08:34:11.664Z</time></trkpt><trkpt lat="45.6458479" lon="10.8944559"><ele>134.33333333333334</ele><time>2026-04-26T08:34:13.668Z</time></trkpt><trkpt lat="45.6457938" lon="10.8943907"><ele>135.16666666666669</ele><time>2026-04-26T08:34:15.664Z</time></trkpt><trkpt lat="45.6457111" lon="10.8944757"><ele>136.0</ele><time>2026-04-26T08:34:18.663Z</time></trkpt><trkpt lat="45.645671" lon="10.8945478"><ele>136.0</ele><time>2026-04-26T08:34:19.655Z</time></trkpt><trkpt lat="45.645616" lon="10.8946463"><ele>136.0</ele><time>2026-04-26T08:34:20.663Z</time></trkpt><trkpt lat="45.6455608" lon="10.8947419"><ele>136.0</ele><time>2026-04-26T08:34:21.662Z</time></trkpt><trkpt lat="45.6455112" lon="10.8948137"><ele>136.0</ele><time>2026-04-26T08:34:22.662Z</time></trkpt><trkpt lat="45.6454657" lon="10.8948812"><ele>136.0</ele><time>2026-04-26T08:34:23.667Z</time></trkpt><trkpt lat="45.6453909" lon="10.8949443"><ele>136.0</ele><time>2026-04-26T08:34:25.658Z</time></trkpt><trkpt lat="45.6453113" lon="10.8949785"><ele>138.83333333333334</ele><time>2026-04-26T08:34:27.66Z</time></trkpt><trkpt lat="45.6452266" lon="10.8950042"><ele>141.66666666666669</ele><time>2026-04-26T08:34:29.654Z</time></trkpt><trkpt lat="45.6451368" lon="10.8950252"><ele>144.5</ele><time>2026-04-26T08:34:31.641Z</time></trkpt><trkpt lat="45.6450317" lon="10.8950109"><ele>147.33333333333334</ele><time>2026-04-26T08:34:33.643Z</time></trkpt><trkpt lat="45.6449676" lon="10.8949851"><ele>150.16666666666666</ele><time>2026-04-26T08:34:34.648Z</time></trkpt><trkpt lat="45.6448822" lon="10.8949461"><ele>153.0</ele><time>2026-04-26T08:34:35.638Z</time></trkpt><trkpt lat="45.6447977" lon="10.8948999"><ele>153.0</ele><time>2026-04-26T08:34:36.643Z</time></trkpt><trkpt lat="45.6447114" lon="10.8948555"><ele>153.0</ele><time>2026-04-26T08:34:37.641Z</time></trkpt><trkpt lat="45.6446315" lon="10.8948022"><ele>153.0</ele><time>2026-04-26T08:34:38.644Z</time></trkpt><trkpt lat="45.6445577" lon="10.8947432"><ele>153.0</ele><time>2026-04-26T08:34:39.648Z</time></trkpt><trkpt lat="45.6444833" lon="10.894679"><ele>153.0</ele><time>2026-04-26T08:34:40.649Z</time></trkpt><trkpt lat="45.6444111" lon="10.8946146"><ele>153.0</ele><time>2026-04-26T08:34:41.651Z</time></trkpt><trkpt lat="45.6443368" lon="10.8945425"><ele>157.5</ele><time>2026-04-26T08:34:42.645Z</time></trkpt><trkpt lat="45.644261" lon="10.8944739"><ele>162.0</ele><time>2026-04-26T08:34:43.653Z</time></trkpt><trkpt lat="45.6441974" lon="10.8944213"><ele>166.5</ele><time>2026-04-26T08:34:44.647Z</time></trkpt><trkpt lat="45.6441259" lon="10.8943776"><ele>171.0</ele><time>2026-04-26T08:34:45.653Z</time></trkpt><trkpt lat="45.6440553" lon="10.8943388"><ele>175.5</ele><time>2026-04-26T08:34:46.645Z</time></trkpt><trkpt lat="45.643976" lon="10.8942986"><ele>180.0</ele><time>2026-04-26T08:34:47.653Z</time></trkpt><trkpt lat="45.6438959" lon="10.894275"><ele>178.33333333333334</ele><time>2026-04-26T08:34:48.657Z</time></trkpt><trkpt lat="45.6438144" lon="10.8942327"><ele>176.66666666666666</ele><time>2026-04-26T08:34:49.652Z</time></trkpt><trkpt lat="45.6437273" lon="10.8941938"><ele>175.0</ele><time>2026-04-26T08:34:50.655Z</time></trkpt><trkpt lat="45.6436385" lon="10.8941411"><ele>173.33333333333331</ele><time>2026-04-26T08:34:51.654Z</time></trkpt><trkpt lat="45.6435628" lon="10.8940971"><ele>171.66666666666666</ele><time>2026-04-26T08:34:52.654Z</time></trkpt><trkpt lat="45.643488" lon="10.8940608"><ele>170.0</ele><time>2026-04-26T08:34:53.661Z</time></trkpt><trkpt lat="45.6433988" lon="10.8940407"><ele>170.0</ele><time>2026-04-26T08:34:54.654Z</time></trkpt><trkpt lat="45.6433202" lon="10.8940199"><ele>170.0</ele><time>2026-04-26T08:34:55.648Z</time></trkpt><trkpt lat="45.6432518" lon="10.8939954"><ele>170.0</ele><time>2026-04-26T08:34:56.649Z</time></trkpt><trkpt lat="45.6431933" lon="10.8939603"><ele>170.0</ele><time>2026-04-26T08:34:57.65Z</time></trkpt><trkpt lat="45.6431334" lon="10.8939219"><ele>170.0</ele><time>2026-04-26T08:34:58.654Z</time></trkpt><trkpt lat="45.6430666" lon="10.89388"><ele>170.0</ele><time>2026-04-26T08:34:59.656Z</time></trkpt><trkpt lat="45.6430053" lon="10.8938347"><ele>170.0</ele><time>2026-04-26T08:35:00.655Z</time></trkpt><trkpt lat="45.642937" lon="10.8937971"><ele>170.0</ele><time>2026-04-26T08:35:01.662Z</time></trkpt><trkpt lat="45.6428603" lon="10.8937751"><ele>170.0</ele><time>2026-04-26T08:35:02.655Z</time></trkpt><trkpt lat="45.642784" lon="10.893773"><ele>170.0</ele><time>2026-04-26T08:35:03.655Z</time></trkpt><trkpt lat="45.642714" lon="10.8937799"><ele>170.0</ele><time>2026-04-26T08:35:04.656Z</time></trkpt><trkpt lat="45.6426467" lon="10.8937956"><ele>170.0</ele><time>2026-04-26T08:35:05.658Z</time></trkpt><trkpt lat="45.6425471" lon="10.893811"><ele>170.0</ele><time>2026-04-26T08:35:07.658Z</time></trkpt><trkpt lat="45.6424753" lon="10.8938289"><ele>171.0</ele><time>2026-04-26T08:35:09.653Z</time></trkpt><trkpt lat="45.6424148" lon="10.8938716"><ele>172.0</ele><time>2026-04-26T08:35:11.65Z</time></trkpt><trkpt lat="45.642352" lon="10.8939434"><ele>173.0</ele><time>2026-04-26T08:35:14.651Z</time></trkpt><trkpt lat="45.6422872" lon="10.8939033"><ele>174.0</ele><time>2026-04-26T08:35:19.651Z</time></trkpt><trkpt lat="45.6422534" lon="10.8938006"><ele>175.0</ele><time>2026-04-26T08:35:22.653Z</time></trkpt><trkpt lat="45.6422328" lon="10.8937031"><ele>176.0</ele><time>2026-04-26T08:35:24.65Z</time></trkpt><trkpt lat="45.6421973" lon="10.8935701"><ele>176.0</ele><time>2026-04-26T08:35:26.657Z</time></trkpt><trkpt lat="45.6421753" lon="10.8934775"><ele>176.0</ele><time>2026-04-26T08:35:28.656Z</time></trkpt><trkpt lat="45.6421523" lon="10.8933738"><ele>176.0</ele><time>2026-04-26T08:35:30.652Z</time></trkpt><trkpt lat="45.6421842" lon="10.8932256"><ele>176.0</ele><time>2026-04-26T08:35:32.651Z</time></trkpt><trkpt lat="45.642221" lon="10.893131"><ele>176.0</ele><time>2026-04-26T08:35:33.652Z</time></trkpt><trkpt lat="45.6422594" lon="10.8930506"><ele>176.0</ele><time>2026-04-26T08:35:34.657Z</time></trkpt><trkpt lat="45.6422913" lon="10.8929726"><ele>174.20000000000002</ele><time>2026-04-26T08:35:35.656Z</time></trkpt><trkpt lat="45.6423192" lon="10.8928151"><ele>172.4</ele><time>2026-04-26T08:35:37.651Z</time></trkpt><trkpt lat="45.6423011" lon="10.8926648"><ele>170.6</ele><time>2026-04-26T08:35:39.658Z</time></trkpt><trkpt lat="45.6422687" lon="10.8925293"><ele>168.8</ele><time>2026-04-26T08:35:41.663Z</time></trkpt><trkpt lat="45.6422521" lon="10.8923682"><ele>167.0</ele><time>2026-04-26T08:35:43.658Z</time></trkpt><trkpt lat="45.6422574" lon="10.8922607"><ele>165.6</ele><time>2026-04-26T08:35:44.66Z</time></trkpt><trkpt lat="45.6422668" lon="10.8921321"><ele>164.2</ele><time>2026-04-26T08:35:45.663Z</time></trkpt><trkpt lat="45.6422729" lon="10.8920063"><ele>162.8</ele><time>2026-04-26T08:35:46.663Z</time></trkpt><trkpt lat="45.6422804" lon="10.8918982"><ele>161.4</ele><time>2026-04-26T08:35:47.663Z</time></trkpt><trkpt lat="45.6422942" lon="10.8918064"><ele>160.0</ele><time>2026-04-26T08:35:48.667Z</time></trkpt><trkpt lat="45.6423313" lon="10.8916268"><ele>158.8</ele><time>2026-04-26T08:35:50.665Z</time></trkpt><trkpt lat="45.6423618" lon="10.8915071"><ele>157.6</ele><time>2026-04-26T08:35:51.663Z</time></trkpt><trkpt lat="45.6423908" lon="10.8913755"><ele>156.4</ele><time>2026-04-26T08:35:52.66Z</time></trkpt><trkpt lat="45.6424193" lon="10.8912264"><ele>155.2</ele><time>2026-04-26T08:35:53.667Z</time></trkpt><trkpt lat="45.642452" lon="10.8910727"><ele>154.0</ele><time>2026-04-26T08:35:54.661Z</time></trkpt><trkpt lat="45.6424876" lon="10.8909193"><ele>152.2</ele><time>2026-04-26T08:35:55.666Z</time></trkpt><trkpt lat="45.6425285" lon="10.8907616"><ele>150.4</ele><time>2026-04-26T08:35:56.656Z</time></trkpt><trkpt lat="45.6425674" lon="10.8906059"><ele>148.6</ele><time>2026-04-26T08:35:57.658Z</time></trkpt><trkpt lat="45.6426019" lon="10.8904614"><ele>146.8</ele><time>2026-04-26T08:35:58.661Z</time></trkpt><trkpt lat="45.6426311" lon="10.890332"><ele>145.0</ele><time>2026-04-26T08:35:59.655Z</time></trkpt><trkpt lat="45.6426567" lon="10.8902197"><ele>145.0</ele><time>2026-04-26T08:36:00.658Z</time></trkpt><trkpt lat="45.6426801" lon="10.8901349"><ele>145.0</ele><time>2026-04-26T08:36:01.662Z</time></trkpt><trkpt lat="45.6427096" lon="10.8900274"><ele>145.0</ele><time>2026-04-26T08:36:03.656Z</time></trkpt><trkpt lat="45.6428258" lon="10.8899891"><ele>145.0</ele><time>2026-04-26T08:36:10.657Z</time></trkpt><trkpt lat="45.6429055" lon="10.8900064"><ele>145.0</ele><time>2026-04-26T08:36:11.654Z</time></trkpt><trkpt lat="45.6429866" lon="10.890005"><ele>145.0</ele><time>2026-04-26T08:36:12.65Z</time></trkpt><trkpt lat="45.6430817" lon="10.8899345"><ele>143.33333333333334</ele><time>2026-04-26T08:36:14.659Z</time></trkpt><trkpt lat="45.6430978" lon="10.889782"><ele>141.66666666666669</ele><time>2026-04-26T08:36:16.652Z</time></trkpt><trkpt lat="45.6431006" lon="10.8896841"><ele>140.0</ele><time>2026-04-26T08:36:17.66Z</time></trkpt><trkpt lat="45.6431078" lon="10.8895894"><ele>138.33333333333334</ele><time>2026-04-26T08:36:18.659Z</time></trkpt><trkpt lat="45.6431367" lon="10.889432"><ele>136.66666666666666</ele><time>2026-04-26T08:36:20.661Z</time></trkpt><trkpt lat="45.6431515" lon="10.8893341"><ele>135.0</ele><time>2026-04-26T08:36:22.665Z</time></trkpt><trkpt lat="45.6431391" lon="10.8892438"><ele>134.66666666666666</ele><time>2026-04-26T08:37:47.675Z</time></trkpt><trkpt lat="45.6431164" lon="10.8891393"><ele>134.33333333333334</ele><time>2026-04-26T08:37:50.667Z</time></trkpt><trkpt lat="45.6430558" lon="10.8890626"><ele>134.0</ele><time>2026-04-26T08:37:55.673Z</time></trkpt><trkpt lat="45.6430013" lon="10.8890155"><ele>133.66666666666669</ele><time>2026-04-26T08:37:58.675Z</time></trkpt><trkpt lat="45.6429347" lon="10.8889416"><ele>133.33333333333334</ele><time>2026-04-26T08:40:51.675Z</time></trkpt><trkpt lat="45.6428709" lon="10.8888571"><ele>133.0</ele><time>2026-04-26T08:40:52.666Z</time></trkpt><trkpt lat="45.6427909" lon="10.8887617"><ele>133.0</ele><time>2026-04-26T08:40:53.665Z</time></trkpt><trkpt lat="45.642703" lon="10.8886529"><ele>133.0</ele><time>2026-04-26T08:40:54.665Z</time></trkpt><trkpt lat="45.6426034" lon="10.8885355"><ele>133.0</ele><time>2026-04-26T08:40:55.668Z</time></trkpt><trkpt lat="45.642492" lon="10.8884019"><ele>133.0</ele><time>2026-04-26T08:40:56.677Z</time></trkpt><trkpt lat="45.642383" lon="10.8882835"><ele>132.5</ele><time>2026-04-26T08:40:57.672Z</time></trkpt><trkpt lat="45.6422738" lon="10.8881692"><ele>132.0</ele><time>2026-04-26T08:40:58.668Z</time></trkpt><trkpt lat="45.642161" lon="10.8880623"><ele>131.5</ele><time>2026-04-26T08:40:59.672Z</time></trkpt><trkpt lat="45.6420608" lon="10.8879454"><ele>131.0</ele><time>2026-04-26T08:41:00.667Z</time></trkpt><trkpt lat="45.6419619" lon="10.8878394"><ele>131.0</ele><time>2026-04-26T08:41:01.67Z</time></trkpt><trkpt lat="45.6418664" lon="10.8877356"><ele>131.0</ele><time>2026-04-26T08:41:02.668Z</time></trkpt><trkpt lat="45.641772" lon="10.8876433"><ele>131.0</ele><time>2026-04-26T08:41:03.669Z</time></trkpt><trkpt lat="45.6416811" lon="10.8875522"><ele>131.0</ele><time>2026-04-26T08:41:04.67Z</time></trkpt><trkpt lat="45.6415909" lon="10.8874576"><ele>129.75</ele><time>2026-04-26T08:41:05.669Z</time></trkpt><trkpt lat="45.6415004" lon="10.8873614"><ele>128.5</ele><time>2026-04-26T08:41:06.67Z</time></trkpt><trkpt lat="45.641412" lon="10.887264"><ele>127.25</ele><time>2026-04-26T08:41:07.671Z</time></trkpt><trkpt lat="45.6413218" lon="10.8871655"><ele>126.0</ele><time>2026-04-26T08:41:08.67Z</time></trkpt><trkpt lat="45.6412287" lon="10.8870722"><ele>126.0</ele><time>2026-04-26T08:41:09.674Z</time></trkpt><trkpt lat="45.6411386" lon="10.8869755"><ele>126.0</ele><time>2026-04-26T08:41:10.672Z</time></trkpt><trkpt lat="45.6410552" lon="10.886879"><ele>126.0</ele><time>2026-04-26T08:41:11.674Z</time></trkpt><trkpt lat="45.6409736" lon="10.8867833"><ele>126.0</ele><time>2026-04-26T08:41:12.677Z</time></trkpt><trkpt lat="45.6408921" lon="10.8866831"><ele>126.0</ele><time>2026-04-26T08:41:13.674Z</time></trkpt><trkpt lat="45.6408006" lon="10.8865812"><ele>125.4</ele><time>2026-04-26T08:41:14.677Z</time></trkpt><trkpt lat="45.6407156" lon="10.8864782"><ele>124.8</ele><time>2026-04-26T08:41:15.68Z</time></trkpt><trkpt lat="45.6406295" lon="10.8863874"><ele>124.20000000000002</ele><time>2026-04-26T08:41:16.678Z</time></trkpt><trkpt lat="45.6405404" lon="10.8862935"><ele>123.60000000000001</ele><time>2026-04-26T08:41:17.678Z</time></trkpt><trkpt lat="45.6404553" lon="10.8861957"><ele>123.0</ele><time>2026-04-26T08:41:18.678Z</time></trkpt><trkpt lat="45.6403697" lon="10.8861031"><ele>123.4</ele><time>2026-04-26T08:41:19.672Z</time></trkpt><trkpt lat="45.6402897" lon="10.8860174"><ele>123.80000000000001</ele><time>2026-04-26T08:41:20.673Z</time></trkpt><trkpt lat="45.640215" lon="10.8859461"><ele>124.2</ele><time>2026-04-26T08:41:21.677Z</time></trkpt><trkpt lat="45.6401377" lon="10.8858671"><ele>124.6</ele><time>2026-04-26T08:41:22.671Z</time></trkpt><trkpt lat="45.6400565" lon="10.8857766"><ele>125.0</ele><time>2026-04-26T08:41:23.679Z</time></trkpt><trkpt lat="45.639958" lon="10.8856816"><ele>125.0</ele><time>2026-04-26T08:41:24.673Z</time></trkpt><trkpt lat="45.6398598" lon="10.885595"><ele>125.0</ele><time>2026-04-26T08:41:25.679Z</time></trkpt><trkpt lat="45.6397637" lon="10.8855047"><ele>125.0</ele><time>2026-04-26T08:41:26.674Z</time></trkpt><trkpt lat="45.6396731" lon="10.8854207"><ele>125.0</ele><time>2026-04-26T08:41:27.67Z</time></trkpt><trkpt lat="45.6395902" lon="10.8853382"><ele>125.0</ele><time>2026-04-26T08:41:28.678Z</time></trkpt><trkpt lat="45.6394926" lon="10.8852518"><ele>124.75</ele><time>2026-04-26T08:41:29.677Z</time></trkpt><trkpt lat="45.639396" lon="10.8851599"><ele>124.5</ele><time>2026-04-26T08:41:30.678Z</time></trkpt><trkpt lat="45.6392984" lon="10.8850759"><ele>124.25</ele><time>2026-04-26T08:41:31.673Z</time></trkpt><trkpt lat="45.6392033" lon="10.8849859"><ele>124.0</ele><time>2026-04-26T08:41:32.675Z</time></trkpt><trkpt lat="45.6391051" lon="10.8848964"><ele>124.0</ele><time>2026-04-26T08:41:33.672Z</time></trkpt><trkpt lat="45.6390092" lon="10.8848047"><ele>124.0</ele><time>2026-04-26T08:41:34.677Z</time></trkpt><trkpt lat="45.638914" lon="10.8847207"><ele>124.0</ele><time>2026-04-26T08:41:35.671Z</time></trkpt><trkpt lat="45.6388218" lon="10.8846431"><ele>124.0</ele><time>2026-04-26T08:41:36.673Z</time></trkpt><trkpt lat="45.6387383" lon="10.884558"><ele>124.0</ele><time>2026-04-26T08:41:37.667Z</time></trkpt><trkpt lat="45.6386473" lon="10.8844726"><ele>123.75</ele><time>2026-04-26T08:41:38.678Z</time></trkpt><trkpt lat="45.6385451" lon="10.884379"><ele>123.5</ele><time>2026-04-26T08:41:39.67Z</time></trkpt><trkpt lat="45.638441" lon="10.8842797"><ele>123.25</ele><time>2026-04-26T08:41:40.676Z</time></trkpt><trkpt lat="45.6383393" lon="10.8841828"><ele>123.0</ele><time>2026-04-26T08:41:41.67Z</time></trkpt><trkpt lat="45.6382425" lon="10.8840959"><ele>123.0</ele><time>2026-04-26T08:41:42.671Z</time></trkpt><trkpt lat="45.6381543" lon="10.8840124"><ele>123.0</ele><time>2026-04-26T08:41:43.673Z</time></trkpt><trkpt lat="45.6380632" lon="10.883921"><ele>123.0</ele><time>2026-04-26T08:41:44.671Z</time></trkpt><trkpt lat="45.6379665" lon="10.8838289"><ele>123.0</ele><time>2026-04-26T08:41:45.674Z</time></trkpt><trkpt lat="45.6378685" lon="10.883736"><ele>123.0</ele><time>2026-04-26T08:41:46.674Z</time></trkpt><trkpt lat="45.6377702" lon="10.8836476"><ele>123.0</ele><time>2026-04-26T08:41:47.674Z</time></trkpt><trkpt lat="45.6376765" lon="10.8835501"><ele>123.0</ele><time>2026-04-26T08:41:48.676Z</time></trkpt><trkpt lat="45.637575" lon="10.8834489"><ele>123.0</ele><time>2026-04-26T08:41:49.674Z</time></trkpt><trkpt lat="45.6374664" lon="10.8833387"><ele>123.0</ele><time>2026-04-26T08:41:50.673Z</time></trkpt><trkpt lat="45.6373601" lon="10.8832291"><ele>123.0</ele><time>2026-04-26T08:41:51.675Z</time></trkpt><trkpt lat="45.637251" lon="10.883124"><ele>123.0</ele><time>2026-04-26T08:41:52.675Z</time></trkpt><trkpt lat="45.6371444" lon="10.8830174"><ele>123.0</ele><time>2026-04-26T08:41:53.674Z</time></trkpt><trkpt lat="45.6370393" lon="10.8829139"><ele>123.25</ele><time>2026-04-26T08:41:54.674Z</time></trkpt><trkpt lat="45.63694" lon="10.8828104"><ele>123.5</ele><time>2026-04-26T08:41:55.671Z</time></trkpt><trkpt lat="45.6368454" lon="10.8827157"><ele>123.75</ele><time>2026-04-26T08:41:56.67Z</time></trkpt><trkpt lat="45.6367451" lon="10.8826208"><ele>124.0</ele><time>2026-04-26T08:41:57.671Z</time></trkpt><trkpt lat="45.6366481" lon="10.8825218"><ele>124.0</ele><time>2026-04-26T08:41:58.676Z</time></trkpt><trkpt lat="45.6365431" lon="10.882423"><ele>124.0</ele><time>2026-04-26T08:41:59.67Z</time></trkpt><trkpt lat="45.6364361" lon="10.8823195"><ele>124.0</ele><time>2026-04-26T08:42:00.679Z</time></trkpt><trkpt lat="45.6363228" lon="10.8822135"><ele>124.0</ele><time>2026-04-26T08:42:01.673Z</time></trkpt><trkpt lat="45.6362081" lon="10.8821084"><ele>124.0</ele><time>2026-04-26T08:42:02.673Z</time></trkpt><trkpt lat="45.6360943" lon="10.8820096"><ele>124.0</ele><time>2026-04-26T08:42:03.668Z</time></trkpt><trkpt lat="45.6359946" lon="10.8819236"><ele>124.0</ele><time>2026-04-26T08:42:04.669Z</time></trkpt><trkpt lat="45.6359094" lon="10.8818461"><ele>124.0</ele><time>2026-04-26T08:42:05.67Z</time></trkpt><trkpt lat="45.6358363" lon="10.8817818"><ele>124.0</ele><time>2026-04-26T08:42:06.672Z</time></trkpt><trkpt lat="45.635773" lon="10.8817257"><ele>124.0</ele><time>2026-04-26T08:42:07.677Z</time></trkpt><trkpt lat="45.6356898" lon="10.8816641"><ele>124.0</ele><time>2026-04-26T08:42:09.675Z</time></trkpt><trkpt lat="45.6356725" lon="10.8818208"><ele>124.0</ele><time>2026-04-26T08:42:12.672Z</time></trkpt><trkpt lat="45.635678" lon="10.8819361"><ele>124.0</ele><time>2026-04-26T08:42:13.673Z</time></trkpt><trkpt lat="45.6356839" lon="10.8820566"><ele>124.0</ele><time>2026-04-26T08:42:14.672Z</time></trkpt><trkpt lat="45.6356844" lon="10.8821725"><ele>124.66666666666667</ele><time>2026-04-26T08:42:15.665Z</time></trkpt><trkpt lat="45.6356867" lon="10.8822631"><ele>125.33333333333334</ele><time>2026-04-26T08:42:16.669Z</time></trkpt><trkpt lat="45.6356953" lon="10.8823651"><ele>126.0</ele><time>2026-04-26T08:42:18.67Z</time></trkpt><trkpt lat="45.6356763" lon="10.8824667"><ele>126.66666666666666</ele><time>2026-04-26T08:42:26.668Z</time></trkpt><trkpt lat="45.6356208" lon="10.8825211"><ele>127.33333333333333</ele><time>2026-04-26T08:42:29.673Z</time></trkpt><trkpt lat="45.6355471" lon="10.8824871"><ele>128.0</ele><time>2026-04-26T08:42:31.671Z</time></trkpt><trkpt lat="45.6354654" lon="10.8823359"><ele>128.0</ele><time>2026-04-26T08:42:33.67Z</time></trkpt><trkpt lat="45.6354181" lon="10.8821992"><ele>128.0</ele><time>2026-04-26T08:42:34.676Z</time></trkpt><trkpt lat="45.6353498" lon="10.8820293"><ele>128.0</ele><time>2026-04-26T08:42:35.675Z</time></trkpt><trkpt lat="45.6352711" lon="10.8818425"><ele>128.0</ele><time>2026-04-26T08:42:36.674Z</time></trkpt><trkpt lat="45.6351873" lon="10.8816467"><ele>128.66666666666666</ele><time>2026-04-26T08:42:37.678Z</time></trkpt><trkpt lat="45.635107" lon="10.8814551"><ele>129.33333333333334</ele><time>2026-04-26T08:42:38.671Z</time></trkpt><trkpt lat="45.6350232" lon="10.8812694"><ele>130.0</ele><time>2026-04-26T08:42:39.674Z</time></trkpt><trkpt lat="45.6349342" lon="10.8811098"><ele>130.0</ele><time>2026-04-26T08:42:40.667Z</time></trkpt><trkpt lat="45.634837" lon="10.8809511"><ele>130.0</ele><time>2026-04-26T08:42:41.665Z</time></trkpt><trkpt lat="45.6347251" lon="10.8808056"><ele>130.0</ele><time>2026-04-26T08:42:42.666Z</time></trkpt><trkpt lat="45.6345835" lon="10.8806787"><ele>129.33333333333334</ele><time>2026-04-26T08:42:43.674Z</time></trkpt><trkpt lat="45.63443" lon="10.8805664"><ele>128.66666666666666</ele><time>2026-04-26T08:42:44.675Z</time></trkpt><trkpt lat="45.6342827" lon="10.88045"><ele>128.0</ele><time>2026-04-26T08:42:45.674Z</time></trkpt><trkpt lat="45.6341292" lon="10.8803511"><ele>128.0</ele><time>2026-04-26T08:42:46.676Z</time></trkpt><trkpt lat="45.6339739" lon="10.8802582"><ele>128.0</ele><time>2026-04-26T08:42:47.681Z</time></trkpt><trkpt lat="45.6338136" lon="10.8801752"><ele>128.0</ele><time>2026-04-26T08:42:48.681Z</time></trkpt><trkpt lat="45.6336592" lon="10.8800969"><ele>127.0</ele><time>2026-04-26T08:42:49.685Z</time></trkpt><trkpt lat="45.6335042" lon="10.8800405"><ele>126.0</ele><time>2026-04-26T08:42:50.679Z</time></trkpt><trkpt lat="45.6333416" lon="10.8799938"><ele>125.0</ele><time>2026-04-26T08:42:51.679Z</time></trkpt><trkpt lat="45.6331681" lon="10.8799525"><ele>125.0</ele><time>2026-04-26T08:42:52.679Z</time></trkpt><trkpt lat="45.632994" lon="10.8799146"><ele>125.0</ele><time>2026-04-26T08:42:53.676Z</time></trkpt><trkpt lat="45.6328279" lon="10.8798703"><ele>125.0</ele><time>2026-04-26T08:42:54.676Z</time></trkpt><trkpt lat="45.6326739" lon="10.8798333"><ele>126.33333333333333</ele><time>2026-04-26T08:42:55.664Z</time></trkpt><trkpt lat="45.6325225" lon="10.8797929"><ele>127.66666666666666</ele><time>2026-04-26T08:42:56.678Z</time></trkpt><trkpt lat="45.6323731" lon="10.8797502"><ele>129.0</ele><time>2026-04-26T08:42:57.67Z</time></trkpt><trkpt lat="45.6322289" lon="10.8796885"><ele>129.0</ele><time>2026-04-26T08:42:58.673Z</time></trkpt><trkpt lat="45.6320882" lon="10.8796132"><ele>129.0</ele><time>2026-04-26T08:42:59.669Z</time></trkpt><trkpt lat="45.6319415" lon="10.8795355"><ele>129.0</ele><time>2026-04-26T08:43:00.668Z</time></trkpt><trkpt lat="45.6317963" lon="10.87945"><ele>128.0</ele><time>2026-04-26T08:43:01.671Z</time></trkpt><trkpt lat="45.6316545" lon="10.8793632"><ele>127.0</ele><time>2026-04-26T08:43:02.668Z</time></trkpt><trkpt lat="45.6315291" lon="10.8792959"><ele>126.0</ele><time>2026-04-26T08:43:03.665Z</time></trkpt><trkpt lat="45.6314407" lon="10.8792414"><ele>125.0</ele><time>2026-04-26T08:43:04.661Z</time></trkpt><trkpt lat="45.6313895" lon="10.8791862"><ele>124.0</ele><time>2026-04-26T08:43:05.657Z</time></trkpt><trkpt lat="45.6313005" lon="10.8790908"><ele>124.00000000000001</ele><time>2026-04-26T08:43:07.669Z</time></trkpt><trkpt lat="45.6312159" lon="10.879043"><ele>124.0</ele><time>2026-04-26T08:43:09.666Z</time></trkpt><trkpt lat="45.6312841" lon="10.8790383"><ele>124.0</ele><time>2026-04-26T08:43:15.666Z</time></trkpt><trkpt lat="45.6313551" lon="10.8790668"><ele>124.0</ele><time>2026-04-26T08:43:16.761Z</time></trkpt><trkpt lat="45.6314331" lon="10.8791039"><ele>124.00000000000001</ele><time>2026-04-26T08:43:17.663Z</time></trkpt><trkpt lat="45.6315139" lon="10.879139"><ele>124.0</ele><time>2026-04-26T08:43:18.666Z</time></trkpt><trkpt lat="45.6315871" lon="10.8791684"><ele>124.00000000000001</ele><time>2026-04-26T08:43:19.663Z</time></trkpt><trkpt lat="45.6316602" lon="10.8792007"><ele>124.0</ele><time>2026-04-26T08:43:20.668Z</time></trkpt><trkpt lat="45.6317268" lon="10.879226"><ele>124.0</ele><time>2026-04-26T08:43:21.669Z</time></trkpt><trkpt lat="45.6317919" lon="10.8792545"><ele>124.0</ele><time>2026-04-26T08:43:22.67Z</time></trkpt><trkpt lat="45.6318941" lon="10.8793209"><ele>124.00000000000001</ele><time>2026-04-26T08:43:24.671Z</time></trkpt><trkpt lat="45.6319862" lon="10.8793719"><ele>124.0</ele><time>2026-04-26T08:43:26.668Z</time></trkpt><trkpt lat="45.6320666" lon="10.8794164"><ele>124.83333333333334</ele><time>2026-04-26T08:43:28.661Z</time></trkpt><trkpt lat="45.6321249" lon="10.879453"><ele>125.66666666666667</ele><time>2026-04-26T08:43:30.665Z</time></trkpt><trkpt lat="45.6321847" lon="10.8794899"><ele>126.5</ele><time>2026-04-26T08:43:32.654Z</time></trkpt><trkpt lat="45.6322582" lon="10.879537"><ele>127.33333333333334</ele><time>2026-04-26T08:43:35.664Z</time></trkpt><trkpt lat="45.6321989" lon="10.8794787"><ele>128.16666666666666</ele><time>2026-04-26T08:43:45.65Z</time></trkpt><trkpt lat="45.6322052" lon="10.8793807"><ele>129.0</ele><time>2026-04-26T08:43:48.639Z</time></trkpt><trkpt lat="45.632308" lon="10.8790167"><ele>126.2</ele><time>2026-04-26T08:43:54.669Z</time></trkpt><trkpt lat="45.6323259" lon="10.8789255"><ele>123.4</ele><time>2026-04-26T08:43:55.67Z</time></trkpt><trkpt lat="45.6323471" lon="10.8788327"><ele>120.6</ele><time>2026-04-26T08:43:56.675Z</time></trkpt><trkpt lat="45.6323805" lon="10.8786837"><ele>117.8</ele><time>2026-04-26T08:43:58.674Z</time></trkpt><trkpt lat="45.6324086" lon="10.878539"><ele>115.0</ele><time>2026-04-26T08:44:00.672Z</time></trkpt><trkpt lat="45.6324421" lon="10.8783988"><ele>113.6</ele><time>2026-04-26T08:44:02.666Z</time></trkpt><trkpt lat="45.6324656" lon="10.8782763"><ele>112.2</ele><time>2026-04-26T08:44:04.673Z</time></trkpt><trkpt lat="45.6324918" lon="10.8781553"><ele>110.80000000000001</ele><time>2026-04-26T08:44:06.673Z</time></trkpt><trkpt lat="45.6325228" lon="10.8780222"><ele>109.4</ele><time>2026-04-26T08:44:08.674Z</time></trkpt><trkpt lat="45.632552" lon="10.877889"><ele>108.0</ele><time>2026-04-26T08:44:10.678Z</time></trkpt><trkpt lat="45.6325685" lon="10.8777769"><ele>108.0</ele><time>2026-04-26T08:44:12.671Z</time></trkpt><trkpt lat="45.6325239" lon="10.8776914"><ele>108.00000000000001</ele><time>2026-04-26T08:44:14.668Z</time></trkpt><trkpt lat="45.6323933" lon="10.8776264"><ele>108.00000000000001</ele><time>2026-04-26T08:44:16.67Z</time></trkpt><trkpt lat="45.6322998" lon="10.8775931"><ele>108.0</ele><time>2026-04-26T08:44:17.673Z</time></trkpt><trkpt lat="45.6321841" lon="10.8775723"><ele>108.0</ele><time>2026-04-26T08:44:18.674Z</time></trkpt><trkpt lat="45.6320641" lon="10.8775524"><ele>108.2</ele><time>2026-04-26T08:44:19.672Z</time></trkpt><trkpt lat="45.6319419" lon="10.8775408"><ele>108.4</ele><time>2026-04-26T08:44:20.674Z</time></trkpt><trkpt lat="45.6318279" lon="10.8775395"><ele>108.60000000000001</ele><time>2026-04-26T08:44:21.668Z</time></trkpt><trkpt lat="45.6317232" lon="10.8775375"><ele>108.80000000000001</ele><time>2026-04-26T08:44:22.666Z</time></trkpt><trkpt lat="45.6316317" lon="10.8775427"><ele>109.0</ele><time>2026-04-26T08:44:23.669Z</time></trkpt><trkpt lat="45.6315483" lon="10.877547"><ele>109.00000000000001</ele><time>2026-04-26T08:44:24.672Z</time></trkpt><trkpt lat="45.6314682" lon="10.8775435"><ele>109.0</ele><time>2026-04-26T08:44:25.671Z</time></trkpt><trkpt lat="45.6313899" lon="10.8775369"><ele>109.0</ele><time>2026-04-26T08:44:26.675Z</time></trkpt><trkpt lat="45.6313143" lon="10.8775335"><ele>109.0</ele><time>2026-04-26T08:44:27.674Z</time></trkpt><trkpt lat="45.6312439" lon="10.8775322"><ele>109.00000000000001</ele><time>2026-04-26T08:44:28.676Z</time></trkpt><trkpt lat="45.63118" lon="10.8775277"><ele>109.0</ele><time>2026-04-26T08:44:29.673Z</time></trkpt><trkpt lat="45.6310599" lon="10.8775157"><ele>108.75</ele><time>2026-04-26T08:44:31.674Z</time></trkpt><trkpt lat="45.6309458" lon="10.8774999"><ele>108.5</ele><time>2026-04-26T08:44:33.673Z</time></trkpt><trkpt lat="45.6308423" lon="10.8774809"><ele>108.25</ele><time>2026-04-26T08:44:35.672Z</time></trkpt><trkpt lat="45.6307282" lon="10.8774488"><ele>108.0</ele><time>2026-04-26T08:44:37.673Z</time></trkpt><trkpt lat="45.6306143" lon="10.8774095"><ele>108.0</ele><time>2026-04-26T08:44:39.674Z</time></trkpt><trkpt lat="45.6305064" lon="10.8773894"><ele>108.00000000000001</ele><time>2026-04-26T08:44:41.673Z</time></trkpt><trkpt lat="45.6304122" lon="10.8773679"><ele>108.00000000000001</ele><time>2026-04-26T08:44:43.671Z</time></trkpt><trkpt lat="45.6303008" lon="10.8773356"><ele>108.0</ele><time>2026-04-26T08:44:45.671Z</time></trkpt><trkpt lat="45.6302407" lon="10.8773075"><ele>108.0</ele><time>2026-04-26T08:44:46.675Z</time></trkpt><trkpt lat="45.6301345" lon="10.8772591"><ele>110.0</ele><time>2026-04-26T08:44:48.672Z</time></trkpt><trkpt lat="45.6300582" lon="10.8772546"><ele>112.00000000000001</ele><time>2026-04-26T08:44:51.672Z</time></trkpt><trkpt lat="45.6300537" lon="10.8773477"><ele>114.00000000000001</ele><time>2026-04-26T08:44:57.668Z</time></trkpt><trkpt lat="45.6300948" lon="10.8774631"><ele>116.0</ele><time>2026-04-26T08:45:00.673Z</time></trkpt><trkpt lat="45.6301812" lon="10.8775552"><ele>118.0</ele><time>2026-04-26T08:45:02.663Z</time></trkpt><trkpt lat="45.6302828" lon="10.877635"><ele>118.33333333333334</ele><time>2026-04-26T08:45:04.665Z</time></trkpt><trkpt lat="45.6303696" lon="10.8776748"><ele>118.66666666666667</ele><time>2026-04-26T08:45:06.66Z</time></trkpt><trkpt lat="45.630437" lon="10.8776956"><ele>119.0</ele><time>2026-04-26T08:45:09.667Z</time></trkpt><trkpt lat="45.6305115" lon="10.8777296"><ele>119.33333333333334</ele><time>2026-04-26T08:45:12.667Z</time></trkpt><trkpt lat="45.6304493" lon="10.877752"><ele>119.66666666666667</ele><time>2026-04-26T08:45:17.663Z</time></trkpt><trkpt lat="45.6303851" lon="10.8777097"><ele>120.0</ele><time>2026-04-26T08:45:18.66Z</time></trkpt><trkpt lat="45.6302976" lon="10.8776551"><ele>119.6</ele><time>2026-04-26T08:45:19.659Z</time></trkpt><trkpt lat="45.6301862" lon="10.8775905"><ele>119.2</ele><time>2026-04-26T08:45:20.665Z</time></trkpt><trkpt lat="45.6300868" lon="10.8775276"><ele>118.80000000000001</ele><time>2026-04-26T08:45:21.663Z</time></trkpt><trkpt lat="45.6300182" lon="10.8774684"><ele>118.4</ele><time>2026-04-26T08:45:22.664Z</time></trkpt><trkpt lat="45.6299458" lon="10.8774131"><ele>118.0</ele><time>2026-04-26T08:45:23.662Z</time></trkpt><trkpt lat="45.6298743" lon="10.8773666"><ele>118.0</ele><time>2026-04-26T08:45:24.665Z</time></trkpt><trkpt lat="45.6297996" lon="10.8773268"><ele>118.00000000000001</ele><time>2026-04-26T08:45:25.665Z</time></trkpt><trkpt lat="45.6297364" lon="10.8772851"><ele>118.00000000000001</ele><time>2026-04-26T08:45:26.665Z</time></trkpt><trkpt lat="45.6296749" lon="10.8772467"><ele>118.0</ele><time>2026-04-26T08:45:27.664Z</time></trkpt><trkpt lat="45.6295653" lon="10.8771882"><ele>118.0</ele><time>2026-04-26T08:45:29.668Z</time></trkpt><trkpt lat="45.6294553" lon="10.877068"><ele>117.80000000000001</ele><time>2026-04-26T08:45:31.672Z</time></trkpt><trkpt lat="45.6293906" lon="10.8769731"><ele>117.60000000000001</ele><time>2026-04-26T08:45:32.668Z</time></trkpt><trkpt lat="45.6293176" lon="10.876869"><ele>117.39999999999999</ele><time>2026-04-26T08:45:33.667Z</time></trkpt><trkpt lat="45.6292454" lon="10.8767667"><ele>117.19999999999999</ele><time>2026-04-26T08:45:34.668Z</time></trkpt><trkpt lat="45.6291818" lon="10.8766746"><ele>117.0</ele><time>2026-04-26T08:45:35.668Z</time></trkpt><trkpt lat="45.6291224" lon="10.8765874"><ele>117.0</ele><time>2026-04-26T08:45:36.668Z</time></trkpt><trkpt lat="45.6290542" lon="10.8765051"><ele>117.0</ele><time>2026-04-26T08:45:37.671Z</time></trkpt><trkpt lat="45.629" lon="10.8764196"><ele>117.0</ele><time>2026-04-26T08:45:38.669Z</time></trkpt><trkpt lat="45.6289425" lon="10.8763329"><ele>117.0</ele><time>2026-04-26T08:45:39.668Z</time></trkpt><trkpt lat="45.6288896" lon="10.876233"><ele>117.0</ele><time>2026-04-26T08:45:40.666Z</time></trkpt><trkpt lat="45.6288302" lon="10.8761303"><ele>117.0</ele><time>2026-04-26T08:45:41.668Z</time></trkpt><trkpt lat="45.6287695" lon="10.8760227"><ele>117.8</ele><time>2026-04-26T08:45:42.668Z</time></trkpt><trkpt lat="45.6287055" lon="10.8759183"><ele>118.6</ele><time>2026-04-26T08:45:43.669Z</time></trkpt><trkpt lat="45.6286482" lon="10.875808"><ele>119.39999999999999</ele><time>2026-04-26T08:45:44.671Z</time></trkpt><trkpt lat="45.6285933" lon="10.8756985"><ele>120.19999999999999</ele><time>2026-04-26T08:45:45.67Z</time></trkpt><trkpt lat="45.6285389" lon="10.8755842"><ele>121.0</ele><time>2026-04-26T08:45:46.668Z</time></trkpt><trkpt lat="45.6284807" lon="10.8754663"><ele>121.0</ele><time>2026-04-26T08:45:47.67Z</time></trkpt><trkpt lat="45.6284226" lon="10.875344"><ele>121.0</ele><time>2026-04-26T08:45:48.671Z</time></trkpt><trkpt lat="45.6283546" lon="10.875218"><ele>121.0</ele><time>2026-04-26T08:45:49.673Z</time></trkpt><trkpt lat="45.6282851" lon="10.8750863"><ele>121.0</ele><time>2026-04-26T08:45:50.672Z</time></trkpt><trkpt lat="45.6282148" lon="10.8749506"><ele>121.0</ele><time>2026-04-26T08:45:51.674Z</time></trkpt><trkpt lat="45.6281423" lon="10.8748176"><ele>119.0</ele><time>2026-04-26T08:45:52.672Z</time></trkpt><trkpt lat="45.628067" lon="10.8746855"><ele>117.0</ele><time>2026-04-26T08:45:53.672Z</time></trkpt><trkpt lat="45.6279898" lon="10.8745535"><ele>115.0</ele><time>2026-04-26T08:45:54.673Z</time></trkpt><trkpt lat="45.6279133" lon="10.8744186"><ele>113.0</ele><time>2026-04-26T08:45:55.671Z</time></trkpt><trkpt lat="45.6278409" lon="10.8742911"><ele>114.0</ele><time>2026-04-26T08:45:56.675Z</time></trkpt><trkpt lat="45.6277571" lon="10.8741642"><ele>115.00000000000001</ele><time>2026-04-26T08:45:57.668Z</time></trkpt><trkpt lat="45.6276797" lon="10.8740458"><ele>116.00000000000001</ele><time>2026-04-26T08:45:58.674Z</time></trkpt><trkpt lat="45.6276002" lon="10.8739435"><ele>117.0</ele><time>2026-04-26T08:45:59.664Z</time></trkpt><trkpt lat="45.6275279" lon="10.8738535"><ele>118.0</ele><time>2026-04-26T08:46:00.667Z</time></trkpt><trkpt lat="45.6274682" lon="10.8737791"><ele>118.00000000000001</ele><time>2026-04-26T08:46:01.67Z</time></trkpt><trkpt lat="45.6274158" lon="10.873681"><ele>118.0</ele><time>2026-04-26T08:46:03.668Z</time></trkpt><trkpt lat="45.6273983" lon="10.8735326"><ele>118.0</ele><time>2026-04-26T08:46:05.667Z</time></trkpt><trkpt lat="45.6273674" lon="10.8734373"><ele>118.0</ele><time>2026-04-26T08:46:06.669Z</time></trkpt><trkpt lat="45.6273376" lon="10.8733335"><ele>118.00000000000001</ele><time>2026-04-26T08:46:07.673Z</time></trkpt><trkpt lat="45.6273127" lon="10.873222"><ele>118.0</ele><time>2026-04-26T08:46:08.668Z</time></trkpt><trkpt lat="45.6272749" lon="10.8731098"><ele>116.5</ele><time>2026-04-26T08:46:09.675Z</time></trkpt><trkpt lat="45.6272233" lon="10.8729902"><ele>115.0</ele><time>2026-04-26T08:46:10.675Z</time></trkpt><trkpt lat="45.6271491" lon="10.872847"><ele>113.5</ele><time>2026-04-26T08:46:11.671Z</time></trkpt><trkpt lat="45.6270599" lon="10.8726769"><ele>112.0</ele><time>2026-04-26T08:46:12.667Z</time></trkpt><trkpt lat="45.6269654" lon="10.8725045"><ele>112.0</ele><time>2026-04-26T08:46:13.67Z</time></trkpt><trkpt lat="45.6268788" lon="10.8723331"><ele>112.0</ele><time>2026-04-26T08:46:14.672Z</time></trkpt><trkpt lat="45.6267939" lon="10.8721676"><ele>112.0</ele><time>2026-04-26T08:46:15.673Z</time></trkpt><trkpt lat="45.6267194" lon="10.8720115"><ele>112.0</ele><time>2026-04-26T08:46:16.67Z</time></trkpt><trkpt lat="45.6266469" lon="10.8718626"><ele>110.75</ele><time>2026-04-26T08:46:17.674Z</time></trkpt><trkpt lat="45.6265648" lon="10.87172"><ele>109.5</ele><time>2026-04-26T08:46:18.672Z</time></trkpt><trkpt lat="45.6264792" lon="10.8715774"><ele>108.25</ele><time>2026-04-26T08:46:19.666Z</time></trkpt><trkpt lat="45.6263814" lon="10.8714382"><ele>107.0</ele><time>2026-04-26T08:46:20.671Z</time></trkpt><trkpt lat="45.6262765" lon="10.8713063"><ele>107.0</ele><time>2026-04-26T08:46:21.674Z</time></trkpt><trkpt lat="45.6261661" lon="10.8711792"><ele>107.0</ele><time>2026-04-26T08:46:22.676Z</time></trkpt><trkpt lat="45.6260458" lon="10.8710527"><ele>107.0</ele><time>2026-04-26T08:46:23.677Z</time></trkpt><trkpt lat="45.6259119" lon="10.8709473"><ele>107.0</ele><time>2026-04-26T08:46:24.671Z</time></trkpt><trkpt lat="45.6257809" lon="10.8708384"><ele>107.5</ele><time>2026-04-26T08:46:25.674Z</time></trkpt><trkpt lat="45.6256658" lon="10.8707231"><ele>108.0</ele><time>2026-04-26T08:46:26.674Z</time></trkpt><trkpt lat="45.6255459" lon="10.8706151"><ele>108.5</ele><time>2026-04-26T08:46:27.67Z</time></trkpt><trkpt lat="45.6254315" lon="10.8705177"><ele>109.0</ele><time>2026-04-26T08:46:28.678Z</time></trkpt><trkpt lat="45.6253096" lon="10.8704271"><ele>109.25</ele><time>2026-04-26T08:46:29.671Z</time></trkpt><trkpt lat="45.6251966" lon="10.870343"><ele>109.5</ele><time>2026-04-26T08:46:30.673Z</time></trkpt><trkpt lat="45.6250825" lon="10.8702559"><ele>109.75</ele><time>2026-04-26T08:46:31.67Z</time></trkpt><trkpt lat="45.6249708" lon="10.8701616"><ele>110.0</ele><time>2026-04-26T08:46:32.673Z</time></trkpt><trkpt lat="45.6248531" lon="10.8700756"><ele>109.75</ele><time>2026-04-26T08:46:33.671Z</time></trkpt><trkpt lat="45.6247336" lon="10.8699875"><ele>109.5</ele><time>2026-04-26T08:46:34.671Z</time></trkpt><trkpt lat="45.6246129" lon="10.8699102"><ele>109.25</ele><time>2026-04-26T08:46:35.667Z</time></trkpt><trkpt lat="45.6245033" lon="10.8698428"><ele>109.0</ele><time>2026-04-26T08:46:36.668Z</time></trkpt><trkpt lat="45.6243993" lon="10.8697731"><ele>109.0</ele><time>2026-04-26T08:46:37.672Z</time></trkpt><trkpt lat="45.6243029" lon="10.8697063"><ele>109.0</ele><time>2026-04-26T08:46:38.671Z</time></trkpt><trkpt lat="45.6242092" lon="10.8696353"><ele>109.0</ele><time>2026-04-26T08:46:39.675Z</time></trkpt><trkpt lat="45.6241039" lon="10.8695629"><ele>109.0</ele><time>2026-04-26T08:46:40.675Z</time></trkpt><trkpt lat="45.6240013" lon="10.8694907"><ele>109.0</ele><time>2026-04-26T08:46:41.674Z</time></trkpt><trkpt lat="45.6239032" lon="10.869406"><ele>109.0</ele><time>2026-04-26T08:46:42.679Z</time></trkpt><trkpt lat="45.6238066" lon="10.8693244"><ele>109.0</ele><time>2026-04-26T08:46:43.672Z</time></trkpt><trkpt lat="45.6237112" lon="10.8692524"><ele>109.0</ele><time>2026-04-26T08:46:44.666Z</time></trkpt><trkpt lat="45.6236215" lon="10.8691926"><ele>109.0</ele><time>2026-04-26T08:46:45.677Z</time></trkpt><trkpt lat="45.6235351" lon="10.8691272"><ele>109.0</ele><time>2026-04-26T08:46:46.672Z</time></trkpt><trkpt lat="45.623446" lon="10.8690593"><ele>108.80000000000001</ele><time>2026-04-26T08:46:47.676Z</time></trkpt><trkpt lat="45.6233558" lon="10.8689884"><ele>108.60000000000001</ele><time>2026-04-26T08:46:48.674Z</time></trkpt><trkpt lat="45.623273" lon="10.8689189"><ele>108.4</ele><time>2026-04-26T08:46:49.674Z</time></trkpt><trkpt lat="45.6231848" lon="10.8688442"><ele>108.2</ele><time>2026-04-26T08:46:50.674Z</time></trkpt><trkpt lat="45.6230968" lon="10.868766"><ele>108.0</ele><time>2026-04-26T08:46:51.67Z</time></trkpt><trkpt lat="45.6230146" lon="10.8686803"><ele>108.0</ele><time>2026-04-26T08:46:52.675Z</time></trkpt><trkpt lat="45.6229341" lon="10.8686013"><ele>108.00000000000001</ele><time>2026-04-26T08:46:53.672Z</time></trkpt><trkpt lat="45.6228528" lon="10.8685305"><ele>108.00000000000001</ele><time>2026-04-26T08:46:54.67Z</time></trkpt><trkpt lat="45.6227747" lon="10.8684576"><ele>108.0</ele><time>2026-04-26T08:46:55.678Z</time></trkpt><trkpt lat="45.6227073" lon="10.8683799"><ele>108.0</ele><time>2026-04-26T08:46:56.674Z</time></trkpt><trkpt lat="45.6226393" lon="10.8683002"><ele>108.33333333333333</ele><time>2026-04-26T08:46:57.671Z</time></trkpt><trkpt lat="45.6225732" lon="10.8682244"><ele>108.66666666666666</ele><time>2026-04-26T08:46:58.676Z</time></trkpt><trkpt lat="45.6225064" lon="10.8681621"><ele>109.0</ele><time>2026-04-26T08:46:59.672Z</time></trkpt><trkpt lat="45.6224441" lon="10.8681028"><ele>109.33333333333333</ele><time>2026-04-26T08:47:00.662Z</time></trkpt><trkpt lat="45.6223546" lon="10.8680403"><ele>109.66666666666666</ele><time>2026-04-26T08:47:02.674Z</time></trkpt><trkpt lat="45.6223115" lon="10.8681281"><ele>110.0</ele><time>2026-04-26T08:47:05.668Z</time></trkpt><trkpt lat="45.6222931" lon="10.8682209"><ele>109.99999999999999</ele><time>2026-04-26T08:47:08.673Z</time></trkpt><trkpt lat="45.6222961" lon="10.8683198"><ele>110.0</ele><time>2026-04-26T08:47:18.677Z</time></trkpt><trkpt lat="45.6223064" lon="10.8684166"><ele>110.0</ele><time>2026-04-26T08:47:36.669Z</time></trkpt><trkpt lat="45.6223512" lon="10.868493"><ele>110.0</ele><time>2026-04-26T08:47:58.763Z</time></trkpt><trkpt lat="45.6223995" lon="10.8685535"><ele>110.0</ele><time>2026-04-26T08:48:05.668Z</time></trkpt><trkpt lat="45.6224441" lon="10.868626"><ele>109.99999999999999</ele><time>2026-04-26T08:48:09.668Z</time></trkpt><trkpt lat="45.6224832" lon="10.8686966"><ele>110.0</ele><time>2026-04-26T08:48:13.67Z</time></trkpt><trkpt lat="45.6224268" lon="10.8686545"><ele>111.4</ele><time>2026-04-26T08:48:18.671Z</time></trkpt><trkpt lat="45.6223328" lon="10.8685871"><ele>112.8</ele><time>2026-04-26T08:48:20.66Z</time></trkpt><trkpt lat="45.6222369" lon="10.8685358"><ele>114.19999999999999</ele><time>2026-04-26T08:48:21.662Z</time></trkpt><trkpt lat="45.6221376" lon="10.868476"><ele>115.6</ele><time>2026-04-26T08:48:22.663Z</time></trkpt><trkpt lat="45.6220456" lon="10.8684451"><ele>117.0</ele><time>2026-04-26T08:48:23.661Z</time></trkpt><trkpt lat="45.6219149" lon="10.868393"><ele>117.0</ele><time>2026-04-26T08:48:25.657Z</time></trkpt><trkpt lat="45.6218304" lon="10.8683099"><ele>117.0</ele><time>2026-04-26T08:48:26.66Z</time></trkpt><trkpt lat="45.6217283" lon="10.8682044"><ele>117.0</ele><time>2026-04-26T08:48:27.669Z</time></trkpt><trkpt lat="45.6216136" lon="10.8680921"><ele>117.0</ele><time>2026-04-26T08:48:28.665Z</time></trkpt><trkpt lat="45.6215051" lon="10.8679678"><ele>117.0</ele><time>2026-04-26T08:48:29.663Z</time></trkpt><trkpt lat="45.621385" lon="10.8678368"><ele>117.0</ele><time>2026-04-26T08:48:30.666Z</time></trkpt><trkpt lat="45.6212594" lon="10.8677046"><ele>117.0</ele><time>2026-04-26T08:48:31.666Z</time></trkpt><trkpt lat="45.6211254" lon="10.8675634"><ele>117.66666666666666</ele><time>2026-04-26T08:48:32.665Z</time></trkpt><trkpt lat="45.6210048" lon="10.8674071"><ele>118.33333333333333</ele><time>2026-04-26T08:48:33.663Z</time></trkpt><trkpt lat="45.6208939" lon="10.8672602"><ele>119.0</ele><time>2026-04-26T08:48:34.663Z</time></trkpt><trkpt lat="45.6207717" lon="10.867138"><ele>119.0</ele><time>2026-04-26T08:48:35.663Z</time></trkpt><trkpt lat="45.6206542" lon="10.8670182"><ele>119.0</ele><time>2026-04-26T08:48:36.669Z</time></trkpt><trkpt lat="45.6205263" lon="10.8669041"><ele>119.0</ele><time>2026-04-26T08:48:37.668Z</time></trkpt><trkpt lat="45.6204035" lon="10.8667901"><ele>119.0</ele><time>2026-04-26T08:48:38.673Z</time></trkpt><trkpt lat="45.6202953" lon="10.8666716"><ele>119.75</ele><time>2026-04-26T08:48:39.669Z</time></trkpt><trkpt lat="45.6201934" lon="10.8665504"><ele>120.5</ele><time>2026-04-26T08:48:40.668Z</time></trkpt><trkpt lat="45.6200888" lon="10.866416"><ele>121.25</ele><time>2026-04-26T08:48:41.672Z</time></trkpt><trkpt lat="45.6199841" lon="10.8662793"><ele>122.0</ele><time>2026-04-26T08:48:42.668Z</time></trkpt><trkpt lat="45.6198829" lon="10.8661277"><ele>122.0</ele><time>2026-04-26T08:48:43.67Z</time></trkpt><trkpt lat="45.6197873" lon="10.8659709"><ele>122.0</ele><time>2026-04-26T08:48:44.669Z</time></trkpt><trkpt lat="45.6196905" lon="10.8658139"><ele>122.0</ele><time>2026-04-26T08:48:45.667Z</time></trkpt><trkpt lat="45.6195959" lon="10.8656506"><ele>122.0</ele><time>2026-04-26T08:48:46.671Z</time></trkpt><trkpt lat="45.6194992" lon="10.8654857"><ele>121.25</ele><time>2026-04-26T08:48:47.67Z</time></trkpt><trkpt lat="45.6194032" lon="10.8653293"><ele>120.5</ele><time>2026-04-26T08:48:48.67Z</time></trkpt><trkpt lat="45.6192973" lon="10.8651757"><ele>119.75</ele><time>2026-04-26T08:48:49.669Z</time></trkpt><trkpt lat="45.6191967" lon="10.8650345"><ele>119.0</ele><time>2026-04-26T08:48:50.664Z</time></trkpt><trkpt lat="45.6191038" lon="10.8649002"><ele>119.0</ele><time>2026-04-26T08:48:51.669Z</time></trkpt><trkpt lat="45.6190336" lon="10.8647695"><ele>119.0</ele><time>2026-04-26T08:48:52.665Z</time></trkpt><trkpt lat="45.6189734" lon="10.8646573"><ele>119.0</ele><time>2026-04-26T08:48:53.666Z</time></trkpt><trkpt lat="45.6189152" lon="10.8645534"><ele>119.0</ele><time>2026-04-26T08:48:54.666Z</time></trkpt><trkpt lat="45.6188547" lon="10.8644544"><ele>119.0</ele><time>2026-04-26T08:48:55.663Z</time></trkpt><trkpt lat="45.6187965" lon="10.8643542"><ele>118.80000000000001</ele><time>2026-04-26T08:48:56.666Z</time></trkpt><trkpt lat="45.6187401" lon="10.8642412"><ele>118.60000000000001</ele><time>2026-04-26T08:48:57.662Z</time></trkpt><trkpt lat="45.618687" lon="10.864118"><ele>118.4</ele><time>2026-04-26T08:48:58.66Z</time></trkpt><trkpt lat="45.6186464" lon="10.8639927"><ele>118.2</ele><time>2026-04-26T08:48:59.676Z</time></trkpt><trkpt lat="45.618598" lon="10.8638679"><ele>118.0</ele><time>2026-04-26T08:49:00.659Z</time></trkpt><trkpt lat="45.6185481" lon="10.863749"><ele>118.0</ele><time>2026-04-26T08:49:01.675Z</time></trkpt><trkpt lat="45.6184873" lon="10.8636194"><ele>118.0</ele><time>2026-04-26T08:49:02.662Z</time></trkpt><trkpt lat="45.6184096" lon="10.8634835"><ele>118.0</ele><time>2026-04-26T08:49:03.658Z</time></trkpt><trkpt lat="45.6183283" lon="10.8633445"><ele>118.0</ele><time>2026-04-26T08:49:04.665Z</time></trkpt><trkpt lat="45.61825" lon="10.8632133"><ele>116.5</ele><time>2026-04-26T08:49:05.665Z</time></trkpt><trkpt lat="45.6181769" lon="10.8630959"><ele>115.0</ele><time>2026-04-26T08:49:06.665Z</time></trkpt><trkpt lat="45.6181041" lon="10.8629787"><ele>113.5</ele><time>2026-04-26T08:49:07.667Z</time></trkpt><trkpt lat="45.6180331" lon="10.8628443"><ele>112.0</ele><time>2026-04-26T08:49:08.67Z</time></trkpt><trkpt lat="45.6179685" lon="10.8626919"><ele>111.33333333333334</ele><time>2026-04-26T08:49:09.677Z</time></trkpt><trkpt lat="45.6179026" lon="10.8625118"><ele>110.66666666666666</ele><time>2026-04-26T08:49:10.672Z</time></trkpt><trkpt lat="45.6178383" lon="10.8623163"><ele>110.0</ele><time>2026-04-26T08:49:11.673Z</time></trkpt><trkpt lat="45.617774" lon="10.8620913"><ele>112.66666666666666</ele><time>2026-04-26T08:49:12.671Z</time></trkpt><trkpt lat="45.6177338" lon="10.8618567"><ele>115.33333333333334</ele><time>2026-04-26T08:49:13.668Z</time></trkpt><trkpt lat="45.6177006" lon="10.8616295"><ele>118.0</ele><time>2026-04-26T08:49:14.673Z</time></trkpt><trkpt lat="45.6176779" lon="10.8614207"><ele>118.0</ele><time>2026-04-26T08:49:15.668Z</time></trkpt><trkpt lat="45.6176553" lon="10.8612299"><ele>118.0</ele><time>2026-04-26T08:49:16.672Z</time></trkpt><trkpt lat="45.6176366" lon="10.8610823"><ele>118.0</ele><time>2026-04-26T08:49:17.672Z</time></trkpt><trkpt lat="45.6176394" lon="10.8609441"><ele>118.0</ele><time>2026-04-26T08:49:18.673Z</time></trkpt><trkpt lat="45.6176331" lon="10.8607725"><ele>118.5</ele><time>2026-04-26T08:49:19.676Z</time></trkpt><trkpt lat="45.6176354" lon="10.8605944"><ele>119.0</ele><time>2026-04-26T08:49:20.672Z</time></trkpt><trkpt lat="45.61764" lon="10.8604243"><ele>119.5</ele><time>2026-04-26T08:49:21.673Z</time></trkpt><trkpt lat="45.6176465" lon="10.8602433"><ele>120.0</ele><time>2026-04-26T08:49:22.679Z</time></trkpt><trkpt lat="45.6176667" lon="10.8600384"><ele>120.0</ele><time>2026-04-26T08:49:23.674Z</time></trkpt><trkpt lat="45.6177018" lon="10.8598263"><ele>120.0</ele><time>2026-04-26T08:49:24.668Z</time></trkpt><trkpt lat="45.6177445" lon="10.8596152"><ele>120.0</ele><time>2026-04-26T08:49:25.668Z</time></trkpt><trkpt lat="45.6178176" lon="10.8594203"><ele>118.0</ele><time>2026-04-26T08:49:26.666Z</time></trkpt><trkpt lat="45.6178965" lon="10.8592471"><ele>116.0</ele><time>2026-04-26T08:49:27.667Z</time></trkpt><trkpt lat="45.6179791" lon="10.8590836"><ele>114.0</ele><time>2026-04-26T08:49:28.668Z</time></trkpt><trkpt lat="45.6180505" lon="10.8589494"><ele>112.0</ele><time>2026-04-26T08:49:29.663Z</time></trkpt><trkpt lat="45.6181001" lon="10.8588382"><ele>112.0</ele><time>2026-04-26T08:49:30.668Z</time></trkpt><trkpt lat="45.618125" lon="10.8587357"><ele>111.99999999999999</ele><time>2026-04-26T08:49:32.665Z</time></trkpt><trkpt lat="45.6180316" lon="10.8586346"><ele>111.99999999999999</ele><time>2026-04-26T08:49:34.672Z</time></trkpt><trkpt lat="45.6179536" lon="10.8585627"><ele>112.0</ele><time>2026-04-26T08:49:35.672Z</time></trkpt><trkpt lat="45.6178612" lon="10.8584783"><ele>112.0</ele><time>2026-04-26T08:49:36.674Z</time></trkpt><trkpt lat="45.6177522" lon="10.8583772"><ele>114.66666666666667</ele><time>2026-04-26T08:49:37.673Z</time></trkpt><trkpt lat="45.6176242" lon="10.8582531"><ele>117.33333333333334</ele><time>2026-04-26T08:49:38.675Z</time></trkpt><trkpt lat="45.617481" lon="10.8581093"><ele>120.0</ele><time>2026-04-26T08:49:39.668Z</time></trkpt><trkpt lat="45.6173279" lon="10.8579527"><ele>120.0</ele><time>2026-04-26T08:49:40.671Z</time></trkpt><trkpt lat="45.6171767" lon="10.8577946"><ele>120.0</ele><time>2026-04-26T08:49:41.67Z</time></trkpt><trkpt lat="45.6170321" lon="10.8576505"><ele>120.0</ele><time>2026-04-26T08:49:42.671Z</time></trkpt><trkpt lat="45.6168997" lon="10.8575244"><ele>120.0</ele><time>2026-04-26T08:49:43.669Z</time></trkpt><trkpt lat="45.616772" lon="10.8574088"><ele>120.0</ele><time>2026-04-26T08:49:44.668Z</time></trkpt><trkpt lat="45.6166626" lon="10.8572937"><ele>120.0</ele><time>2026-04-26T08:49:45.673Z</time></trkpt><trkpt lat="45.6165392" lon="10.8571685"><ele>120.0</ele><time>2026-04-26T08:49:46.667Z</time></trkpt><trkpt lat="45.6164071" lon="10.8570309"><ele>120.0</ele><time>2026-04-26T08:49:47.673Z</time></trkpt><trkpt lat="45.6162696" lon="10.8568831"><ele>120.0</ele><time>2026-04-26T08:49:48.674Z</time></trkpt><trkpt lat="45.6161244" lon="10.8567346"><ele>120.0</ele><time>2026-04-26T08:49:49.673Z</time></trkpt><trkpt lat="45.6159792" lon="10.8565982"><ele>119.66666666666666</ele><time>2026-04-26T08:49:50.675Z</time></trkpt><trkpt lat="45.6158363" lon="10.8564653"><ele>119.33333333333333</ele><time>2026-04-26T08:49:51.673Z</time></trkpt><trkpt lat="45.6156965" lon="10.8563348"><ele>119.0</ele><time>2026-04-26T08:49:52.677Z</time></trkpt><trkpt lat="45.6155624" lon="10.8562074"><ele>119.0</ele><time>2026-04-26T08:49:53.674Z</time></trkpt><trkpt lat="45.6154397" lon="10.8560706"><ele>119.0</ele><time>2026-04-26T08:49:54.671Z</time></trkpt><trkpt lat="45.6153206" lon="10.8559571"><ele>119.0</ele><time>2026-04-26T08:49:55.675Z</time></trkpt><trkpt lat="45.6152225" lon="10.8558809"><ele>119.0</ele><time>2026-04-26T08:49:56.667Z</time></trkpt><trkpt lat="45.6151415" lon="10.8558296"><ele>119.16666666666666</ele><time>2026-04-26T08:49:57.676Z</time></trkpt><trkpt lat="45.615054" lon="10.8557844"><ele>119.33333333333333</ele><time>2026-04-26T08:49:59.67Z</time></trkpt><trkpt lat="45.6149893" lon="10.8558598"><ele>119.5</ele><time>2026-04-26T08:50:01.671Z</time></trkpt><trkpt lat="45.6149447" lon="10.8559361"><ele>119.66666666666666</ele><time>2026-04-26T08:50:03.674Z</time></trkpt><trkpt lat="45.6149344" lon="10.855811"><ele>119.83333333333333</ele><time>2026-04-26T08:50:07.677Z</time></trkpt><trkpt lat="45.6149811" lon="10.8557344"><ele>120.0</ele><time>2026-04-26T08:50:08.678Z</time></trkpt><trkpt lat="45.6150488" lon="10.8556182"><ele>120.0</ele><time>2026-04-26T08:50:09.669Z</time></trkpt><trkpt lat="45.6151205" lon="10.8554862"><ele>120.0</ele><time>2026-04-26T08:50:10.672Z</time></trkpt><trkpt lat="45.6151922" lon="10.8553454"><ele>120.0</ele><time>2026-04-26T08:50:11.675Z</time></trkpt><trkpt lat="45.6152577" lon="10.8552078"><ele>120.0</ele><time>2026-04-26T08:50:12.669Z</time></trkpt><trkpt lat="45.6153157" lon="10.8550719"><ele>119.4</ele><time>2026-04-26T08:50:13.671Z</time></trkpt><trkpt lat="45.6153662" lon="10.8549348"><ele>118.8</ele><time>2026-04-26T08:50:14.673Z</time></trkpt><trkpt lat="45.6154064" lon="10.8548033"><ele>118.19999999999999</ele><time>2026-04-26T08:50:15.671Z</time></trkpt><trkpt lat="45.6154498" lon="10.8546841"><ele>117.6</ele><time>2026-04-26T08:50:16.674Z</time></trkpt><trkpt lat="45.615491" lon="10.8545853"><ele>117.0</ele><time>2026-04-26T08:50:17.673Z</time></trkpt><trkpt lat="45.6155664" lon="10.8544725"><ele>117.0</ele><time>2026-04-26T08:50:19.669Z</time></trkpt><trkpt lat="45.6156889" lon="10.8544509"><ele>117.0</ele><time>2026-04-26T08:50:21.674Z</time></trkpt><trkpt lat="45.6157991" lon="10.8544797"><ele>117.0</ele><time>2026-04-26T08:50:22.665Z</time></trkpt><trkpt lat="45.6159373" lon="10.8545175"><ele>117.0</ele><time>2026-04-26T08:50:23.668Z</time></trkpt><trkpt lat="45.6160879" lon="10.8545533"><ele>116.5</ele><time>2026-04-26T08:50:24.665Z</time></trkpt><trkpt lat="45.6162439" lon="10.8545936"><ele>116.0</ele><time>2026-04-26T08:50:25.669Z</time></trkpt><trkpt lat="45.616389" lon="10.8546339"><ele>115.5</ele><time>2026-04-26T08:50:26.667Z</time></trkpt><trkpt lat="45.6165222" lon="10.8546632"><ele>115.0</ele><time>2026-04-26T08:50:27.67Z</time></trkpt><trkpt lat="45.6166517" lon="10.8546847"><ele>115.0</ele><time>2026-04-26T08:50:28.672Z</time></trkpt><trkpt lat="45.6167774" lon="10.8547005"><ele>115.0</ele><time>2026-04-26T08:50:29.67Z</time></trkpt><trkpt lat="45.6169002" lon="10.8547132"><ele>115.0</ele><time>2026-04-26T08:50:30.669Z</time></trkpt><trkpt lat="45.6170222" lon="10.8547264"><ele>115.0</ele><time>2026-04-26T08:50:31.669Z</time></trkpt><trkpt lat="45.6171402" lon="10.8547273"><ele>114.25</ele><time>2026-04-26T08:50:32.672Z</time></trkpt><trkpt lat="45.6172626" lon="10.8547247"><ele>113.5</ele><time>2026-04-26T08:50:33.668Z</time></trkpt><trkpt lat="45.6173881" lon="10.8547227"><ele>112.75</ele><time>2026-04-26T08:50:34.668Z</time></trkpt><trkpt lat="45.6175095" lon="10.8547249"><ele>112.0</ele><time>2026-04-26T08:50:35.665Z</time></trkpt><trkpt lat="45.6176293" lon="10.85473"><ele>112.0</ele><time>2026-04-26T08:50:36.659Z</time></trkpt><trkpt lat="45.6177428" lon="10.8547364"><ele>112.0</ele><time>2026-04-26T08:50:37.672Z</time></trkpt><trkpt lat="45.6178532" lon="10.8547463"><ele>112.0</ele><time>2026-04-26T08:50:38.667Z</time></trkpt><trkpt lat="45.6179664" lon="10.8547517"><ele>112.0</ele><time>2026-04-26T08:50:39.663Z</time></trkpt><trkpt lat="45.6180913" lon="10.8547521"><ele>112.0</ele><time>2026-04-26T08:50:40.665Z</time></trkpt><trkpt lat="45.6182343" lon="10.8547616"><ele>112.0</ele><time>2026-04-26T08:50:41.663Z</time></trkpt><trkpt lat="45.6183864" lon="10.854782"><ele>112.0</ele><time>2026-04-26T08:50:42.668Z</time></trkpt><trkpt lat="45.6185348" lon="10.8548068"><ele>112.0</ele><time>2026-04-26T08:50:43.662Z</time></trkpt><trkpt lat="45.6186936" lon="10.8548299"><ele>112.0</ele><time>2026-04-26T08:50:44.667Z</time></trkpt><trkpt lat="45.618831" lon="10.8548437"><ele>112.0</ele><time>2026-04-26T08:50:45.662Z</time></trkpt><trkpt lat="45.6189471" lon="10.854875"><ele>112.0</ele><time>2026-04-26T08:50:46.661Z</time></trkpt><trkpt lat="45.6190588" lon="10.854914"><ele>112.0</ele><time>2026-04-26T08:50:47.673Z</time></trkpt><trkpt lat="45.6191661" lon="10.8549762"><ele>112.0</ele><time>2026-04-26T08:50:48.667Z</time></trkpt><trkpt lat="45.6192713" lon="10.8550444"><ele>111.99999999999999</ele><time>2026-04-26T08:50:49.667Z</time></trkpt><trkpt lat="45.6193697" lon="10.8551094"><ele>111.99999999999999</ele><time>2026-04-26T08:50:50.668Z</time></trkpt><trkpt lat="45.619471" lon="10.8551664"><ele>112.0</ele><time>2026-04-26T08:50:51.668Z</time></trkpt><trkpt lat="45.6195781" lon="10.8552253"><ele>112.0</ele><time>2026-04-26T08:50:52.669Z</time></trkpt><trkpt lat="45.6196782" lon="10.8552801"><ele>112.0</ele><time>2026-04-26T08:50:53.664Z</time></trkpt><trkpt lat="45.6197663" lon="10.8553355"><ele>111.99999999999999</ele><time>2026-04-26T08:50:54.667Z</time></trkpt><trkpt lat="45.6198347" lon="10.8553768"><ele>111.99999999999999</ele><time>2026-04-26T08:50:55.664Z</time></trkpt><trkpt lat="45.6199225" lon="10.8554393"><ele>112.0</ele><time>2026-04-26T08:50:57.661Z</time></trkpt><trkpt lat="45.6199835" lon="10.8555515"><ele>112.0</ele><time>2026-04-26T08:50:59.659Z</time></trkpt><trkpt lat="45.6200002" lon="10.8556788"><ele>112.00000000000001</ele><time>2026-04-26T08:51:01.662Z</time></trkpt><trkpt lat="45.6199771" lon="10.8557859"><ele>112.0</ele><time>2026-04-26T08:51:03.661Z</time></trkpt><trkpt lat="45.6199391" lon="10.8558916"><ele>112.0</ele><time>2026-04-26T08:51:06.662Z</time></trkpt><trkpt lat="45.6199273" lon="10.8559845"><ele>112.0</ele><time>2026-04-26T08:51:09.66Z</time></trkpt><trkpt lat="45.6199981" lon="10.8558709"><ele>112.00000000000001</ele><time>2026-04-26T08:51:17.656Z</time></trkpt><trkpt lat="45.6200073" lon="10.8557495"><ele>112.0</ele><time>2026-04-26T08:51:18.659Z</time></trkpt><trkpt lat="45.6200138" lon="10.8556304"><ele>112.0</ele><time>2026-04-26T08:51:19.659Z</time></trkpt><trkpt lat="45.6200131" lon="10.8555308"><ele>111.99999999999999</ele><time>2026-04-26T08:51:20.659Z</time></trkpt><trkpt lat="45.6200163" lon="10.8553544"><ele>111.99999999999999</ele><time>2026-04-26T08:51:22.659Z</time></trkpt><trkpt lat="45.6199798" lon="10.8552029"><ele>112.0</ele><time>2026-04-26T08:51:24.663Z</time></trkpt><trkpt lat="45.6199278" lon="10.8550875"><ele>112.0</ele><time>2026-04-26T08:51:26.66Z</time></trkpt><trkpt lat="45.6198226" lon="10.8550188"><ele>112.0</ele><time>2026-04-26T08:51:28.661Z</time></trkpt><trkpt lat="45.6197433" lon="10.8549843"><ele>111.99999999999999</ele><time>2026-04-26T08:51:29.661Z</time></trkpt><trkpt lat="45.6196455" lon="10.8549346"><ele>111.99999999999999</ele><time>2026-04-26T08:51:30.661Z</time></trkpt><trkpt lat="45.619542" lon="10.8548704"><ele>112.0</ele><time>2026-04-26T08:51:31.658Z</time></trkpt><trkpt lat="45.6194454" lon="10.8548057"><ele>112.0</ele><time>2026-04-26T08:51:32.655Z</time></trkpt><trkpt lat="45.619349" lon="10.8547511"><ele>112.00000000000001</ele><time>2026-04-26T08:51:33.649Z</time></trkpt><trkpt lat="45.6192636" lon="10.8546966"><ele>112.0</ele><time>2026-04-26T08:51:34.654Z</time></trkpt><trkpt lat="45.6191866" lon="10.8546491"><ele>112.0</ele><time>2026-04-26T08:51:35.651Z</time></trkpt><trkpt lat="45.6191118" lon="10.8546121"><ele>112.0</ele><time>2026-04-26T08:51:36.649Z</time></trkpt><trkpt lat="45.6190351" lon="10.8545687"><ele>112.00000000000001</ele><time>2026-04-26T08:51:37.65Z</time></trkpt><trkpt lat="45.6189621" lon="10.8545317"><ele>112.0</ele><time>2026-04-26T08:51:38.65Z</time></trkpt><trkpt lat="45.6188834" lon="10.8545003"><ele>112.00000000000001</ele><time>2026-04-26T08:51:39.643Z</time></trkpt><trkpt lat="45.6188039" lon="10.8544721"><ele>112.0</ele><time>2026-04-26T08:51:40.648Z</time></trkpt><trkpt lat="45.6187292" lon="10.8544509"><ele>112.0</ele><time>2026-04-26T08:51:41.65Z</time></trkpt><trkpt lat="45.6186555" lon="10.8544277"><ele>112.0</ele><time>2026-04-26T08:51:42.652Z</time></trkpt><trkpt lat="45.6185785" lon="10.8544086"><ele>112.00000000000001</ele><time>2026-04-26T08:51:43.65Z</time></trkpt><trkpt lat="45.6184961" lon="10.854396"><ele>112.0</ele><time>2026-04-26T08:51:44.649Z</time></trkpt><trkpt lat="45.6184138" lon="10.854388"><ele>112.50000000000001</ele><time>2026-04-26T08:51:45.652Z</time></trkpt><trkpt lat="45.6183226" lon="10.8543906"><ele>113.0</ele><time>2026-04-26T08:51:46.648Z</time></trkpt><trkpt lat="45.6182335" lon="10.8543967"><ele>113.5</ele><time>2026-04-26T08:51:47.651Z</time></trkpt><trkpt lat="45.618154" lon="10.8544072"><ele>114.0</ele><time>2026-04-26T08:51:48.654Z</time></trkpt><trkpt lat="45.6180694" lon="10.8544231"><ele>114.50000000000001</ele><time>2026-04-26T08:51:49.66Z</time></trkpt><trkpt lat="45.6179803" lon="10.8544376"><ele>115.0</ele><time>2026-04-26T08:51:50.652Z</time></trkpt><trkpt lat="45.6178933" lon="10.8544525"><ele>114.50000000000001</ele><time>2026-04-26T08:51:51.654Z</time></trkpt><trkpt lat="45.6178145" lon="10.8544576"><ele>114.0</ele><time>2026-04-26T08:51:52.653Z</time></trkpt><trkpt lat="45.6177395" lon="10.8544665"><ele>113.5</ele><time>2026-04-26T08:51:53.653Z</time></trkpt><trkpt lat="45.6176617" lon="10.8544799"><ele>113.0</ele><time>2026-04-26T08:51:54.654Z</time></trkpt><trkpt lat="45.6175895" lon="10.8544869"><ele>112.50000000000001</ele><time>2026-04-26T08:51:55.654Z</time></trkpt><trkpt lat="45.6175128" lon="10.8544836"><ele>112.0</ele><time>2026-04-26T08:51:56.655Z</time></trkpt><trkpt lat="45.6174395" lon="10.8544747"><ele>112.00000000000001</ele><time>2026-04-26T08:51:57.655Z</time></trkpt><trkpt lat="45.6173721" lon="10.8544681"><ele>112.0</ele><time>2026-04-26T08:51:58.657Z</time></trkpt><trkpt lat="45.6173066" lon="10.8544612"><ele>112.0</ele><time>2026-04-26T08:51:59.652Z</time></trkpt><trkpt lat="45.6172398" lon="10.8544544"><ele>112.0</ele><time>2026-04-26T08:52:00.651Z</time></trkpt><trkpt lat="45.6171757" lon="10.8544464"><ele>112.00000000000001</ele><time>2026-04-26T08:52:01.652Z</time></trkpt><trkpt lat="45.6170552" lon="10.8544303"><ele>112.0</ele><time>2026-04-26T08:52:03.659Z</time></trkpt><trkpt lat="45.6169315" lon="10.8544239"><ele>112.50000000000001</ele><time>2026-04-26T08:52:05.664Z</time></trkpt><trkpt lat="45.6168653" lon="10.8544194"><ele>113.0</ele><time>2026-04-26T08:52:06.66Z</time></trkpt><trkpt lat="45.616792" lon="10.8544077"><ele>113.5</ele><time>2026-04-26T08:52:07.66Z</time></trkpt><trkpt lat="45.6167125" lon="10.8543944"><ele>114.0</ele><time>2026-04-26T08:52:08.661Z</time></trkpt><trkpt lat="45.6166375" lon="10.8543802"><ele>114.50000000000001</ele><time>2026-04-26T08:52:09.66Z</time></trkpt><trkpt lat="45.616558" lon="10.8543707"><ele>115.0</ele><time>2026-04-26T08:52:10.655Z</time></trkpt><trkpt lat="45.6164838" lon="10.8543661"><ele>115.00000000000001</ele><time>2026-04-26T08:52:11.658Z</time></trkpt><trkpt lat="45.6164044" lon="10.8543501"><ele>115.0</ele><time>2026-04-26T08:52:12.658Z</time></trkpt><trkpt lat="45.6163285" lon="10.8543377"><ele>115.0</ele><time>2026-04-26T08:52:13.656Z</time></trkpt><trkpt lat="45.6162563" lon="10.8543202"><ele>115.0</ele><time>2026-04-26T08:52:14.657Z</time></trkpt><trkpt lat="45.6161921" lon="10.85431"><ele>115.00000000000001</ele><time>2026-04-26T08:52:15.653Z</time></trkpt><trkpt lat="45.6161276" lon="10.854292"><ele>115.0</ele><time>2026-04-26T08:52:16.654Z</time></trkpt><trkpt lat="45.6160234" lon="10.8542467"><ele>113.50000000000001</ele><time>2026-04-26T08:52:18.659Z</time></trkpt><trkpt lat="45.6158955" lon="10.8542055"><ele>112.0</ele><time>2026-04-26T08:52:20.661Z</time></trkpt><trkpt lat="45.6158284" lon="10.8541979"><ele>110.5</ele><time>2026-04-26T08:52:21.664Z</time></trkpt><trkpt lat="45.61576" lon="10.8541921"><ele>109.0</ele><time>2026-04-26T08:52:22.663Z</time></trkpt><trkpt lat="45.6156875" lon="10.8541896"><ele>107.50000000000001</ele><time>2026-04-26T08:52:23.661Z</time></trkpt><trkpt lat="45.6156053" lon="10.8541837"><ele>106.0</ele><time>2026-04-26T08:52:24.661Z</time></trkpt><trkpt lat="45.6155155" lon="10.8541803"><ele>106.00000000000001</ele><time>2026-04-26T08:52:25.663Z</time></trkpt><trkpt lat="45.6154342" lon="10.8541749"><ele>106.0</ele><time>2026-04-26T08:52:26.664Z</time></trkpt><trkpt lat="45.6153536" lon="10.8541711"><ele>106.0</ele><time>2026-04-26T08:52:27.664Z</time></trkpt><trkpt lat="45.6152785" lon="10.8541689"><ele>106.0</ele><time>2026-04-26T08:52:28.662Z</time></trkpt><trkpt lat="45.615205" lon="10.854166"><ele>106.00000000000001</ele><time>2026-04-26T08:52:29.659Z</time></trkpt><trkpt lat="45.6151339" lon="10.8541544"><ele>106.0</ele><time>2026-04-26T08:52:30.659Z</time></trkpt><trkpt lat="45.6150647" lon="10.8541493"><ele>106.00000000000001</ele><time>2026-04-26T08:52:31.658Z</time></trkpt><trkpt lat="45.6149978" lon="10.8541344"><ele>106.0</ele><time>2026-04-26T08:52:32.662Z</time></trkpt><trkpt lat="45.6149202" lon="10.8541286"><ele>106.0</ele><time>2026-04-26T08:52:33.658Z</time></trkpt><trkpt lat="45.6148351" lon="10.8541241"><ele>106.0</ele><time>2026-04-26T08:52:34.657Z</time></trkpt><trkpt lat="45.6147483" lon="10.8541257"><ele>106.00000000000001</ele><time>2026-04-26T08:52:35.656Z</time></trkpt><trkpt lat="45.6146574" lon="10.8541273"><ele>106.0</ele><time>2026-04-26T08:52:36.652Z</time></trkpt><trkpt lat="45.6145741" lon="10.854134"><ele>106.00000000000001</ele><time>2026-04-26T08:52:37.652Z</time></trkpt><trkpt lat="45.6144953" lon="10.8541259"><ele>106.0</ele><time>2026-04-26T08:52:38.656Z</time></trkpt><trkpt lat="45.614415" lon="10.8541209"><ele>106.0</ele><time>2026-04-26T08:52:39.644Z</time></trkpt><trkpt lat="45.6143287" lon="10.8541143"><ele>106.0</ele><time>2026-04-26T08:52:40.652Z</time></trkpt><trkpt lat="45.6142477" lon="10.8541046"><ele>106.00000000000001</ele><time>2026-04-26T08:52:41.648Z</time></trkpt><trkpt lat="45.6141748" lon="10.8541034"><ele>106.0</ele><time>2026-04-26T08:52:42.651Z</time></trkpt><trkpt lat="45.6141047" lon="10.8540987"><ele>105.85714285714286</ele><time>2026-04-26T08:52:43.655Z</time></trkpt><trkpt lat="45.614038" lon="10.8541125"><ele>105.71428571428571</ele><time>2026-04-26T08:52:44.655Z</time></trkpt><trkpt lat="45.6139666" lon="10.8541176"><ele>105.57142857142857</ele><time>2026-04-26T08:52:45.651Z</time></trkpt><trkpt lat="45.6138929" lon="10.8541233"><ele>105.42857142857143</ele><time>2026-04-26T08:52:46.651Z</time></trkpt><trkpt lat="45.6138203" lon="10.8541245"><ele>105.28571428571428</ele><time>2026-04-26T08:52:47.649Z</time></trkpt><trkpt lat="45.6137512" lon="10.8541383"><ele>105.14285714285714</ele><time>2026-04-26T08:52:48.642Z</time></trkpt><trkpt lat="45.6136618" lon="10.8541421"><ele>105.0</ele><time>2026-04-26T08:52:49.642Z</time></trkpt><trkpt lat="45.6135617" lon="10.8541638"><ele>105.0</ele><time>2026-04-26T08:52:50.652Z</time></trkpt><trkpt lat="45.6134731" lon="10.8541719"><ele>105.0</ele><time>2026-04-26T08:52:51.646Z</time></trkpt><trkpt lat="45.6133833" lon="10.8541737"><ele>105.0</ele><time>2026-04-26T08:52:52.654Z</time></trkpt><trkpt lat="45.6132885" lon="10.8541759"><ele>105.0</ele><time>2026-04-26T08:52:53.654Z</time></trkpt><trkpt lat="45.6131863" lon="10.8541793"><ele>105.0</ele><time>2026-04-26T08:52:54.652Z</time></trkpt><trkpt lat="45.6130902" lon="10.8541824"><ele>105.0</ele><time>2026-04-26T08:52:55.657Z</time></trkpt><trkpt lat="45.6129934" lon="10.8541906"><ele>105.0</ele><time>2026-04-26T08:52:56.661Z</time></trkpt><trkpt lat="45.6129104" lon="10.854207"><ele>105.0</ele><time>2026-04-26T08:52:57.656Z</time></trkpt><trkpt lat="45.6128251" lon="10.8542193"><ele>105.0</ele><time>2026-04-26T08:52:58.658Z</time></trkpt><trkpt lat="45.6127338" lon="10.8542278"><ele>105.0</ele><time>2026-04-26T08:52:59.657Z</time></trkpt><trkpt lat="45.6126468" lon="10.8542384"><ele>105.0</ele><time>2026-04-26T08:53:00.655Z</time></trkpt><trkpt lat="45.612554" lon="10.8542545"><ele>105.4</ele><time>2026-04-26T08:53:01.655Z</time></trkpt><trkpt lat="45.6124606" lon="10.8542862"><ele>105.8</ele><time>2026-04-26T08:53:02.651Z</time></trkpt><trkpt lat="45.6123738" lon="10.8543272"><ele>106.19999999999999</ele><time>2026-04-26T08:53:03.657Z</time></trkpt><trkpt lat="45.6122877" lon="10.8543649"><ele>106.6</ele><time>2026-04-26T08:53:04.658Z</time></trkpt><trkpt lat="45.6122015" lon="10.8544109"><ele>107.0</ele><time>2026-04-26T08:53:05.655Z</time></trkpt><trkpt lat="45.6121048" lon="10.8544676"><ele>107.6</ele><time>2026-04-26T08:53:06.657Z</time></trkpt><trkpt lat="45.6120124" lon="10.8545159"><ele>108.19999999999999</ele><time>2026-04-26T08:53:07.656Z</time></trkpt><trkpt lat="45.611915" lon="10.8545665"><ele>108.8</ele><time>2026-04-26T08:53:08.655Z</time></trkpt><trkpt lat="45.6118092" lon="10.8545995"><ele>109.4</ele><time>2026-04-26T08:53:09.656Z</time></trkpt><trkpt lat="45.6117052" lon="10.8546297"><ele>110.0</ele><time>2026-04-26T08:53:10.656Z</time></trkpt><trkpt lat="45.6116206" lon="10.8546572"><ele>109.99999999999999</ele><time>2026-04-26T08:53:11.656Z</time></trkpt><trkpt lat="45.6115419" lon="10.8546852"><ele>110.0</ele><time>2026-04-26T08:53:12.654Z</time></trkpt><trkpt lat="45.6114674" lon="10.8547165"><ele>110.0</ele><time>2026-04-26T08:53:13.659Z</time></trkpt><trkpt lat="45.6114" lon="10.8547399"><ele>110.0</ele><time>2026-04-26T08:53:14.66Z</time></trkpt><trkpt lat="45.6113348" lon="10.8547631"><ele>109.99999999999999</ele><time>2026-04-26T08:53:15.661Z</time></trkpt><trkpt lat="45.6112198" lon="10.8548138"><ele>110.0</ele><time>2026-04-26T08:53:17.665Z</time></trkpt><trkpt lat="45.611117" lon="10.8548728"><ele>109.4</ele><time>2026-04-26T08:53:19.663Z</time></trkpt><trkpt lat="45.6110134" lon="10.854926"><ele>108.8</ele><time>2026-04-26T08:53:21.666Z</time></trkpt><trkpt lat="45.6109139" lon="10.8549958"><ele>108.19999999999999</ele><time>2026-04-26T08:53:23.665Z</time></trkpt><trkpt lat="45.6108145" lon="10.8550897"><ele>107.6</ele><time>2026-04-26T08:53:25.669Z</time></trkpt><trkpt lat="45.6107312" lon="10.8551693"><ele>107.0</ele><time>2026-04-26T08:53:27.673Z</time></trkpt><trkpt lat="45.6106696" lon="10.8552415"><ele>108.49999999999999</ele><time>2026-04-26T08:53:29.667Z</time></trkpt><trkpt lat="45.6106124" lon="10.8553101"><ele>110.0</ele><time>2026-04-26T08:53:32.674Z</time></trkpt><trkpt lat="45.6105954" lon="10.8554027"><ele>111.5</ele><time>2026-04-26T08:53:39.669Z</time></trkpt><trkpt lat="45.6105603" lon="10.8554975"><ele>113.0</ele><time>2026-04-26T08:53:43.663Z</time></trkpt><trkpt lat="45.6105197" lon="10.8556117"><ele>114.49999999999999</ele><time>2026-04-26T08:53:46.669Z</time></trkpt><trkpt lat="45.6104808" lon="10.8557271"><ele>116.0</ele><time>2026-04-26T08:53:48.669Z</time></trkpt><trkpt lat="45.6104434" lon="10.8559302"><ele>116.4</ele><time>2026-04-26T08:53:50.667Z</time></trkpt><trkpt lat="45.6104201" lon="10.8560458"><ele>116.8</ele><time>2026-04-26T08:53:51.669Z</time></trkpt><trkpt lat="45.6103853" lon="10.8561656"><ele>117.20000000000002</ele><time>2026-04-26T08:53:52.67Z</time></trkpt><trkpt lat="45.6103362" lon="10.8562892"><ele>117.60000000000001</ele><time>2026-04-26T08:53:53.665Z</time></trkpt><trkpt lat="45.6102741" lon="10.8564107"><ele>118.0</ele><time>2026-04-26T08:53:54.665Z</time></trkpt><trkpt lat="45.6102122" lon="10.8565165"><ele>117.66666666666667</ele><time>2026-04-26T08:53:55.66Z</time></trkpt><trkpt lat="45.6101415" lon="10.8566119"><ele>117.33333333333334</ele><time>2026-04-26T08:53:56.661Z</time></trkpt><trkpt lat="45.6100675" lon="10.8567045"><ele>117.0</ele><time>2026-04-26T08:53:57.666Z</time></trkpt><trkpt lat="45.6100014" lon="10.8567923"><ele>116.66666666666666</ele><time>2026-04-26T08:53:58.664Z</time></trkpt><trkpt lat="45.609943" lon="10.8568679"><ele>116.33333333333333</ele><time>2026-04-26T08:53:59.666Z</time></trkpt><trkpt lat="45.6098832" lon="10.8569237"><ele>116.0</ele><time>2026-04-26T08:54:00.667Z</time></trkpt><trkpt lat="45.6098185" lon="10.8569691"><ele>115.99999999999999</ele><time>2026-04-26T08:54:01.663Z</time></trkpt><trkpt lat="45.6097477" lon="10.8570036"><ele>116.0</ele><time>2026-04-26T08:54:02.666Z</time></trkpt><trkpt lat="45.6096712" lon="10.8570244"><ele>116.0</ele><time>2026-04-26T08:54:03.664Z</time></trkpt><trkpt lat="45.6095938" lon="10.8570294"><ele>116.0</ele><time>2026-04-26T08:54:04.667Z</time></trkpt><trkpt lat="45.6095121" lon="10.857033"><ele>115.99999999999999</ele><time>2026-04-26T08:54:05.672Z</time></trkpt><trkpt lat="45.6094335" lon="10.8570407"><ele>116.0</ele><time>2026-04-26T08:54:06.666Z</time></trkpt><trkpt lat="45.6093643" lon="10.8570504"><ele>115.83333333333333</ele><time>2026-04-26T08:54:07.67Z</time></trkpt><trkpt lat="45.6093004" lon="10.8570653"><ele>115.66666666666666</ele><time>2026-04-26T08:54:08.672Z</time></trkpt><trkpt lat="45.6091978" lon="10.8570849"><ele>115.5</ele><time>2026-04-26T08:54:10.671Z</time></trkpt><trkpt lat="45.6091254" lon="10.8570827"><ele>115.33333333333334</ele><time>2026-04-26T08:54:12.667Z</time></trkpt><trkpt lat="45.6090555" lon="10.8570674"><ele>115.16666666666667</ele><time>2026-04-26T08:54:15.667Z</time></trkpt><trkpt lat="45.6089728" lon="10.857032"><ele>115.0</ele><time>2026-04-26T08:54:17.667Z</time></trkpt><trkpt lat="45.6089089" lon="10.8569985"><ele>115.0</ele><time>2026-04-26T08:54:18.667Z</time></trkpt><trkpt lat="45.6088401" lon="10.8569591"><ele>115.0</ele><time>2026-04-26T08:54:19.667Z</time></trkpt><trkpt lat="45.6087663" lon="10.8569229"><ele>115.0</ele><time>2026-04-26T08:54:20.67Z</time></trkpt><trkpt lat="45.6086705" lon="10.8568798"><ele>115.0</ele><time>2026-04-26T08:54:21.656Z</time></trkpt><trkpt lat="45.6085689" lon="10.8568311"><ele>115.0</ele><time>2026-04-26T08:54:22.679Z</time></trkpt><trkpt lat="45.6084634" lon="10.8567777"><ele>113.4</ele><time>2026-04-26T08:54:23.672Z</time></trkpt><trkpt lat="45.6083544" lon="10.8567268"><ele>111.8</ele><time>2026-04-26T08:54:24.669Z</time></trkpt><trkpt lat="45.6082484" lon="10.8566744"><ele>110.19999999999999</ele><time>2026-04-26T08:54:25.674Z</time></trkpt><trkpt lat="45.6081449" lon="10.8566231"><ele>108.6</ele><time>2026-04-26T08:54:26.67Z</time></trkpt><trkpt lat="45.6080407" lon="10.8565624"><ele>107.0</ele><time>2026-04-26T08:54:27.669Z</time></trkpt><trkpt lat="45.6079417" lon="10.8565059"><ele>107.0</ele><time>2026-04-26T08:54:28.673Z</time></trkpt><trkpt lat="45.6078484" lon="10.8564466"><ele>106.99999999999999</ele><time>2026-04-26T08:54:29.666Z</time></trkpt><trkpt lat="45.6077616" lon="10.8563923"><ele>106.99999999999999</ele><time>2026-04-26T08:54:30.666Z</time></trkpt><trkpt lat="45.6076995" lon="10.8563457"><ele>107.0</ele><time>2026-04-26T08:54:31.663Z</time></trkpt><trkpt lat="45.6075947" lon="10.8563297"><ele>107.0</ele><time>2026-04-26T08:54:33.668Z</time></trkpt><trkpt lat="45.6075085" lon="10.8564135"><ele>107.39999999999999</ele><time>2026-04-26T08:54:35.661Z</time></trkpt><trkpt lat="45.6074395" lon="10.8565581"><ele>107.79999999999998</ele><time>2026-04-26T08:54:37.652Z</time></trkpt><trkpt lat="45.6074306" lon="10.8566535"><ele>108.2</ele><time>2026-04-26T08:54:38.657Z</time></trkpt><trkpt lat="45.6073727" lon="10.8567704"><ele>108.6</ele><time>2026-04-26T08:54:40.663Z</time></trkpt><trkpt lat="45.6072839" lon="10.8567345"><ele>109.0</ele><time>2026-04-26T08:54:42.665Z</time></trkpt><trkpt lat="45.6072042" lon="10.8566515"><ele>109.0</ele><time>2026-04-26T08:54:44.669Z</time></trkpt><trkpt lat="45.6071395" lon="10.8565674"><ele>109.0</ele><time>2026-04-26T08:54:47.68Z</time></trkpt><trkpt lat="45.6071903" lon="10.8566751"><ele>109.0</ele><time>2026-04-26T08:56:24.679Z</time></trkpt><trkpt lat="45.6073226" lon="10.8567175"><ele>109.0</ele><time>2026-04-26T08:56:26.788Z</time></trkpt><trkpt lat="45.6073942" lon="10.8567455"><ele>109.0</ele><time>2026-04-26T08:56:27.796Z</time></trkpt><trkpt lat="45.607507" lon="10.8567956"><ele>109.0</ele><time>2026-04-26T08:56:29.686Z</time></trkpt><trkpt lat="45.6075844" lon="10.8567797"><ele>109.0</ele><time>2026-04-26T08:56:31.681Z</time></trkpt><trkpt lat="45.6076345" lon="10.8566832"><ele>109.0</ele><time>2026-04-26T08:56:33.668Z</time></trkpt><trkpt lat="45.6076845" lon="10.8565414"><ele>109.0</ele><time>2026-04-26T08:56:35.679Z</time></trkpt><trkpt lat="45.6076865" lon="10.856396"><ele>109.0</ele><time>2026-04-26T08:56:37.663Z</time></trkpt><trkpt lat="45.6077657" lon="10.8563599"><ele>108.6</ele><time>2026-04-26T08:56:41.664Z</time></trkpt><trkpt lat="45.6078601" lon="10.856451"><ele>108.2</ele><time>2026-04-26T08:56:43.681Z</time></trkpt><trkpt lat="45.6079192" lon="10.8564904"><ele>107.79999999999998</ele><time>2026-04-26T08:56:44.688Z</time></trkpt><trkpt lat="45.6080285" lon="10.8565644"><ele>107.39999999999999</ele><time>2026-04-26T08:56:46.678Z</time></trkpt><trkpt lat="45.6081363" lon="10.8566329"><ele>107.0</ele><time>2026-04-26T08:56:48.675Z</time></trkpt><trkpt lat="45.608238" lon="10.8566809"><ele>107.0</ele><time>2026-04-26T08:56:50.68Z</time></trkpt><trkpt lat="45.6083497" lon="10.8567316"><ele>106.99999999999999</ele><time>2026-04-26T08:56:52.684Z</time></trkpt><trkpt lat="45.6084659" lon="10.8567926"><ele>106.99999999999999</ele><time>2026-04-26T08:56:54.677Z</time></trkpt><trkpt lat="45.6085483" lon="10.8568403"><ele>107.0</ele><time>2026-04-26T08:56:56.676Z</time></trkpt><trkpt lat="45.6084601" lon="10.8568111"><ele>107.0</ele><time>2026-04-26T08:57:00.67Z</time></trkpt><trkpt lat="45.6083693" lon="10.8567844"><ele>107.0</ele><time>2026-04-26T08:57:01.673Z</time></trkpt><trkpt lat="45.608279" lon="10.8567311"><ele>106.99999999999999</ele><time>2026-04-26T08:57:02.67Z</time></trkpt><trkpt lat="45.6081884" lon="10.8566646"><ele>106.99999999999999</ele><time>2026-04-26T08:57:03.671Z</time></trkpt><trkpt lat="45.6080897" lon="10.8565961"><ele>107.0</ele><time>2026-04-26T08:57:04.67Z</time></trkpt><trkpt lat="45.6079961" lon="10.8565365"><ele>107.0</ele><time>2026-04-26T08:57:05.674Z</time></trkpt><trkpt lat="45.6079075" lon="10.8564803"><ele>106.99999999999999</ele><time>2026-04-26T08:57:06.675Z</time></trkpt><trkpt lat="45.6078334" lon="10.8564251"><ele>107.0</ele><time>2026-04-26T08:57:07.675Z</time></trkpt><trkpt lat="45.6077615" lon="10.8563817"><ele>107.0</ele><time>2026-04-26T08:57:08.68Z</time></trkpt><trkpt lat="45.6076934" lon="10.8563536"><ele>107.0</ele><time>2026-04-26T08:57:09.678Z</time></trkpt><trkpt lat="45.6076288" lon="10.856341"><ele>106.99999999999999</ele><time>2026-04-26T08:57:10.678Z</time></trkpt><trkpt lat="45.6075216" lon="10.8563926"><ele>107.0</ele><time>2026-04-26T08:57:12.669Z</time></trkpt><trkpt lat="45.6074407" lon="10.8564793"><ele>107.39999999999999</ele><time>2026-04-26T08:57:14.663Z</time></trkpt><trkpt lat="45.6074054" lon="10.8565583"><ele>107.79999999999998</ele><time>2026-04-26T08:57:15.657Z</time></trkpt><trkpt lat="45.607384" lon="10.85672"><ele>108.2</ele><time>2026-04-26T08:57:17.665Z</time></trkpt><trkpt lat="45.6073208" lon="10.8567754"><ele>108.6</ele><time>2026-04-26T08:57:19.669Z</time></trkpt><trkpt lat="45.6072046" lon="10.8567255"><ele>109.0</ele><time>2026-04-26T08:57:21.679Z</time></trkpt><trkpt lat="45.6070981" lon="10.8566605"><ele>110.2</ele><time>2026-04-26T08:57:23.683Z</time></trkpt><trkpt lat="45.6069734" lon="10.8565857"><ele>111.4</ele><time>2026-04-26T08:57:25.678Z</time></trkpt><trkpt lat="45.6068958" lon="10.8565372"><ele>112.6</ele><time>2026-04-26T08:57:26.681Z</time></trkpt><trkpt lat="45.6068182" lon="10.8564721"><ele>113.8</ele><time>2026-04-26T08:57:27.681Z</time></trkpt><trkpt lat="45.6067319" lon="10.8564038"><ele>115.0</ele><time>2026-04-26T08:57:28.685Z</time></trkpt><trkpt lat="45.6066415" lon="10.8563187"><ele>115.0</ele><time>2026-04-26T08:57:29.679Z</time></trkpt><trkpt lat="45.6065386" lon="10.8562324"><ele>115.0</ele><time>2026-04-26T08:57:30.68Z</time></trkpt><trkpt lat="45.6064315" lon="10.8561344"><ele>115.0</ele><time>2026-04-26T08:57:31.687Z</time></trkpt><trkpt lat="45.6063266" lon="10.8560319"><ele>115.0</ele><time>2026-04-26T08:57:32.687Z</time></trkpt><trkpt lat="45.6062177" lon="10.8559232"><ele>116.25</ele><time>2026-04-26T08:57:33.689Z</time></trkpt><trkpt lat="45.6061174" lon="10.8558033"><ele>117.5</ele><time>2026-04-26T08:57:34.686Z</time></trkpt><trkpt lat="45.6060141" lon="10.8556719"><ele>118.75</ele><time>2026-04-26T08:57:35.685Z</time></trkpt><trkpt lat="45.6059163" lon="10.8555325"><ele>120.0</ele><time>2026-04-26T08:57:36.683Z</time></trkpt><trkpt lat="45.6058252" lon="10.8553818"><ele>120.0</ele><time>2026-04-26T08:57:37.682Z</time></trkpt><trkpt lat="45.6057358" lon="10.8552336"><ele>120.0</ele><time>2026-04-26T08:57:38.684Z</time></trkpt><trkpt lat="45.6056464" lon="10.8550837"><ele>120.0</ele><time>2026-04-26T08:57:39.678Z</time></trkpt><trkpt lat="45.605561" lon="10.8549339"><ele>120.0</ele><time>2026-04-26T08:57:40.68Z</time></trkpt><trkpt lat="45.605469" lon="10.8547898"><ele>121.0</ele><time>2026-04-26T08:57:41.674Z</time></trkpt><trkpt lat="45.6053789" lon="10.8546466"><ele>122.0</ele><time>2026-04-26T08:57:42.675Z</time></trkpt><trkpt lat="45.6052713" lon="10.8545131"><ele>123.0</ele><time>2026-04-26T08:57:43.68Z</time></trkpt><trkpt lat="45.6051553" lon="10.8543862"><ele>124.0</ele><time>2026-04-26T08:57:44.68Z</time></trkpt><trkpt lat="45.605033" lon="10.8542623"><ele>119.5</ele><time>2026-04-26T08:57:45.669Z</time></trkpt><trkpt lat="45.6048048" lon="10.8539853"><ele>115.0</ele><time>2026-04-26T08:57:47.679Z</time></trkpt><trkpt lat="45.6046842" lon="10.8538564"><ele>115.0</ele><time>2026-04-26T08:57:48.691Z</time></trkpt><trkpt lat="45.604576" lon="10.8537188"><ele>115.0</ele><time>2026-04-26T08:57:49.684Z</time></trkpt><trkpt lat="45.6044654" lon="10.8535866"><ele>115.0</ele><time>2026-04-26T08:57:50.687Z</time></trkpt><trkpt lat="45.6043428" lon="10.8534601"><ele>115.0</ele><time>2026-04-26T08:57:51.689Z</time></trkpt><trkpt lat="45.6042295" lon="10.8533423"><ele>115.25</ele><time>2026-04-26T08:57:52.695Z</time></trkpt><trkpt lat="45.6041175" lon="10.8532347"><ele>115.5</ele><time>2026-04-26T08:57:53.685Z</time></trkpt><trkpt lat="45.6039976" lon="10.8531318"><ele>115.75</ele><time>2026-04-26T08:57:54.683Z</time></trkpt><trkpt lat="45.6038785" lon="10.853033"><ele>116.0</ele><time>2026-04-26T08:57:55.685Z</time></trkpt><trkpt lat="45.6037559" lon="10.8529432"><ele>117.75</ele><time>2026-04-26T08:57:56.686Z</time></trkpt><trkpt lat="45.6036309" lon="10.8528752"><ele>119.5</ele><time>2026-04-26T08:57:57.681Z</time></trkpt><trkpt lat="45.6035243" lon="10.8528118"><ele>121.25</ele><time>2026-04-26T08:57:58.688Z</time></trkpt><trkpt lat="45.6034256" lon="10.8527544"><ele>123.0</ele><time>2026-04-26T08:57:59.688Z</time></trkpt><trkpt lat="45.603327" lon="10.8527092"><ele>123.0</ele><time>2026-04-26T08:58:00.683Z</time></trkpt><trkpt lat="45.6032393" lon="10.8526692"><ele>123.0</ele><time>2026-04-26T08:58:01.685Z</time></trkpt><trkpt lat="45.6031583" lon="10.8526318"><ele>123.0</ele><time>2026-04-26T08:58:02.684Z</time></trkpt><trkpt lat="45.6030811" lon="10.8525965"><ele>123.0</ele><time>2026-04-26T08:58:03.685Z</time></trkpt><trkpt lat="45.603011" lon="10.8525675"><ele>123.0</ele><time>2026-04-26T08:58:04.685Z</time></trkpt><trkpt lat="45.6029475" lon="10.852553"><ele>123.0</ele><time>2026-04-26T08:58:05.69Z</time></trkpt><trkpt lat="45.6028635" lon="10.8525756"><ele>123.0</ele><time>2026-04-26T08:58:07.685Z</time></trkpt><trkpt lat="45.6028906" lon="10.8526664"><ele>123.00000000000001</ele><time>2026-04-26T08:58:09.679Z</time></trkpt><trkpt lat="45.6029725" lon="10.8527147"><ele>123.00000000000001</ele><time>2026-04-26T08:58:11.739Z</time></trkpt><trkpt lat="45.6030901" lon="10.8527259"><ele>123.0</ele><time>2026-04-26T08:58:13.678Z</time></trkpt><trkpt lat="45.6031669" lon="10.8527309"><ele>123.0</ele><time>2026-04-26T08:58:14.677Z</time></trkpt><trkpt lat="45.6032712" lon="10.8527498"><ele>123.0</ele><time>2026-04-26T08:58:15.678Z</time></trkpt><trkpt lat="45.6033922" lon="10.8527936"><ele>123.0</ele><time>2026-04-26T08:58:16.682Z</time></trkpt><trkpt lat="45.6035176" lon="10.8528466"><ele>123.0</ele><time>2026-04-26T08:58:17.683Z</time></trkpt><trkpt lat="45.6036551" lon="10.8529209"><ele>123.0</ele><time>2026-04-26T08:58:18.679Z</time></trkpt><trkpt lat="45.6037941" lon="10.853013"><ele>120.66666666666666</ele><time>2026-04-26T08:58:19.677Z</time></trkpt><trkpt lat="45.60395" lon="10.8531301"><ele>118.33333333333333</ele><time>2026-04-26T08:58:20.687Z</time></trkpt><trkpt lat="45.6041054" lon="10.8532666"><ele>116.0</ele><time>2026-04-26T08:58:21.682Z</time></trkpt><trkpt lat="45.6042718" lon="10.8534149"><ele>115.66666666666666</ele><time>2026-04-26T08:58:22.669Z</time></trkpt><trkpt lat="45.6044204" lon="10.8535812"><ele>115.33333333333334</ele><time>2026-04-26T08:58:23.679Z</time></trkpt><trkpt lat="45.6045731" lon="10.8537503"><ele>115.0</ele><time>2026-04-26T08:58:24.676Z</time></trkpt><trkpt lat="45.6047321" lon="10.8539161"><ele>115.0</ele><time>2026-04-26T08:58:25.678Z</time></trkpt><trkpt lat="45.6048867" lon="10.8540821"><ele>115.0</ele><time>2026-04-26T08:58:26.682Z</time></trkpt><trkpt lat="45.6050357" lon="10.8542498"><ele>115.0</ele><time>2026-04-26T08:58:27.679Z</time></trkpt><trkpt lat="45.6051879" lon="10.8544239"><ele>114.33333333333334</ele><time>2026-04-26T08:58:28.679Z</time></trkpt><trkpt lat="45.6053292" lon="10.8545837"><ele>113.66666666666666</ele><time>2026-04-26T08:58:29.668Z</time></trkpt><trkpt lat="45.6054741" lon="10.8547484"><ele>113.0</ele><time>2026-04-26T08:58:30.671Z</time></trkpt><trkpt lat="45.6056072" lon="10.8549227"><ele>113.0</ele><time>2026-04-26T08:58:31.666Z</time></trkpt><trkpt lat="45.6057239" lon="10.8551183"><ele>113.0</ele><time>2026-04-26T08:58:32.675Z</time></trkpt><trkpt lat="45.6058306" lon="10.855328"><ele>113.0</ele><time>2026-04-26T08:58:33.661Z</time></trkpt><trkpt lat="45.6059457" lon="10.8555207"><ele>113.66666666666666</ele><time>2026-04-26T08:58:34.679Z</time></trkpt><trkpt lat="45.6060752" lon="10.8557169"><ele>114.33333333333334</ele><time>2026-04-26T08:58:35.669Z</time></trkpt><trkpt lat="45.6062021" lon="10.8558979"><ele>115.0</ele><time>2026-04-26T08:58:36.669Z</time></trkpt><trkpt lat="45.606342" lon="10.8560457"><ele>115.0</ele><time>2026-04-26T08:58:37.672Z</time></trkpt><trkpt lat="45.606486" lon="10.8561731"><ele>115.0</ele><time>2026-04-26T08:58:38.676Z</time></trkpt><trkpt lat="45.6066211" lon="10.8562854"><ele>115.0</ele><time>2026-04-26T08:58:39.667Z</time></trkpt><trkpt lat="45.6067509" lon="10.8563937"><ele>115.0</ele><time>2026-04-26T08:58:40.671Z</time></trkpt><trkpt lat="45.6068607" lon="10.8564946"><ele>115.0</ele><time>2026-04-26T08:58:41.676Z</time></trkpt><trkpt lat="45.6069644" lon="10.8565791"><ele>115.0</ele><time>2026-04-26T08:58:42.679Z</time></trkpt><trkpt lat="45.607062" lon="10.856644"><ele>115.0</ele><time>2026-04-26T08:58:43.675Z</time></trkpt><trkpt lat="45.6071559" lon="10.8567028"><ele>115.66666666666667</ele><time>2026-04-26T08:58:44.677Z</time></trkpt><trkpt lat="45.6072534" lon="10.8567351"><ele>116.33333333333334</ele><time>2026-04-26T08:58:45.666Z</time></trkpt><trkpt lat="45.6073529" lon="10.8567626"><ele>117.0</ele><time>2026-04-26T08:58:46.677Z</time></trkpt><trkpt lat="45.6074366" lon="10.856785"><ele>117.66666666666666</ele><time>2026-04-26T08:58:47.673Z</time></trkpt><trkpt lat="45.6075086" lon="10.8567976"><ele>118.33333333333333</ele><time>2026-04-26T08:58:48.665Z</time></trkpt><trkpt lat="45.6075724" lon="10.8567963"><ele>119.0</ele><time>2026-04-26T08:58:49.678Z</time></trkpt><trkpt lat="45.6076515" lon="10.85668"><ele>117.0</ele><time>2026-04-26T08:58:51.661Z</time></trkpt><trkpt lat="45.6076913" lon="10.8566034"><ele>115.0</ele><time>2026-04-26T08:58:52.646Z</time></trkpt><trkpt lat="45.6077444" lon="10.8564758"><ele>113.0</ele><time>2026-04-26T08:58:54.648Z</time></trkpt><trkpt lat="45.6077824" lon="10.8564011"><ele>111.0</ele><time>2026-04-26T08:58:56.657Z</time></trkpt><trkpt lat="45.6078929" lon="10.8564786"><ele>109.0</ele><time>2026-04-26T08:58:58.67Z</time></trkpt><trkpt lat="45.6079963" lon="10.8565526"><ele>108.33333333333334</ele><time>2026-04-26T08:58:59.649Z</time></trkpt><trkpt lat="45.6081467" lon="10.8566424"><ele>107.66666666666666</ele><time>2026-04-26T08:59:00.666Z</time></trkpt><trkpt lat="45.6083098" lon="10.8567343"><ele>107.0</ele><time>2026-04-26T08:59:01.661Z</time></trkpt><trkpt lat="45.6084691" lon="10.8568107"><ele>109.66666666666666</ele><time>2026-04-26T08:59:02.657Z</time></trkpt><trkpt lat="45.6086279" lon="10.8568834"><ele>112.33333333333334</ele><time>2026-04-26T08:59:03.656Z</time></trkpt><trkpt lat="45.6087954" lon="10.8569484"><ele>115.0</ele><time>2026-04-26T08:59:04.655Z</time></trkpt><trkpt lat="45.6089565" lon="10.8569971"><ele>115.0</ele><time>2026-04-26T08:59:05.654Z</time></trkpt><trkpt lat="45.6090997" lon="10.8570512"><ele>115.0</ele><time>2026-04-26T08:59:06.65Z</time></trkpt><trkpt lat="45.6092063" lon="10.8571053"><ele>115.0</ele><time>2026-04-26T08:59:07.649Z</time></trkpt><trkpt lat="45.6092805" lon="10.8571493"><ele>115.0</ele><time>2026-04-26T08:59:08.656Z</time></trkpt><trkpt lat="45.6093849" lon="10.8571817"><ele>115.0</ele><time>2026-04-26T08:59:10.656Z</time></trkpt><trkpt lat="45.6095176" lon="10.8571292"><ele>115.2</ele><time>2026-04-26T08:59:12.663Z</time></trkpt><trkpt lat="45.6096109" lon="10.8571073"><ele>115.4</ele><time>2026-04-26T08:59:13.67Z</time></trkpt><trkpt lat="45.6097108" lon="10.8570996"><ele>115.6</ele><time>2026-04-26T08:59:14.662Z</time></trkpt><trkpt lat="45.6098175" lon="10.8570947"><ele>115.8</ele><time>2026-04-26T08:59:15.653Z</time></trkpt><trkpt lat="45.6099259" lon="10.857087"><ele>116.0</ele><time>2026-04-26T08:59:16.662Z</time></trkpt><trkpt lat="45.6100305" lon="10.857078"><ele>115.99999999999999</ele><time>2026-04-26T08:59:17.656Z</time></trkpt><trkpt lat="45.610116" lon="10.8570891"><ele>116.0</ele><time>2026-04-26T08:59:18.668Z</time></trkpt><trkpt lat="45.6101951" lon="10.8571502"><ele>116.0</ele><time>2026-04-26T08:59:19.659Z</time></trkpt><trkpt lat="45.6102712" lon="10.8572284"><ele>116.0</ele><time>2026-04-26T08:59:20.661Z</time></trkpt><trkpt lat="45.6103335" lon="10.857294"><ele>115.99999999999999</ele><time>2026-04-26T08:59:21.662Z</time></trkpt><trkpt lat="45.6103893" lon="10.8573585"><ele>116.0</ele><time>2026-04-26T08:59:22.668Z</time></trkpt><trkpt lat="45.6104679" lon="10.8574444"><ele>115.99999999999999</ele><time>2026-04-26T08:59:24.662Z</time></trkpt><trkpt lat="45.6105469" lon="10.8575003"><ele>116.0</ele><time>2026-04-26T08:59:27.666Z</time></trkpt><trkpt lat="45.610602" lon="10.85755"><ele>116.0</ele><time>2026-04-26T08:59:29.666Z</time></trkpt><trkpt lat="45.6106634" lon="10.8576076"><ele>116.0</ele><time>2026-04-26T08:59:31.668Z</time></trkpt><trkpt lat="45.6107248" lon="10.857666"><ele>115.99999999999999</ele><time>2026-04-26T08:59:33.663Z</time></trkpt><trkpt lat="45.6107774" lon="10.8575952"><ele>116.0</ele><time>2026-04-26T08:59:37.663Z</time></trkpt><trkpt lat="45.6107449" lon="10.8591914"><ele>129.0</ele><time>2026-04-26T09:16:01.707Z</time></trkpt><trkpt lat="45.6131764" lon="10.8611428"><ele>126.0</ele><time>2026-04-26T09:16:22.683Z</time></trkpt><trkpt lat="45.6156567" lon="10.8627003"><ele>128.0</ele><time>2026-04-26T09:16:44.738Z</time></trkpt><trkpt lat="45.6181635" lon="10.8644159"><ele>138.0</ele><time>2026-04-26T09:17:03.72Z</time></trkpt><trkpt lat="45.6201735" lon="10.867055"><ele>134.0</ele><time>2026-04-26T09:17:22.744Z</time></trkpt><trkpt lat="45.6224595" lon="10.8694395"><ele>128.0</ele><time>2026-04-26T09:17:41.657Z</time></trkpt><trkpt lat="45.6245855" lon="10.8718472"><ele>118.0</ele><time>2026-04-26T09:17:59.692Z</time></trkpt><trkpt lat="45.627022" lon="10.8739222"><ele>117.0</ele><time>2026-04-26T09:18:18.666Z</time></trkpt><trkpt lat="45.6288558" lon="10.8767475"><ele>147.0</ele><time>2026-04-26T09:18:36.699Z</time></trkpt><trkpt lat="45.6311009" lon="10.8789576"><ele>128.0</ele><time>2026-04-26T09:18:54.688Z</time></trkpt><trkpt lat="45.6337923" lon="10.8801343"><ele>131.0</ele><time>2026-04-26T09:19:13.733Z</time></trkpt><trkpt lat="45.6356973" lon="10.882903"><ele>140.0</ele><time>2026-04-26T09:19:32.709Z</time></trkpt><trkpt lat="45.6377887" lon="10.8855965"><ele>142.0</ele><time>2026-04-26T09:19:51.725Z</time></trkpt><trkpt lat="45.6396973" lon="10.8884785"><ele>138.0</ele><time>2026-04-26T09:20:11.676Z</time></trkpt><trkpt lat="45.6421996" lon="10.8899588"><ele>128.0</ele><time>2026-04-26T09:20:30.717Z</time></trkpt><trkpt lat="45.6447081" lon="10.8916823"><ele>121.0</ele><time>2026-04-26T09:20:49.695Z</time></trkpt><trkpt lat="45.6461361" lon="10.8949672"><ele>135.0</ele><time>2026-04-26T09:21:07.698Z</time></trkpt><trkpt lat="45.6484374" lon="10.8973169"><ele>143.0</ele><time>2026-04-26T09:21:27.698Z</time></trkpt><trkpt lat="45.6509465" lon="10.8987675"><ele>134.0</ele><time>2026-04-26T09:21:45.698Z</time></trkpt><trkpt lat="45.6533197" lon="10.9006668"><ele>144.0</ele><time>2026-04-26T09:22:04.702Z</time></trkpt><trkpt lat="45.6559725" lon="10.9018807"><ele>134.0</ele><time>2026-04-26T09:22:28.709Z</time></trkpt><trkpt lat="45.6533303" lon="10.9006606"><ele>143.0</ele><time>2026-04-26T09:28:24.701Z</time></trkpt><trkpt lat="45.6509301" lon="10.8987731"><ele>158.0</ele><time>2026-04-26T09:28:42.681Z</time></trkpt><trkpt lat="45.6477722" lon="10.8968457"><ele>123.0</ele><time>2026-04-26T09:29:02.688Z</time></trkpt><trkpt lat="45.6453041" lon="10.893286"><ele>138.0</ele><time>2026-04-26T09:29:23.706Z</time></trkpt><trkpt lat="45.642728" lon="10.8899581"><ele>131.0</ele><time>2026-04-26T09:29:45.698Z</time></trkpt><trkpt lat="45.6394837" lon="10.888125"><ele>132.0</ele><time>2026-04-26T09:30:06.707Z</time></trkpt><trkpt lat="45.637045" lon="10.8846868"><ele>122.0</ele><time>2026-04-26T09:30:26.707Z</time></trkpt><trkpt lat="45.6347886" lon="10.8809261"><ele>153.0</ele><time>2026-04-26T09:30:46.703Z</time></trkpt><trkpt lat="45.631524" lon="10.8793593"><ele>117.0</ele><time>2026-04-26T09:31:05.717Z</time></trkpt><trkpt lat="45.6286907" lon="10.8765822"><ele>121.0</ele><time>2026-04-26T09:31:24.716Z</time></trkpt><trkpt lat="45.6261715" lon="10.8730747"><ele>132.0</ele><time>2026-04-26T09:31:43.705Z</time></trkpt><trkpt lat="45.6233317" lon="10.8703496"><ele>119.0</ele><time>2026-04-26T09:32:02.69Z</time></trkpt><trkpt lat="45.6204717" lon="10.8674848"><ele>118.0</ele><time>2026-04-26T09:32:21.709Z</time></trkpt><trkpt lat="45.6178467" lon="10.8641026"><ele>124.0</ele><time>2026-04-26T09:32:40.698Z</time></trkpt><trkpt lat="45.6146505" lon="10.8619647"><ele>117.0</ele><time>2026-04-26T09:32:59.671Z</time></trkpt><trkpt lat="45.6115013" lon="10.8598318"><ele>115.0</ele><time>2026-04-26T09:33:18.682Z</time></trkpt><trkpt lat="45.6084722" lon="10.8572506"><ele>113.0</ele><time>2026-04-26T09:33:38.713Z</time></trkpt><trkpt lat="45.6054547" lon="10.8547046"><ele>115.0</ele><time>2026-04-26T09:33:59.725Z</time></trkpt><trkpt lat="45.6025249" lon="10.8522939"><ele>109.0</ele><time>2026-04-26T09:34:24.669Z</time></trkpt><trkpt lat="45.6002522" lon="10.8499267"><ele>103.0</ele><time>2026-04-26T09:35:59.714Z</time></trkpt><trkpt lat="45.599468" lon="10.8461856"><ele>101.0</ele><time>2026-04-26T09:36:48.712Z</time></trkpt><trkpt lat="45.5976109" lon="10.8449994"><ele>101.0</ele><time>2026-04-26T09:37:14.661Z</time></trkpt><trkpt lat="45.5962143" lon="10.8445039"><ele>102.0</ele><time>2026-04-26T09:37:49.699Z</time></trkpt><trkpt lat="45.5935017" lon="10.8450959"><ele>99.0</ele><time>2026-04-26T09:38:29.712Z</time></trkpt><trkpt lat="45.5924681" lon="10.8437833"><ele>101.0</ele><time>2026-04-26T09:38:57.683Z</time></trkpt><trkpt lat="45.5897121" lon="10.8442994"><ele>113.0</ele><time>2026-04-26T09:39:16.696Z</time></trkpt><trkpt lat="45.5875892" lon="10.8467221"><ele>111.0</ele><time>2026-04-26T09:42:47.722Z</time></trkpt><trkpt lat="45.585747" lon="10.8450736"><ele>110.0</ele><time>2026-04-26T09:43:03.742Z</time></trkpt><trkpt lat="45.5831938" lon="10.841791"><ele>107.0</ele><time>2026-04-26T09:43:22.65Z</time></trkpt><trkpt lat="45.5816239" lon="10.8374977"><ele>99.0</ele><time>2026-04-26T09:43:40.673Z</time></trkpt><trkpt lat="45.5809245" lon="10.8327564"><ele>101.0</ele><time>2026-04-26T09:44:41.657Z</time></trkpt><trkpt lat="45.5806098" lon="10.8289058"><ele>99.0</ele><time>2026-04-26T09:45:13.707Z</time></trkpt><trkpt lat="45.5807834" lon="10.8259426"><ele>99.0</ele><time>2026-04-26T09:45:41.711Z</time></trkpt><trkpt lat="45.5798339" lon="10.8233825"><ele>96.0</ele><time>2026-04-26T09:46:11.702Z</time></trkpt><trkpt lat="45.5772068" lon="10.8221455"><ele>95.0</ele><time>2026-04-26T09:46:40.741Z</time></trkpt><trkpt lat="45.5751995" lon="10.8215719"><ele>99.0</ele><time>2026-04-26T09:46:57.682Z</time></trkpt><trkpt lat="45.5726093" lon="10.8203391"><ele>96.0</ele><time>2026-04-26T09:47:21.699Z</time></trkpt><trkpt lat="45.5698756" lon="10.8201398"><ele>104.0</ele><time>2026-04-26T09:47:52.66Z</time></trkpt><trkpt lat="45.5716659" lon="10.8230581"><ele>118.0</ele><time>2026-04-26T09:48:43.664Z</time></trkpt><trkpt lat="45.5708272" lon="10.8257012"><ele>123.0</ele><time>2026-04-26T09:50:41.682Z</time></trkpt><trkpt lat="45.5688727" lon="10.8268108"><ele>241.0</ele><time>2026-04-26T09:51:04.665Z</time></trkpt><trkpt lat="45.5668084" lon="10.8263519"><ele>112.0</ele><time>2026-04-26T09:51:22.636Z</time></trkpt><trkpt lat="45.5640981" lon="10.8258939"><ele>118.0</ele><time>2026-04-26T09:51:42.671Z</time></trkpt><trkpt lat="45.5617548" lon="10.8280292"><ele>118.0</ele><time>2026-04-26T09:52:04.69Z</time></trkpt><trkpt lat="45.5597373" lon="10.8307484"><ele>118.0</ele><time>2026-04-26T09:52:24.676Z</time></trkpt><trkpt lat="45.5570823" lon="10.8317217"><ele>258.0</ele><time>2026-04-26T09:52:42.664Z</time></trkpt><trkpt lat="45.5544631" lon="10.8302294"><ele>122.0</ele><time>2026-04-26T09:53:01.692Z</time></trkpt><trkpt lat="45.5519526" lon="10.8284443"><ele>95.0</ele><time>2026-04-26T09:53:20.648Z</time></trkpt><trkpt lat="45.5501035" lon="10.8254762"><ele>99.0</ele><time>2026-04-26T09:53:39.701Z</time></trkpt><trkpt lat="45.547761" lon="10.8233144"><ele>106.0</ele><time>2026-04-26T09:53:59.724Z</time></trkpt><trkpt lat="45.5450291" lon="10.8229263"><ele>112.0</ele><time>2026-04-26T09:54:19.737Z</time></trkpt><trkpt lat="45.5422541" lon="10.8225993"><ele>112.0</ele><time>2026-04-26T09:54:39.718Z</time></trkpt><trkpt lat="45.5396355" lon="10.8212405"><ele>111.0</ele><time>2026-04-26T09:54:58.684Z</time></trkpt><trkpt lat="45.5365526" lon="10.8192388"><ele>111.0</ele><time>2026-04-26T09:55:20.672Z</time></trkpt><trkpt lat="45.5338697" lon="10.8182738"><ele>111.0</ele><time>2026-04-26T09:55:39.669Z</time></trkpt><trkpt lat="45.5310484" lon="10.8182557"><ele>111.0</ele><time>2026-04-26T09:55:58.663Z</time></trkpt><trkpt lat="45.528342" lon="10.8183153"><ele>116.0</ele><time>2026-04-26T09:56:17.724Z</time></trkpt><trkpt lat="45.5257291" lon="10.8193619"><ele>118.0</ele><time>2026-04-26T09:56:54.686Z</time></trkpt><trkpt lat="45.524507" lon="10.8216947"><ele>118.0</ele><time>2026-04-26T09:57:18.639Z</time></trkpt><trkpt lat="45.5224865" lon="10.822362"><ele>115.0</ele><time>2026-04-26T09:57:35.728Z</time></trkpt><trkpt lat="45.520418" lon="10.8224561"><ele>131.0</ele><time>2026-04-26T09:57:54.716Z</time></trkpt><trkpt lat="45.5183729" lon="10.8251049"><ele>141.0</ele><time>2026-04-26T09:58:37.728Z</time></trkpt><trkpt lat="45.5185545" lon="10.8290332"><ele>184.0</ele><time>2026-04-26T09:58:57.685Z</time></trkpt><trkpt lat="45.5204305" lon="10.8260911"><ele>199.0</ele><time>2026-04-26T09:59:52.665Z</time></trkpt><trkpt lat="45.5224562" lon="10.8261311"><ele>222.0</ele><time>2026-04-26T10:00:12.659Z</time></trkpt><trkpt lat="45.5252162" lon="10.8260708"><ele>235.0</ele><time>2026-04-26T10:00:37.724Z</time></trkpt><trkpt lat="45.5273469" lon="10.8262087"><ele>245.0</ele><time>2026-04-26T10:00:57.685Z</time></trkpt><trkpt lat="45.5300563" lon="10.8254005"><ele>263.0</ele><time>2026-04-26T10:01:19.633Z</time></trkpt><trkpt lat="45.532499" lon="10.8270832"><ele>251.0</ele><time>2026-04-26T10:01:49.738Z</time></trkpt><trkpt lat="45.5329584" lon="10.8299773"><ele>250.0</ele><time>2026-04-26T10:02:41.692Z</time></trkpt><trkpt lat="45.5316044" lon="10.8333013"><ele>275.0</ele><time>2026-04-26T10:03:05.701Z</time></trkpt><trkpt lat="45.5336519" lon="10.833506"><ele>284.0</ele><time>2026-04-26T10:04:05.638Z</time></trkpt><trkpt lat="45.5362411" lon="10.832264"><ele>295.0</ele><time>2026-04-26T10:04:27.72Z</time></trkpt><trkpt lat="45.5383803" lon="10.8323325"><ele>322.0</ele><time>2026-04-26T10:04:44.692Z</time></trkpt><trkpt lat="45.5408383" lon="10.8339868"><ele>336.0</ele><time>2026-04-26T10:05:05.651Z</time></trkpt><trkpt lat="45.5441801" lon="10.834754"><ele>326.0</ele><time>2026-04-26T10:05:32.649Z</time></trkpt><trkpt lat="45.5455549" lon="10.8351101"><ele>334.0</ele><time>2026-04-26T10:05:50.637Z</time></trkpt><trkpt lat="45.5475361" lon="10.8360476"><ele>326.0</ele><time>2026-04-26T10:06:09.672Z</time></trkpt><trkpt lat="45.5495333" lon="10.835328"><ele>328.0</ele><time>2026-04-26T10:06:46.711Z</time></trkpt><trkpt lat="45.5515444" lon="10.835808"><ele>336.0</ele><time>2026-04-26T10:07:10.696Z</time></trkpt><trkpt lat="45.5535703" lon="10.8362227"><ele>312.0</ele><time>2026-04-26T10:07:29.705Z</time></trkpt><trkpt lat="45.5554897" lon="10.8374066"><ele>331.0</ele><time>2026-04-26T10:07:51.707Z</time></trkpt><trkpt lat="45.5567887" lon="10.8396354"><ele>310.0</ele><time>2026-04-26T10:08:33.682Z</time></trkpt><trkpt lat="45.5577814" lon="10.8370815"><ele>324.0</ele><time>2026-04-26T10:09:17.73Z</time></trkpt><trkpt lat="45.5605107" lon="10.8375688"><ele>324.0</ele><time>2026-04-26T10:10:03.653Z</time></trkpt><trkpt lat="45.5618879" lon="10.8354029"><ele>336.0</ele><time>2026-04-26T10:10:42.727Z</time></trkpt><trkpt lat="45.5616734" lon="10.8373194"><ele>371.0</ele><time>2026-04-26T10:11:34.692Z</time></trkpt><trkpt lat="45.563478" lon="10.838842"><ele>421.0</ele><time>2026-04-26T10:11:57.705Z</time></trkpt><trkpt lat="45.565364" lon="10.8400229"><ele>445.0</ele><time>2026-04-26T10:12:28.646Z</time></trkpt><trkpt lat="45.5666556" lon="10.8406266"><ele>440.0</ele><time>2026-04-26T10:12:52.671Z</time></trkpt><trkpt lat="45.5670153" lon="10.8424844"><ele>446.0</ele><time>2026-04-26T10:13:59.711Z</time></trkpt><trkpt lat="45.5668576" lon="10.8454209"><ele>486.0</ele><time>2026-04-26T10:14:30.653Z</time></trkpt><trkpt lat="45.5680067" lon="10.8479297"><ele>503.0</ele><time>2026-04-26T10:14:51.64Z</time></trkpt><trkpt lat="45.5659602" lon="10.8487281"><ele>517.0</ele><time>2026-04-26T10:15:28.686Z</time></trkpt><trkpt lat="45.5638862" lon="10.8492954"><ele>500.0</ele><time>2026-04-26T10:15:49.663Z</time></trkpt><trkpt lat="45.5614599" lon="10.851115"><ele>485.0</ele><time>2026-04-26T10:16:23.719Z</time></trkpt><trkpt lat="45.5593913" lon="10.8515972"><ele>494.0</ele><time>2026-04-26T10:16:53.685Z</time></trkpt><trkpt lat="45.5574711" lon="10.8506162"><ele>504.0</ele><time>2026-04-26T10:17:18.7Z</time></trkpt><trkpt lat="45.5554449" lon="10.8507238"><ele>512.0</ele><time>2026-04-26T10:17:54.708Z</time></trkpt><trkpt lat="45.5544916" lon="10.849341"><ele>525.0</ele><time>2026-04-26T10:18:19.657Z</time></trkpt><trkpt lat="45.5530465" lon="10.8494088"><ele>541.0</ele><time>2026-04-26T10:18:58.668Z</time></trkpt><trkpt lat="45.5509894" lon="10.8497343"><ele>575.0</ele><time>2026-04-26T10:19:22.688Z</time></trkpt><trkpt lat="45.5499812" lon="10.8523237"><ele>589.0</ele><time>2026-04-26T10:20:12.643Z</time></trkpt><trkpt lat="45.5481366" lon="10.8536705"><ele>591.0</ele><time>2026-04-26T10:20:33.719Z</time></trkpt><trkpt lat="45.5470977" lon="10.8562415"><ele>561.0</ele><time>2026-04-26T10:20:57.694Z</time></trkpt><trkpt lat="45.5473621" lon="10.8592431"><ele>515.0</ele><time>2026-04-26T10:21:28.69Z</time></trkpt><trkpt lat="45.5448466" lon="10.8576362"><ele>522.0</ele><time>2026-04-26T10:22:52.67Z</time></trkpt><trkpt lat="45.5429229" lon="10.8566576"><ele>497.0</ele><time>2026-04-26T10:23:15.647Z</time></trkpt><trkpt lat="45.5409021" lon="10.8563895"><ele>482.0</ele><time>2026-04-26T10:23:35.688Z</time></trkpt><trkpt lat="45.5422007" lon="10.8586304"><ele>483.0</ele><time>2026-04-26T10:24:02.654Z</time></trkpt><trkpt lat="45.5442883" lon="10.8586329"><ele>469.0</ele><time>2026-04-26T10:24:24.653Z</time></trkpt><trkpt lat="45.545088" lon="10.8613184"><ele>465.0</ele><time>2026-04-26T10:24:45.701Z</time></trkpt><trkpt lat="45.5464098" lon="10.8636061"><ele>450.0</ele><time>2026-04-26T10:25:10.672Z</time></trkpt><trkpt lat="45.5475286" lon="10.8660356"><ele>444.0</ele><time>2026-04-26T10:25:43.738Z</time></trkpt><trkpt lat="45.5462332" lon="10.8667015"><ele>411.0</ele><time>2026-04-26T10:26:13.656Z</time></trkpt><trkpt lat="45.5438967" lon="10.864632"><ele>370.0</ele><time>2026-04-26T10:26:37.715Z</time></trkpt><trkpt lat="45.5419129" lon="10.8654296"><ele>350.0</ele><time>2026-04-26T10:27:50.721Z</time></trkpt><trkpt lat="45.5407912" lon="10.866539"><ele>312.0</ele><time>2026-04-26T10:28:30.68Z</time></trkpt><trkpt lat="45.5394407" lon="10.8671455"><ele>293.0</ele><time>2026-04-26T10:28:47.681Z</time></trkpt><trkpt lat="45.5373148" lon="10.8674985"><ele>251.0</ele><time>2026-04-26T10:29:05.695Z</time></trkpt><trkpt lat="45.5346708" lon="10.8685568"><ele>243.0</ele><time>2026-04-26T10:29:38.716Z</time></trkpt><trkpt lat="45.5338317" lon="10.8658684"><ele>211.0</ele><time>2026-04-26T10:30:14.661Z</time></trkpt><trkpt lat="45.5312819" lon="10.8642681"><ele>192.0</ele><time>2026-04-26T10:30:37.673Z</time></trkpt><trkpt lat="45.529567" lon="10.861242"><ele>181.0</ele><time>2026-04-26T10:31:12.704Z</time></trkpt><trkpt lat="45.5285485" lon="10.8625711"><ele>167.0</ele><time>2026-04-26T10:31:37.718Z</time></trkpt><trkpt lat="45.5266371" lon="10.863649"><ele>154.0</ele><time>2026-04-26T10:31:53.739Z</time></trkpt><trkpt lat="45.524161" lon="10.8654618"><ele>148.0</ele><time>2026-04-26T10:32:12.686Z</time></trkpt><trkpt lat="45.5220821" lon="10.8630066"><ele>138.0</ele><time>2026-04-26T10:32:45.649Z</time></trkpt><trkpt lat="45.5197012" lon="10.8611716"><ele>135.0</ele><time>2026-04-26T10:33:17.667Z</time></trkpt><trkpt lat="45.5172649" lon="10.8594593"><ele>134.0</ele><time>2026-04-26T10:33:35.661Z</time></trkpt><trkpt lat="45.5148911" lon="10.857606"><ele>134.0</ele><time>2026-04-26T10:33:59.72Z</time></trkpt><trkpt lat="45.5138085" lon="10.8563582"><ele>133.0</ele><time>2026-04-26T10:34:13.696Z</time></trkpt><trkpt lat="45.5121385" lon="10.8532969"><ele>116.0</ele><time>2026-04-26T10:34:44.69Z</time></trkpt><trkpt lat="45.5102591" lon="10.8520265"><ele>118.0</ele><time>2026-04-26T10:35:01.68Z</time></trkpt><trkpt lat="45.5076418" lon="10.8510139"><ele>117.0</ele><time>2026-04-26T10:35:19.656Z</time></trkpt><trkpt lat="45.5049585" lon="10.8499982"><ele>119.0</ele><time>2026-04-26T10:35:38.682Z</time></trkpt><trkpt lat="45.5052892" lon="10.8460989"><ele>118.0</ele><time>2026-04-26T10:36:13.719Z</time></trkpt><trkpt lat="45.5064092" lon="10.8425763"><ele>119.0</ele><time>2026-04-26T10:36:39.741Z</time></trkpt><trkpt lat="45.5068373" lon="10.8397581"><ele>123.0</ele><time>2026-04-26T10:36:54.659Z</time></trkpt><trkpt lat="45.5073942" lon="10.8359953"><ele>120.0</ele><time>2026-04-26T10:37:12.658Z</time></trkpt><trkpt lat="45.5081758" lon="10.8322934"><ele>117.0</ele><time>2026-04-26T10:37:30.651Z</time></trkpt><trkpt lat="45.5097108" lon="10.8291094"><ele>116.0</ele><time>2026-04-26T10:37:47.724Z</time></trkpt><trkpt lat="45.5119514" lon="10.826733"><ele>112.0</ele><time>2026-04-26T10:38:05.659Z</time></trkpt><trkpt lat="45.5102003" lon="10.8236071"><ele>110.0</ele><time>2026-04-26T10:38:58.696Z</time></trkpt><trkpt lat="45.5106335" lon="10.819677"><ele>113.0</ele><time>2026-04-26T10:39:29.709Z</time></trkpt><trkpt lat="45.5114122" lon="10.8169757"><ele>114.0</ele><time>2026-04-26T10:39:51.724Z</time></trkpt><trkpt lat="45.5122456" lon="10.8142786"><ele>116.0</ele><time>2026-04-26T10:40:15.711Z</time></trkpt><trkpt lat="45.5121008" lon="10.8122078"><ele>116.0</ele><time>2026-04-26T10:40:31.734Z</time></trkpt><trkpt lat="45.5147397" lon="10.8111357"><ele>119.0</ele><time>2026-04-26T10:41:06.663Z</time></trkpt><trkpt lat="45.5173813" lon="10.8120673"><ele>112.0</ele><time>2026-04-26T10:41:26.651Z</time></trkpt><trkpt lat="45.5208259" lon="10.8118105"><ele>111.0</ele><time>2026-04-26T10:41:59.642Z</time></trkpt><trkpt lat="45.5228992" lon="10.8118446"><ele>110.0</ele><time>2026-04-26T10:42:17.68Z</time></trkpt><trkpt lat="45.5225611" lon="10.8078364"><ele>98.0</ele><time>2026-04-26T10:43:02.708Z</time></trkpt><trkpt lat="45.5229802" lon="10.8029637"><ele>99.0</ele><time>2026-04-26T10:43:26.735Z</time></trkpt><trkpt lat="45.5248591" lon="10.8016164"><ele>107.0</ele><time>2026-04-26T10:43:44.7Z</time></trkpt><trkpt lat="45.5274441" lon="10.8004167"><ele>121.0</ele><time>2026-04-26T10:44:09.699Z</time></trkpt><trkpt lat="45.5300841" lon="10.8016811"><ele>142.0</ele><time>2026-04-26T10:44:26.637Z</time></trkpt><trkpt lat="45.5334749" lon="10.8017608"><ele>147.0</ele><time>2026-04-26T10:44:50.671Z</time></trkpt><trkpt lat="45.5362825" lon="10.8021408"><ele>156.0</ele><time>2026-04-26T10:45:08.668Z</time></trkpt><trkpt lat="45.5397065" lon="10.801809"><ele>165.0</ele><time>2026-04-26T10:45:30.65Z</time></trkpt><trkpt lat="45.5419585" lon="10.7996413"><ele>173.0</ele><time>2026-04-26T10:46:03.657Z</time></trkpt><trkpt lat="45.5435844" lon="10.7964908"><ele>180.0</ele><time>2026-04-26T10:46:33.664Z</time></trkpt><trkpt lat="45.546029" lon="10.7947549"><ele>182.0</ele><time>2026-04-26T10:47:10.682Z</time></trkpt><trkpt lat="45.547573" lon="10.7927811"><ele>186.0</ele><time>2026-04-26T10:47:43.724Z</time></trkpt><trkpt lat="45.5496015" lon="10.7926947"><ele>186.0</ele><time>2026-04-26T10:48:08.744Z</time></trkpt><trkpt lat="45.5508052" lon="10.7951082"><ele>186.0</ele><time>2026-04-26T10:48:35.728Z</time></trkpt><trkpt lat="45.5508321" lon="10.7980017"><ele>187.0</ele><time>2026-04-26T10:48:59.743Z</time></trkpt><trkpt lat="45.5521614" lon="10.8003105"><ele>172.0</ele><time>2026-04-26T10:49:29.699Z</time></trkpt><trkpt lat="45.5540246" lon="10.8031141"><ele>178.0</ele><time>2026-04-26T10:50:40.736Z</time></trkpt><trkpt lat="45.5561199" lon="10.8028399"><ele>185.0</ele><time>2026-04-26T10:51:08.653Z</time></trkpt><trkpt lat="45.5590372" lon="10.8000659"><ele>186.0</ele><time>2026-04-26T10:51:29.704Z</time></trkpt><trkpt lat="45.561771" lon="10.8001041"><ele>191.0</ele><time>2026-04-26T10:51:45.665Z</time></trkpt><trkpt lat="45.5650727" lon="10.8017964"><ele>191.0</ele><time>2026-04-26T10:52:05.69Z</time></trkpt><trkpt lat="45.5685343" lon="10.8021463"><ele>197.0</ele><time>2026-04-26T10:52:25.684Z</time></trkpt><trkpt lat="45.5707223" lon="10.799775"><ele>206.0</ele><time>2026-04-26T10:53:04.688Z</time></trkpt><trkpt lat="45.5725455" lon="10.7983813"><ele>211.0</ele><time>2026-04-26T10:53:24.696Z</time></trkpt><trkpt lat="45.5750634" lon="10.7966684"><ele>202.0</ele><time>2026-04-26T10:53:50.72Z</time></trkpt><trkpt lat="45.5765656" lon="10.7933604"><ele>209.0</ele><time>2026-04-26T10:54:24.658Z</time></trkpt><trkpt lat="45.5756616" lon="10.789712"><ele>224.0</ele><time>2026-04-26T10:54:44.673Z</time></trkpt><trkpt lat="45.575628" lon="10.7856878"><ele>227.0</ele><time>2026-04-26T10:55:03.683Z</time></trkpt><trkpt lat="45.5752757" lon="10.7818563"><ele>222.0</ele><time>2026-04-26T10:55:21.749Z</time></trkpt><trkpt lat="45.5746032" lon="10.7779095"><ele>218.0</ele><time>2026-04-26T10:55:42.712Z</time></trkpt><trkpt lat="45.5769064" lon="10.7742981"><ele>225.0</ele><time>2026-04-26T10:56:49.676Z</time></trkpt><trkpt lat="45.5795779" lon="10.7750293"><ele>230.0</ele><time>2026-04-26T10:57:07.696Z</time></trkpt><trkpt lat="45.5822463" lon="10.7758188"><ele>225.0</ele><time>2026-04-26T10:57:28.742Z</time></trkpt><trkpt lat="45.5831356" lon="10.7730527"><ele>216.0</ele><time>2026-04-26T10:57:46.727Z</time></trkpt><trkpt lat="45.5838493" lon="10.7691977"><ele>213.0</ele><time>2026-04-26T10:58:06.736Z</time></trkpt><trkpt lat="45.5851221" lon="10.7657776"><ele>211.0</ele><time>2026-04-26T10:58:29.717Z</time></trkpt><trkpt lat="45.5870077" lon="10.7628985"><ele>209.0</ele><time>2026-04-26T10:58:50.775Z</time></trkpt><trkpt lat="45.5875511" lon="10.7600774"><ele>211.0</ele><time>2026-04-26T10:59:07.696Z</time></trkpt><trkpt lat="45.585396" lon="10.7575499"><ele>210.0</ele><time>2026-04-26T10:59:37.782Z</time></trkpt><trkpt lat="45.5834721" lon="10.7547096"><ele>215.0</ele><time>2026-04-26T11:00:05.686Z</time></trkpt><trkpt lat="45.5836581" lon="10.751729"><ele>221.0</ele><time>2026-04-26T11:00:34.697Z</time></trkpt><trkpt lat="45.5856719" lon="10.7491416"><ele>221.0</ele><time>2026-04-26T11:00:55.724Z</time></trkpt></trkseg></trk></gpx>